<?xml version="1.0" encoding="UTF-8"?>
<gpx version="1.1" creator="2bulu-scraper" xmlns="http://www.topografix.com/GPX/1/1">
  <metadata><name>峨眉山后山到前山</name><desc>source: 2bulu.com trackId=79058070; exported 2026-09-01T15:58:57.185Z</desc>
    <bounds minlat="29.4566637" minlon="103.2812407" maxlat="29.5743586" maxlon="103.440911"/>
    <link href="https://www.2bulu.com/track/t-cKqvRCbxHi3p%252FR2KBg5Tzw%253D%253D.htm"><text>2bulu 源页面</text></link>
  </metadata>
  <wpt lat="29.4604985" lon="103.282196"><ele>1634</ele><name>
        </name></wpt>
  <wpt lat="29.4807149" lon="103.2846779"><ele>1801</ele><name>
        </name></wpt>
  <wpt lat="29.4834294" lon="103.2843362"><ele>1794</ele><name>
        </name></wpt>
  <wpt lat="29.5027557" lon="103.2887189"><ele>2041</ele><name>
        </name></wpt>
  <wpt lat="29.5061148" lon="103.2927462"><ele>2106</ele><name>
        </name></wpt>
  <wpt lat="29.5060057" lon="103.2933969"><ele>2119</ele><name>
        </name></wpt>
  <wpt lat="29.5060057" lon="103.2933969"><ele>2119</ele><name>
        </name></wpt>
  <wpt lat="29.5050046" lon="103.304646"><ele>2308</ele><name>
        </name></wpt>
  <wpt lat="29.5046331" lon="103.3061535"><ele>2323</ele><name>
        </name></wpt>
  <wpt lat="29.5044681" lon="103.3065737"><ele>2349</ele><name>
        </name></wpt>
  <wpt lat="29.5031711" lon="103.3110914"><ele>2560</ele><name>
        </name></wpt>
  <wpt lat="29.5052663" lon="103.3173046"><ele>2729</ele><name>
        </name></wpt>
  <wpt lat="29.5068735" lon="103.3233725"><ele>2893</ele><name>
        </name></wpt>
  <wpt lat="29.5071459" lon="103.3246235"><ele>2887</ele><name>
        </name></wpt>
  <wpt lat="29.5099917" lon="103.3315754"><ele>3040</ele><name>
        </name></wpt>
  <wpt lat="29.5101626" lon="103.3322944"><ele>3062</ele><name>
        </name></wpt>
  <wpt lat="29.5121135" lon="103.3327584"><ele>3036</ele><name>
        </name></wpt>
  <wpt lat="29.5225952" lon="103.3360131"><ele>3014</ele><name>
        </name></wpt>
  <wpt lat="29.5401436" lon="103.3321328"><ele>2399</ele><name>雷东坪 车站里面有热水
        </name></wpt>
  <wpt lat="29.5471412" lon="103.3401062"><ele>2336</ele><name>
        </name></wpt>
  <wpt lat="29.5577453" lon="103.3437431"><ele>2051</ele><name>
        </name></wpt>
  <wpt lat="29.5587119" lon="103.3442186"><ele>2022</ele><name>
        </name></wpt>
  <wpt lat="29.5605901" lon="103.351596"><ele>1658</ele><name>遇仙寺19.10
        </name></wpt>
  <wpt lat="29.5519023" lon="103.354038"><ele>1649</ele><name>休息
        </name></wpt>
  <wpt lat="29.549977" lon="103.3568427"><ele>1689</ele><name>
        </name></wpt>
  <wpt lat="29.5499417" lon="103.3569765"><ele>1705</ele><name>
        </name></wpt>
  <wpt lat="29.5548395" lon="103.3844947"><ele>946</ele><name>洪椿坪
        </name></wpt>
  <wpt lat="29.5690875" lon="103.440911"><ele>484</ele><name>
        </name></wpt>
  <trk><name>峨眉山后山到前山</name>
      <trkseg>
        <trkpt lat="29.4566831" lon="103.2812407"><ele>1599.3</ele><time>2026-02-09T15:17:04.000Z</time></trkpt>
        <trkpt lat="29.4566789" lon="103.2813565"><ele>1599.3</ele><time>2026-02-09T15:17:42.000Z</time></trkpt>
        <trkpt lat="29.4567002" lon="103.2814832"><ele>1599.43</ele><time>2026-02-09T15:17:54.000Z</time></trkpt>
        <trkpt lat="29.4566637" lon="103.2814366"><ele>1598.82</ele><time>2026-02-09T15:18:08.000Z</time></trkpt>
        <trkpt lat="29.456667" lon="103.2813516"><ele>1598.57</ele><time>2026-02-09T15:18:18.000Z</time></trkpt>
        <trkpt lat="29.4566684" lon="103.2813994"><ele>1598.3</ele><time>2026-02-09T15:18:35.000Z</time></trkpt>
        <trkpt lat="29.4566893" lon="103.281493"><ele>1597.28</ele><time>2026-02-09T15:18:43.000Z</time></trkpt>
        <trkpt lat="29.4566893" lon="103.281493"><ele>1597.28</ele><time>2026-02-09T15:18:57.000Z</time></trkpt>
        <trkpt lat="29.4567088" lon="103.2816174"><ele>1599.63</ele><time>2026-02-09T15:19:06.000Z</time></trkpt>
        <trkpt lat="29.4567088" lon="103.2816174"><ele>1599.63</ele><time>2026-02-09T15:19:17.000Z</time></trkpt>
        <trkpt lat="29.4567735" lon="103.2817145"><ele>1598.42</ele><time>2026-02-09T15:19:24.000Z</time></trkpt>
        <trkpt lat="29.4568674" lon="103.2817211"><ele>1598.38</ele><time>2026-02-09T15:19:36.000Z</time></trkpt>
        <trkpt lat="29.4569626" lon="103.2816653"><ele>1599.73</ele><time>2026-02-09T15:19:48.000Z</time></trkpt>
        <trkpt lat="29.4570404" lon="103.2817015"><ele>1600.79</ele><time>2026-02-09T15:19:59.000Z</time></trkpt>
        <trkpt lat="29.4570956" lon="103.2817932"><ele>1603.67</ele><time>2026-02-09T15:20:07.000Z</time></trkpt>
        <trkpt lat="29.4571744" lon="103.2818416"><ele>1605.67</ele><time>2026-02-09T15:20:18.000Z</time></trkpt>
        <trkpt lat="29.4572705" lon="103.2818055"><ele>1607.32</ele><time>2026-02-09T15:20:28.000Z</time></trkpt>
        <trkpt lat="29.4573714" lon="103.2818323"><ele>1605.81</ele><time>2026-02-09T15:20:41.000Z</time></trkpt>
        <trkpt lat="29.4574657" lon="103.2818519"><ele>1605.7</ele><time>2026-02-09T15:21:00.000Z</time></trkpt>
        <trkpt lat="29.4574949" lon="103.2817701"><ele>1606.19</ele><time>2026-02-09T15:21:18.000Z</time></trkpt>
        <trkpt lat="29.4575482" lon="103.2816742"><ele>1606.76</ele><time>2026-02-09T15:21:33.000Z</time></trkpt>
        <trkpt lat="29.4576316" lon="103.2816026"><ele>1611.35</ele><time>2026-02-09T15:21:47.000Z</time></trkpt>
        <trkpt lat="29.4577184" lon="103.2815388"><ele>1612.43</ele><time>2026-02-09T15:21:56.000Z</time></trkpt>
        <trkpt lat="29.4578012" lon="103.2814824"><ele>1613.9</ele><time>2026-02-09T15:22:04.000Z</time></trkpt>
        <trkpt lat="29.4578958" lon="103.2814242"><ele>1614.85</ele><time>2026-02-09T15:22:12.000Z</time></trkpt>
        <trkpt lat="29.4579947" lon="103.2813573"><ele>1615.83</ele><time>2026-02-09T15:22:20.000Z</time></trkpt>
        <trkpt lat="29.4580933" lon="103.2813094"><ele>1616.36</ele><time>2026-02-09T15:22:28.000Z</time></trkpt>
        <trkpt lat="29.4581903" lon="103.2813005"><ele>1616.8</ele><time>2026-02-09T15:22:36.000Z</time></trkpt>
        <trkpt lat="29.4582843" lon="103.2813091"><ele>1616.85</ele><time>2026-02-09T15:22:44.000Z</time></trkpt>
        <trkpt lat="29.4583819" lon="103.2813263"><ele>1617.01</ele><time>2026-02-09T15:22:52.000Z</time></trkpt>
        <trkpt lat="29.4584863" lon="103.2813417"><ele>1616.82</ele><time>2026-02-09T15:23:02.000Z</time></trkpt>
        <trkpt lat="29.4585882" lon="103.2813615"><ele>1616.57</ele><time>2026-02-09T15:23:12.000Z</time></trkpt>
        <trkpt lat="29.4586785" lon="103.2813926"><ele>1617.11</ele><time>2026-02-09T15:23:20.000Z</time></trkpt>
        <trkpt lat="29.4587679" lon="103.2814266"><ele>1617.53</ele><time>2026-02-09T15:23:30.000Z</time></trkpt>
        <trkpt lat="29.4588582" lon="103.2814919"><ele>1617.46</ele><time>2026-02-09T15:23:40.000Z</time></trkpt>
        <trkpt lat="29.4589377" lon="103.2815755"><ele>1617.08</ele><time>2026-02-09T15:23:50.000Z</time></trkpt>
        <trkpt lat="29.4590187" lon="103.2816456"><ele>1616.22</ele><time>2026-02-09T15:23:58.000Z</time></trkpt>
        <trkpt lat="29.4590977" lon="103.2817167"><ele>1615.61</ele><time>2026-02-09T15:24:08.000Z</time></trkpt>
        <trkpt lat="29.4591753" lon="103.2817742"><ele>1615.72</ele><time>2026-02-09T15:24:16.000Z</time></trkpt>
        <trkpt lat="29.4592698" lon="103.2817977"><ele>1616.13</ele><time>2026-02-09T15:24:26.000Z</time></trkpt>
        <trkpt lat="29.4593609" lon="103.2817717"><ele>1618.44</ele><time>2026-02-09T15:24:32.000Z</time></trkpt>
        <trkpt lat="29.4594555" lon="103.2817132"><ele>1622.41</ele><time>2026-02-09T15:24:44.000Z</time></trkpt>
        <trkpt lat="29.4595493" lon="103.281682"><ele>1623.3</ele><time>2026-02-09T15:24:50.000Z</time></trkpt>
        <trkpt lat="29.4596449" lon="103.2816864"><ele>1624.44</ele><time>2026-02-09T15:24:57.000Z</time></trkpt>
        <trkpt lat="29.4597419" lon="103.2816885"><ele>1626.85</ele><time>2026-02-09T15:25:06.000Z</time></trkpt>
        <trkpt lat="29.459842" lon="103.2817274"><ele>1628.28</ele><time>2026-02-09T15:25:14.000Z</time></trkpt>
        <trkpt lat="29.4599333" lon="103.2817783"><ele>1630.85</ele><time>2026-02-09T15:25:22.000Z</time></trkpt>
        <trkpt lat="29.4600262" lon="103.2818234"><ele>1632.12</ele><time>2026-02-09T15:25:32.000Z</time></trkpt>
        <trkpt lat="29.4601165" lon="103.2818666"><ele>1632.58</ele><time>2026-02-09T15:25:42.000Z</time></trkpt>
        <trkpt lat="29.4602102" lon="103.2819224"><ele>1632.87</ele><time>2026-02-09T15:25:52.000Z</time></trkpt>
        <trkpt lat="29.4602913" lon="103.2819879"><ele>1633.48</ele><time>2026-02-09T15:26:02.000Z</time></trkpt>
        <trkpt lat="29.460359" lon="103.2820613"><ele>1633.39</ele><time>2026-02-09T15:26:10.000Z</time></trkpt>
        <trkpt lat="29.4604258" lon="103.2821308"><ele>1633.41</ele><time>2026-02-09T15:26:18.000Z</time></trkpt>
        <trkpt lat="29.4604985" lon="103.282196"><ele>1633.17</ele><time>2026-02-09T15:26:26.000Z</time></trkpt>
        <trkpt lat="29.4605802" lon="103.2822616"><ele>1633.74</ele><time>2026-02-09T15:26:53.000Z</time></trkpt>
        <trkpt lat="29.4606742" lon="103.2823192"><ele>1636.15</ele><time>2026-02-09T15:27:02.000Z</time></trkpt>
        <trkpt lat="29.4607688" lon="103.282368"><ele>1637.16</ele><time>2026-02-09T15:27:12.000Z</time></trkpt>
        <trkpt lat="29.4608672" lon="103.2824158"><ele>1636.59</ele><time>2026-02-09T15:27:22.000Z</time></trkpt>
        <trkpt lat="29.4609636" lon="103.2824425"><ele>1635.85</ele><time>2026-02-09T15:27:30.000Z</time></trkpt>
        <trkpt lat="29.4610568" lon="103.2824764"><ele>1635.18</ele><time>2026-02-09T15:27:38.000Z</time></trkpt>
        <trkpt lat="29.4611509" lon="103.2825205"><ele>1634.89</ele><time>2026-02-09T15:27:46.000Z</time></trkpt>
        <trkpt lat="29.4612419" lon="103.2825758"><ele>1634.75</ele><time>2026-02-09T15:27:54.000Z</time></trkpt>
        <trkpt lat="29.4613218" lon="103.2826368"><ele>1634.75</ele><time>2026-02-09T15:28:02.000Z</time></trkpt>
        <trkpt lat="29.4614037" lon="103.2826996"><ele>1634.73</ele><time>2026-02-09T15:28:10.000Z</time></trkpt>
        <trkpt lat="29.4614859" lon="103.28275"><ele>1635.24</ele><time>2026-02-09T15:28:18.000Z</time></trkpt>
        <trkpt lat="29.4615711" lon="103.2827947"><ele>1636.16</ele><time>2026-02-09T15:28:26.000Z</time></trkpt>
        <trkpt lat="29.4616666" lon="103.2828484"><ele>1637.01</ele><time>2026-02-09T15:28:34.000Z</time></trkpt>
        <trkpt lat="29.4617501" lon="103.2829093"><ele>1637.69</ele><time>2026-02-09T15:28:42.000Z</time></trkpt>
        <trkpt lat="29.4618259" lon="103.2829736"><ele>1638.11</ele><time>2026-02-09T15:28:50.000Z</time></trkpt>
        <trkpt lat="29.4619088" lon="103.2830367"><ele>1639.13</ele><time>2026-02-09T15:29:00.000Z</time></trkpt>
        <trkpt lat="29.461995" lon="103.283087"><ele>1640.36</ele><time>2026-02-09T15:29:08.000Z</time></trkpt>
        <trkpt lat="29.462083" lon="103.2831343"><ele>1641.35</ele><time>2026-02-09T15:29:16.000Z</time></trkpt>
        <trkpt lat="29.4621557" lon="103.2832024"><ele>1642.65</ele><time>2026-02-09T15:29:24.000Z</time></trkpt>
        <trkpt lat="29.462177" lon="103.2833093"><ele>1644.02</ele><time>2026-02-09T15:29:32.000Z</time></trkpt>
        <trkpt lat="29.4621634" lon="103.2834324"><ele>1645.29</ele><time>2026-02-09T15:29:40.000Z</time></trkpt>
        <trkpt lat="29.4621869" lon="103.283548"><ele>1646.22</ele><time>2026-02-09T15:29:48.000Z</time></trkpt>
        <trkpt lat="29.4622619" lon="103.2836012"><ele>1647.04</ele><time>2026-02-09T15:29:56.000Z</time></trkpt>
        <trkpt lat="29.4623602" lon="103.2836258"><ele>1647.94</ele><time>2026-02-09T15:30:04.000Z</time></trkpt>
        <trkpt lat="29.4624583" lon="103.2836578"><ele>1649.27</ele><time>2026-02-09T15:30:12.000Z</time></trkpt>
        <trkpt lat="29.4625609" lon="103.2836518"><ele>1650.59</ele><time>2026-02-09T15:30:22.000Z</time></trkpt>
        <trkpt lat="29.4626523" lon="103.2836148"><ele>1651.88</ele><time>2026-02-09T15:30:30.000Z</time></trkpt>
        <trkpt lat="29.4627369" lon="103.2835621"><ele>1653.11</ele><time>2026-02-09T15:30:38.000Z</time></trkpt>
        <trkpt lat="29.4628404" lon="103.2835005"><ele>1653.9</ele><time>2026-02-09T15:30:47.000Z</time></trkpt>
        <trkpt lat="29.4629437" lon="103.2834822"><ele>1655.36</ele><time>2026-02-09T15:30:57.000Z</time></trkpt>
        <trkpt lat="29.4630586" lon="103.2834566"><ele>1657.55</ele><time>2026-02-09T15:31:05.000Z</time></trkpt>
        <trkpt lat="29.4631691" lon="103.2834546"><ele>1660.23</ele><time>2026-02-09T15:31:16.000Z</time></trkpt>
        <trkpt lat="29.4632791" lon="103.2834429"><ele>1659.45</ele><time>2026-02-09T15:31:26.000Z</time></trkpt>
        <trkpt lat="29.4633824" lon="103.2834514"><ele>1658.28</ele><time>2026-02-09T15:31:34.000Z</time></trkpt>
        <trkpt lat="29.4634866" lon="103.2834662"><ele>1657.76</ele><time>2026-02-09T15:31:42.000Z</time></trkpt>
        <trkpt lat="29.4635798" lon="103.2835025"><ele>1657.89</ele><time>2026-02-09T15:31:50.000Z</time></trkpt>
        <trkpt lat="29.4636646" lon="103.2835496"><ele>1658.16</ele><time>2026-02-09T15:31:58.000Z</time></trkpt>
        <trkpt lat="29.463735" lon="103.283626"><ele>1658.94</ele><time>2026-02-09T15:32:06.000Z</time></trkpt>
        <trkpt lat="29.4638012" lon="103.2837278"><ele>1659.64</ele><time>2026-02-09T15:32:16.000Z</time></trkpt>
        <trkpt lat="29.4638713" lon="103.2838171"><ele>1660.24</ele><time>2026-02-09T15:32:24.000Z</time></trkpt>
        <trkpt lat="29.4639523" lon="103.2838769"><ele>1661.47</ele><time>2026-02-09T15:32:32.000Z</time></trkpt>
        <trkpt lat="29.4640405" lon="103.2839262"><ele>1662.76</ele><time>2026-02-09T15:32:40.000Z</time></trkpt>
        <trkpt lat="29.4641425" lon="103.2839629"><ele>1664.21</ele><time>2026-02-09T15:32:48.000Z</time></trkpt>
        <trkpt lat="29.4642387" lon="103.2840182"><ele>1665.71</ele><time>2026-02-09T15:32:58.000Z</time></trkpt>
        <trkpt lat="29.4643281" lon="103.2840938"><ele>1666.67</ele><time>2026-02-09T15:33:08.000Z</time></trkpt>
        <trkpt lat="29.4644132" lon="103.2841774"><ele>1667.09</ele><time>2026-02-09T15:33:18.000Z</time></trkpt>
        <trkpt lat="29.4644964" lon="103.2842389"><ele>1667.24</ele><time>2026-02-09T15:33:26.000Z</time></trkpt>
        <trkpt lat="29.4645823" lon="103.2842708"><ele>1667.48</ele><time>2026-02-09T15:33:34.000Z</time></trkpt>
        <trkpt lat="29.4646803" lon="103.284283"><ele>1667.54</ele><time>2026-02-09T15:33:42.000Z</time></trkpt>
        <trkpt lat="29.4647813" lon="103.2842877"><ele>1667.49</ele><time>2026-02-09T15:33:50.000Z</time></trkpt>
        <trkpt lat="29.4648773" lon="103.2842924"><ele>1667.99</ele><time>2026-02-09T15:33:58.000Z</time></trkpt>
        <trkpt lat="29.4649718" lon="103.2843015"><ele>1668.78</ele><time>2026-02-09T15:34:06.000Z</time></trkpt>
        <trkpt lat="29.4650729" lon="103.2843155"><ele>1669.02</ele><time>2026-02-09T15:34:14.000Z</time></trkpt>
        <trkpt lat="29.465183" lon="103.2843319"><ele>1669.25</ele><time>2026-02-09T15:34:23.000Z</time></trkpt>
        <trkpt lat="29.4652862" lon="103.2843365"><ele>1669.69</ele><time>2026-02-09T15:34:31.000Z</time></trkpt>
        <trkpt lat="29.4653925" lon="103.2843363"><ele>1671.25</ele><time>2026-02-09T15:34:41.000Z</time></trkpt>
        <trkpt lat="29.465487" lon="103.2842819"><ele>1673.11</ele><time>2026-02-09T15:34:49.000Z</time></trkpt>
        <trkpt lat="29.4655727" lon="103.2842143"><ele>1674.92</ele><time>2026-02-09T15:35:00.000Z</time></trkpt>
        <trkpt lat="29.4656502" lon="103.284131"><ele>1676.15</ele><time>2026-02-09T15:35:08.000Z</time></trkpt>
        <trkpt lat="29.4657507" lon="103.2840743"><ele>1674.67</ele><time>2026-02-09T15:35:18.000Z</time></trkpt>
        <trkpt lat="29.4658626" lon="103.2840626"><ele>1673.89</ele><time>2026-02-09T15:35:28.000Z</time></trkpt>
        <trkpt lat="29.4659602" lon="103.2840929"><ele>1672.81</ele><time>2026-02-09T15:35:34.000Z</time></trkpt>
        <trkpt lat="29.4660677" lon="103.2841132"><ele>1672.81</ele><time>2026-02-09T15:35:42.000Z</time></trkpt>
        <trkpt lat="29.4661716" lon="103.2841133"><ele>1674.01</ele><time>2026-02-09T15:35:52.000Z</time></trkpt>
        <trkpt lat="29.4662759" lon="103.2841364"><ele>1675.19</ele><time>2026-02-09T15:36:02.000Z</time></trkpt>
        <trkpt lat="29.4663686" lon="103.2841717"><ele>1676.19</ele><time>2026-02-09T15:36:10.000Z</time></trkpt>
        <trkpt lat="29.4664615" lon="103.2841632"><ele>1676.99</ele><time>2026-02-09T15:36:18.000Z</time></trkpt>
        <trkpt lat="29.4665505" lon="103.2841448"><ele>1677.92</ele><time>2026-02-09T15:36:26.000Z</time></trkpt>
        <trkpt lat="29.4666376" lon="103.2841181"><ele>1678.62</ele><time>2026-02-09T15:36:34.000Z</time></trkpt>
        <trkpt lat="29.4667391" lon="103.2840923"><ele>1679.89</ele><time>2026-02-09T15:36:43.000Z</time></trkpt>
        <trkpt lat="29.4668384" lon="103.2840827"><ele>1681.21</ele><time>2026-02-09T15:36:52.000Z</time></trkpt>
        <trkpt lat="29.4669329" lon="103.2841173"><ele>1682.47</ele><time>2026-02-09T15:37:00.000Z</time></trkpt>
        <trkpt lat="29.4670107" lon="103.2841897"><ele>1683.64</ele><time>2026-02-09T15:37:08.000Z</time></trkpt>
        <trkpt lat="29.4670888" lon="103.284274"><ele>1684.81</ele><time>2026-02-09T15:37:18.000Z</time></trkpt>
        <trkpt lat="29.4671873" lon="103.2843105"><ele>1685.55</ele><time>2026-02-09T15:37:28.000Z</time></trkpt>
        <trkpt lat="29.4672854" lon="103.2842894"><ele>1686.08</ele><time>2026-02-09T15:37:36.000Z</time></trkpt>
        <trkpt lat="29.467379" lon="103.284259"><ele>1687.21</ele><time>2026-02-09T15:37:44.000Z</time></trkpt>
        <trkpt lat="29.467484" lon="103.2842351"><ele>1688.74</ele><time>2026-02-09T15:37:54.000Z</time></trkpt>
        <trkpt lat="29.4675928" lon="103.2842237"><ele>1690.2</ele><time>2026-02-09T15:38:04.000Z</time></trkpt>
        <trkpt lat="29.4676934" lon="103.2842295"><ele>1691.56</ele><time>2026-02-09T15:38:11.000Z</time></trkpt>
        <trkpt lat="29.467787" lon="103.2842872"><ele>1693.36</ele><time>2026-02-09T15:38:19.000Z</time></trkpt>
        <trkpt lat="29.4678658" lon="103.2843739"><ele>1694.66</ele><time>2026-02-09T15:38:30.000Z</time></trkpt>
        <trkpt lat="29.4679461" lon="103.2844576"><ele>1695.73</ele><time>2026-02-09T15:38:40.000Z</time></trkpt>
        <trkpt lat="29.4680112" lon="103.2845497"><ele>1696.53</ele><time>2026-02-09T15:38:50.000Z</time></trkpt>
        <trkpt lat="29.4680777" lon="103.2846501"><ele>1697.7</ele><time>2026-02-09T15:39:02.000Z</time></trkpt>
        <trkpt lat="29.4681716" lon="103.2846945"><ele>1698.58</ele><time>2026-02-09T15:39:13.000Z</time></trkpt>
        <trkpt lat="29.4682735" lon="103.284686"><ele>1700.35</ele><time>2026-02-09T15:39:25.000Z</time></trkpt>
        <trkpt lat="29.4683612" lon="103.2847108"><ele>1702.16</ele><time>2026-02-09T15:39:41.000Z</time></trkpt>
        <trkpt lat="29.4684256" lon="103.2847815"><ele>1707.56</ele><time>2026-02-09T15:39:50.000Z</time></trkpt>
        <trkpt lat="29.4684969" lon="103.2848678"><ele>1709.93</ele><time>2026-02-09T15:40:00.000Z</time></trkpt>
        <trkpt lat="29.4685899" lon="103.2848896"><ele>1711.42</ele><time>2026-02-09T15:40:12.000Z</time></trkpt>
        <trkpt lat="29.4686642" lon="103.2848179"><ele>1711.8</ele><time>2026-02-09T15:40:22.000Z</time></trkpt>
        <trkpt lat="29.4687243" lon="103.2847223"><ele>1711.85</ele><time>2026-02-09T15:40:30.000Z</time></trkpt>
        <trkpt lat="29.4688051" lon="103.2846431"><ele>1712.53</ele><time>2026-02-09T15:40:40.000Z</time></trkpt>
        <trkpt lat="29.4688939" lon="103.2845837"><ele>1713.48</ele><time>2026-02-09T15:40:50.000Z</time></trkpt>
        <trkpt lat="29.4688939" lon="103.2845837"><ele>1713.48</ele><time>2026-02-09T15:41:27.000Z</time></trkpt>
        <trkpt lat="29.4688503" lon="103.284625"><ele>1714.32</ele><time>2026-02-09T15:41:46.000Z</time></trkpt>
        <trkpt lat="29.4688503" lon="103.284625"><ele>1714.32</ele><time>2026-02-09T15:41:47.000Z</time></trkpt>
        <trkpt lat="29.4688633" lon="103.2846593"><ele>1717.36</ele><time>2026-02-09T15:41:51.000Z</time></trkpt>
        <trkpt lat="29.4688633" lon="103.2846593"><ele>1717.36</ele><time>2026-02-09T15:42:09.000Z</time></trkpt>
        <trkpt lat="29.4688633" lon="103.2846593"><ele>1717.36</ele><time>2026-02-09T15:42:16.000Z</time></trkpt>
        <trkpt lat="29.4688633" lon="103.2846593"><ele>1717.36</ele><time>2026-02-09T15:42:41.000Z</time></trkpt>
        <trkpt lat="29.4688633" lon="103.2846593"><ele>1717.36</ele><time>2026-02-09T15:42:46.000Z</time></trkpt>
        <trkpt lat="29.4688633" lon="103.2846593"><ele>1717.36</ele><time>2026-02-09T15:43:03.000Z</time></trkpt>
        <trkpt lat="29.4688633" lon="103.2846593"><ele>1717.36</ele><time>2026-02-09T15:43:06.000Z</time></trkpt>
        <trkpt lat="29.4688633" lon="103.2846593"><ele>1717.36</ele><time>2026-02-09T15:43:35.000Z</time></trkpt>
        <trkpt lat="29.4689555" lon="103.2846542"><ele>1724.52</ele><time>2026-02-09T15:43:40.000Z</time></trkpt>
        <trkpt lat="29.4689555" lon="103.2846542"><ele>1724.52</ele><time>2026-02-09T15:44:10.000Z</time></trkpt>
        <trkpt lat="29.4689555" lon="103.2846542"><ele>1724.52</ele><time>2026-02-09T15:44:19.000Z</time></trkpt>
        <trkpt lat="29.4689158" lon="103.284644"><ele>1723.59</ele><time>2026-02-09T15:44:38.000Z</time></trkpt>
        <trkpt lat="29.4689158" lon="103.284644"><ele>1723.59</ele><time>2026-02-09T15:44:45.000Z</time></trkpt>
        <trkpt lat="29.4689158" lon="103.284644"><ele>1723.59</ele><time>2026-02-09T15:44:53.000Z</time></trkpt>
        <trkpt lat="29.4689724" lon="103.2845852"><ele>1724.62</ele><time>2026-02-09T15:45:00.000Z</time></trkpt>
        <trkpt lat="29.4689724" lon="103.2845852"><ele>1724.62</ele><time>2026-02-09T15:45:35.000Z</time></trkpt>
        <trkpt lat="29.4690484" lon="103.2845155"><ele>1726.26</ele><time>2026-02-09T15:45:41.000Z</time></trkpt>
        <trkpt lat="29.4691509" lon="103.284487"><ele>1723.1</ele><time>2026-02-09T15:45:55.000Z</time></trkpt>
        <trkpt lat="29.4692458" lon="103.2845144"><ele>1722.86</ele><time>2026-02-09T15:46:05.000Z</time></trkpt>
        <trkpt lat="29.4693507" lon="103.2845334"><ele>1723.55</ele><time>2026-02-09T15:46:11.000Z</time></trkpt>
        <trkpt lat="29.4694447" lon="103.2844905"><ele>1725.27</ele><time>2026-02-09T15:46:21.000Z</time></trkpt>
        <trkpt lat="29.4695213" lon="103.2844258"><ele>1725.32</ele><time>2026-02-09T15:46:31.000Z</time></trkpt>
        <trkpt lat="29.4695213" lon="103.2844258"><ele>1725.32</ele><time>2026-02-09T15:46:45.000Z</time></trkpt>
        <trkpt lat="29.4696255" lon="103.2843924"><ele>1728.73</ele><time>2026-02-09T15:46:54.000Z</time></trkpt>
        <trkpt lat="29.4696255" lon="103.2843924"><ele>1728.73</ele><time>2026-02-09T15:47:00.000Z</time></trkpt>
        <trkpt lat="29.4697385" lon="103.284416"><ele>1732</ele><time>2026-02-09T15:47:08.000Z</time></trkpt>
        <trkpt lat="29.4698343" lon="103.2844564"><ele>1732.07</ele><time>2026-02-09T15:47:16.000Z</time></trkpt>
        <trkpt lat="29.4699364" lon="103.2844554"><ele>1733.62</ele><time>2026-02-09T15:47:28.000Z</time></trkpt>
        <trkpt lat="29.4700115" lon="103.2843992"><ele>1730.93</ele><time>2026-02-09T15:47:36.000Z</time></trkpt>
        <trkpt lat="29.470086" lon="103.2843243"><ele>1730.15</ele><time>2026-02-09T15:47:45.000Z</time></trkpt>
        <trkpt lat="29.4701818" lon="103.2842807"><ele>1730.35</ele><time>2026-02-09T15:47:56.000Z</time></trkpt>
        <trkpt lat="29.4702873" lon="103.2842494"><ele>1730.92</ele><time>2026-02-09T15:48:06.000Z</time></trkpt>
        <trkpt lat="29.4703921" lon="103.2842156"><ele>1731.85</ele><time>2026-02-09T15:48:16.000Z</time></trkpt>
        <trkpt lat="29.4704939" lon="103.2842274"><ele>1732.61</ele><time>2026-02-09T15:48:26.000Z</time></trkpt>
        <trkpt lat="29.4705976" lon="103.2842745"><ele>1732.53</ele><time>2026-02-09T15:48:36.000Z</time></trkpt>
        <trkpt lat="29.4706915" lon="103.2843248"><ele>1732.5</ele><time>2026-02-09T15:48:44.000Z</time></trkpt>
        <trkpt lat="29.4707898" lon="103.2843532"><ele>1732.84</ele><time>2026-02-09T15:48:52.000Z</time></trkpt>
        <trkpt lat="29.4708902" lon="103.2843632"><ele>1733.24</ele><time>2026-02-09T15:49:00.000Z</time></trkpt>
        <trkpt lat="29.4710025" lon="103.2843603"><ele>1734.26</ele><time>2026-02-09T15:49:08.000Z</time></trkpt>
        <trkpt lat="29.4711123" lon="103.284367"><ele>1735.51</ele><time>2026-02-09T15:49:18.000Z</time></trkpt>
        <trkpt lat="29.4712029" lon="103.2844129"><ele>1736.83</ele><time>2026-02-09T15:49:26.000Z</time></trkpt>
        <trkpt lat="29.4713024" lon="103.2844631"><ele>1737.91</ele><time>2026-02-09T15:49:34.000Z</time></trkpt>
        <trkpt lat="29.4714047" lon="103.2844593"><ele>1738.95</ele><time>2026-02-09T15:49:41.000Z</time></trkpt>
        <trkpt lat="29.4715099" lon="103.2844298"><ele>1739.59</ele><time>2026-02-09T15:49:50.000Z</time></trkpt>
        <trkpt lat="29.471603" lon="103.2844033"><ele>1742.99</ele><time>2026-02-09T15:49:59.000Z</time></trkpt>
        <trkpt lat="29.471701" lon="103.2843582"><ele>1745.09</ele><time>2026-02-09T15:50:09.000Z</time></trkpt>
        <trkpt lat="29.4717925" lon="103.2843188"><ele>1746.18</ele><time>2026-02-09T15:50:17.000Z</time></trkpt>
        <trkpt lat="29.4718882" lon="103.2842787"><ele>1746.56</ele><time>2026-02-09T15:50:27.000Z</time></trkpt>
        <trkpt lat="29.4719911" lon="103.284261"><ele>1747.05</ele><time>2026-02-09T15:50:37.000Z</time></trkpt>
        <trkpt lat="29.472069" lon="103.2843153"><ele>1747.25</ele><time>2026-02-09T15:50:51.000Z</time></trkpt>
        <trkpt lat="29.4720573" lon="103.2844087"><ele>1747.6</ele><time>2026-02-09T15:51:01.000Z</time></trkpt>
        <trkpt lat="29.4719989" lon="103.2845032"><ele>1748.2</ele><time>2026-02-09T15:51:11.000Z</time></trkpt>
        <trkpt lat="29.4719377" lon="103.2845993"><ele>1748.88</ele><time>2026-02-09T15:51:22.000Z</time></trkpt>
        <trkpt lat="29.4719158" lon="103.2847125"><ele>1749.32</ele><time>2026-02-09T15:51:34.000Z</time></trkpt>
        <trkpt lat="29.4719668" lon="103.2847893"><ele>1750.38</ele><time>2026-02-09T15:51:46.000Z</time></trkpt>
        <trkpt lat="29.4720425" lon="103.2847554"><ele>1752.89</ele><time>2026-02-09T15:51:56.000Z</time></trkpt>
        <trkpt lat="29.4721322" lon="103.2846962"><ele>1755.05</ele><time>2026-02-09T15:52:06.000Z</time></trkpt>
        <trkpt lat="29.4722281" lon="103.284668"><ele>1756.72</ele><time>2026-02-09T15:52:16.000Z</time></trkpt>
        <trkpt lat="29.4723224" lon="103.2846808"><ele>1757.94</ele><time>2026-02-09T15:52:35.000Z</time></trkpt>
        <trkpt lat="29.472427" lon="103.2846998"><ele>1764.83</ele><time>2026-02-09T15:52:49.000Z</time></trkpt>
        <trkpt lat="29.472535" lon="103.2847142"><ele>1768.79</ele><time>2026-02-09T15:53:02.000Z</time></trkpt>
        <trkpt lat="29.4726376" lon="103.2847108"><ele>1767.78</ele><time>2026-02-09T15:53:12.000Z</time></trkpt>
        <trkpt lat="29.4727291" lon="103.2847522"><ele>1768.58</ele><time>2026-02-09T15:53:24.000Z</time></trkpt>
        <trkpt lat="29.4728204" lon="103.2847895"><ele>1769.14</ele><time>2026-02-09T15:53:32.000Z</time></trkpt>
        <trkpt lat="29.4729164" lon="103.2848048"><ele>1769.27</ele><time>2026-02-09T15:53:42.000Z</time></trkpt>
        <trkpt lat="29.4730122" lon="103.2848234"><ele>1769.99</ele><time>2026-02-09T15:53:54.000Z</time></trkpt>
        <trkpt lat="29.4731032" lon="103.2848414"><ele>1770.86</ele><time>2026-02-09T15:54:06.000Z</time></trkpt>
        <trkpt lat="29.4732066" lon="103.2848626"><ele>1772.41</ele><time>2026-02-09T15:54:18.000Z</time></trkpt>
        <trkpt lat="29.4733094" lon="103.2848924"><ele>1774.51</ele><time>2026-02-09T15:54:28.000Z</time></trkpt>
        <trkpt lat="29.4734029" lon="103.2849349"><ele>1776.29</ele><time>2026-02-09T15:54:38.000Z</time></trkpt>
        <trkpt lat="29.4734936" lon="103.2849543"><ele>1778.12</ele><time>2026-02-09T15:54:48.000Z</time></trkpt>
        <trkpt lat="29.4735938" lon="103.2849474"><ele>1780.09</ele><time>2026-02-09T15:54:58.000Z</time></trkpt>
        <trkpt lat="29.4736962" lon="103.2849422"><ele>1781.64</ele><time>2026-02-09T15:55:08.000Z</time></trkpt>
        <trkpt lat="29.4738031" lon="103.2849461"><ele>1782.85</ele><time>2026-02-09T15:55:18.000Z</time></trkpt>
        <trkpt lat="29.4739119" lon="103.2849613"><ele>1783.83</ele><time>2026-02-09T15:55:28.000Z</time></trkpt>
        <trkpt lat="29.4740156" lon="103.2849562"><ele>1785.03</ele><time>2026-02-09T15:55:38.000Z</time></trkpt>
        <trkpt lat="29.4741096" lon="103.284937"><ele>1786.58</ele><time>2026-02-09T15:55:46.000Z</time></trkpt>
        <trkpt lat="29.4742" lon="103.2848925"><ele>1788.16</ele><time>2026-02-09T15:55:56.000Z</time></trkpt>
        <trkpt lat="29.4742839" lon="103.2848332"><ele>1789.26</ele><time>2026-02-09T15:56:06.000Z</time></trkpt>
        <trkpt lat="29.474328" lon="103.284732"><ele>1790.34</ele><time>2026-02-09T15:56:20.000Z</time></trkpt>
        <trkpt lat="29.4743121" lon="103.2846203"><ele>1790.96</ele><time>2026-02-09T15:56:36.000Z</time></trkpt>
        <trkpt lat="29.4742683" lon="103.2845073"><ele>1791.09</ele><time>2026-02-09T15:56:44.000Z</time></trkpt>
        <trkpt lat="29.4742822" lon="103.2843907"><ele>1791.44</ele><time>2026-02-09T15:56:58.000Z</time></trkpt>
        <trkpt lat="29.4743408" lon="103.2843043"><ele>1792.93</ele><time>2026-02-09T15:57:06.000Z</time></trkpt>
        <trkpt lat="29.4744304" lon="103.2842599"><ele>1794.53</ele><time>2026-02-09T15:57:20.000Z</time></trkpt>
        <trkpt lat="29.474539" lon="103.2842636"><ele>1795.51</ele><time>2026-02-09T15:57:32.000Z</time></trkpt>
        <trkpt lat="29.4746303" lon="103.2842339"><ele>1795.25</ele><time>2026-02-09T15:57:44.000Z</time></trkpt>
        <trkpt lat="29.4747016" lon="103.284171"><ele>1794.65</ele><time>2026-02-09T15:57:53.000Z</time></trkpt>
        <trkpt lat="29.4747674" lon="103.2840949"><ele>1793.49</ele><time>2026-02-09T15:58:06.000Z</time></trkpt>
        <trkpt lat="29.4748324" lon="103.2840115"><ele>1792.21</ele><time>2026-02-09T15:58:12.000Z</time></trkpt>
        <trkpt lat="29.4749108" lon="103.283945"><ele>1792.41</ele><time>2026-02-09T15:58:28.000Z</time></trkpt>
        <trkpt lat="29.4749956" lon="103.2838986"><ele>1792.31</ele><time>2026-02-09T15:58:38.000Z</time></trkpt>
        <trkpt lat="29.4750919" lon="103.283853"><ele>1791.71</ele><time>2026-02-09T15:58:46.000Z</time></trkpt>
        <trkpt lat="29.4751967" lon="103.2838182"><ele>1791.5</ele><time>2026-02-09T15:58:53.000Z</time></trkpt>
        <trkpt lat="29.4752896" lon="103.2837812"><ele>1791.61</ele><time>2026-02-09T15:58:59.000Z</time></trkpt>
        <trkpt lat="29.475382" lon="103.283745"><ele>1791.75</ele><time>2026-02-09T15:59:14.000Z</time></trkpt>
        <trkpt lat="29.4754078" lon="103.2836582"><ele>1791.27</ele><time>2026-02-09T15:59:25.000Z</time></trkpt>
        <trkpt lat="29.4754413" lon="103.2835604"><ele>1789.32</ele><time>2026-02-09T15:59:38.000Z</time></trkpt>
        <trkpt lat="29.4754993" lon="103.2834802"><ele>1787.59</ele><time>2026-02-09T15:59:49.000Z</time></trkpt>
        <trkpt lat="29.4755093" lon="103.2833778"><ele>1786.22</ele><time>2026-02-09T16:00:03.000Z</time></trkpt>
        <trkpt lat="29.4754595" lon="103.2832827"><ele>1786.04</ele><time>2026-02-09T16:00:15.000Z</time></trkpt>
        <trkpt lat="29.4753965" lon="103.2831912"><ele>1784.54</ele><time>2026-02-09T16:00:31.000Z</time></trkpt>
        <trkpt lat="29.4753663" lon="103.2830808"><ele>1781.88</ele><time>2026-02-09T16:00:43.000Z</time></trkpt>
        <trkpt lat="29.4754162" lon="103.2830031"><ele>1780.42</ele><time>2026-02-09T16:00:55.000Z</time></trkpt>
        <trkpt lat="29.4755053" lon="103.2829561"><ele>1781.14</ele><time>2026-02-09T16:01:05.000Z</time></trkpt>
        <trkpt lat="29.4756152" lon="103.2828976"><ele>1781.42</ele><time>2026-02-09T16:01:16.000Z</time></trkpt>
        <trkpt lat="29.4756836" lon="103.2828406"><ele>1781.71</ele><time>2026-02-09T16:01:24.000Z</time></trkpt>
        <trkpt lat="29.4757633" lon="103.2827739"><ele>1780.58</ele><time>2026-02-09T16:01:40.000Z</time></trkpt>
        <trkpt lat="29.4758513" lon="103.282711"><ele>1777.08</ele><time>2026-02-09T16:01:52.000Z</time></trkpt>
        <trkpt lat="29.4759662" lon="103.2826953"><ele>1775.14</ele><time>2026-02-09T16:01:59.000Z</time></trkpt>
        <trkpt lat="29.4760704" lon="103.2826983"><ele>1774.04</ele><time>2026-02-09T16:02:05.000Z</time></trkpt>
        <trkpt lat="29.4762729" lon="103.2827083"><ele>1773.63</ele><time>2026-02-09T16:02:13.000Z</time></trkpt>
        <trkpt lat="29.4763709" lon="103.2827463"><ele>1775.34</ele><time>2026-02-09T16:02:31.000Z</time></trkpt>
        <trkpt lat="29.4763709" lon="103.2827463"><ele>1775.34</ele><time>2026-02-09T16:02:59.000Z</time></trkpt>
        <trkpt lat="29.4764593" lon="103.2827543"><ele>1776.05</ele><time>2026-02-09T16:03:02.000Z</time></trkpt>
        <trkpt lat="29.4764593" lon="103.2827543"><ele>1776.05</ele><time>2026-02-09T16:03:20.000Z</time></trkpt>
        <trkpt lat="29.4765414" lon="103.2827169"><ele>1770.21</ele><time>2026-02-09T16:03:36.000Z</time></trkpt>
        <trkpt lat="29.47663" lon="103.2826571"><ele>1767.97</ele><time>2026-02-09T16:03:48.000Z</time></trkpt>
        <trkpt lat="29.4767088" lon="103.2825834"><ele>1766.99</ele><time>2026-02-09T16:03:58.000Z</time></trkpt>
        <trkpt lat="29.4767844" lon="103.2825109"><ele>1766.42</ele><time>2026-02-09T16:04:08.000Z</time></trkpt>
        <trkpt lat="29.4768631" lon="103.2824447"><ele>1766.24</ele><time>2026-02-09T16:04:20.000Z</time></trkpt>
        <trkpt lat="29.4769336" lon="103.282348"><ele>1765.88</ele><time>2026-02-09T16:04:30.000Z</time></trkpt>
        <trkpt lat="29.4770023" lon="103.2822617"><ele>1765.32</ele><time>2026-02-09T16:04:39.000Z</time></trkpt>
        <trkpt lat="29.4770916" lon="103.2821993"><ele>1764.72</ele><time>2026-02-09T16:04:48.000Z</time></trkpt>
        <trkpt lat="29.4771619" lon="103.2821263"><ele>1763.72</ele><time>2026-02-09T16:04:56.000Z</time></trkpt>
        <trkpt lat="29.4772295" lon="103.282024"><ele>1762.88</ele><time>2026-02-09T16:05:06.000Z</time></trkpt>
        <trkpt lat="29.4772773" lon="103.2819104"><ele>1762.64</ele><time>2026-02-09T16:05:19.000Z</time></trkpt>
        <trkpt lat="29.4773489" lon="103.281832"><ele>1765.27</ele><time>2026-02-09T16:05:26.000Z</time></trkpt>
        <trkpt lat="29.4773843" lon="103.2818045"><ele>1762.78</ele><time>2026-02-09T16:05:30.000Z</time></trkpt>
        <trkpt lat="29.4774517" lon="103.2818429"><ele>1764.77</ele><time>2026-02-09T16:05:43.000Z</time></trkpt>
        <trkpt lat="29.4774851" lon="103.2819439"><ele>1763.49</ele><time>2026-02-09T16:05:49.000Z</time></trkpt>
        <trkpt lat="29.4774982" lon="103.2820635"><ele>1761.61</ele><time>2026-02-09T16:05:57.000Z</time></trkpt>
        <trkpt lat="29.4775097" lon="103.2821937"><ele>1760.27</ele><time>2026-02-09T16:06:05.000Z</time></trkpt>
        <trkpt lat="29.477529" lon="103.2823077"><ele>1759.44</ele><time>2026-02-09T16:06:14.000Z</time></trkpt>
        <trkpt lat="29.4775631" lon="103.2824135"><ele>1758.83</ele><time>2026-02-09T16:06:26.000Z</time></trkpt>
        <trkpt lat="29.4775611" lon="103.2825212"><ele>1758.21</ele><time>2026-02-09T16:06:34.000Z</time></trkpt>
        <trkpt lat="29.47756" lon="103.2826331"><ele>1757.74</ele><time>2026-02-09T16:06:42.000Z</time></trkpt>
        <trkpt lat="29.4775734" lon="103.2827497"><ele>1757.22</ele><time>2026-02-09T16:06:50.000Z</time></trkpt>
        <trkpt lat="29.4775767" lon="103.2828768"><ele>1756.16</ele><time>2026-02-09T16:07:00.000Z</time></trkpt>
        <trkpt lat="29.4775657" lon="103.2829999"><ele>1754.84</ele><time>2026-02-09T16:07:08.000Z</time></trkpt>
        <trkpt lat="29.4775549" lon="103.2831187"><ele>1753.56</ele><time>2026-02-09T16:07:16.000Z</time></trkpt>
        <trkpt lat="29.4775305" lon="103.2832266"><ele>1752.64</ele><time>2026-02-09T16:07:26.000Z</time></trkpt>
        <trkpt lat="29.4774702" lon="103.2833175"><ele>1752.37</ele><time>2026-02-09T16:08:29.000Z</time></trkpt>
        <trkpt lat="29.477474" lon="103.2834432"><ele>1754.61</ele><time>2026-02-09T16:08:40.000Z</time></trkpt>
        <trkpt lat="29.4774979" lon="103.2835477"><ele>1756.42</ele><time>2026-02-09T16:08:48.000Z</time></trkpt>
        <trkpt lat="29.4775678" lon="103.2836098"><ele>1758.45</ele><time>2026-02-09T16:08:58.000Z</time></trkpt>
        <trkpt lat="29.4776474" lon="103.2836662"><ele>1760.36</ele><time>2026-02-09T16:09:06.000Z</time></trkpt>
        <trkpt lat="29.4777258" lon="103.283734"><ele>1761.78</ele><time>2026-02-09T16:09:14.000Z</time></trkpt>
        <trkpt lat="29.477843" lon="103.2837975"><ele>1762.8</ele><time>2026-02-09T16:09:23.000Z</time></trkpt>
        <trkpt lat="29.4779504" lon="103.2838341"><ele>1763.89</ele><time>2026-02-09T16:09:34.000Z</time></trkpt>
        <trkpt lat="29.47805" lon="103.2837884"><ele>1765.34</ele><time>2026-02-09T16:09:44.000Z</time></trkpt>
        <trkpt lat="29.4781527" lon="103.2837349"><ele>1765.25</ele><time>2026-02-09T16:09:52.000Z</time></trkpt>
        <trkpt lat="29.4782438" lon="103.2836797"><ele>1765.77</ele><time>2026-02-09T16:10:00.000Z</time></trkpt>
        <trkpt lat="29.4783375" lon="103.2836148"><ele>1765.76</ele><time>2026-02-09T16:10:10.000Z</time></trkpt>
        <trkpt lat="29.4784344" lon="103.2836301"><ele>1765.77</ele><time>2026-02-09T16:10:22.000Z</time></trkpt>
        <trkpt lat="29.4785259" lon="103.2836626"><ele>1765.3</ele><time>2026-02-09T16:10:30.000Z</time></trkpt>
        <trkpt lat="29.4786198" lon="103.2836882"><ele>1764.74</ele><time>2026-02-09T16:10:38.000Z</time></trkpt>
        <trkpt lat="29.4787071" lon="103.2837399"><ele>1764.19</ele><time>2026-02-09T16:10:46.000Z</time></trkpt>
        <trkpt lat="29.4787783" lon="103.2838132"><ele>1764.07</ele><time>2026-02-09T16:10:56.000Z</time></trkpt>
        <trkpt lat="29.478833" lon="103.2839302"><ele>1764.24</ele><time>2026-02-09T16:11:06.000Z</time></trkpt>
        <trkpt lat="29.4788886" lon="103.2840251"><ele>1764.02</ele><time>2026-02-09T16:11:14.000Z</time></trkpt>
        <trkpt lat="29.4789678" lon="103.2840922"><ele>1763.95</ele><time>2026-02-09T16:11:22.000Z</time></trkpt>
        <trkpt lat="29.4790702" lon="103.2840969"><ele>1763.87</ele><time>2026-02-09T16:11:32.000Z</time></trkpt>
        <trkpt lat="29.4791664" lon="103.284073"><ele>1763.9</ele><time>2026-02-09T16:11:40.000Z</time></trkpt>
        <trkpt lat="29.4792657" lon="103.2840524"><ele>1764.26</ele><time>2026-02-09T16:11:48.000Z</time></trkpt>
        <trkpt lat="29.4793613" lon="103.2840444"><ele>1764.57</ele><time>2026-02-09T16:11:56.000Z</time></trkpt>
        <trkpt lat="29.4794688" lon="103.2840186"><ele>1765.06</ele><time>2026-02-09T16:12:06.000Z</time></trkpt>
        <trkpt lat="29.4795738" lon="103.2839825"><ele>1765.48</ele><time>2026-02-09T16:12:18.000Z</time></trkpt>
        <trkpt lat="29.4796716" lon="103.2839447"><ele>1766.32</ele><time>2026-02-09T16:12:28.000Z</time></trkpt>
        <trkpt lat="29.4797741" lon="103.2839167"><ele>1767.21</ele><time>2026-02-09T16:12:38.000Z</time></trkpt>
        <trkpt lat="29.479876" lon="103.2838782"><ele>1768.41</ele><time>2026-02-09T16:12:48.000Z</time></trkpt>
        <trkpt lat="29.479964" lon="103.2838222"><ele>1769.66</ele><time>2026-02-09T16:12:57.000Z</time></trkpt>
        <trkpt lat="29.480053" lon="103.2837598"><ele>1770.64</ele><time>2026-02-09T16:13:08.000Z</time></trkpt>
        <trkpt lat="29.4801445" lon="103.2837025"><ele>1771.43</ele><time>2026-02-09T16:13:20.000Z</time></trkpt>
        <trkpt lat="29.4802355" lon="103.2836473"><ele>1772.47</ele><time>2026-02-09T16:13:30.000Z</time></trkpt>
        <trkpt lat="29.4803312" lon="103.2835915"><ele>1773.93</ele><time>2026-02-09T16:13:39.000Z</time></trkpt>
        <trkpt lat="29.4804044" lon="103.2835202"><ele>1775.92</ele><time>2026-02-09T16:13:49.000Z</time></trkpt>
        <trkpt lat="29.4804617" lon="103.2834249"><ele>1779.68</ele><time>2026-02-09T16:14:05.000Z</time></trkpt>
        <trkpt lat="29.4805019" lon="103.2833126"><ele>1782.23</ele><time>2026-02-09T16:14:18.000Z</time></trkpt>
        <trkpt lat="29.4805743" lon="103.2832388"><ele>1783.48</ele><time>2026-02-09T16:14:32.000Z</time></trkpt>
        <trkpt lat="29.4806561" lon="103.2832585"><ele>1786.62</ele><time>2026-02-09T16:14:47.000Z</time></trkpt>
        <trkpt lat="29.4807061" lon="103.2833605"><ele>1789</ele><time>2026-02-09T16:14:57.000Z</time></trkpt>
        <trkpt lat="29.4807358" lon="103.2834856"><ele>1791.79</ele><time>2026-02-09T16:15:06.000Z</time></trkpt>
        <trkpt lat="29.4807567" lon="103.283615"><ele>1793.81</ele><time>2026-02-09T16:15:17.000Z</time></trkpt>
        <trkpt lat="29.4808072" lon="103.2837176"><ele>1796.59</ele><time>2026-02-09T16:15:25.000Z</time></trkpt>
        <trkpt lat="29.4808398" lon="103.2838353"><ele>1798.72</ele><time>2026-02-09T16:15:36.000Z</time></trkpt>
        <trkpt lat="29.4807912" lon="103.2839345"><ele>1800.97</ele><time>2026-02-09T16:15:46.000Z</time></trkpt>
        <trkpt lat="29.4807297" lon="103.2840217"><ele>1801.67</ele><time>2026-02-09T16:15:54.000Z</time></trkpt>
        <trkpt lat="29.4806673" lon="103.2841251"><ele>1802.08</ele><time>2026-02-09T16:16:04.000Z</time></trkpt>
        <trkpt lat="29.4806215" lon="103.2842397"><ele>1802.53</ele><time>2026-02-09T16:16:14.000Z</time></trkpt>
        <trkpt lat="29.4805817" lon="103.2843416"><ele>1802.65</ele><time>2026-02-09T16:16:22.000Z</time></trkpt>
        <trkpt lat="29.4805523" lon="103.2844563"><ele>1802.51</ele><time>2026-02-09T16:16:30.000Z</time></trkpt>
        <trkpt lat="29.4805531" lon="103.2845653"><ele>1801.96</ele><time>2026-02-09T16:16:39.000Z</time></trkpt>
        <trkpt lat="29.4806137" lon="103.2846467"><ele>1801.87</ele><time>2026-02-09T16:16:48.000Z</time></trkpt>
        <trkpt lat="29.4807149" lon="103.2846779"><ele>1801.66</ele><time>2026-02-09T16:16:55.000Z</time></trkpt>
        <trkpt lat="29.480819" lon="103.2846728"><ele>1801.46</ele><time>2026-02-09T16:17:05.000Z</time></trkpt>
        <trkpt lat="29.4809165" lon="103.2846317"><ele>1802.61</ele><time>2026-02-09T16:17:11.000Z</time></trkpt>
        <trkpt lat="29.4810261" lon="103.2846156"><ele>1803.46</ele><time>2026-02-09T16:17:20.000Z</time></trkpt>
        <trkpt lat="29.4811312" lon="103.2846329"><ele>1801.53</ele><time>2026-02-09T16:17:30.000Z</time></trkpt>
        <trkpt lat="29.481233" lon="103.2846219"><ele>1800.21</ele><time>2026-02-09T16:17:38.000Z</time></trkpt>
        <trkpt lat="29.4813352" lon="103.2845967"><ele>1799.71</ele><time>2026-02-09T16:17:48.000Z</time></trkpt>
        <trkpt lat="29.4814388" lon="103.2845614"><ele>1799.13</ele><time>2026-02-09T16:17:58.000Z</time></trkpt>
        <trkpt lat="29.481538" lon="103.284522"><ele>1798.5</ele><time>2026-02-09T16:18:08.000Z</time></trkpt>
        <trkpt lat="29.4816313" lon="103.2844834"><ele>1798.02</ele><time>2026-02-09T16:18:18.000Z</time></trkpt>
        <trkpt lat="29.4817336" lon="103.2844611"><ele>1797.69</ele><time>2026-02-09T16:18:28.000Z</time></trkpt>
        <trkpt lat="29.4818234" lon="103.2844294"><ele>1797.17</ele><time>2026-02-09T16:18:37.000Z</time></trkpt>
        <trkpt lat="29.4819198" lon="103.2844091"><ele>1796.58</ele><time>2026-02-09T16:18:47.000Z</time></trkpt>
        <trkpt lat="29.4820255" lon="103.2844112"><ele>1795.65</ele><time>2026-02-09T16:18:58.000Z</time></trkpt>
        <trkpt lat="29.4821352" lon="103.2844082"><ele>1794.84</ele><time>2026-02-09T16:19:05.000Z</time></trkpt>
        <trkpt lat="29.4822494" lon="103.2844032"><ele>1794.47</ele><time>2026-02-09T16:19:11.000Z</time></trkpt>
        <trkpt lat="29.4823626" lon="103.2843971"><ele>1794.22</ele><time>2026-02-09T16:19:17.000Z</time></trkpt>
        <trkpt lat="29.4824635" lon="103.2843885"><ele>1794.51</ele><time>2026-02-09T16:19:25.000Z</time></trkpt>
        <trkpt lat="29.4825597" lon="103.2843798"><ele>1794.76</ele><time>2026-02-09T16:19:33.000Z</time></trkpt>
        <trkpt lat="29.4826542" lon="103.284369"><ele>1792.6</ele><time>2026-02-09T16:19:42.000Z</time></trkpt>
        <trkpt lat="29.4827524" lon="103.2843738"><ele>1792.15</ele><time>2026-02-09T16:19:52.000Z</time></trkpt>
        <trkpt lat="29.4828437" lon="103.2844049"><ele>1792.1</ele><time>2026-02-09T16:20:00.000Z</time></trkpt>
        <trkpt lat="29.482939" lon="103.2844183"><ele>1792.11</ele><time>2026-02-09T16:20:10.000Z</time></trkpt>
        <trkpt lat="29.4830369" lon="103.2844241"><ele>1792.13</ele><time>2026-02-09T16:20:17.000Z</time></trkpt>
        <trkpt lat="29.4831326" lon="103.2844255"><ele>1792.49</ele><time>2026-02-09T16:20:27.000Z</time></trkpt>
        <trkpt lat="29.4832286" lon="103.2844167"><ele>1793.24</ele><time>2026-02-09T16:20:33.000Z</time></trkpt>
        <trkpt lat="29.4833271" lon="103.2843584"><ele>1792.39</ele><time>2026-02-09T16:20:44.000Z</time></trkpt>
        <trkpt lat="29.4834294" lon="103.2843362"><ele>1793.38</ele><time>2026-02-09T16:20:52.000Z</time></trkpt>
        <trkpt lat="29.48349" lon="103.2843477"><ele>1793.44</ele><time>2026-02-09T16:21:09.000Z</time></trkpt>
        <trkpt lat="29.4835673" lon="103.2843162"><ele>1792.69</ele><time>2026-02-09T16:21:27.000Z</time></trkpt>
        <trkpt lat="29.4836534" lon="103.2842613"><ele>1792.14</ele><time>2026-02-09T16:21:37.000Z</time></trkpt>
        <trkpt lat="29.4837431" lon="103.2841955"><ele>1793.01</ele><time>2026-02-09T16:21:47.000Z</time></trkpt>
        <trkpt lat="29.4838406" lon="103.2840882"><ele>1795.08</ele><time>2026-02-09T16:21:59.000Z</time></trkpt>
        <trkpt lat="29.4839335" lon="103.2840139"><ele>1793.54</ele><time>2026-02-09T16:22:08.000Z</time></trkpt>
        <trkpt lat="29.4840195" lon="103.2839536"><ele>1793.13</ele><time>2026-02-09T16:22:16.000Z</time></trkpt>
        <trkpt lat="29.4841144" lon="103.2839128"><ele>1791.59</ele><time>2026-02-09T16:22:26.000Z</time></trkpt>
        <trkpt lat="29.4842138" lon="103.2838921"><ele>1791.6</ele><time>2026-02-09T16:22:34.000Z</time></trkpt>
        <trkpt lat="29.4843204" lon="103.2838637"><ele>1792.39</ele><time>2026-02-09T16:22:44.000Z</time></trkpt>
        <trkpt lat="29.4843858" lon="103.2837918"><ele>1793.07</ele><time>2026-02-09T16:22:54.000Z</time></trkpt>
        <trkpt lat="29.4844325" lon="103.2836982"><ele>1793.57</ele><time>2026-02-09T16:23:02.000Z</time></trkpt>
        <trkpt lat="29.4844867" lon="103.2835998"><ele>1793.9</ele><time>2026-02-09T16:23:12.000Z</time></trkpt>
        <trkpt lat="29.4845791" lon="103.2835807"><ele>1794.23</ele><time>2026-02-09T16:23:26.000Z</time></trkpt>
        <trkpt lat="29.4846805" lon="103.2836177"><ele>1794.68</ele><time>2026-02-09T16:23:34.000Z</time></trkpt>
        <trkpt lat="29.4847828" lon="103.283665"><ele>1794.88</ele><time>2026-02-09T16:23:42.000Z</time></trkpt>
        <trkpt lat="29.484886" lon="103.2837058"><ele>1794.96</ele><time>2026-02-09T16:23:50.000Z</time></trkpt>
        <trkpt lat="29.4849872" lon="103.2837343"><ele>1795.17</ele><time>2026-02-09T16:23:58.000Z</time></trkpt>
        <trkpt lat="29.4851023" lon="103.2837521"><ele>1795.65</ele><time>2026-02-09T16:24:09.000Z</time></trkpt>
        <trkpt lat="29.4852055" lon="103.2837612"><ele>1796.2</ele><time>2026-02-09T16:24:20.000Z</time></trkpt>
        <trkpt lat="29.4852992" lon="103.2837771"><ele>1797.34</ele><time>2026-02-09T16:24:30.000Z</time></trkpt>
        <trkpt lat="29.4853888" lon="103.2838032"><ele>1799.37</ele><time>2026-02-09T16:24:40.000Z</time></trkpt>
        <trkpt lat="29.4854913" lon="103.2838243"><ele>1800.78</ele><time>2026-02-09T16:24:50.000Z</time></trkpt>
        <trkpt lat="29.4855927" lon="103.2838262"><ele>1801.91</ele><time>2026-02-09T16:25:01.000Z</time></trkpt>
        <trkpt lat="29.4856958" lon="103.2838198"><ele>1802.99</ele><time>2026-02-09T16:25:13.000Z</time></trkpt>
        <trkpt lat="29.4857884" lon="103.2838329"><ele>1803.98</ele><time>2026-02-09T16:25:23.000Z</time></trkpt>
        <trkpt lat="29.4858702" lon="103.2838912"><ele>1805.36</ele><time>2026-02-09T16:25:34.000Z</time></trkpt>
        <trkpt lat="29.4859616" lon="103.2839289"><ele>1806.74</ele><time>2026-02-09T16:25:46.000Z</time></trkpt>
        <trkpt lat="29.4860581" lon="103.2839139"><ele>1807.91</ele><time>2026-02-09T16:25:58.000Z</time></trkpt>
        <trkpt lat="29.4861531" lon="103.2839122"><ele>1809.04</ele><time>2026-02-09T16:26:07.000Z</time></trkpt>
        <trkpt lat="29.4862397" lon="103.2838756"><ele>1810.16</ele><time>2026-02-09T16:26:32.000Z</time></trkpt>
        <trkpt lat="29.4863258" lon="103.2838221"><ele>1812.62</ele><time>2026-02-09T16:26:44.000Z</time></trkpt>
        <trkpt lat="29.4864122" lon="103.2838294"><ele>1815.23</ele><time>2026-02-09T16:26:56.000Z</time></trkpt>
        <trkpt lat="29.4865048" lon="103.283843"><ele>1817.16</ele><time>2026-02-09T16:27:05.000Z</time></trkpt>
        <trkpt lat="29.4866002" lon="103.2838096"><ele>1820.74</ele><time>2026-02-09T16:27:17.000Z</time></trkpt>
        <trkpt lat="29.486679" lon="103.2837306"><ele>1823.48</ele><time>2026-02-09T16:27:26.000Z</time></trkpt>
        <trkpt lat="29.4867619" lon="103.2836613"><ele>1824.95</ele><time>2026-02-09T16:27:37.000Z</time></trkpt>
        <trkpt lat="29.4868492" lon="103.2836667"><ele>1826.19</ele><time>2026-02-09T16:27:47.000Z</time></trkpt>
        <trkpt lat="29.4869299" lon="103.2837285"><ele>1827.31</ele><time>2026-02-09T16:27:56.000Z</time></trkpt>
        <trkpt lat="29.4869822" lon="103.2838316"><ele>1828.64</ele><time>2026-02-09T16:28:09.000Z</time></trkpt>
        <trkpt lat="29.4870481" lon="103.2839203"><ele>1830.32</ele><time>2026-02-09T16:28:17.000Z</time></trkpt>
        <trkpt lat="29.4871284" lon="103.2839897"><ele>1831.56</ele><time>2026-02-09T16:28:27.000Z</time></trkpt>
        <trkpt lat="29.487203" lon="103.2840581"><ele>1832.7</ele><time>2026-02-09T16:28:39.000Z</time></trkpt>
        <trkpt lat="29.4872905" lon="103.284061"><ele>1833.29</ele><time>2026-02-09T16:29:05.000Z</time></trkpt>
        <trkpt lat="29.4872905" lon="103.284061"><ele>1833.29</ele><time>2026-02-09T16:29:17.000Z</time></trkpt>
        <trkpt lat="29.487387" lon="103.2840188"><ele>1835.33</ele><time>2026-02-09T16:29:28.000Z</time></trkpt>
        <trkpt lat="29.487387" lon="103.2840188"><ele>1835.33</ele><time>2026-02-09T16:29:39.000Z</time></trkpt>
        <trkpt lat="29.4874944" lon="103.2839894"><ele>1838.58</ele><time>2026-02-09T16:29:50.000Z</time></trkpt>
        <trkpt lat="29.48759" lon="103.2840148"><ele>1840.22</ele><time>2026-02-09T16:30:00.000Z</time></trkpt>
        <trkpt lat="29.4876856" lon="103.2840377"><ele>1841.26</ele><time>2026-02-09T16:30:10.000Z</time></trkpt>
        <trkpt lat="29.4877856" lon="103.2840662"><ele>1841.87</ele><time>2026-02-09T16:30:20.000Z</time></trkpt>
        <trkpt lat="29.4878792" lon="103.2840972"><ele>1842.33</ele><time>2026-02-09T16:30:28.000Z</time></trkpt>
        <trkpt lat="29.4879707" lon="103.284103"><ele>1842.68</ele><time>2026-02-09T16:30:34.000Z</time></trkpt>
        <trkpt lat="29.4880613" lon="103.2840626"><ele>1842.75</ele><time>2026-02-09T16:30:43.000Z</time></trkpt>
        <trkpt lat="29.4881517" lon="103.2840387"><ele>1844.4</ele><time>2026-02-09T16:30:53.000Z</time></trkpt>
        <trkpt lat="29.4882403" lon="103.2840459"><ele>1845.75</ele><time>2026-02-09T16:31:01.000Z</time></trkpt>
        <trkpt lat="29.4883333" lon="103.2840553"><ele>1845.74</ele><time>2026-02-09T16:31:09.000Z</time></trkpt>
        <trkpt lat="29.4884267" lon="103.2840315"><ele>1845.95</ele><time>2026-02-09T16:31:19.000Z</time></trkpt>
        <trkpt lat="29.4885243" lon="103.2839699"><ele>1846.95</ele><time>2026-02-09T16:31:31.000Z</time></trkpt>
        <trkpt lat="29.4886219" lon="103.2839158"><ele>1848.43</ele><time>2026-02-09T16:31:41.000Z</time></trkpt>
        <trkpt lat="29.4887249" lon="103.2838864"><ele>1849.66</ele><time>2026-02-09T16:31:52.000Z</time></trkpt>
        <trkpt lat="29.4888235" lon="103.2839028"><ele>1850.37</ele><time>2026-02-09T16:32:02.000Z</time></trkpt>
        <trkpt lat="29.4889116" lon="103.2839544"><ele>1850.79</ele><time>2026-02-09T16:32:14.000Z</time></trkpt>
        <trkpt lat="29.4889885" lon="103.2840252"><ele>1850.91</ele><time>2026-02-09T16:32:24.000Z</time></trkpt>
        <trkpt lat="29.4890771" lon="103.2840949"><ele>1851.12</ele><time>2026-02-09T16:32:34.000Z</time></trkpt>
        <trkpt lat="29.4891606" lon="103.2841531"><ele>1851.32</ele><time>2026-02-09T16:32:48.000Z</time></trkpt>
        <trkpt lat="29.489249" lon="103.2841605"><ele>1851.61</ele><time>2026-02-09T16:32:58.000Z</time></trkpt>
        <trkpt lat="29.4893405" lon="103.2841274"><ele>1854.49</ele><time>2026-02-09T16:33:09.000Z</time></trkpt>
        <trkpt lat="29.489406" lon="103.284039"><ele>1855.84</ele><time>2026-02-09T16:33:43.000Z</time></trkpt>
        <trkpt lat="29.4894509" lon="103.2839267"><ele>1857.69</ele><time>2026-02-09T16:33:54.000Z</time></trkpt>
        <trkpt lat="29.4894812" lon="103.2838135"><ele>1858.45</ele><time>2026-02-09T16:34:04.000Z</time></trkpt>
        <trkpt lat="29.489527" lon="103.2837192"><ele>1859.41</ele><time>2026-02-09T16:34:14.000Z</time></trkpt>
        <trkpt lat="29.4895942" lon="103.283652"><ele>1860.91</ele><time>2026-02-09T16:34:26.000Z</time></trkpt>
        <trkpt lat="29.4896851" lon="103.2835985"><ele>1863.42</ele><time>2026-02-09T16:34:36.000Z</time></trkpt>
        <trkpt lat="29.489781" lon="103.283573"><ele>1864.96</ele><time>2026-02-09T16:34:46.000Z</time></trkpt>
        <trkpt lat="29.4898739" lon="103.2835964"><ele>1867.03</ele><time>2026-02-09T16:34:56.000Z</time></trkpt>
        <trkpt lat="29.4899711" lon="103.2836119"><ele>1868.58</ele><time>2026-02-09T16:35:25.000Z</time></trkpt>
        <trkpt lat="29.4900757" lon="103.2836049"><ele>1870.24</ele><time>2026-02-09T16:35:36.000Z</time></trkpt>
        <trkpt lat="29.4901688" lon="103.2836355"><ele>1870.32</ele><time>2026-02-09T16:35:46.000Z</time></trkpt>
        <trkpt lat="29.4902508" lon="103.2836902"><ele>1871.13</ele><time>2026-02-09T16:35:56.000Z</time></trkpt>
        <trkpt lat="29.4903361" lon="103.2837263"><ele>1871.96</ele><time>2026-02-09T16:36:06.000Z</time></trkpt>
        <trkpt lat="29.4904315" lon="103.2837624"><ele>1872.28</ele><time>2026-02-09T16:36:16.000Z</time></trkpt>
        <trkpt lat="29.4905364" lon="103.2837864"><ele>1872.23</ele><time>2026-02-09T16:36:26.000Z</time></trkpt>
        <trkpt lat="29.4905996" lon="103.283724"><ele>1872.51</ele><time>2026-02-09T16:36:36.000Z</time></trkpt>
        <trkpt lat="29.4906451" lon="103.283617"><ele>1872.76</ele><time>2026-02-09T16:36:47.000Z</time></trkpt>
        <trkpt lat="29.4907053" lon="103.2835202"><ele>1873.42</ele><time>2026-02-09T16:36:57.000Z</time></trkpt>
        <trkpt lat="29.4907644" lon="103.2834297"><ele>1876.01</ele><time>2026-02-09T16:37:06.000Z</time></trkpt>
        <trkpt lat="29.4908499" lon="103.2833741"><ele>1876.16</ele><time>2026-02-09T16:37:16.000Z</time></trkpt>
        <trkpt lat="29.4909276" lon="103.2833023"><ele>1876.73</ele><time>2026-02-09T16:37:26.000Z</time></trkpt>
        <trkpt lat="29.4909948" lon="103.2832104"><ele>1877.37</ele><time>2026-02-09T16:37:36.000Z</time></trkpt>
        <trkpt lat="29.4910769" lon="103.2831498"><ele>1877.54</ele><time>2026-02-09T16:37:46.000Z</time></trkpt>
        <trkpt lat="29.491145" lon="103.2831964"><ele>1878.52</ele><time>2026-02-09T16:37:54.000Z</time></trkpt>
        <trkpt lat="29.491223" lon="103.2832717"><ele>1879.04</ele><time>2026-02-09T16:38:04.000Z</time></trkpt>
        <trkpt lat="29.4913071" lon="103.2832734"><ele>1879.43</ele><time>2026-02-09T16:38:12.000Z</time></trkpt>
        <trkpt lat="29.4914015" lon="103.2832371"><ele>1879.82</ele><time>2026-02-09T16:38:22.000Z</time></trkpt>
        <trkpt lat="29.4915034" lon="103.2832046"><ele>1880.23</ele><time>2026-02-09T16:38:32.000Z</time></trkpt>
        <trkpt lat="29.4915983" lon="103.2831878"><ele>1880.94</ele><time>2026-02-09T16:38:40.000Z</time></trkpt>
        <trkpt lat="29.4917005" lon="103.2831988"><ele>1882.08</ele><time>2026-02-09T16:38:52.000Z</time></trkpt>
        <trkpt lat="29.4917981" lon="103.2831806"><ele>1883.49</ele><time>2026-02-09T16:39:02.000Z</time></trkpt>
        <trkpt lat="29.4918569" lon="103.2830927"><ele>1884.73</ele><time>2026-02-09T16:39:14.000Z</time></trkpt>
        <trkpt lat="29.4919159" lon="103.2830033"><ele>1885.67</ele><time>2026-02-09T16:39:29.000Z</time></trkpt>
        <trkpt lat="29.4919452" lon="103.2828885"><ele>1888.05</ele><time>2026-02-09T16:39:38.000Z</time></trkpt>
        <trkpt lat="29.4919505" lon="103.2827702"><ele>1889.55</ele><time>2026-02-09T16:39:51.000Z</time></trkpt>
        <trkpt lat="29.4919737" lon="103.2826604"><ele>1890.74</ele><time>2026-02-09T16:40:00.000Z</time></trkpt>
        <trkpt lat="29.4920064" lon="103.2825376"><ele>1891.18</ele><time>2026-02-09T16:40:12.000Z</time></trkpt>
        <trkpt lat="29.4920339" lon="103.2824276"><ele>1889.64</ele><time>2026-02-09T16:40:22.000Z</time></trkpt>
        <trkpt lat="29.4920874" lon="103.282324"><ele>1889.45</ele><time>2026-02-09T16:40:32.000Z</time></trkpt>
        <trkpt lat="29.4921571" lon="103.2822394"><ele>1889.85</ele><time>2026-02-09T16:40:42.000Z</time></trkpt>
        <trkpt lat="29.4922533" lon="103.2822625"><ele>1890.48</ele><time>2026-02-09T16:40:52.000Z</time></trkpt>
        <trkpt lat="29.4923224" lon="103.2823577"><ele>1890.86</ele><time>2026-02-09T16:41:02.000Z</time></trkpt>
        <trkpt lat="29.4923739" lon="103.2824834"><ele>1891.48</ele><time>2026-02-09T16:41:12.000Z</time></trkpt>
        <trkpt lat="29.4924241" lon="103.282591"><ele>1891.96</ele><time>2026-02-09T16:41:20.000Z</time></trkpt>
        <trkpt lat="29.4925135" lon="103.28261"><ele>1892.56</ele><time>2026-02-09T16:41:30.000Z</time></trkpt>
        <trkpt lat="29.4925947" lon="103.2825553"><ele>1892.93</ele><time>2026-02-09T16:41:38.000Z</time></trkpt>
        <trkpt lat="29.49268" lon="103.2824904"><ele>1893.25</ele><time>2026-02-09T16:41:48.000Z</time></trkpt>
        <trkpt lat="29.4927565" lon="103.2824128"><ele>1893.45</ele><time>2026-02-09T16:41:56.000Z</time></trkpt>
        <trkpt lat="29.4928119" lon="103.2823083"><ele>1893.61</ele><time>2026-02-09T16:42:06.000Z</time></trkpt>
        <trkpt lat="29.4928751" lon="103.2822255"><ele>1893.59</ele><time>2026-02-09T16:42:14.000Z</time></trkpt>
        <trkpt lat="29.4929598" lon="103.2822238"><ele>1893.57</ele><time>2026-02-09T16:42:22.000Z</time></trkpt>
        <trkpt lat="29.4930511" lon="103.2822616"><ele>1893.69</ele><time>2026-02-09T16:42:30.000Z</time></trkpt>
        <trkpt lat="29.4931439" lon="103.2823095"><ele>1894.12</ele><time>2026-02-09T16:42:38.000Z</time></trkpt>
        <trkpt lat="29.4932302" lon="103.2823581"><ele>1894.47</ele><time>2026-02-09T16:42:46.000Z</time></trkpt>
        <trkpt lat="29.4933293" lon="103.2823948"><ele>1894.53</ele><time>2026-02-09T16:42:56.000Z</time></trkpt>
        <trkpt lat="29.4934262" lon="103.282395"><ele>1894.5</ele><time>2026-02-09T16:43:04.000Z</time></trkpt>
        <trkpt lat="29.493536" lon="103.2824476"><ele>1894.26</ele><time>2026-02-09T16:43:12.000Z</time></trkpt>
        <trkpt lat="29.493623" lon="103.2825192"><ele>1894.71</ele><time>2026-02-09T16:43:21.000Z</time></trkpt>
        <trkpt lat="29.4937035" lon="103.2826065"><ele>1896.87</ele><time>2026-02-09T16:43:31.000Z</time></trkpt>
        <trkpt lat="29.4937777" lon="103.2826941"><ele>1897.81</ele><time>2026-02-09T16:43:41.000Z</time></trkpt>
        <trkpt lat="29.4938628" lon="103.2827495"><ele>1897.84</ele><time>2026-02-09T16:43:49.000Z</time></trkpt>
        <trkpt lat="29.493951" lon="103.2827868"><ele>1897.86</ele><time>2026-02-09T16:43:57.000Z</time></trkpt>
        <trkpt lat="29.4940441" lon="103.2828067"><ele>1897.73</ele><time>2026-02-09T16:44:06.000Z</time></trkpt>
        <trkpt lat="29.4941385" lon="103.2828135"><ele>1897.26</ele><time>2026-02-09T16:44:14.000Z</time></trkpt>
        <trkpt lat="29.494242" lon="103.2828083"><ele>1896.59</ele><time>2026-02-09T16:44:24.000Z</time></trkpt>
        <trkpt lat="29.4943437" lon="103.2828192"><ele>1895.78</ele><time>2026-02-09T16:44:34.000Z</time></trkpt>
        <trkpt lat="29.4944425" lon="103.2828656"><ele>1896.04</ele><time>2026-02-09T16:44:42.000Z</time></trkpt>
        <trkpt lat="29.4945376" lon="103.2828799"><ele>1897.24</ele><time>2026-02-09T16:44:51.000Z</time></trkpt>
        <trkpt lat="29.4946344" lon="103.2828778"><ele>1899.65</ele><time>2026-02-09T16:45:04.000Z</time></trkpt>
        <trkpt lat="29.4947256" lon="103.2829073"><ele>1901.52</ele><time>2026-02-09T16:45:14.000Z</time></trkpt>
        <trkpt lat="29.4948119" lon="103.2829557"><ele>1903.37</ele><time>2026-02-09T16:45:24.000Z</time></trkpt>
        <trkpt lat="29.4949017" lon="103.2830158"><ele>1904.4</ele><time>2026-02-09T16:45:34.000Z</time></trkpt>
        <trkpt lat="29.4949787" lon="103.2830798"><ele>1905.4</ele><time>2026-02-09T16:45:44.000Z</time></trkpt>
        <trkpt lat="29.4950504" lon="103.2831542"><ele>1906.36</ele><time>2026-02-09T16:45:59.000Z</time></trkpt>
        <trkpt lat="29.495133" lon="103.2832226"><ele>1906.09</ele><time>2026-02-09T16:46:12.000Z</time></trkpt>
        <trkpt lat="29.4952237" lon="103.2832817"><ele>1906.53</ele><time>2026-02-09T16:46:24.000Z</time></trkpt>
        <trkpt lat="29.4953214" lon="103.283329"><ele>1908.83</ele><time>2026-02-09T16:46:49.000Z</time></trkpt>
        <trkpt lat="29.495419" lon="103.2833506"><ele>1909.68</ele><time>2026-02-09T16:46:59.000Z</time></trkpt>
        <trkpt lat="29.495509" lon="103.2833245"><ele>1910.06</ele><time>2026-02-09T16:47:10.000Z</time></trkpt>
        <trkpt lat="29.4955929" lon="103.2832758"><ele>1911.79</ele><time>2026-02-09T16:47:22.000Z</time></trkpt>
        <trkpt lat="29.4956621" lon="103.2833271"><ele>1913.58</ele><time>2026-02-09T16:47:34.000Z</time></trkpt>
        <trkpt lat="29.4957354" lon="103.2834147"><ele>1915.03</ele><time>2026-02-09T16:47:46.000Z</time></trkpt>
        <trkpt lat="29.4958278" lon="103.283477"><ele>1915.82</ele><time>2026-02-09T16:47:55.000Z</time></trkpt>
        <trkpt lat="29.4959197" lon="103.2835123"><ele>1916.48</ele><time>2026-02-09T16:48:04.000Z</time></trkpt>
        <trkpt lat="29.4960097" lon="103.2835409"><ele>1916.88</ele><time>2026-02-09T16:48:14.000Z</time></trkpt>
        <trkpt lat="29.4961001" lon="103.2835496"><ele>1917.04</ele><time>2026-02-09T16:48:24.000Z</time></trkpt>
        <trkpt lat="29.4962199" lon="103.2835807"><ele>1916.99</ele><time>2026-02-09T16:48:36.000Z</time></trkpt>
        <trkpt lat="29.4962199" lon="103.2835807"><ele>1916.99</ele><time>2026-02-09T16:49:07.000Z</time></trkpt>
        <trkpt lat="29.496335" lon="103.2835911"><ele>1916.63</ele><time>2026-02-09T16:49:10.000Z</time></trkpt>
        <trkpt lat="29.496335" lon="103.2835911"><ele>1916.63</ele><time>2026-02-09T16:49:13.000Z</time></trkpt>
        <trkpt lat="29.4964343" lon="103.2835874"><ele>1918.6</ele><time>2026-02-09T16:49:22.000Z</time></trkpt>
        <trkpt lat="29.4965109" lon="103.2835271"><ele>1919.1</ele><time>2026-02-09T16:49:30.000Z</time></trkpt>
        <trkpt lat="29.4965969" lon="103.2834742"><ele>1919.79</ele><time>2026-02-09T16:49:40.000Z</time></trkpt>
        <trkpt lat="29.496665" lon="103.2834006"><ele>1919.21</ele><time>2026-02-09T16:49:50.000Z</time></trkpt>
        <trkpt lat="29.4967191" lon="103.2832932"><ele>1919.15</ele><time>2026-02-09T16:50:00.000Z</time></trkpt>
        <trkpt lat="29.4967698" lon="103.2831977"><ele>1919.76</ele><time>2026-02-09T16:50:06.000Z</time></trkpt>
        <trkpt lat="29.4968291" lon="103.2831009"><ele>1921.04</ele><time>2026-02-09T16:50:22.000Z</time></trkpt>
        <trkpt lat="29.4969213" lon="103.2830771"><ele>1919.57</ele><time>2026-02-09T16:50:28.000Z</time></trkpt>
        <trkpt lat="29.4969984" lon="103.2831489"><ele>1918.82</ele><time>2026-02-09T16:50:39.000Z</time></trkpt>
        <trkpt lat="29.4970327" lon="103.2832594"><ele>1919.1</ele><time>2026-02-09T16:50:52.000Z</time></trkpt>
        <trkpt lat="29.497069" lon="103.2833768"><ele>1919.26</ele><time>2026-02-09T16:51:02.000Z</time></trkpt>
        <trkpt lat="29.4970966" lon="103.2834924"><ele>1919.12</ele><time>2026-02-09T16:51:16.000Z</time></trkpt>
        <trkpt lat="29.4971392" lon="103.2836032"><ele>1918.92</ele><time>2026-02-09T16:51:27.000Z</time></trkpt>
        <trkpt lat="29.4971926" lon="103.2837141"><ele>1918.76</ele><time>2026-02-09T16:51:36.000Z</time></trkpt>
        <trkpt lat="29.4971842" lon="103.2838172"><ele>1920.99</ele><time>2026-02-09T16:51:52.000Z</time></trkpt>
        <trkpt lat="29.4971593" lon="103.2839215"><ele>1922.27</ele><time>2026-02-09T16:52:07.000Z</time></trkpt>
        <trkpt lat="29.4972003" lon="103.2840044"><ele>1923.49</ele><time>2026-02-09T16:52:20.000Z</time></trkpt>
        <trkpt lat="29.4972734" lon="103.2840669"><ele>1924.14</ele><time>2026-02-09T16:52:36.000Z</time></trkpt>
        <trkpt lat="29.4973601" lon="103.2841228"><ele>1924.66</ele><time>2026-02-09T16:52:45.000Z</time></trkpt>
        <trkpt lat="29.4974371" lon="103.2841933"><ele>1925.46</ele><time>2026-02-09T16:53:09.000Z</time></trkpt>
        <trkpt lat="29.497517" lon="103.2842591"><ele>1926.63</ele><time>2026-02-09T16:53:24.000Z</time></trkpt>
        <trkpt lat="29.4975614" lon="103.2843714"><ele>1927.6</ele><time>2026-02-09T16:53:35.000Z</time></trkpt>
        <trkpt lat="29.4975931" lon="103.284487"><ele>1929.18</ele><time>2026-02-09T16:53:48.000Z</time></trkpt>
        <trkpt lat="29.4976435" lon="103.2845909"><ele>1929.68</ele><time>2026-02-09T16:53:58.000Z</time></trkpt>
        <trkpt lat="29.4977315" lon="103.2846403"><ele>1930.63</ele><time>2026-02-09T16:54:10.000Z</time></trkpt>
        <trkpt lat="29.4978275" lon="103.2846287"><ele>1931.05</ele><time>2026-02-09T16:54:22.000Z</time></trkpt>
        <trkpt lat="29.4979314" lon="103.2846019"><ele>1931.4</ele><time>2026-02-09T16:54:34.000Z</time></trkpt>
        <trkpt lat="29.4979314" lon="103.2846019"><ele>1931.4</ele><time>2026-02-09T16:54:57.000Z</time></trkpt>
        <trkpt lat="29.4980281" lon="103.2846321"><ele>1932.57</ele><time>2026-02-09T16:55:00.000Z</time></trkpt>
        <trkpt lat="29.4980281" lon="103.2846321"><ele>1932.57</ele><time>2026-02-09T16:55:00.000Z</time></trkpt>
        <trkpt lat="29.4980281" lon="103.2846321"><ele>1932.57</ele><time>2026-02-09T16:55:41.000Z</time></trkpt>
        <trkpt lat="29.4980281" lon="103.2846321"><ele>1932.57</ele><time>2026-02-09T16:55:46.000Z</time></trkpt>
        <trkpt lat="29.4980281" lon="103.2846321"><ele>1932.57</ele><time>2026-02-09T16:56:43.000Z</time></trkpt>
        <trkpt lat="29.4980281" lon="103.2846321"><ele>1932.57</ele><time>2026-02-09T16:57:30.000Z</time></trkpt>
        <trkpt lat="29.4980281" lon="103.2846321"><ele>1932.57</ele><time>2026-02-09T16:57:41.000Z</time></trkpt>
        <trkpt lat="29.49845" lon="103.2841803"><ele>1935.4</ele><time>2026-02-09T16:57:58.000Z</time></trkpt>
        <trkpt lat="29.49845" lon="103.2841803"><ele>1935.4</ele><time>2026-02-09T16:57:59.000Z</time></trkpt>
        <trkpt lat="29.49845" lon="103.2841803"><ele>1935.4</ele><time>2026-02-09T16:58:07.000Z</time></trkpt>
        <trkpt lat="29.4980223" lon="103.2846074"><ele>1937.53</ele><time>2026-02-09T16:58:10.000Z</time></trkpt>
        <trkpt lat="29.4980223" lon="103.2846074"><ele>1937.53</ele><time>2026-02-09T16:58:10.000Z</time></trkpt>
        <trkpt lat="29.4980223" lon="103.2846074"><ele>1937.53</ele><time>2026-02-09T16:58:35.000Z</time></trkpt>
        <trkpt lat="29.4980346" lon="103.2846831"><ele>1936.82</ele><time>2026-02-09T16:58:42.000Z</time></trkpt>
        <trkpt lat="29.4980346" lon="103.2846831"><ele>1936.82</ele><time>2026-02-09T16:58:52.000Z</time></trkpt>
        <trkpt lat="29.4981389" lon="103.2846846"><ele>1936.3</ele><time>2026-02-09T16:59:00.000Z</time></trkpt>
        <trkpt lat="29.4982512" lon="103.2847036"><ele>1937.03</ele><time>2026-02-09T16:59:08.000Z</time></trkpt>
        <trkpt lat="29.4983749" lon="103.2847176"><ele>1937.07</ele><time>2026-02-09T16:59:19.000Z</time></trkpt>
        <trkpt lat="29.4984943" lon="103.2847255"><ele>1939.61</ele><time>2026-02-09T16:59:30.000Z</time></trkpt>
        <trkpt lat="29.4986034" lon="103.2848014"><ele>1940.47</ele><time>2026-02-09T16:59:42.000Z</time></trkpt>
        <trkpt lat="29.49868" lon="103.2848852"><ele>1940.62</ele><time>2026-02-09T16:59:54.000Z</time></trkpt>
        <trkpt lat="29.4987627" lon="103.2849477"><ele>1942.2</ele><time>2026-02-09T17:00:07.000Z</time></trkpt>
        <trkpt lat="29.4988556" lon="103.2849544"><ele>1944.44</ele><time>2026-02-09T17:00:24.000Z</time></trkpt>
        <trkpt lat="29.498959" lon="103.2849437"><ele>1945.24</ele><time>2026-02-09T17:00:36.000Z</time></trkpt>
        <trkpt lat="29.49906" lon="103.2849454"><ele>1945.3</ele><time>2026-02-09T17:00:50.000Z</time></trkpt>
        <trkpt lat="29.4991498" lon="103.284978"><ele>1945.77</ele><time>2026-02-09T17:01:02.000Z</time></trkpt>
        <trkpt lat="29.4991519" lon="103.2850688"><ele>1946.37</ele><time>2026-02-09T17:01:14.000Z</time></trkpt>
        <trkpt lat="29.4991092" lon="103.2851687"><ele>1947</ele><time>2026-02-09T17:01:26.000Z</time></trkpt>
        <trkpt lat="29.499063" lon="103.2852824"><ele>1948.1</ele><time>2026-02-09T17:01:40.000Z</time></trkpt>
        <trkpt lat="29.4990457" lon="103.2853961"><ele>1949.83</ele><time>2026-02-09T17:01:55.000Z</time></trkpt>
        <trkpt lat="29.4990207" lon="103.2855032"><ele>1952.92</ele><time>2026-02-09T17:02:17.000Z</time></trkpt>
        <trkpt lat="29.4990886" lon="103.285551"><ele>1957.09</ele><time>2026-02-09T17:02:42.000Z</time></trkpt>
        <trkpt lat="29.4991915" lon="103.2856023"><ele>1958.81</ele><time>2026-02-09T17:02:48.000Z</time></trkpt>
        <trkpt lat="29.499288" lon="103.2856497"><ele>1959.57</ele><time>2026-02-09T17:03:02.000Z</time></trkpt>
        <trkpt lat="29.4993272" lon="103.2857423"><ele>1959.76</ele><time>2026-02-09T17:03:14.000Z</time></trkpt>
        <trkpt lat="29.499339" lon="103.2858467"><ele>1960.53</ele><time>2026-02-09T17:03:24.000Z</time></trkpt>
        <trkpt lat="29.4993951" lon="103.2859231"><ele>1961.74</ele><time>2026-02-09T17:03:38.000Z</time></trkpt>
        <trkpt lat="29.4994754" lon="103.2859792"><ele>1963.1</ele><time>2026-02-09T17:03:52.000Z</time></trkpt>
        <trkpt lat="29.4995703" lon="103.2860072"><ele>1964.58</ele><time>2026-02-09T17:04:04.000Z</time></trkpt>
        <trkpt lat="29.4996646" lon="103.2860378"><ele>1965.81</ele><time>2026-02-09T17:04:14.000Z</time></trkpt>
        <trkpt lat="29.4997489" lon="103.2860913"><ele>1966.56</ele><time>2026-02-09T17:04:26.000Z</time></trkpt>
        <trkpt lat="29.499833" lon="103.2861465"><ele>1967.1</ele><time>2026-02-09T17:04:36.000Z</time></trkpt>
        <trkpt lat="29.499922" lon="103.2861527"><ele>1967.77</ele><time>2026-02-09T17:04:50.000Z</time></trkpt>
        <trkpt lat="29.5000132" lon="103.2861523"><ele>1968.77</ele><time>2026-02-09T17:05:02.000Z</time></trkpt>
        <trkpt lat="29.500103" lon="103.2861673"><ele>1969.63</ele><time>2026-02-09T17:05:12.000Z</time></trkpt>
        <trkpt lat="29.5001975" lon="103.2861968"><ele>1970.29</ele><time>2026-02-09T17:05:24.000Z</time></trkpt>
        <trkpt lat="29.5002902" lon="103.2862117"><ele>1970.73</ele><time>2026-02-09T17:05:34.000Z</time></trkpt>
        <trkpt lat="29.5003788" lon="103.2862344"><ele>1971.45</ele><time>2026-02-09T17:05:44.000Z</time></trkpt>
        <trkpt lat="29.5004503" lon="103.2863069"><ele>1972.29</ele><time>2026-02-09T17:05:56.000Z</time></trkpt>
        <trkpt lat="29.5005141" lon="103.2863881"><ele>1973.06</ele><time>2026-02-09T17:06:10.000Z</time></trkpt>
        <trkpt lat="29.5006006" lon="103.2864563"><ele>1975.25</ele><time>2026-02-09T17:06:20.000Z</time></trkpt>
        <trkpt lat="29.500683" lon="103.2865258"><ele>1978.02</ele><time>2026-02-09T17:06:32.000Z</time></trkpt>
        <trkpt lat="29.500738" lon="103.2866115"><ele>1980.23</ele><time>2026-02-09T17:06:44.000Z</time></trkpt>
        <trkpt lat="29.5008046" lon="103.2866965"><ele>1982.58</ele><time>2026-02-09T17:06:58.000Z</time></trkpt>
        <trkpt lat="29.5008648" lon="103.2867781"><ele>1984.25</ele><time>2026-02-09T17:07:25.000Z</time></trkpt>
        <trkpt lat="29.5009592" lon="103.2868075"><ele>1987.06</ele><time>2026-02-09T17:07:36.000Z</time></trkpt>
        <trkpt lat="29.5010539" lon="103.2867858"><ele>1987.83</ele><time>2026-02-09T17:07:43.000Z</time></trkpt>
        <trkpt lat="29.5011515" lon="103.2867976"><ele>1989.28</ele><time>2026-02-09T17:08:23.000Z</time></trkpt>
        <trkpt lat="29.5011515" lon="103.2867976"><ele>1989.28</ele><time>2026-02-09T17:09:23.000Z</time></trkpt>
        <trkpt lat="29.5011515" lon="103.2867976"><ele>1989.28</ele><time>2026-02-09T17:09:32.000Z</time></trkpt>
        <trkpt lat="29.5011515" lon="103.2867976"><ele>1989.28</ele><time>2026-02-09T17:09:43.000Z</time></trkpt>
        <trkpt lat="29.5011515" lon="103.2867976"><ele>1989.28</ele><time>2026-02-09T17:09:46.000Z</time></trkpt>
        <trkpt lat="29.5011515" lon="103.2867976"><ele>1989.28</ele><time>2026-02-09T17:10:01.000Z</time></trkpt>
        <trkpt lat="29.5010152" lon="103.2870227"><ele>1988.88</ele><time>2026-02-09T17:10:14.000Z</time></trkpt>
        <trkpt lat="29.5010152" lon="103.2870227"><ele>1988.88</ele><time>2026-02-09T17:10:15.000Z</time></trkpt>
        <trkpt lat="29.5011393" lon="103.2868254"><ele>1989.76</ele><time>2026-02-09T17:10:21.000Z</time></trkpt>
        <trkpt lat="29.5011836" lon="103.2867038"><ele>1991.24</ele><time>2026-02-09T17:10:25.000Z</time></trkpt>
        <trkpt lat="29.5012609" lon="103.286676"><ele>1985.85</ele><time>2026-02-09T17:10:34.000Z</time></trkpt>
        <trkpt lat="29.5013424" lon="103.2867274"><ele>1981.9</ele><time>2026-02-09T17:10:42.000Z</time></trkpt>
        <trkpt lat="29.5014306" lon="103.2867603"><ele>1982.37</ele><time>2026-02-09T17:10:50.000Z</time></trkpt>
        <trkpt lat="29.5015064" lon="103.286838"><ele>1982.67</ele><time>2026-02-09T17:11:00.000Z</time></trkpt>
        <trkpt lat="29.5014867" lon="103.2869364"><ele>1983.14</ele><time>2026-02-09T17:11:13.000Z</time></trkpt>
        <trkpt lat="29.5014867" lon="103.2869364"><ele>1983.14</ele><time>2026-02-09T17:11:17.000Z</time></trkpt>
        <trkpt lat="29.5014867" lon="103.2869364"><ele>1983.14</ele><time>2026-02-09T17:11:22.000Z</time></trkpt>
        <trkpt lat="29.5014867" lon="103.2869364"><ele>1983.14</ele><time>2026-02-09T17:11:31.000Z</time></trkpt>
        <trkpt lat="29.501386" lon="103.2870465"><ele>1986.26</ele><time>2026-02-09T17:11:38.000Z</time></trkpt>
        <trkpt lat="29.501386" lon="103.2870465"><ele>1986.26</ele><time>2026-02-09T17:12:35.000Z</time></trkpt>
        <trkpt lat="29.5012826" lon="103.2871644"><ele>1988.46</ele><time>2026-02-09T17:12:44.000Z</time></trkpt>
        <trkpt lat="29.5012471" lon="103.2872344"><ele>1991.28</ele><time>2026-02-09T17:12:53.000Z</time></trkpt>
        <trkpt lat="29.5012796" lon="103.2873254"><ele>1991.29</ele><time>2026-02-09T17:13:12.000Z</time></trkpt>
        <trkpt lat="29.5013341" lon="103.2874291"><ele>1991.94</ele><time>2026-02-09T17:13:22.000Z</time></trkpt>
        <trkpt lat="29.5013341" lon="103.2874291"><ele>1991.94</ele><time>2026-02-09T17:13:43.000Z</time></trkpt>
        <trkpt lat="29.5013341" lon="103.2874291"><ele>1991.94</ele><time>2026-02-09T17:13:46.000Z</time></trkpt>
        <trkpt lat="29.5013341" lon="103.2874291"><ele>1991.94</ele><time>2026-02-09T17:13:57.000Z</time></trkpt>
        <trkpt lat="29.5013429" lon="103.2875836"><ele>1991.61</ele><time>2026-02-09T17:14:08.000Z</time></trkpt>
        <trkpt lat="29.5013429" lon="103.2875836"><ele>1991.61</ele><time>2026-02-09T17:14:09.000Z</time></trkpt>
        <trkpt lat="29.5014024" lon="103.2876715"><ele>2002.35</ele><time>2026-02-09T17:14:15.000Z</time></trkpt>
        <trkpt lat="29.5014056" lon="103.2877697"><ele>2002.27</ele><time>2026-02-09T17:14:22.000Z</time></trkpt>
        <trkpt lat="29.5013916" lon="103.2878815"><ele>2005.01</ele><time>2026-02-09T17:14:32.000Z</time></trkpt>
        <trkpt lat="29.5013195" lon="103.2879736"><ele>2005.78</ele><time>2026-02-09T17:14:42.000Z</time></trkpt>
        <trkpt lat="29.5012254" lon="103.2880088"><ele>2006.65</ele><time>2026-02-09T17:14:50.000Z</time></trkpt>
        <trkpt lat="29.5011227" lon="103.2880345"><ele>2007.09</ele><time>2026-02-09T17:15:02.000Z</time></trkpt>
        <trkpt lat="29.5010369" lon="103.2881015"><ele>2007.18</ele><time>2026-02-09T17:15:18.000Z</time></trkpt>
        <trkpt lat="29.5009844" lon="103.2881923"><ele>2008.53</ele><time>2026-02-09T17:15:30.000Z</time></trkpt>
        <trkpt lat="29.5009415" lon="103.2882935"><ele>2009.59</ele><time>2026-02-09T17:15:44.000Z</time></trkpt>
        <trkpt lat="29.5009537" lon="103.2883992"><ele>2010.44</ele><time>2026-02-09T17:15:56.000Z</time></trkpt>
        <trkpt lat="29.5010093" lon="103.2885008"><ele>2011.15</ele><time>2026-02-09T17:16:10.000Z</time></trkpt>
        <trkpt lat="29.5010802" lon="103.2886019"><ele>2011.64</ele><time>2026-02-09T17:16:22.000Z</time></trkpt>
        <trkpt lat="29.5011745" lon="103.2886767"><ele>2011.82</ele><time>2026-02-09T17:16:32.000Z</time></trkpt>
        <trkpt lat="29.501267" lon="103.2886529"><ele>2012.14</ele><time>2026-02-09T17:16:44.000Z</time></trkpt>
        <trkpt lat="29.5013506" lon="103.2885746"><ele>2013.18</ele><time>2026-02-09T17:17:15.000Z</time></trkpt>
        <trkpt lat="29.5013506" lon="103.2885746"><ele>2013.18</ele><time>2026-02-09T17:17:35.000Z</time></trkpt>
        <trkpt lat="29.5014403" lon="103.2884975"><ele>2014.05</ele><time>2026-02-09T17:17:38.000Z</time></trkpt>
        <trkpt lat="29.5014403" lon="103.2884975"><ele>2014.05</ele><time>2026-02-09T17:18:04.000Z</time></trkpt>
        <trkpt lat="29.5015268" lon="103.288442"><ele>2013.96</ele><time>2026-02-09T17:18:12.000Z</time></trkpt>
        <trkpt lat="29.5015809" lon="103.2884242"><ele>2015.96</ele><time>2026-02-09T17:18:21.000Z</time></trkpt>
        <trkpt lat="29.5016616" lon="103.2884329"><ele>2014.7</ele><time>2026-02-09T17:18:33.000Z</time></trkpt>
        <trkpt lat="29.5016616" lon="103.2884329"><ele>2014.7</ele><time>2026-02-09T17:19:01.000Z</time></trkpt>
        <trkpt lat="29.5017204" lon="103.2883631"><ele>2014.18</ele><time>2026-02-09T17:19:24.000Z</time></trkpt>
        <trkpt lat="29.5017204" lon="103.2883631"><ele>2014.18</ele><time>2026-02-09T17:19:25.000Z</time></trkpt>
        <trkpt lat="29.5017917" lon="103.2883825"><ele>2013.77</ele><time>2026-02-09T17:19:31.000Z</time></trkpt>
        <trkpt lat="29.5018809" lon="103.2883408"><ele>2017.21</ele><time>2026-02-09T17:19:42.000Z</time></trkpt>
        <trkpt lat="29.5019902" lon="103.2882983"><ele>2019.38</ele><time>2026-02-09T17:19:52.000Z</time></trkpt>
        <trkpt lat="29.5020824" lon="103.2882377"><ele>2020.29</ele><time>2026-02-09T17:20:00.000Z</time></trkpt>
        <trkpt lat="29.5021842" lon="103.2881943"><ele>2021.19</ele><time>2026-02-09T17:20:08.000Z</time></trkpt>
        <trkpt lat="29.5022829" lon="103.2881709"><ele>2022.14</ele><time>2026-02-09T17:20:16.000Z</time></trkpt>
        <trkpt lat="29.5023852" lon="103.2881591"><ele>2023.24</ele><time>2026-02-09T17:20:26.000Z</time></trkpt>
        <trkpt lat="29.5024794" lon="103.2881502"><ele>2024.49</ele><time>2026-02-09T17:20:43.000Z</time></trkpt>
        <trkpt lat="29.5025764" lon="103.2881522"><ele>2027.28</ele><time>2026-02-09T17:20:52.000Z</time></trkpt>
        <trkpt lat="29.5026597" lon="103.2882103"><ele>2028.95</ele><time>2026-02-09T17:21:03.000Z</time></trkpt>
        <trkpt lat="29.5027035" lon="103.2883085"><ele>2029.9</ele><time>2026-02-09T17:21:19.000Z</time></trkpt>
        <trkpt lat="29.502726" lon="103.2884284"><ele>2030.86</ele><time>2026-02-09T17:21:31.000Z</time></trkpt>
        <trkpt lat="29.5027444" lon="103.2885505"><ele>2032.2</ele><time>2026-02-09T17:21:41.000Z</time></trkpt>
        <trkpt lat="29.5027631" lon="103.2886607"><ele>2033.84</ele><time>2026-02-09T17:22:07.000Z</time></trkpt>
        <trkpt lat="29.5027557" lon="103.2887189"><ele>2035.52</ele><time>2026-02-09T17:22:15.000Z</time></trkpt>
        <trkpt lat="29.5027923" lon="103.2888007"><ele>2038.01</ele><time>2026-02-09T17:22:42.000Z</time></trkpt>
        <trkpt lat="29.5028779" lon="103.2888647"><ele>2040.44</ele><time>2026-02-09T17:22:56.000Z</time></trkpt>
        <trkpt lat="29.5029229" lon="103.2888909"><ele>2043.02</ele><time>2026-02-09T17:23:02.000Z</time></trkpt>
        <trkpt lat="29.5029789" lon="103.2889605"><ele>2044.85</ele><time>2026-02-09T17:23:20.000Z</time></trkpt>
        <trkpt lat="29.5030368" lon="103.2890588"><ele>2045.05</ele><time>2026-02-09T17:23:29.000Z</time></trkpt>
        <trkpt lat="29.5030923" lon="103.2891596"><ele>2045.13</ele><time>2026-02-09T17:23:39.000Z</time></trkpt>
        <trkpt lat="29.503136" lon="103.2892688"><ele>2044.22</ele><time>2026-02-09T17:23:50.000Z</time></trkpt>
        <trkpt lat="29.5031702" lon="103.2893785"><ele>2043.42</ele><time>2026-02-09T17:23:59.000Z</time></trkpt>
        <trkpt lat="29.5031923" lon="103.2894966"><ele>2043.33</ele><time>2026-02-09T17:24:12.000Z</time></trkpt>
        <trkpt lat="29.5032174" lon="103.2896101"><ele>2043.75</ele><time>2026-02-09T17:24:22.000Z</time></trkpt>
        <trkpt lat="29.5032479" lon="103.2897133"><ele>2044.31</ele><time>2026-02-09T17:24:34.000Z</time></trkpt>
        <trkpt lat="29.5033107" lon="103.2897879"><ele>2044.54</ele><time>2026-02-09T17:24:48.000Z</time></trkpt>
        <trkpt lat="29.5034019" lon="103.2898196"><ele>2044.58</ele><time>2026-02-09T17:24:58.000Z</time></trkpt>
        <trkpt lat="29.5035087" lon="103.2898396"><ele>2045.14</ele><time>2026-02-09T17:25:52.000Z</time></trkpt>
        <trkpt lat="29.5036087" lon="103.2898608"><ele>2046.29</ele><time>2026-02-09T17:26:05.000Z</time></trkpt>
        <trkpt lat="29.5035629" lon="103.2898663"><ele>2047.84</ele><time>2026-02-09T17:26:15.000Z</time></trkpt>
        <trkpt lat="29.5036071" lon="103.2898515"><ele>2048.54</ele><time>2026-02-09T17:26:45.000Z</time></trkpt>
        <trkpt lat="29.5036859" lon="103.2898138"><ele>2049.93</ele><time>2026-02-09T17:27:07.000Z</time></trkpt>
        <trkpt lat="29.5037823" lon="103.2898198"><ele>2050.92</ele><time>2026-02-09T17:27:50.000Z</time></trkpt>
        <trkpt lat="29.5038812" lon="103.2898168"><ele>2050.39</ele><time>2026-02-09T17:28:33.000Z</time></trkpt>
        <trkpt lat="29.503937" lon="103.2898941"><ele>2052.11</ele><time>2026-02-09T17:28:46.000Z</time></trkpt>
        <trkpt lat="29.5039343" lon="103.2899186"><ele>2053.7</ele><time>2026-02-09T17:28:53.000Z</time></trkpt>
        <trkpt lat="29.5038705" lon="103.2898773"><ele>2054.79</ele><time>2026-02-09T17:29:19.000Z</time></trkpt>
        <trkpt lat="29.5038987" lon="103.2899051"><ele>2055.51</ele><time>2026-02-09T17:29:31.000Z</time></trkpt>
        <trkpt lat="29.5038987" lon="103.2899051"><ele>2055.51</ele><time>2026-02-09T17:30:05.000Z</time></trkpt>
        <trkpt lat="29.5039365" lon="103.2900001"><ele>2055.91</ele><time>2026-02-09T17:30:06.000Z</time></trkpt>
        <trkpt lat="29.5039365" lon="103.2900001"><ele>2055.91</ele><time>2026-02-09T17:30:20.000Z</time></trkpt>
        <trkpt lat="29.5040197" lon="103.2900597"><ele>2055.69</ele><time>2026-02-09T17:30:45.000Z</time></trkpt>
        <trkpt lat="29.5041183" lon="103.2901075"><ele>2055.12</ele><time>2026-02-09T17:30:58.000Z</time></trkpt>
        <trkpt lat="29.5042284" lon="103.2901165"><ele>2054.6</ele><time>2026-02-09T17:31:08.000Z</time></trkpt>
        <trkpt lat="29.5043249" lon="103.2901366"><ele>2053.93</ele><time>2026-02-09T17:31:25.000Z</time></trkpt>
        <trkpt lat="29.5044177" lon="103.2901558"><ele>2055.52</ele><time>2026-02-09T17:31:34.000Z</time></trkpt>
        <trkpt lat="29.5045066" lon="103.2901773"><ele>2054.87</ele><time>2026-02-09T17:31:40.000Z</time></trkpt>
        <trkpt lat="29.5045694" lon="103.2902453"><ele>2058.66</ele><time>2026-02-09T17:31:50.000Z</time></trkpt>
        <trkpt lat="29.5045439" lon="103.2903378"><ele>2060.97</ele><time>2026-02-09T17:32:06.000Z</time></trkpt>
        <trkpt lat="29.5044857" lon="103.2904408"><ele>2061.11</ele><time>2026-02-09T17:32:16.000Z</time></trkpt>
        <trkpt lat="29.504406" lon="103.2905264"><ele>2061.2</ele><time>2026-02-09T17:32:29.000Z</time></trkpt>
        <trkpt lat="29.5043632" lon="103.2906272"><ele>2065.18</ele><time>2026-02-09T17:32:51.000Z</time></trkpt>
        <trkpt lat="29.5043426" lon="103.2907342"><ele>2067.29</ele><time>2026-02-09T17:33:05.000Z</time></trkpt>
        <trkpt lat="29.5043501" lon="103.2908473"><ele>2069.66</ele><time>2026-02-09T17:33:19.000Z</time></trkpt>
        <trkpt lat="29.5043823" lon="103.2909569"><ele>2071.54</ele><time>2026-02-09T17:33:32.000Z</time></trkpt>
        <trkpt lat="29.5044548" lon="103.2910284"><ele>2073.25</ele><time>2026-02-09T17:33:44.000Z</time></trkpt>
        <trkpt lat="29.5045441" lon="103.291084"><ele>2071.94</ele><time>2026-02-09T17:33:54.000Z</time></trkpt>
        <trkpt lat="29.5046312" lon="103.2911425"><ele>2071.59</ele><time>2026-02-09T17:34:06.000Z</time></trkpt>
        <trkpt lat="29.5046469" lon="103.2912368"><ele>2072.35</ele><time>2026-02-09T17:34:12.000Z</time></trkpt>
        <trkpt lat="29.5046475" lon="103.2912534"><ele>2074.87</ele><time>2026-02-09T17:34:15.000Z</time></trkpt>
        <trkpt lat="29.504711" lon="103.2912918"><ele>2076.81</ele><time>2026-02-09T17:34:31.000Z</time></trkpt>
        <trkpt lat="29.5047972" lon="103.2913431"><ele>2078.84</ele><time>2026-02-09T17:34:43.000Z</time></trkpt>
        <trkpt lat="29.5048826" lon="103.2914206"><ele>2079.97</ele><time>2026-02-09T17:34:54.000Z</time></trkpt>
        <trkpt lat="29.5049563" lon="103.2915016"><ele>2077.99</ele><time>2026-02-09T17:35:14.000Z</time></trkpt>
        <trkpt lat="29.5050321" lon="103.2915684"><ele>2079.29</ele><time>2026-02-09T17:35:26.000Z</time></trkpt>
        <trkpt lat="29.5051131" lon="103.2916239"><ele>2079.88</ele><time>2026-02-09T17:35:36.000Z</time></trkpt>
        <trkpt lat="29.5051843" lon="103.2916974"><ele>2080.08</ele><time>2026-02-09T17:35:59.000Z</time></trkpt>
        <trkpt lat="29.5052364" lon="103.2917859"><ele>2081.17</ele><time>2026-02-09T17:36:10.000Z</time></trkpt>
        <trkpt lat="29.5052968" lon="103.2918701"><ele>2082</ele><time>2026-02-09T17:36:22.000Z</time></trkpt>
        <trkpt lat="29.5053616" lon="103.2919472"><ele>2082.26</ele><time>2026-02-09T17:36:41.000Z</time></trkpt>
        <trkpt lat="29.5054411" lon="103.2920111"><ele>2086.35</ele><time>2026-02-09T17:37:15.000Z</time></trkpt>
        <trkpt lat="29.505533" lon="103.2920675"><ele>2088.34</ele><time>2026-02-09T17:37:33.000Z</time></trkpt>
        <trkpt lat="29.5056342" lon="103.2920977"><ele>2090.11</ele><time>2026-02-09T17:37:46.000Z</time></trkpt>
        <trkpt lat="29.5056342" lon="103.2920977"><ele>2090.11</ele><time>2026-02-09T17:38:03.000Z</time></trkpt>
        <trkpt lat="29.5057345" lon="103.2921157"><ele>2091.68</ele><time>2026-02-09T17:38:04.000Z</time></trkpt>
        <trkpt lat="29.5057345" lon="103.2921157"><ele>2091.68</ele><time>2026-02-09T17:38:14.000Z</time></trkpt>
        <trkpt lat="29.5058134" lon="103.2921696"><ele>2093.23</ele><time>2026-02-09T17:38:28.000Z</time></trkpt>
        <trkpt lat="29.5058339" lon="103.2921992"><ele>2094.44</ele><time>2026-02-09T17:38:33.000Z</time></trkpt>
        <trkpt lat="29.5058447" lon="103.2922838"><ele>2095.59</ele><time>2026-02-09T17:38:55.000Z</time></trkpt>
        <trkpt lat="29.5058727" lon="103.2923869"><ele>2097.2</ele><time>2026-02-09T17:39:10.000Z</time></trkpt>
        <trkpt lat="29.5059274" lon="103.292499"><ele>2098.77</ele><time>2026-02-09T17:39:55.000Z</time></trkpt>
        <trkpt lat="29.5059833" lon="103.2925959"><ele>2102.43</ele><time>2026-02-09T17:40:19.000Z</time></trkpt>
        <trkpt lat="29.5060511" lon="103.2926693"><ele>2104.61</ele><time>2026-02-09T17:40:32.000Z</time></trkpt>
        <trkpt lat="29.5061148" lon="103.2927462"><ele>2105.43</ele><time>2026-02-09T17:40:44.000Z</time></trkpt>
        <trkpt lat="29.506163" lon="103.2928471"><ele>2105.7</ele><time>2026-02-09T17:41:09.000Z</time></trkpt>
        <trkpt lat="29.5062303" lon="103.2929239"><ele>2107.26</ele><time>2026-02-09T17:41:22.000Z</time></trkpt>
        <trkpt lat="29.5062916" lon="103.293009"><ele>2106.79</ele><time>2026-02-09T17:41:36.000Z</time></trkpt>
        <trkpt lat="29.5063167" lon="103.2931118"><ele>2106.95</ele><time>2026-02-09T17:41:53.000Z</time></trkpt>
        <trkpt lat="29.5062791" lon="103.2932106"><ele>2108.81</ele><time>2026-02-09T17:42:06.000Z</time></trkpt>
        <trkpt lat="29.506195" lon="103.2932681"><ele>2111.42</ele><time>2026-02-09T17:42:43.000Z</time></trkpt>
        <trkpt lat="29.506096" lon="103.2933342"><ele>2114.15</ele><time>2026-02-09T17:42:56.000Z</time></trkpt>
        <trkpt lat="29.5060057" lon="103.2933969"><ele>2116.24</ele><time>2026-02-09T17:43:06.000Z</time></trkpt>
        <trkpt lat="29.5059603" lon="103.293496"><ele>2117.36</ele><time>2026-02-09T17:43:42.000Z</time></trkpt>
        <trkpt lat="29.5059537" lon="103.2936059"><ele>2119.46</ele><time>2026-02-09T17:43:54.000Z</time></trkpt>
        <trkpt lat="29.5059778" lon="103.2937351"><ele>2120.76</ele><time>2026-02-09T17:44:06.000Z</time></trkpt>
        <trkpt lat="29.505994" lon="103.2938526"><ele>2121.97</ele><time>2026-02-09T17:44:20.000Z</time></trkpt>
        <trkpt lat="29.5060179" lon="103.2939725"><ele>2124.06</ele><time>2026-02-09T17:45:03.000Z</time></trkpt>
        <trkpt lat="29.5060179" lon="103.2939725"><ele>2124.06</ele><time>2026-02-09T17:45:47.000Z</time></trkpt>
        <trkpt lat="29.5060179" lon="103.2939725"><ele>2124.06</ele><time>2026-02-09T17:45:50.000Z</time></trkpt>
        <trkpt lat="29.5060179" lon="103.2939725"><ele>2124.06</ele><time>2026-02-09T17:46:07.000Z</time></trkpt>
        <trkpt lat="29.5060179" lon="103.2939725"><ele>2124.06</ele><time>2026-02-09T17:46:32.000Z</time></trkpt>
        <trkpt lat="29.5060179" lon="103.2939725"><ele>2124.06</ele><time>2026-02-09T17:47:27.000Z</time></trkpt>
        <trkpt lat="29.5059958" lon="103.2938496"><ele>2126.26</ele><time>2026-02-09T17:48:34.000Z</time></trkpt>
        <trkpt lat="29.5059958" lon="103.2938496"><ele>2126.26</ele><time>2026-02-09T17:48:35.000Z</time></trkpt>
        <trkpt lat="29.5060354" lon="103.2939554"><ele>2128.43</ele><time>2026-02-09T17:48:41.000Z</time></trkpt>
        <trkpt lat="29.5060354" lon="103.2939554"><ele>2128.43</ele><time>2026-02-09T17:48:43.000Z</time></trkpt>
        <trkpt lat="29.5060354" lon="103.2939554"><ele>2128.43</ele><time>2026-02-09T17:48:46.000Z</time></trkpt>
        <trkpt lat="29.5060354" lon="103.2939554"><ele>2128.43</ele><time>2026-02-09T17:49:09.000Z</time></trkpt>
        <trkpt lat="29.5060354" lon="103.2939554"><ele>2128.43</ele><time>2026-02-09T17:49:16.000Z</time></trkpt>
        <trkpt lat="29.5060354" lon="103.2939554"><ele>2128.43</ele><time>2026-02-09T17:49:45.000Z</time></trkpt>
        <trkpt lat="29.5060354" lon="103.2939554"><ele>2128.43</ele><time>2026-02-09T17:49:56.000Z</time></trkpt>
        <trkpt lat="29.5060354" lon="103.2939554"><ele>2128.43</ele><time>2026-02-09T17:50:09.000Z</time></trkpt>
        <trkpt lat="29.5060354" lon="103.2939554"><ele>2128.43</ele><time>2026-02-09T17:51:18.000Z</time></trkpt>
        <trkpt lat="29.5060354" lon="103.2939554"><ele>2128.43</ele><time>2026-02-09T17:51:33.000Z</time></trkpt>
        <trkpt lat="29.5060354" lon="103.2939554"><ele>2128.43</ele><time>2026-02-09T17:51:34.000Z</time></trkpt>
        <trkpt lat="29.5060354" lon="103.2939554"><ele>2128.43</ele><time>2026-02-09T17:51:47.000Z</time></trkpt>
        <trkpt lat="29.5060354" lon="103.2939554"><ele>2128.43</ele><time>2026-02-09T17:51:56.000Z</time></trkpt>
        <trkpt lat="29.5060354" lon="103.2939554"><ele>2128.43</ele><time>2026-02-09T17:52:23.000Z</time></trkpt>
        <trkpt lat="29.5061147" lon="103.2940164"><ele>2128.9</ele><time>2026-02-09T17:53:22.000Z</time></trkpt>
        <trkpt lat="29.5061147" lon="103.2940164"><ele>2128.9</ele><time>2026-02-09T17:53:31.000Z</time></trkpt>
        <trkpt lat="29.5063393" lon="103.2940735"><ele>2130.18</ele><time>2026-02-09T17:53:39.000Z</time></trkpt>
        <trkpt lat="29.5061414" lon="103.2939635"><ele>2124.82</ele><time>2026-02-09T17:53:50.000Z</time></trkpt>
        <trkpt lat="29.5061414" lon="103.2939635"><ele>2124.82</ele><time>2026-02-09T17:54:17.000Z</time></trkpt>
        <trkpt lat="29.5061414" lon="103.2939635"><ele>2124.82</ele><time>2026-02-09T17:54:20.000Z</time></trkpt>
        <trkpt lat="29.5061414" lon="103.2939635"><ele>2124.82</ele><time>2026-02-09T17:54:33.000Z</time></trkpt>
        <trkpt lat="29.5061035" lon="103.2940481"><ele>2128.54</ele><time>2026-02-09T17:54:42.000Z</time></trkpt>
        <trkpt lat="29.5061035" lon="103.2940481"><ele>2128.54</ele><time>2026-02-09T17:54:52.000Z</time></trkpt>
        <trkpt lat="29.5061614" lon="103.2941286"><ele>2129.91</ele><time>2026-02-09T17:55:05.000Z</time></trkpt>
        <trkpt lat="29.5062479" lon="103.2941847"><ele>2133.2</ele><time>2026-02-09T17:55:21.000Z</time></trkpt>
        <trkpt lat="29.5063432" lon="103.294231"><ele>2134.45</ele><time>2026-02-09T17:55:41.000Z</time></trkpt>
        <trkpt lat="29.5064299" lon="103.2942819"><ele>2136.26</ele><time>2026-02-09T17:55:57.000Z</time></trkpt>
        <trkpt lat="29.5065185" lon="103.2943086"><ele>2139.72</ele><time>2026-02-09T17:56:13.000Z</time></trkpt>
        <trkpt lat="29.5066157" lon="103.2942976"><ele>2144.49</ele><time>2026-02-09T17:56:31.000Z</time></trkpt>
        <trkpt lat="29.5067089" lon="103.2943062"><ele>2150.51</ele><time>2026-02-09T17:56:47.000Z</time></trkpt>
        <trkpt lat="29.5067799" lon="103.2943741"><ele>2152.91</ele><time>2026-02-09T17:57:13.000Z</time></trkpt>
        <trkpt lat="29.5068225" lon="103.2944806"><ele>2152.77</ele><time>2026-02-09T17:57:31.000Z</time></trkpt>
        <trkpt lat="29.5068047" lon="103.2945894"><ele>2152.33</ele><time>2026-02-09T17:57:47.000Z</time></trkpt>
        <trkpt lat="29.5067637" lon="103.2947009"><ele>2153.29</ele><time>2026-02-09T17:58:10.000Z</time></trkpt>
        <trkpt lat="29.5067313" lon="103.294823"><ele>2155.7</ele><time>2026-02-09T17:58:25.000Z</time></trkpt>
        <trkpt lat="29.5067216" lon="103.2949391"><ele>2156.98</ele><time>2026-02-09T17:58:38.000Z</time></trkpt>
        <trkpt lat="29.506734" lon="103.2950478"><ele>2157.35</ele><time>2026-02-09T17:58:52.000Z</time></trkpt>
        <trkpt lat="29.5067542" lon="103.2951605"><ele>2158.24</ele><time>2026-02-09T17:59:06.000Z</time></trkpt>
        <trkpt lat="29.5067631" lon="103.2952777"><ele>2159.66</ele><time>2026-02-09T17:59:24.000Z</time></trkpt>
        <trkpt lat="29.5067706" lon="103.2953975"><ele>2161.33</ele><time>2026-02-09T17:59:40.000Z</time></trkpt>
        <trkpt lat="29.5067566" lon="103.2955132"><ele>2163.61</ele><time>2026-02-09T18:00:00.000Z</time></trkpt>
        <trkpt lat="29.5067334" lon="103.2956236"><ele>2166.49</ele><time>2026-02-09T18:00:20.000Z</time></trkpt>
        <trkpt lat="29.5067288" lon="103.2957304"><ele>2167.7</ele><time>2026-02-09T18:00:38.000Z</time></trkpt>
        <trkpt lat="29.5067114" lon="103.2958411"><ele>2168.98</ele><time>2026-02-09T18:00:53.000Z</time></trkpt>
        <trkpt lat="29.5066882" lon="103.2959474"><ele>2171.24</ele><time>2026-02-09T18:01:04.000Z</time></trkpt>
        <trkpt lat="29.5066907" lon="103.2960522"><ele>2174.2</ele><time>2026-02-09T18:01:31.000Z</time></trkpt>
        <trkpt lat="29.5066779" lon="103.2961605"><ele>2177.05</ele><time>2026-02-09T18:01:46.000Z</time></trkpt>
        <trkpt lat="29.5066658" lon="103.2962771"><ele>2179.5</ele><time>2026-02-09T18:01:58.000Z</time></trkpt>
        <trkpt lat="29.5066545" lon="103.2963856"><ele>2180.85</ele><time>2026-02-09T18:02:16.000Z</time></trkpt>
        <trkpt lat="29.5066669" lon="103.2964955"><ele>2182.34</ele><time>2026-02-09T18:02:29.000Z</time></trkpt>
        <trkpt lat="29.5067106" lon="103.2966273"><ele>2183.5</ele><time>2026-02-09T18:02:40.000Z</time></trkpt>
        <trkpt lat="29.5066824" lon="103.296727"><ele>2184.57</ele><time>2026-02-09T18:02:55.000Z</time></trkpt>
        <trkpt lat="29.5066473" lon="103.2968253"><ele>2185.63</ele><time>2026-02-09T18:03:09.000Z</time></trkpt>
        <trkpt lat="29.5066419" lon="103.2969304"><ele>2185.98</ele><time>2026-02-09T18:03:19.000Z</time></trkpt>
        <trkpt lat="29.5066415" lon="103.2970526"><ele>2186.14</ele><time>2026-02-09T18:03:37.000Z</time></trkpt>
        <trkpt lat="29.506614" lon="103.297156"><ele>2184.87</ele><time>2026-02-09T18:03:59.000Z</time></trkpt>
        <trkpt lat="29.5065729" lon="103.2972545"><ele>2186.05</ele><time>2026-02-09T18:04:28.000Z</time></trkpt>
        <trkpt lat="29.5065428" lon="103.29736"><ele>2188.75</ele><time>2026-02-09T18:04:42.000Z</time></trkpt>
        <trkpt lat="29.5065213" lon="103.2974687"><ele>2190.79</ele><time>2026-02-09T18:04:55.000Z</time></trkpt>
        <trkpt lat="29.5065289" lon="103.2975829"><ele>2193.4</ele><time>2026-02-09T18:05:11.000Z</time></trkpt>
        <trkpt lat="29.5065518" lon="103.297706"><ele>2196.14</ele><time>2026-02-09T18:05:23.000Z</time></trkpt>
        <trkpt lat="29.506521" lon="103.2978058"><ele>2198.05</ele><time>2026-02-09T18:05:40.000Z</time></trkpt>
        <trkpt lat="29.5064372" lon="103.2978277"><ele>2199.42</ele><time>2026-02-09T18:05:55.000Z</time></trkpt>
        <trkpt lat="29.5064372" lon="103.2978277"><ele>2199.42</ele><time>2026-02-09T18:06:13.000Z</time></trkpt>
        <trkpt lat="29.5063492" lon="103.2978811"><ele>2200.11</ele><time>2026-02-09T18:06:16.000Z</time></trkpt>
        <trkpt lat="29.5063492" lon="103.2978811"><ele>2200.11</ele><time>2026-02-09T18:06:22.000Z</time></trkpt>
        <trkpt lat="29.5062567" lon="103.2979117"><ele>2201.39</ele><time>2026-02-09T18:06:30.000Z</time></trkpt>
        <trkpt lat="29.506167" lon="103.2979643"><ele>2197.96</ele><time>2026-02-09T18:06:40.000Z</time></trkpt>
        <trkpt lat="29.5060911" lon="103.2980379"><ele>2197.49</ele><time>2026-02-09T18:06:52.000Z</time></trkpt>
        <trkpt lat="29.5060259" lon="103.2981303"><ele>2197.26</ele><time>2026-02-09T18:07:08.000Z</time></trkpt>
        <trkpt lat="29.5059664" lon="103.2982179"><ele>2197.83</ele><time>2026-02-09T18:07:18.000Z</time></trkpt>
        <trkpt lat="29.5058854" lon="103.298276"><ele>2198.24</ele><time>2026-02-09T18:07:30.000Z</time></trkpt>
        <trkpt lat="29.5057927" lon="103.2983132"><ele>2199.09</ele><time>2026-02-09T18:07:42.000Z</time></trkpt>
        <trkpt lat="29.5056949" lon="103.2983396"><ele>2199.75</ele><time>2026-02-09T18:07:54.000Z</time></trkpt>
        <trkpt lat="29.5056085" lon="103.2983831"><ele>2200.44</ele><time>2026-02-09T18:08:06.000Z</time></trkpt>
        <trkpt lat="29.5055419" lon="103.2984694"><ele>2201.31</ele><time>2026-02-09T18:08:18.000Z</time></trkpt>
        <trkpt lat="29.5054949" lon="103.298565"><ele>2202.66</ele><time>2026-02-09T18:08:29.000Z</time></trkpt>
        <trkpt lat="29.5054821" lon="103.2986041"><ele>2203.79</ele><time>2026-02-09T18:08:34.000Z</time></trkpt>
        <trkpt lat="29.5054821" lon="103.2986041"><ele>2203.79</ele><time>2026-02-09T18:08:41.000Z</time></trkpt>
        <trkpt lat="29.5054821" lon="103.2986041"><ele>2203.79</ele><time>2026-02-09T18:08:48.000Z</time></trkpt>
        <trkpt lat="29.5054821" lon="103.2986041"><ele>2203.79</ele><time>2026-02-09T18:10:47.000Z</time></trkpt>
        <trkpt lat="29.5054964" lon="103.2987012"><ele>2207.23</ele><time>2026-02-09T18:10:50.000Z</time></trkpt>
        <trkpt lat="29.5054964" lon="103.2987012"><ele>2207.23</ele><time>2026-02-09T18:11:58.000Z</time></trkpt>
        <trkpt lat="29.5054101" lon="103.2987524"><ele>2209.3</ele><time>2026-02-09T18:12:12.000Z</time></trkpt>
        <trkpt lat="29.5053505" lon="103.2988324"><ele>2211.33</ele><time>2026-02-09T18:12:25.000Z</time></trkpt>
        <trkpt lat="29.5052925" lon="103.2989314"><ele>2213.3</ele><time>2026-02-09T18:12:34.000Z</time></trkpt>
        <trkpt lat="29.5052591" lon="103.2990387"><ele>2214.72</ele><time>2026-02-09T18:12:45.000Z</time></trkpt>
        <trkpt lat="29.5052342" lon="103.2991572"><ele>2215.53</ele><time>2026-02-09T18:12:57.000Z</time></trkpt>
        <trkpt lat="29.5051895" lon="103.2992658"><ele>2216.1</ele><time>2026-02-09T18:13:09.000Z</time></trkpt>
        <trkpt lat="29.505096" lon="103.2992859"><ele>2215.88</ele><time>2026-02-09T18:13:18.000Z</time></trkpt>
        <trkpt lat="29.5050135" lon="103.299227"><ele>2215.89</ele><time>2026-02-09T18:13:32.000Z</time></trkpt>
        <trkpt lat="29.5049194" lon="103.2991914"><ele>2216.62</ele><time>2026-02-09T18:13:51.000Z</time></trkpt>
        <trkpt lat="29.5048144" lon="103.2991536"><ele>2217.36</ele><time>2026-02-09T18:14:06.000Z</time></trkpt>
        <trkpt lat="29.5047509" lon="103.299142"><ele>2218.43</ele><time>2026-02-09T18:14:13.000Z</time></trkpt>
        <trkpt lat="29.5046719" lon="103.2991233"><ele>2218.85</ele><time>2026-02-09T18:14:31.000Z</time></trkpt>
        <trkpt lat="29.5045811" lon="103.2991156"><ele>2219.44</ele><time>2026-02-09T18:14:41.000Z</time></trkpt>
        <trkpt lat="29.5044882" lon="103.2991138"><ele>2220.03</ele><time>2026-02-09T18:14:50.000Z</time></trkpt>
        <trkpt lat="29.5043948" lon="103.2991177"><ele>2221.99</ele><time>2026-02-09T18:15:02.000Z</time></trkpt>
        <trkpt lat="29.5042925" lon="103.2990918"><ele>2223.77</ele><time>2026-02-09T18:15:36.000Z</time></trkpt>
        <trkpt lat="29.5042118" lon="103.2990273"><ele>2227.51</ele><time>2026-02-09T18:15:44.000Z</time></trkpt>
        <trkpt lat="29.5041418" lon="103.2989424"><ele>2229.7</ele><time>2026-02-09T18:15:56.000Z</time></trkpt>
        <trkpt lat="29.5041147" lon="103.2988303"><ele>2230.73</ele><time>2026-02-09T18:16:08.000Z</time></trkpt>
        <trkpt lat="29.5040695" lon="103.2987379"><ele>2230.61</ele><time>2026-02-09T18:16:20.000Z</time></trkpt>
        <trkpt lat="29.503984" lon="103.2987016"><ele>2230.58</ele><time>2026-02-09T18:16:32.000Z</time></trkpt>
        <trkpt lat="29.5038881" lon="103.2987224"><ele>2230.51</ele><time>2026-02-09T18:16:41.000Z</time></trkpt>
        <trkpt lat="29.503794" lon="103.298759"><ele>2230.62</ele><time>2026-02-09T18:16:50.000Z</time></trkpt>
        <trkpt lat="29.5036981" lon="103.2988007"><ele>2231.13</ele><time>2026-02-09T18:17:00.000Z</time></trkpt>
        <trkpt lat="29.5035944" lon="103.2988406"><ele>2231.81</ele><time>2026-02-09T18:17:12.000Z</time></trkpt>
        <trkpt lat="29.5035106" lon="103.2989075"><ele>2232.47</ele><time>2026-02-09T18:17:19.000Z</time></trkpt>
        <trkpt lat="29.5034338" lon="103.2989899"><ele>2233.31</ele><time>2026-02-09T18:17:29.000Z</time></trkpt>
        <trkpt lat="29.5033858" lon="103.2990949"><ele>2234.2</ele><time>2026-02-09T18:17:40.000Z</time></trkpt>
        <trkpt lat="29.5033898" lon="103.2992059"><ele>2235.29</ele><time>2026-02-09T18:17:50.000Z</time></trkpt>
        <trkpt lat="29.5034409" lon="103.2993088"><ele>2236.63</ele><time>2026-02-09T18:18:03.000Z</time></trkpt>
        <trkpt lat="29.5034866" lon="103.2994139"><ele>2235.73</ele><time>2026-02-09T18:18:12.000Z</time></trkpt>
        <trkpt lat="29.503507" lon="103.2995187"><ele>2234.69</ele><time>2026-02-09T18:18:22.000Z</time></trkpt>
        <trkpt lat="29.5035255" lon="103.2996266"><ele>2236.65</ele><time>2026-02-09T18:18:34.000Z</time></trkpt>
        <trkpt lat="29.5035027" lon="103.2997398"><ele>2234.23</ele><time>2026-02-09T18:18:46.000Z</time></trkpt>
        <trkpt lat="29.5034837" lon="103.2998508"><ele>2233.21</ele><time>2026-02-09T18:18:58.000Z</time></trkpt>
        <trkpt lat="29.5034563" lon="103.2999614"><ele>2233.88</ele><time>2026-02-09T18:19:07.000Z</time></trkpt>
        <trkpt lat="29.50343" lon="103.3000661"><ele>2234.45</ele><time>2026-02-09T18:19:18.000Z</time></trkpt>
        <trkpt lat="29.5034305" lon="103.3001789"><ele>2237.47</ele><time>2026-02-09T18:19:32.000Z</time></trkpt>
        <trkpt lat="29.5034721" lon="103.3002877"><ele>2239.48</ele><time>2026-02-09T18:19:46.000Z</time></trkpt>
        <trkpt lat="29.5035195" lon="103.3003945"><ele>2239.43</ele><time>2026-02-09T18:20:00.000Z</time></trkpt>
        <trkpt lat="29.5035685" lon="103.3005057"><ele>2241.96</ele><time>2026-02-09T18:20:12.000Z</time></trkpt>
        <trkpt lat="29.5035685" lon="103.3005057"><ele>2241.96</ele><time>2026-02-09T18:20:19.000Z</time></trkpt>
        <trkpt lat="29.5036147" lon="103.3006045"><ele>2241.61</ele><time>2026-02-09T18:20:26.000Z</time></trkpt>
        <trkpt lat="29.5036147" lon="103.3006045"><ele>2241.61</ele><time>2026-02-09T18:20:34.000Z</time></trkpt>
        <trkpt lat="29.5036652" lon="103.3006939"><ele>2241.59</ele><time>2026-02-09T18:20:45.000Z</time></trkpt>
        <trkpt lat="29.5036982" lon="103.3007912"><ele>2243.23</ele><time>2026-02-09T18:20:57.000Z</time></trkpt>
        <trkpt lat="29.5037396" lon="103.300884"><ele>2244.8</ele><time>2026-02-09T18:21:09.000Z</time></trkpt>
        <trkpt lat="29.5037889" lon="103.3009877"><ele>2245.98</ele><time>2026-02-09T18:21:20.000Z</time></trkpt>
        <trkpt lat="29.5038296" lon="103.3010908"><ele>2247.5</ele><time>2026-02-09T18:21:30.000Z</time></trkpt>
        <trkpt lat="29.5038698" lon="103.30119"><ele>2249.04</ele><time>2026-02-09T18:21:40.000Z</time></trkpt>
        <trkpt lat="29.5039153" lon="103.3012885"><ele>2250.44</ele><time>2026-02-09T18:21:52.000Z</time></trkpt>
        <trkpt lat="29.5039582" lon="103.3013961"><ele>2251.92</ele><time>2026-02-09T18:22:04.000Z</time></trkpt>
        <trkpt lat="29.5040128" lon="103.3014975"><ele>2253.58</ele><time>2026-02-09T18:22:14.000Z</time></trkpt>
        <trkpt lat="29.5040917" lon="103.3015867"><ele>2254.73</ele><time>2026-02-09T18:22:28.000Z</time></trkpt>
        <trkpt lat="29.5041562" lon="103.3016894"><ele>2254.55</ele><time>2026-02-09T18:22:42.000Z</time></trkpt>
        <trkpt lat="29.5042211" lon="103.3017825"><ele>2254.18</ele><time>2026-02-09T18:22:52.000Z</time></trkpt>
        <trkpt lat="29.5042749" lon="103.3018859"><ele>2255.15</ele><time>2026-02-09T18:23:04.000Z</time></trkpt>
        <trkpt lat="29.5043185" lon="103.3019955"><ele>2255.78</ele><time>2026-02-09T18:23:16.000Z</time></trkpt>
        <trkpt lat="29.5043539" lon="103.3021012"><ele>2256.77</ele><time>2026-02-09T18:23:26.000Z</time></trkpt>
        <trkpt lat="29.5043916" lon="103.302198"><ele>2257.72</ele><time>2026-02-09T18:23:38.000Z</time></trkpt>
        <trkpt lat="29.5044527" lon="103.3022873"><ele>2258.57</ele><time>2026-02-09T18:23:52.000Z</time></trkpt>
        <trkpt lat="29.5045364" lon="103.3023249"><ele>2258.32</ele><time>2026-02-09T18:24:06.000Z</time></trkpt>
        <trkpt lat="29.5046149" lon="103.3023754"><ele>2258.61</ele><time>2026-02-09T18:24:22.000Z</time></trkpt>
        <trkpt lat="29.5046688" lon="103.3024575"><ele>2259.06</ele><time>2026-02-09T18:24:34.000Z</time></trkpt>
        <trkpt lat="29.5046955" lon="103.3025587"><ele>2259.32</ele><time>2026-02-09T18:24:48.000Z</time></trkpt>
        <trkpt lat="29.5046632" lon="103.3026568"><ele>2259.37</ele><time>2026-02-09T18:25:00.000Z</time></trkpt>
        <trkpt lat="29.5046632" lon="103.3026568"><ele>2259.37</ele><time>2026-02-09T18:25:13.000Z</time></trkpt>
        <trkpt lat="29.5045999" lon="103.3027458"><ele>2260.2</ele><time>2026-02-09T18:25:14.000Z</time></trkpt>
        <trkpt lat="29.5045999" lon="103.3027458"><ele>2260.2</ele><time>2026-02-09T18:25:26.000Z</time></trkpt>
        <trkpt lat="29.5045561" lon="103.302848"><ele>2259.46</ele><time>2026-02-09T18:25:38.000Z</time></trkpt>
        <trkpt lat="29.5045561" lon="103.302848"><ele>2259.46</ele><time>2026-02-09T18:25:57.000Z</time></trkpt>
        <trkpt lat="29.5045053" lon="103.3029485"><ele>2259.32</ele><time>2026-02-09T18:26:04.000Z</time></trkpt>
        <trkpt lat="29.5045053" lon="103.3029485"><ele>2259.32</ele><time>2026-02-09T18:26:06.000Z</time></trkpt>
        <trkpt lat="29.5044414" lon="103.3030271"><ele>2258.23</ele><time>2026-02-09T18:26:18.000Z</time></trkpt>
        <trkpt lat="29.5044057" lon="103.3031217"><ele>2258.74</ele><time>2026-02-09T18:26:36.000Z</time></trkpt>
        <trkpt lat="29.5044071" lon="103.3032297"><ele>2259.85</ele><time>2026-02-09T18:26:51.000Z</time></trkpt>
        <trkpt lat="29.5044556" lon="103.3033224"><ele>2262.91</ele><time>2026-02-09T18:27:05.000Z</time></trkpt>
        <trkpt lat="29.5045646" lon="103.3032862"><ele>2265.75</ele><time>2026-02-09T18:31:17.000Z</time></trkpt>
        <trkpt lat="29.5046643" lon="103.3032441"><ele>2266.91</ele><time>2026-02-09T18:31:35.000Z</time></trkpt>
        <trkpt lat="29.5047457" lon="103.3031867"><ele>2267.76</ele><time>2026-02-09T18:31:44.000Z</time></trkpt>
        <trkpt lat="29.5047834" lon="103.3031619"><ele>2268.46</ele><time>2026-02-09T18:31:53.000Z</time></trkpt>
        <trkpt lat="29.5048627" lon="103.3031466"><ele>2269.21</ele><time>2026-02-09T18:32:25.000Z</time></trkpt>
        <trkpt lat="29.5049419" lon="103.3031025"><ele>2270.16</ele><time>2026-02-09T18:32:34.000Z</time></trkpt>
        <trkpt lat="29.5050303" lon="103.3030731"><ele>2271.38</ele><time>2026-02-09T18:32:44.000Z</time></trkpt>
        <trkpt lat="29.5051153" lon="103.3030992"><ele>2274.34</ele><time>2026-02-09T18:32:54.000Z</time></trkpt>
        <trkpt lat="29.5051865" lon="103.3031668"><ele>2275.65</ele><time>2026-02-09T18:33:09.000Z</time></trkpt>
        <trkpt lat="29.5052303" lon="103.3032722"><ele>2276.68</ele><time>2026-02-09T18:33:35.000Z</time></trkpt>
        <trkpt lat="29.5052303" lon="103.3032722"><ele>2276.68</ele><time>2026-02-09T18:34:01.000Z</time></trkpt>
        <trkpt lat="29.5051076" lon="103.3033466"><ele>2280.6</ele><time>2026-02-09T18:36:14.000Z</time></trkpt>
        <trkpt lat="29.5051076" lon="103.3033466"><ele>2280.6</ele><time>2026-02-09T18:36:15.000Z</time></trkpt>
        <trkpt lat="29.5052039" lon="103.3032708"><ele>2284.41</ele><time>2026-02-09T18:36:19.000Z</time></trkpt>
        <trkpt lat="29.5052153" lon="103.3032636"><ele>2286.86</ele><time>2026-02-09T18:36:23.000Z</time></trkpt>
        <trkpt lat="29.5052153" lon="103.3032636"><ele>2286.86</ele><time>2026-02-09T18:36:35.000Z</time></trkpt>
        <trkpt lat="29.5052153" lon="103.3032636"><ele>2286.86</ele><time>2026-02-09T18:36:38.000Z</time></trkpt>
        <trkpt lat="29.5052153" lon="103.3032636"><ele>2286.86</ele><time>2026-02-09T18:38:13.000Z</time></trkpt>
        <trkpt lat="29.5051862" lon="103.3033876"><ele>2285.82</ele><time>2026-02-09T18:38:16.000Z</time></trkpt>
        <trkpt lat="29.5051862" lon="103.3033876"><ele>2285.82</ele><time>2026-02-09T18:38:36.000Z</time></trkpt>
        <trkpt lat="29.5052239" lon="103.3034963"><ele>2283.69</ele><time>2026-02-09T18:38:44.000Z</time></trkpt>
        <trkpt lat="29.505289" lon="103.303583"><ele>2285.89</ele><time>2026-02-09T18:38:55.000Z</time></trkpt>
        <trkpt lat="29.5053796" lon="103.3036357"><ele>2288.07</ele><time>2026-02-09T18:39:01.000Z</time></trkpt>
        <trkpt lat="29.5054698" lon="103.3037142"><ele>2286.64</ele><time>2026-02-09T18:39:19.000Z</time></trkpt>
        <trkpt lat="29.5054834" lon="103.303815"><ele>2290.04</ele><time>2026-02-09T18:39:33.000Z</time></trkpt>
        <trkpt lat="29.5054394" lon="103.3039186"><ele>2292.47</ele><time>2026-02-09T18:39:44.000Z</time></trkpt>
        <trkpt lat="29.505383" lon="103.3040232"><ele>2294.29</ele><time>2026-02-09T18:39:56.000Z</time></trkpt>
        <trkpt lat="29.5053465" lon="103.3041403"><ele>2295.63</ele><time>2026-02-09T18:40:08.000Z</time></trkpt>
        <trkpt lat="29.5052958" lon="103.3042428"><ele>2297.75</ele><time>2026-02-09T18:40:24.000Z</time></trkpt>
        <trkpt lat="29.5052349" lon="103.304332"><ele>2299.62</ele><time>2026-02-09T18:40:38.000Z</time></trkpt>
        <trkpt lat="29.5051723" lon="103.3044285"><ele>2301.46</ele><time>2026-02-09T18:40:54.000Z</time></trkpt>
        <trkpt lat="29.5050857" lon="103.3044724"><ele>2302.9</ele><time>2026-02-09T18:41:06.000Z</time></trkpt>
        <trkpt lat="29.5050199" lon="103.304544"><ele>2303.77</ele><time>2026-02-09T18:41:20.000Z</time></trkpt>
        <trkpt lat="29.5050046" lon="103.304646"><ele>2305.43</ele><time>2026-02-09T18:41:28.000Z</time></trkpt>
        <trkpt lat="29.5049914" lon="103.304762"><ele>2306.65</ele><time>2026-02-09T18:41:45.000Z</time></trkpt>
        <trkpt lat="29.5050211" lon="103.3048708"><ele>2310.4</ele><time>2026-02-09T18:41:59.000Z</time></trkpt>
        <trkpt lat="29.5050542" lon="103.3049751"><ele>2312.41</ele><time>2026-02-09T18:42:17.000Z</time></trkpt>
        <trkpt lat="29.5050576" lon="103.305081"><ele>2313.65</ele><time>2026-02-09T18:43:05.000Z</time></trkpt>
        <trkpt lat="29.5050105" lon="103.3051723"><ele>2314.21</ele><time>2026-02-09T18:43:29.000Z</time></trkpt>
        <trkpt lat="29.5049423" lon="103.3052467"><ele>2314.45</ele><time>2026-02-09T18:43:40.000Z</time></trkpt>
        <trkpt lat="29.5048553" lon="103.3052942"><ele>2314</ele><time>2026-02-09T18:43:48.000Z</time></trkpt>
        <trkpt lat="29.5047984" lon="103.3053817"><ele>2315.28</ele><time>2026-02-09T18:44:00.000Z</time></trkpt>
        <trkpt lat="29.5048067" lon="103.3054811"><ele>2316.09</ele><time>2026-02-09T18:44:14.000Z</time></trkpt>
        <trkpt lat="29.5047803" lon="103.3055803"><ele>2317.01</ele><time>2026-02-09T18:44:30.000Z</time></trkpt>
        <trkpt lat="29.504731" lon="103.3056691"><ele>2317.64</ele><time>2026-02-09T18:44:42.000Z</time></trkpt>
        <trkpt lat="29.5046937" lon="103.3057722"><ele>2317.64</ele><time>2026-02-09T18:44:54.000Z</time></trkpt>
        <trkpt lat="29.5046863" lon="103.3058787"><ele>2317.01</ele><time>2026-02-09T18:45:06.000Z</time></trkpt>
        <trkpt lat="29.5047235" lon="103.3059808"><ele>2317.49</ele><time>2026-02-09T18:45:29.000Z</time></trkpt>
        <trkpt lat="29.5047203" lon="103.3060824"><ele>2321.49</ele><time>2026-02-09T18:46:03.000Z</time></trkpt>
        <trkpt lat="29.5047203" lon="103.3060824"><ele>2321.49</ele><time>2026-02-09T18:46:17.000Z</time></trkpt>
        <trkpt lat="29.5048192" lon="103.3061876"><ele>2324.94</ele><time>2026-02-09T18:46:38.000Z</time></trkpt>
        <trkpt lat="29.5048192" lon="103.3061876"><ele>2324.94</ele><time>2026-02-09T18:46:39.000Z</time></trkpt>
        <trkpt lat="29.5048192" lon="103.3061876"><ele>2324.94</ele><time>2026-02-09T18:47:01.000Z</time></trkpt>
        <trkpt lat="29.5048192" lon="103.3061876"><ele>2324.94</ele><time>2026-02-09T18:47:04.000Z</time></trkpt>
        <trkpt lat="29.5048192" lon="103.3061876"><ele>2324.94</ele><time>2026-02-09T18:47:13.000Z</time></trkpt>
        <trkpt lat="29.504664" lon="103.3061163"><ele>2325.96</ele><time>2026-02-09T18:47:26.000Z</time></trkpt>
        <trkpt lat="29.504664" lon="103.3061163"><ele>2325.96</ele><time>2026-02-09T18:47:27.000Z</time></trkpt>
        <trkpt lat="29.5046331" lon="103.3061535"><ele>2325.37</ele><time>2026-02-09T18:47:30.000Z</time></trkpt>
        <trkpt lat="29.5046331" lon="103.3061535"><ele>2325.37</ele><time>2026-02-09T18:48:25.000Z</time></trkpt>
        <trkpt lat="29.504838" lon="103.3060915"><ele>2324.19</ele><time>2026-02-09T18:48:42.000Z</time></trkpt>
        <trkpt lat="29.504838" lon="103.3060915"><ele>2324.19</ele><time>2026-02-09T18:48:43.000Z</time></trkpt>
        <trkpt lat="29.5046691" lon="103.3062489"><ele>2327.26</ele><time>2026-02-09T18:48:49.000Z</time></trkpt>
        <trkpt lat="29.5046054" lon="103.3063582"><ele>2329.86</ele><time>2026-02-09T18:49:11.000Z</time></trkpt>
        <trkpt lat="29.5045907" lon="103.3064645"><ele>2333.86</ele><time>2026-02-09T18:49:43.000Z</time></trkpt>
        <trkpt lat="29.5045314" lon="103.3065148"><ele>2338.04</ele><time>2026-02-09T18:50:05.000Z</time></trkpt>
        <trkpt lat="29.5044681" lon="103.3065737"><ele>2340.88</ele><time>2026-02-09T18:50:31.000Z</time></trkpt>
        <trkpt lat="29.5043872" lon="103.30661"><ele>2344.2</ele><time>2026-02-09T18:51:19.000Z</time></trkpt>
        <trkpt lat="29.5043388" lon="103.3066879"><ele>2347.35</ele><time>2026-02-09T18:51:49.000Z</time></trkpt>
        <trkpt lat="29.5042951" lon="103.3067793"><ele>2351.75</ele><time>2026-02-09T18:52:35.000Z</time></trkpt>
        <trkpt lat="29.5042315" lon="103.3068615"><ele>2356.68</ele><time>2026-02-09T18:53:17.000Z</time></trkpt>
        <trkpt lat="29.50418" lon="103.306963"><ele>2360.95</ele><time>2026-02-09T18:53:45.000Z</time></trkpt>
        <trkpt lat="29.5041439" lon="103.3070667"><ele>2364.5</ele><time>2026-02-09T18:54:29.000Z</time></trkpt>
        <trkpt lat="29.5041182" lon="103.3071703"><ele>2368.78</ele><time>2026-02-09T18:55:10.000Z</time></trkpt>
        <trkpt lat="29.5040691" lon="103.3072557"><ele>2374.16</ele><time>2026-02-09T18:55:55.000Z</time></trkpt>
        <trkpt lat="29.5040294" lon="103.3073536"><ele>2379.67</ele><time>2026-02-09T18:56:17.000Z</time></trkpt>
        <trkpt lat="29.5039885" lon="103.3074473"><ele>2384.58</ele><time>2026-02-09T18:57:23.000Z</time></trkpt>
        <trkpt lat="29.5039182" lon="103.3075199"><ele>2389.12</ele><time>2026-02-09T18:58:39.000Z</time></trkpt>
        <trkpt lat="29.5038369" lon="103.3075821"><ele>2395.09</ele><time>2026-02-09T18:58:59.000Z</time></trkpt>
        <trkpt lat="29.5038458" lon="103.307692"><ele>2399.98</ele><time>2026-02-09T19:00:03.000Z</time></trkpt>
        <trkpt lat="29.5038289" lon="103.3078057"><ele>2406.27</ele><time>2026-02-09T19:00:57.000Z</time></trkpt>
        <trkpt lat="29.5038353" lon="103.3079125"><ele>2412.89</ele><time>2026-02-09T19:01:21.000Z</time></trkpt>
        <trkpt lat="29.5038078" lon="103.3080156"><ele>2420.48</ele><time>2026-02-09T19:02:09.000Z</time></trkpt>
        <trkpt lat="29.5037515" lon="103.3080976"><ele>2427.08</ele><time>2026-02-09T19:02:29.000Z</time></trkpt>
        <trkpt lat="29.5037215" lon="103.3081926"><ele>2433.34</ele><time>2026-02-09T19:02:58.000Z</time></trkpt>
        <trkpt lat="29.5037215" lon="103.3081926"><ele>2433.34</ele><time>2026-02-09T19:04:03.000Z</time></trkpt>
        <trkpt lat="29.5035076" lon="103.308367"><ele>2437.34</ele><time>2026-02-09T19:04:26.000Z</time></trkpt>
        <trkpt lat="29.5035076" lon="103.308367"><ele>2437.34</ele><time>2026-02-09T19:04:28.000Z</time></trkpt>
        <trkpt lat="29.503667" lon="103.3082706"><ele>2441.1</ele><time>2026-02-09T19:04:35.000Z</time></trkpt>
        <trkpt lat="29.5036213" lon="103.3082913"><ele>2447.7</ele><time>2026-02-09T19:05:07.000Z</time></trkpt>
        <trkpt lat="29.5035445" lon="103.3083454"><ele>2450.79</ele><time>2026-02-09T19:05:40.000Z</time></trkpt>
        <trkpt lat="29.5034955" lon="103.3084878"><ele>2452.83</ele><time>2026-02-09T19:06:41.000Z</time></trkpt>
        <trkpt lat="29.5035507" lon="103.3085831"><ele>2455.41</ele><time>2026-02-09T19:07:19.000Z</time></trkpt>
        <trkpt lat="29.5035772" lon="103.3086879"><ele>2457.58</ele><time>2026-02-09T19:07:47.000Z</time></trkpt>
        <trkpt lat="29.5035851" lon="103.3087987"><ele>2461.2</ele><time>2026-02-09T19:08:17.000Z</time></trkpt>
        <trkpt lat="29.5035851" lon="103.3087987"><ele>2461.2</ele><time>2026-02-09T19:09:17.000Z</time></trkpt>
        <trkpt lat="29.5035904" lon="103.3089098"><ele>2465.22</ele><time>2026-02-09T19:09:22.000Z</time></trkpt>
        <trkpt lat="29.5035904" lon="103.3089098"><ele>2465.22</ele><time>2026-02-09T19:09:32.000Z</time></trkpt>
        <trkpt lat="29.503585" lon="103.309019"><ele>2469.5</ele><time>2026-02-09T19:09:57.000Z</time></trkpt>
        <trkpt lat="29.5035709" lon="103.309126"><ele>2473.53</ele><time>2026-02-09T19:10:29.000Z</time></trkpt>
        <trkpt lat="29.5035604" lon="103.3092377"><ele>2477.93</ele><time>2026-02-09T19:11:07.000Z</time></trkpt>
        <trkpt lat="29.5035537" lon="103.3093466"><ele>2481.47</ele><time>2026-02-09T19:11:22.000Z</time></trkpt>
        <trkpt lat="29.503539" lon="103.3094508"><ele>2484.46</ele><time>2026-02-09T19:11:40.000Z</time></trkpt>
        <trkpt lat="29.5035574" lon="103.3095576"><ele>2488.34</ele><time>2026-02-09T19:12:05.000Z</time></trkpt>
        <trkpt lat="29.5035574" lon="103.3095576"><ele>2488.34</ele><time>2026-02-09T19:12:55.000Z</time></trkpt>
        <trkpt lat="29.5035574" lon="103.3095576"><ele>2488.34</ele><time>2026-02-09T19:13:08.000Z</time></trkpt>
        <trkpt lat="29.5035574" lon="103.3095576"><ele>2488.34</ele><time>2026-02-09T19:13:17.000Z</time></trkpt>
        <trkpt lat="29.5035574" lon="103.3095576"><ele>2488.34</ele><time>2026-02-09T19:15:44.000Z</time></trkpt>
        <trkpt lat="29.5035574" lon="103.3095576"><ele>2488.34</ele><time>2026-02-09T19:15:55.000Z</time></trkpt>
        <trkpt lat="29.5034742" lon="103.3095373"><ele>2492.99</ele><time>2026-02-09T19:18:24.000Z</time></trkpt>
        <trkpt lat="29.5034742" lon="103.3095373"><ele>2492.99</ele><time>2026-02-09T19:18:25.000Z</time></trkpt>
        <trkpt lat="29.5034742" lon="103.3095373"><ele>2492.99</ele><time>2026-02-09T19:19:09.000Z</time></trkpt>
        <trkpt lat="29.5035608" lon="103.3095893"><ele>2498.86</ele><time>2026-02-09T19:20:00.000Z</time></trkpt>
        <trkpt lat="29.5035608" lon="103.3095893"><ele>2498.86</ele><time>2026-02-09T19:20:03.000Z</time></trkpt>
        <trkpt lat="29.5035608" lon="103.3095893"><ele>2498.86</ele><time>2026-02-09T19:20:35.000Z</time></trkpt>
        <trkpt lat="29.5035608" lon="103.3095893"><ele>2498.86</ele><time>2026-02-09T19:20:46.000Z</time></trkpt>
        <trkpt lat="29.5035608" lon="103.3095893"><ele>2498.86</ele><time>2026-02-09T19:20:57.000Z</time></trkpt>
        <trkpt lat="29.5034544" lon="103.3095513"><ele>2495.35</ele><time>2026-02-09T19:21:36.000Z</time></trkpt>
        <trkpt lat="29.5034544" lon="103.3095513"><ele>2495.35</ele><time>2026-02-09T19:21:37.000Z</time></trkpt>
        <trkpt lat="29.5035259" lon="103.3095787"><ele>2497.45</ele><time>2026-02-09T19:21:43.000Z</time></trkpt>
        <trkpt lat="29.5035259" lon="103.3095787"><ele>2497.45</ele><time>2026-02-09T19:22:17.000Z</time></trkpt>
        <trkpt lat="29.5035259" lon="103.3095787"><ele>2497.45</ele><time>2026-02-09T19:22:22.000Z</time></trkpt>
        <trkpt lat="29.5035259" lon="103.3095787"><ele>2497.45</ele><time>2026-02-09T19:22:35.000Z</time></trkpt>
        <trkpt lat="29.5035259" lon="103.3095787"><ele>2497.45</ele><time>2026-02-09T19:22:44.000Z</time></trkpt>
        <trkpt lat="29.5035259" lon="103.3095787"><ele>2497.45</ele><time>2026-02-09T19:22:57.000Z</time></trkpt>
        <trkpt lat="29.5031511" lon="103.3098158"><ele>2497.58</ele><time>2026-02-09T19:23:40.000Z</time></trkpt>
        <trkpt lat="29.5031511" lon="103.3098158"><ele>2497.58</ele><time>2026-02-09T19:23:43.000Z</time></trkpt>
        <trkpt lat="29.5035343" lon="103.3096411"><ele>2497.56</ele><time>2026-02-09T19:23:50.000Z</time></trkpt>
        <trkpt lat="29.5035455" lon="103.3096894"><ele>2499.86</ele><time>2026-02-09T19:24:20.000Z</time></trkpt>
        <trkpt lat="29.503508" lon="103.3097864"><ele>2503.46</ele><time>2026-02-09T19:25:01.000Z</time></trkpt>
        <trkpt lat="29.5034303" lon="103.309881"><ele>2507.4</ele><time>2026-02-09T19:25:35.000Z</time></trkpt>
        <trkpt lat="29.5034034" lon="103.3099948"><ele>2512.26</ele><time>2026-02-09T19:25:51.000Z</time></trkpt>
        <trkpt lat="29.5033823" lon="103.3101127"><ele>2514.63</ele><time>2026-02-09T19:26:06.000Z</time></trkpt>
        <trkpt lat="29.5033657" lon="103.310226"><ele>2515.84</ele><time>2026-02-09T19:26:16.000Z</time></trkpt>
        <trkpt lat="29.5033928" lon="103.3103347"><ele>2516.99</ele><time>2026-02-09T19:26:30.000Z</time></trkpt>
        <trkpt lat="29.5034616" lon="103.3104053"><ele>2517.17</ele><time>2026-02-09T19:26:47.000Z</time></trkpt>
        <trkpt lat="29.5035399" lon="103.3104663"><ele>2517.99</ele><time>2026-02-09T19:27:11.000Z</time></trkpt>
        <trkpt lat="29.5035626" lon="103.3105216"><ele>2520.74</ele><time>2026-02-09T19:27:19.000Z</time></trkpt>
        <trkpt lat="29.5035537" lon="103.3106155"><ele>2523.26</ele><time>2026-02-09T19:27:57.000Z</time></trkpt>
        <trkpt lat="29.5035619" lon="103.3107208"><ele>2527.39</ele><time>2026-02-09T19:28:21.000Z</time></trkpt>
        <trkpt lat="29.5035547" lon="103.3107883"><ele>2529.99</ele><time>2026-02-09T19:28:39.000Z</time></trkpt>
        <trkpt lat="29.5034879" lon="103.3108422"><ele>2532.5</ele><time>2026-02-09T19:29:19.000Z</time></trkpt>
        <trkpt lat="29.5034027" lon="103.3108934"><ele>2537.79</ele><time>2026-02-09T19:29:55.000Z</time></trkpt>
        <trkpt lat="29.5033148" lon="103.3109468"><ele>2541.72</ele><time>2026-02-09T19:30:34.000Z</time></trkpt>
        <trkpt lat="29.5032522" lon="103.3110351"><ele>2546.66</ele><time>2026-02-09T19:31:11.000Z</time></trkpt>
        <trkpt lat="29.5031711" lon="103.3110914"><ele>2549.59</ele><time>2026-02-09T19:31:39.000Z</time></trkpt>
        <trkpt lat="29.5031273" lon="103.3111851"><ele>2554.17</ele><time>2026-02-09T19:32:41.000Z</time></trkpt>
        <trkpt lat="29.5030818" lon="103.3112805"><ele>2558.55</ele><time>2026-02-09T19:33:34.000Z</time></trkpt>
        <trkpt lat="29.503041" lon="103.3113749"><ele>2563.15</ele><time>2026-02-09T19:34:21.000Z</time></trkpt>
        <trkpt lat="29.5029887" lon="103.3114666"><ele>2568.48</ele><time>2026-02-09T19:34:49.000Z</time></trkpt>
        <trkpt lat="29.5029192" lon="103.3115516"><ele>2573.13</ele><time>2026-02-09T19:35:40.000Z</time></trkpt>
        <trkpt lat="29.5029019" lon="103.3116661"><ele>2576.82</ele><time>2026-02-09T19:36:17.000Z</time></trkpt>
        <trkpt lat="29.5029062" lon="103.3117789"><ele>2580.46</ele><time>2026-02-09T19:37:05.000Z</time></trkpt>
        <trkpt lat="29.5029186" lon="103.3118973"><ele>2585.13</ele><time>2026-02-09T19:37:41.000Z</time></trkpt>
        <trkpt lat="29.5029327" lon="103.3120126"><ele>2588.67</ele><time>2026-02-09T19:37:57.000Z</time></trkpt>
        <trkpt lat="29.50292" lon="103.3121198"><ele>2593.02</ele><time>2026-02-09T19:38:23.000Z</time></trkpt>
        <trkpt lat="29.5028846" lon="103.3122197"><ele>2597.15</ele><time>2026-02-09T19:39:07.000Z</time></trkpt>
        <trkpt lat="29.5028221" lon="103.3122976"><ele>2602.13</ele><time>2026-02-09T19:39:43.000Z</time></trkpt>
        <trkpt lat="29.5028278" lon="103.3123988"><ele>2606.84</ele><time>2026-02-09T19:39:59.000Z</time></trkpt>
        <trkpt lat="29.5028533" lon="103.3125078"><ele>2609.14</ele><time>2026-02-09T19:40:13.000Z</time></trkpt>
        <trkpt lat="29.5028569" lon="103.3126211"><ele>2611.39</ele><time>2026-02-09T19:40:29.000Z</time></trkpt>
        <trkpt lat="29.5028509" lon="103.3127408"><ele>2613.15</ele><time>2026-02-09T19:41:23.000Z</time></trkpt>
        <trkpt lat="29.5028156" lon="103.3128483"><ele>2617.05</ele><time>2026-02-09T19:41:35.000Z</time></trkpt>
        <trkpt lat="29.5028278" lon="103.3129484"><ele>2619.86</ele><time>2026-02-09T19:41:49.000Z</time></trkpt>
        <trkpt lat="29.5028611" lon="103.3130484"><ele>2622.25</ele><time>2026-02-09T19:42:27.000Z</time></trkpt>
        <trkpt lat="29.5029415" lon="103.3130955"><ele>2625.05</ele><time>2026-02-09T19:43:17.000Z</time></trkpt>
        <trkpt lat="29.5030399" lon="103.3131077"><ele>2626.43</ele><time>2026-02-09T19:43:46.000Z</time></trkpt>
        <trkpt lat="29.50313" lon="103.3131414"><ele>2628.72</ele><time>2026-02-09T19:44:23.000Z</time></trkpt>
        <trkpt lat="29.50313" lon="103.3131414"><ele>2628.72</ele><time>2026-02-09T19:44:49.000Z</time></trkpt>
        <trkpt lat="29.5032173" lon="103.3131978"><ele>2631.44</ele><time>2026-02-09T19:44:52.000Z</time></trkpt>
        <trkpt lat="29.5032173" lon="103.3131978"><ele>2631.44</ele><time>2026-02-09T19:44:54.000Z</time></trkpt>
        <trkpt lat="29.5032565" lon="103.3132991"><ele>2633.03</ele><time>2026-02-09T19:45:14.000Z</time></trkpt>
        <trkpt lat="29.5032755" lon="103.3134081"><ele>2635.55</ele><time>2026-02-09T19:45:29.000Z</time></trkpt>
        <trkpt lat="29.5032924" lon="103.3135211"><ele>2637.55</ele><time>2026-02-09T19:45:52.000Z</time></trkpt>
        <trkpt lat="29.5033028" lon="103.3136411"><ele>2639.6</ele><time>2026-02-09T19:46:17.000Z</time></trkpt>
        <trkpt lat="29.5033033" lon="103.3137521"><ele>2641.52</ele><time>2026-02-09T19:47:01.000Z</time></trkpt>
        <trkpt lat="29.5033033" lon="103.3137521"><ele>2641.52</ele><time>2026-02-09T19:47:25.000Z</time></trkpt>
        <trkpt lat="29.5032877" lon="103.3138608"><ele>2644.98</ele><time>2026-02-09T19:47:30.000Z</time></trkpt>
        <trkpt lat="29.5032877" lon="103.3138608"><ele>2644.98</ele><time>2026-02-09T19:47:36.000Z</time></trkpt>
        <trkpt lat="29.5033352" lon="103.3139659"><ele>2648.12</ele><time>2026-02-09T19:47:54.000Z</time></trkpt>
        <trkpt lat="29.5033678" lon="103.3140857"><ele>2650.67</ele><time>2026-02-09T19:48:31.000Z</time></trkpt>
        <trkpt lat="29.5033919" lon="103.314201"><ele>2654.51</ele><time>2026-02-09T19:48:59.000Z</time></trkpt>
        <trkpt lat="29.5033919" lon="103.314201"><ele>2654.51</ele><time>2026-02-09T19:49:17.000Z</time></trkpt>
        <trkpt lat="29.5033919" lon="103.314201"><ele>2654.51</ele><time>2026-02-09T19:49:20.000Z</time></trkpt>
        <trkpt lat="29.5033919" lon="103.314201"><ele>2654.51</ele><time>2026-02-09T19:49:31.000Z</time></trkpt>
        <trkpt lat="29.503462" lon="103.3143027"><ele>2656.12</ele><time>2026-02-09T19:49:34.000Z</time></trkpt>
        <trkpt lat="29.503462" lon="103.3143027"><ele>2656.12</ele><time>2026-02-09T19:50:02.000Z</time></trkpt>
        <trkpt lat="29.5035149" lon="103.3143956"><ele>2660.05</ele><time>2026-02-09T19:50:14.000Z</time></trkpt>
        <trkpt lat="29.5035424" lon="103.3145106"><ele>2662.67</ele><time>2026-02-09T19:50:24.000Z</time></trkpt>
        <trkpt lat="29.5035383" lon="103.3146275"><ele>2664.97</ele><time>2026-02-09T19:50:40.000Z</time></trkpt>
        <trkpt lat="29.5035677" lon="103.3147323"><ele>2667.25</ele><time>2026-02-09T19:50:59.000Z</time></trkpt>
        <trkpt lat="29.5036019" lon="103.3148344"><ele>2669.17</ele><time>2026-02-09T19:51:16.000Z</time></trkpt>
        <trkpt lat="29.5036566" lon="103.3149183"><ele>2670.5</ele><time>2026-02-09T19:51:43.000Z</time></trkpt>
        <trkpt lat="29.5037413" lon="103.3149418"><ele>2673.43</ele><time>2026-02-09T19:52:11.000Z</time></trkpt>
        <trkpt lat="29.5038235" lon="103.3149844"><ele>2675.02</ele><time>2026-02-09T19:52:33.000Z</time></trkpt>
        <trkpt lat="29.5038989" lon="103.3150481"><ele>2676.33</ele><time>2026-02-09T19:52:43.000Z</time></trkpt>
        <trkpt lat="29.5039866" lon="103.3150923"><ele>2677.8</ele><time>2026-02-09T19:53:05.000Z</time></trkpt>
        <trkpt lat="29.5040675" lon="103.3151517"><ele>2680.29</ele><time>2026-02-09T19:53:22.000Z</time></trkpt>
        <trkpt lat="29.5041577" lon="103.3152164"><ele>2682.49</ele><time>2026-02-09T19:53:37.000Z</time></trkpt>
        <trkpt lat="29.5042155" lon="103.3153076"><ele>2684.35</ele><time>2026-02-09T19:53:53.000Z</time></trkpt>
        <trkpt lat="29.5042595" lon="103.315419"><ele>2685.47</ele><time>2026-02-09T19:54:13.000Z</time></trkpt>
        <trkpt lat="29.5043056" lon="103.3155261"><ele>2686.48</ele><time>2026-02-09T19:54:43.000Z</time></trkpt>
        <trkpt lat="29.5043324" lon="103.3156341"><ele>2688.16</ele><time>2026-02-09T19:55:25.000Z</time></trkpt>
        <trkpt lat="29.5043752" lon="103.3157266"><ele>2689.23</ele><time>2026-02-09T19:56:01.000Z</time></trkpt>
        <trkpt lat="29.5044387" lon="103.3158077"><ele>2687.31</ele><time>2026-02-09T19:56:22.000Z</time></trkpt>
        <trkpt lat="29.5044933" lon="103.3158924"><ele>2684.38</ele><time>2026-02-09T19:56:33.000Z</time></trkpt>
        <trkpt lat="29.5045413" lon="103.3159896"><ele>2681.67</ele><time>2026-02-09T19:56:57.000Z</time></trkpt>
        <trkpt lat="29.5045905" lon="103.3160887"><ele>2680.13</ele><time>2026-02-09T19:57:09.000Z</time></trkpt>
        <trkpt lat="29.5046561" lon="103.3161623"><ele>2678.2</ele><time>2026-02-09T19:57:23.000Z</time></trkpt>
        <trkpt lat="29.5047519" lon="103.3162079"><ele>2676.14</ele><time>2026-02-09T19:57:43.000Z</time></trkpt>
        <trkpt lat="29.5048381" lon="103.3162643"><ele>2676.02</ele><time>2026-02-09T19:58:10.000Z</time></trkpt>
        <trkpt lat="29.5049148" lon="103.3163271"><ele>2677.85</ele><time>2026-02-09T19:58:46.000Z</time></trkpt>
        <trkpt lat="29.5049148" lon="103.3163271"><ele>2677.85</ele><time>2026-02-09T19:59:27.000Z</time></trkpt>
        <trkpt lat="29.50491" lon="103.316539"><ele>2679.76</ele><time>2026-02-09T19:59:56.000Z</time></trkpt>
        <trkpt lat="29.50491" lon="103.316539"><ele>2679.76</ele><time>2026-02-09T19:59:58.000Z</time></trkpt>
        <trkpt lat="29.5048878" lon="103.3163453"><ele>2682.76</ele><time>2026-02-09T20:00:06.000Z</time></trkpt>
        <trkpt lat="29.5048878" lon="103.3163453"><ele>2682.76</ele><time>2026-02-09T20:01:21.000Z</time></trkpt>
        <trkpt lat="29.5048878" lon="103.3163453"><ele>2682.76</ele><time>2026-02-09T20:01:40.000Z</time></trkpt>
        <trkpt lat="29.5048878" lon="103.3163453"><ele>2682.76</ele><time>2026-02-09T20:01:49.000Z</time></trkpt>
        <trkpt lat="29.5048878" lon="103.3163453"><ele>2682.76</ele><time>2026-02-09T20:01:52.000Z</time></trkpt>
        <trkpt lat="29.5048878" lon="103.3163453"><ele>2682.76</ele><time>2026-02-09T20:02:31.000Z</time></trkpt>
        <trkpt lat="29.5048878" lon="103.3163453"><ele>2682.76</ele><time>2026-02-09T20:02:36.000Z</time></trkpt>
        <trkpt lat="29.5048878" lon="103.3163453"><ele>2682.76</ele><time>2026-02-09T20:03:47.000Z</time></trkpt>
        <trkpt lat="29.5048878" lon="103.3163453"><ele>2682.76</ele><time>2026-02-09T20:04:00.000Z</time></trkpt>
        <trkpt lat="29.5048878" lon="103.3163453"><ele>2682.76</ele><time>2026-02-09T20:04:29.000Z</time></trkpt>
        <trkpt lat="29.5048878" lon="103.3163453"><ele>2682.76</ele><time>2026-02-09T20:04:44.000Z</time></trkpt>
        <trkpt lat="29.5048878" lon="103.3163453"><ele>2682.76</ele><time>2026-02-09T20:05:07.000Z</time></trkpt>
        <trkpt lat="29.5048878" lon="103.3163453"><ele>2682.76</ele><time>2026-02-09T20:07:10.000Z</time></trkpt>
        <trkpt lat="29.5048878" lon="103.3163453"><ele>2682.76</ele><time>2026-02-09T20:08:39.000Z</time></trkpt>
        <trkpt lat="29.5048878" lon="103.3163453"><ele>2682.76</ele><time>2026-02-09T20:08:40.000Z</time></trkpt>
        <trkpt lat="29.5048878" lon="103.3163453"><ele>2682.76</ele><time>2026-02-09T20:09:27.000Z</time></trkpt>
        <trkpt lat="29.5050129" lon="103.3163239"><ele>2687.42</ele><time>2026-02-09T20:09:32.000Z</time></trkpt>
        <trkpt lat="29.5050129" lon="103.3163239"><ele>2687.42</ele><time>2026-02-09T20:09:42.000Z</time></trkpt>
        <trkpt lat="29.5050169" lon="103.3162862"><ele>2689.03</ele><time>2026-02-09T20:09:46.000Z</time></trkpt>
        <trkpt lat="29.5050169" lon="103.3162862"><ele>2689.03</ele><time>2026-02-09T20:09:49.000Z</time></trkpt>
        <trkpt lat="29.5050169" lon="103.3162862"><ele>2689.03</ele><time>2026-02-09T20:09:54.000Z</time></trkpt>
        <trkpt lat="29.5050169" lon="103.3162862"><ele>2689.03</ele><time>2026-02-09T20:10:19.000Z</time></trkpt>
        <trkpt lat="29.5049151" lon="103.3162973"><ele>2688.9</ele><time>2026-02-09T20:10:42.000Z</time></trkpt>
        <trkpt lat="29.5049151" lon="103.3162973"><ele>2688.9</ele><time>2026-02-09T20:10:43.000Z</time></trkpt>
        <trkpt lat="29.5048765" lon="103.3163855"><ele>2688.23</ele><time>2026-02-09T20:10:53.000Z</time></trkpt>
        <trkpt lat="29.5049167" lon="103.3163562"><ele>2687.35</ele><time>2026-02-09T20:11:05.000Z</time></trkpt>
        <trkpt lat="29.5049167" lon="103.3163562"><ele>2687.35</ele><time>2026-02-09T20:11:07.000Z</time></trkpt>
        <trkpt lat="29.5049167" lon="103.3163562"><ele>2687.35</ele><time>2026-02-09T20:11:14.000Z</time></trkpt>
        <trkpt lat="29.5049167" lon="103.3163562"><ele>2687.35</ele><time>2026-02-09T20:11:25.000Z</time></trkpt>
        <trkpt lat="29.5050363" lon="103.3163455"><ele>2686.86</ele><time>2026-02-09T20:11:28.000Z</time></trkpt>
        <trkpt lat="29.5050363" lon="103.3163455"><ele>2686.86</ele><time>2026-02-09T20:12:20.000Z</time></trkpt>
        <trkpt lat="29.5051273" lon="103.3163876"><ele>2689.36</ele><time>2026-02-09T20:13:08.000Z</time></trkpt>
        <trkpt lat="29.5052012" lon="103.316465"><ele>2691.92</ele><time>2026-02-09T20:13:34.000Z</time></trkpt>
        <trkpt lat="29.5052554" lon="103.3165297"><ele>2695.14</ele><time>2026-02-09T20:13:44.000Z</time></trkpt>
        <trkpt lat="29.5053007" lon="103.3166129"><ele>2697.96</ele><time>2026-02-09T20:14:26.000Z</time></trkpt>
        <trkpt lat="29.505344" lon="103.3167045"><ele>2701.15</ele><time>2026-02-09T20:14:44.000Z</time></trkpt>
        <trkpt lat="29.5053315" lon="103.3168105"><ele>2704.47</ele><time>2026-02-09T20:15:17.000Z</time></trkpt>
        <trkpt lat="29.5053411" lon="103.316923"><ele>2708.18</ele><time>2026-02-09T20:15:43.000Z</time></trkpt>
        <trkpt lat="29.5053759" lon="103.317028"><ele>2711.57</ele><time>2026-02-09T20:16:10.000Z</time></trkpt>
        <trkpt lat="29.5053679" lon="103.3171309"><ele>2715.84</ele><time>2026-02-09T20:16:57.000Z</time></trkpt>
        <trkpt lat="29.5053183" lon="103.3172163"><ele>2718.21</ele><time>2026-02-09T20:17:17.000Z</time></trkpt>
        <trkpt lat="29.5052663" lon="103.3173046"><ele>2721.12</ele><time>2026-02-09T20:18:11.000Z</time></trkpt>
        <trkpt lat="29.5052276" lon="103.3173993"><ele>2724.53</ele><time>2026-02-09T20:18:39.000Z</time></trkpt>
        <trkpt lat="29.5051945" lon="103.3174996"><ele>2730.86</ele><time>2026-02-09T20:19:15.000Z</time></trkpt>
        <trkpt lat="29.505204" lon="103.3176036"><ele>2736.19</ele><time>2026-02-09T20:19:37.000Z</time></trkpt>
        <trkpt lat="29.5052349" lon="103.3177148"><ele>2740.17</ele><time>2026-02-09T20:20:05.000Z</time></trkpt>
        <trkpt lat="29.505261" lon="103.3178207"><ele>2742.52</ele><time>2026-02-09T20:20:19.000Z</time></trkpt>
        <trkpt lat="29.5052744" lon="103.3179321"><ele>2745.46</ele><time>2026-02-09T20:20:51.000Z</time></trkpt>
        <trkpt lat="29.5052668" lon="103.3180492"><ele>2747.3</ele><time>2026-02-09T20:21:13.000Z</time></trkpt>
        <trkpt lat="29.5052702" lon="103.318178"><ele>2748.27</ele><time>2026-02-09T20:21:41.000Z</time></trkpt>
        <trkpt lat="29.5052886" lon="103.318288"><ele>2749.35</ele><time>2026-02-09T20:22:10.000Z</time></trkpt>
        <trkpt lat="29.5053351" lon="103.3183788"><ele>2752.36</ele><time>2026-02-09T20:22:35.000Z</time></trkpt>
        <trkpt lat="29.505414" lon="103.3184455"><ele>2755.26</ele><time>2026-02-09T20:22:57.000Z</time></trkpt>
        <trkpt lat="29.5055118" lon="103.3184815"><ele>2758.73</ele><time>2026-02-09T20:23:35.000Z</time></trkpt>
        <trkpt lat="29.5055854" lon="103.3185448"><ele>2761.44</ele><time>2026-02-09T20:24:05.000Z</time></trkpt>
        <trkpt lat="29.5056401" lon="103.3186366"><ele>2764.41</ele><time>2026-02-09T20:24:29.000Z</time></trkpt>
        <trkpt lat="29.5057008" lon="103.3187176"><ele>2767.11</ele><time>2026-02-09T20:24:47.000Z</time></trkpt>
        <trkpt lat="29.5057649" lon="103.3188067"><ele>2769.61</ele><time>2026-02-09T20:24:56.000Z</time></trkpt>
        <trkpt lat="29.5058027" lon="103.3189123"><ele>2771.51</ele><time>2026-02-09T20:25:15.000Z</time></trkpt>
        <trkpt lat="29.5058668" lon="103.3189907"><ele>2773.9</ele><time>2026-02-09T20:25:46.000Z</time></trkpt>
        <trkpt lat="29.5059023" lon="103.3190895"><ele>2776.32</ele><time>2026-02-09T20:26:27.000Z</time></trkpt>
        <trkpt lat="29.5059109" lon="103.3191221"><ele>2776.98</ele><time>2026-02-09T20:26:29.000Z</time></trkpt>
        <trkpt lat="29.5059485" lon="103.3191973"><ele>2777.53</ele><time>2026-02-09T20:26:51.000Z</time></trkpt>
        <trkpt lat="29.5059878" lon="103.3192949"><ele>2778.37</ele><time>2026-02-09T20:27:05.000Z</time></trkpt>
        <trkpt lat="29.5060026" lon="103.3194031"><ele>2778.68</ele><time>2026-02-09T20:27:29.000Z</time></trkpt>
        <trkpt lat="29.5060203" lon="103.3195252"><ele>2781.19</ele><time>2026-02-09T20:27:42.000Z</time></trkpt>
        <trkpt lat="29.5060337" lon="103.3196367"><ele>2782.55</ele><time>2026-02-09T20:27:52.000Z</time></trkpt>
        <trkpt lat="29.506059" lon="103.3197529"><ele>2781.4</ele><time>2026-02-09T20:28:00.000Z</time></trkpt>
        <trkpt lat="29.5060902" lon="103.3198619"><ele>2781.37</ele><time>2026-02-09T20:28:12.000Z</time></trkpt>
        <trkpt lat="29.5061054" lon="103.3199722"><ele>2781.88</ele><time>2026-02-09T20:28:22.000Z</time></trkpt>
        <trkpt lat="29.5061268" lon="103.320074"><ele>2782.18</ele><time>2026-02-09T20:28:36.000Z</time></trkpt>
        <trkpt lat="29.5061365" lon="103.3201832"><ele>2782.29</ele><time>2026-02-09T20:28:57.000Z</time></trkpt>
        <trkpt lat="29.5061029" lon="103.3202786"><ele>2786.68</ele><time>2026-02-09T20:29:41.000Z</time></trkpt>
        <trkpt lat="29.5060354" lon="103.3203553"><ele>2790.34</ele><time>2026-02-09T20:30:13.000Z</time></trkpt>
        <trkpt lat="29.5059537" lon="103.3204223"><ele>2792.34</ele><time>2026-02-09T20:30:45.000Z</time></trkpt>
        <trkpt lat="29.5058879" lon="103.3205007"><ele>2794.74</ele><time>2026-02-09T20:32:01.000Z</time></trkpt>
        <trkpt lat="29.5058609" lon="103.3206021"><ele>2797.9</ele><time>2026-02-09T20:32:29.000Z</time></trkpt>
        <trkpt lat="29.5058542" lon="103.3206478"><ele>2801.67</ele><time>2026-02-09T20:32:35.000Z</time></trkpt>
        <trkpt lat="29.5058542" lon="103.3206478"><ele>2801.67</ele><time>2026-02-09T20:32:43.000Z</time></trkpt>
        <trkpt lat="29.5058542" lon="103.3206478"><ele>2801.67</ele><time>2026-02-09T20:32:46.000Z</time></trkpt>
        <trkpt lat="29.5058542" lon="103.3206478"><ele>2801.67</ele><time>2026-02-09T20:33:15.000Z</time></trkpt>
        <trkpt lat="29.5058505" lon="103.3207378"><ele>2803.92</ele><time>2026-02-09T20:33:18.000Z</time></trkpt>
        <trkpt lat="29.5058505" lon="103.3207378"><ele>2803.92</ele><time>2026-02-09T20:33:26.000Z</time></trkpt>
        <trkpt lat="29.5058762" lon="103.3208368"><ele>2806.12</ele><time>2026-02-09T20:33:38.000Z</time></trkpt>
        <trkpt lat="29.5059164" lon="103.3209373"><ele>2808.21</ele><time>2026-02-09T20:34:16.000Z</time></trkpt>
        <trkpt lat="29.5059408" lon="103.3210541"><ele>2811.6</ele><time>2026-02-09T20:34:51.000Z</time></trkpt>
        <trkpt lat="29.5059471" lon="103.3211637"><ele>2814.93</ele><time>2026-02-09T20:35:33.000Z</time></trkpt>
        <trkpt lat="29.5059347" lon="103.3212728"><ele>2817.8</ele><time>2026-02-09T20:36:43.000Z</time></trkpt>
        <trkpt lat="29.5059347" lon="103.3212728"><ele>2817.8</ele><time>2026-02-09T20:36:57.000Z</time></trkpt>
        <trkpt lat="29.5059347" lon="103.3212728"><ele>2817.8</ele><time>2026-02-09T20:37:02.000Z</time></trkpt>
        <trkpt lat="29.5059347" lon="103.3212728"><ele>2817.8</ele><time>2026-02-09T20:37:17.000Z</time></trkpt>
        <trkpt lat="29.5059673" lon="103.3213891"><ele>2821.65</ele><time>2026-02-09T20:37:22.000Z</time></trkpt>
        <trkpt lat="29.5059673" lon="103.3213891"><ele>2821.65</ele><time>2026-02-09T20:37:51.000Z</time></trkpt>
        <trkpt lat="29.50603" lon="103.3214718"><ele>2824.56</ele><time>2026-02-09T20:38:51.000Z</time></trkpt>
        <trkpt lat="29.5060643" lon="103.3215797"><ele>2827.95</ele><time>2026-02-09T20:39:59.000Z</time></trkpt>
        <trkpt lat="29.5060643" lon="103.3215797"><ele>2827.95</ele><time>2026-02-09T20:40:15.000Z</time></trkpt>
        <trkpt lat="29.5060941" lon="103.3216796"><ele>2833.88</ele><time>2026-02-09T20:40:20.000Z</time></trkpt>
        <trkpt lat="29.5060941" lon="103.3216796"><ele>2833.88</ele><time>2026-02-09T20:42:35.000Z</time></trkpt>
        <trkpt lat="29.5060941" lon="103.3216796"><ele>2833.88</ele><time>2026-02-09T20:44:05.000Z</time></trkpt>
        <trkpt lat="29.5061668" lon="103.3218065"><ele>2840.96</ele><time>2026-02-09T20:44:16.000Z</time></trkpt>
        <trkpt lat="29.5061668" lon="103.3218065"><ele>2840.96</ele><time>2026-02-09T20:44:17.000Z</time></trkpt>
        <trkpt lat="29.5061887" lon="103.3218503"><ele>2850</ele><time>2026-02-09T20:44:22.000Z</time></trkpt>
        <trkpt lat="29.5062035" lon="103.3218703"><ele>2851.83</ele><time>2026-02-09T20:45:04.000Z</time></trkpt>
        <trkpt lat="29.5062035" lon="103.3218703"><ele>2851.83</ele><time>2026-02-09T20:46:31.000Z</time></trkpt>
        <trkpt lat="29.506198" lon="103.3219706"><ele>2854.16</ele><time>2026-02-09T20:46:34.000Z</time></trkpt>
        <trkpt lat="29.506198" lon="103.3219706"><ele>2854.16</ele><time>2026-02-09T20:46:36.000Z</time></trkpt>
        <trkpt lat="29.506198" lon="103.3219706"><ele>2854.16</ele><time>2026-02-09T20:46:47.000Z</time></trkpt>
        <trkpt lat="29.5062683" lon="103.3220436"><ele>2859.08</ele><time>2026-02-09T20:47:00.000Z</time></trkpt>
        <trkpt lat="29.5062683" lon="103.3220436"><ele>2859.08</ele><time>2026-02-09T20:47:01.000Z</time></trkpt>
        <trkpt lat="29.5063021" lon="103.3220692"><ele>2861.97</ele><time>2026-02-09T20:47:06.000Z</time></trkpt>
        <trkpt lat="29.5062832" lon="103.3221553"><ele>2870.94</ele><time>2026-02-09T20:47:34.000Z</time></trkpt>
        <trkpt lat="29.5062387" lon="103.3222515"><ele>2873.55</ele><time>2026-02-09T20:48:01.000Z</time></trkpt>
        <trkpt lat="29.5062125" lon="103.3223564"><ele>2873.76</ele><time>2026-02-09T20:48:27.000Z</time></trkpt>
        <trkpt lat="29.5062253" lon="103.3224701"><ele>2873.59</ele><time>2026-02-09T20:49:11.000Z</time></trkpt>
        <trkpt lat="29.5062645" lon="103.32257"><ele>2874.79</ele><time>2026-02-09T20:49:25.000Z</time></trkpt>
        <trkpt lat="29.5063125" lon="103.3226635"><ele>2876.92</ele><time>2026-02-09T20:49:37.000Z</time></trkpt>
        <trkpt lat="29.5063626" lon="103.3227585"><ele>2879.72</ele><time>2026-02-09T20:49:51.000Z</time></trkpt>
        <trkpt lat="29.5064027" lon="103.3228543"><ele>2881.81</ele><time>2026-02-09T20:50:17.000Z</time></trkpt>
        <trkpt lat="29.5064402" lon="103.3229566"><ele>2883.66</ele><time>2026-02-09T20:50:53.000Z</time></trkpt>
        <trkpt lat="29.5064983" lon="103.3230408"><ele>2885.68</ele><time>2026-02-09T20:51:03.000Z</time></trkpt>
        <trkpt lat="29.5065801" lon="103.3230845"><ele>2885.54</ele><time>2026-02-09T20:51:13.000Z</time></trkpt>
        <trkpt lat="29.5066664" lon="103.323143"><ele>2885.21</ele><time>2026-02-09T20:51:35.000Z</time></trkpt>
        <trkpt lat="29.506741" lon="103.3232171"><ele>2887.17</ele><time>2026-02-09T20:51:53.000Z</time></trkpt>
        <trkpt lat="29.5068199" lon="103.3232775"><ele>2889.08</ele><time>2026-02-09T20:52:11.000Z</time></trkpt>
        <trkpt lat="29.5068735" lon="103.3233725"><ele>2891.58</ele><time>2026-02-09T20:52:25.000Z</time></trkpt>
        <trkpt lat="29.5069503" lon="103.3234468"><ele>2892.3</ele><time>2026-02-09T20:53:01.000Z</time></trkpt>
        <trkpt lat="29.5070285" lon="103.3235177"><ele>2891.69</ele><time>2026-02-09T20:53:13.000Z</time></trkpt>
        <trkpt lat="29.5071405" lon="103.3235579"><ele>2890.46</ele><time>2026-02-09T20:53:24.000Z</time></trkpt>
        <trkpt lat="29.5072403" lon="103.3235959"><ele>2888.05</ele><time>2026-02-09T20:53:32.000Z</time></trkpt>
        <trkpt lat="29.5073258" lon="103.3236532"><ele>2885.91</ele><time>2026-02-09T20:53:48.000Z</time></trkpt>
        <trkpt lat="29.5073801" lon="103.3237415"><ele>2884.01</ele><time>2026-02-09T20:54:06.000Z</time></trkpt>
        <trkpt lat="29.507379" lon="103.323848"><ele>2882</ele><time>2026-02-09T20:54:18.000Z</time></trkpt>
        <trkpt lat="29.5073589" lon="103.3239643"><ele>2879.84</ele><time>2026-02-09T20:54:38.000Z</time></trkpt>
        <trkpt lat="29.50731" lon="103.3240735"><ele>2878.81</ele><time>2026-02-09T20:55:00.000Z</time></trkpt>
        <trkpt lat="29.5072864" lon="103.3241989"><ele>2877.45</ele><time>2026-02-09T20:55:07.000Z</time></trkpt>
        <trkpt lat="29.5072415" lon="103.3243048"><ele>2882.1</ele><time>2026-02-09T20:55:28.000Z</time></trkpt>
        <trkpt lat="29.5072015" lon="103.324408"><ele>2885.28</ele><time>2026-02-09T20:55:43.000Z</time></trkpt>
        <trkpt lat="29.5071626" lon="103.324505"><ele>2888.36</ele><time>2026-02-09T20:55:52.000Z</time></trkpt>
        <trkpt lat="29.5071459" lon="103.3246235"><ele>2890.24</ele><time>2026-02-09T20:56:08.000Z</time></trkpt>
        <trkpt lat="29.5072417" lon="103.3247798"><ele>2889.06</ele><time>2026-02-09T20:56:15.000Z</time></trkpt>
        <trkpt lat="29.5072438" lon="103.3247537"><ele>2888.46</ele><time>2026-02-09T20:56:22.000Z</time></trkpt>
        <trkpt lat="29.5071797" lon="103.3247643"><ele>2889.11</ele><time>2026-02-09T20:56:46.000Z</time></trkpt>
        <trkpt lat="29.5071345" lon="103.324839"><ele>2889.43</ele><time>2026-02-09T20:57:00.000Z</time></trkpt>
        <trkpt lat="29.5071037" lon="103.3249494"><ele>2889.6</ele><time>2026-02-09T20:57:16.000Z</time></trkpt>
        <trkpt lat="29.5071001" lon="103.3250683"><ele>2889.51</ele><time>2026-02-09T20:57:34.000Z</time></trkpt>
        <trkpt lat="29.5070883" lon="103.3252077"><ele>2889.62</ele><time>2026-02-09T20:57:49.000Z</time></trkpt>
        <trkpt lat="29.5070911" lon="103.3253269"><ele>2891.74</ele><time>2026-02-09T20:58:25.000Z</time></trkpt>
        <trkpt lat="29.5070911" lon="103.3253269"><ele>2891.74</ele><time>2026-02-09T20:59:15.000Z</time></trkpt>
        <trkpt lat="29.5070911" lon="103.3253269"><ele>2891.74</ele><time>2026-02-09T20:59:20.000Z</time></trkpt>
        <trkpt lat="29.5070911" lon="103.3253269"><ele>2891.74</ele><time>2026-02-09T20:59:37.000Z</time></trkpt>
        <trkpt lat="29.5070911" lon="103.3253269"><ele>2891.74</ele><time>2026-02-09T21:00:36.000Z</time></trkpt>
        <trkpt lat="29.5070911" lon="103.3253269"><ele>2891.74</ele><time>2026-02-09T21:01:25.000Z</time></trkpt>
        <trkpt lat="29.5070911" lon="103.3253269"><ele>2891.74</ele><time>2026-02-09T21:01:28.000Z</time></trkpt>
        <trkpt lat="29.5070911" lon="103.3253269"><ele>2891.74</ele><time>2026-02-09T21:01:51.000Z</time></trkpt>
        <trkpt lat="29.5070911" lon="103.3253269"><ele>2891.74</ele><time>2026-02-09T21:01:52.000Z</time></trkpt>
        <trkpt lat="29.5070911" lon="103.3253269"><ele>2891.74</ele><time>2026-02-09T21:05:53.000Z</time></trkpt>
        <trkpt lat="29.5070867" lon="103.3254379"><ele>2894.02</ele><time>2026-02-09T21:05:54.000Z</time></trkpt>
        <trkpt lat="29.5070867" lon="103.3254379"><ele>2894.02</ele><time>2026-02-09T21:06:34.000Z</time></trkpt>
        <trkpt lat="29.5071611" lon="103.32551"><ele>2901.48</ele><time>2026-02-09T21:06:53.000Z</time></trkpt>
        <trkpt lat="29.5072485" lon="103.325542"><ele>2904.93</ele><time>2026-02-09T21:07:02.000Z</time></trkpt>
        <trkpt lat="29.5073336" lon="103.3255937"><ele>2904.88</ele><time>2026-02-09T21:07:16.000Z</time></trkpt>
        <trkpt lat="29.5074218" lon="103.3256352"><ele>2904.8</ele><time>2026-02-09T21:07:39.000Z</time></trkpt>
        <trkpt lat="29.5074968" lon="103.3257045"><ele>2905.68</ele><time>2026-02-09T21:07:57.000Z</time></trkpt>
        <trkpt lat="29.5075781" lon="103.3257684"><ele>2907.53</ele><time>2026-02-09T21:08:49.000Z</time></trkpt>
        <trkpt lat="29.5076369" lon="103.3258543"><ele>2910.74</ele><time>2026-02-09T21:09:31.000Z</time></trkpt>
        <trkpt lat="29.5077099" lon="103.325927"><ele>2914.46</ele><time>2026-02-09T21:10:28.000Z</time></trkpt>
        <trkpt lat="29.5077099" lon="103.325927"><ele>2914.46</ele><time>2026-02-09T21:11:31.000Z</time></trkpt>
        <trkpt lat="29.5077802" lon="103.326046"><ele>2918.02</ele><time>2026-02-09T21:11:52.000Z</time></trkpt>
        <trkpt lat="29.5077802" lon="103.326046"><ele>2918.02</ele><time>2026-02-09T21:11:53.000Z</time></trkpt>
        <trkpt lat="29.5077672" lon="103.3260262"><ele>2921.61</ele><time>2026-02-09T21:11:57.000Z</time></trkpt>
        <trkpt lat="29.507789" lon="103.3260028"><ele>2924.06</ele><time>2026-02-09T21:11:59.000Z</time></trkpt>
        <trkpt lat="29.507789" lon="103.3260028"><ele>2924.06</ele><time>2026-02-09T21:12:03.000Z</time></trkpt>
        <trkpt lat="29.507789" lon="103.3260028"><ele>2924.06</ele><time>2026-02-09T21:12:12.000Z</time></trkpt>
        <trkpt lat="29.507789" lon="103.3260028"><ele>2924.06</ele><time>2026-02-09T21:12:39.000Z</time></trkpt>
        <trkpt lat="29.507789" lon="103.3260028"><ele>2924.06</ele><time>2026-02-09T21:12:40.000Z</time></trkpt>
        <trkpt lat="29.507789" lon="103.3260028"><ele>2924.06</ele><time>2026-02-09T21:12:51.000Z</time></trkpt>
        <trkpt lat="29.507789" lon="103.3260028"><ele>2924.06</ele><time>2026-02-09T21:12:52.000Z</time></trkpt>
        <trkpt lat="29.507789" lon="103.3260028"><ele>2924.06</ele><time>2026-02-09T21:13:11.000Z</time></trkpt>
        <trkpt lat="29.5077535" lon="103.3260958"><ele>2927.03</ele><time>2026-02-09T21:13:16.000Z</time></trkpt>
        <trkpt lat="29.5077535" lon="103.3260958"><ele>2927.03</ele><time>2026-02-09T21:14:28.000Z</time></trkpt>
        <trkpt lat="29.507714" lon="103.3261891"><ele>2931.95</ele><time>2026-02-09T21:15:12.000Z</time></trkpt>
        <trkpt lat="29.5076818" lon="103.3262892"><ele>2935.07</ele><time>2026-02-09T21:15:30.000Z</time></trkpt>
        <trkpt lat="29.5076266" lon="103.3263835"><ele>2937.75</ele><time>2026-02-09T21:15:55.000Z</time></trkpt>
        <trkpt lat="29.507554" lon="103.3264482"><ele>2939.9</ele><time>2026-02-09T21:16:21.000Z</time></trkpt>
        <trkpt lat="29.5075031" lon="103.3264828"><ele>2942.62</ele><time>2026-02-09T21:16:39.000Z</time></trkpt>
        <trkpt lat="29.5074281" lon="103.3265237"><ele>2944.76</ele><time>2026-02-09T21:17:17.000Z</time></trkpt>
        <trkpt lat="29.5073695" lon="103.3266034"><ele>2947.63</ele><time>2026-02-09T21:17:45.000Z</time></trkpt>
        <trkpt lat="29.5073695" lon="103.3266034"><ele>2947.63</ele><time>2026-02-09T21:17:59.000Z</time></trkpt>
        <trkpt lat="29.5072955" lon="103.3266827"><ele>2949.66</ele><time>2026-02-09T21:18:08.000Z</time></trkpt>
        <trkpt lat="29.5072955" lon="103.3266827"><ele>2949.66</ele><time>2026-02-09T21:18:28.000Z</time></trkpt>
        <trkpt lat="29.5072088" lon="103.3266898"><ele>2952.8</ele><time>2026-02-09T21:18:37.000Z</time></trkpt>
        <trkpt lat="29.5071271" lon="103.3267262"><ele>2954.92</ele><time>2026-02-09T21:18:53.000Z</time></trkpt>
        <trkpt lat="29.5070761" lon="103.3268257"><ele>2955.78</ele><time>2026-02-09T21:20:10.000Z</time></trkpt>
        <trkpt lat="29.5070553" lon="103.326929"><ele>2959.66</ele><time>2026-02-09T21:20:50.000Z</time></trkpt>
        <trkpt lat="29.5070553" lon="103.326929"><ele>2959.66</ele><time>2026-02-09T21:21:29.000Z</time></trkpt>
        <trkpt lat="29.5070815" lon="103.3270353"><ele>2963.08</ele><time>2026-02-09T21:21:34.000Z</time></trkpt>
        <trkpt lat="29.5070815" lon="103.3270353"><ele>2963.08</ele><time>2026-02-09T21:21:42.000Z</time></trkpt>
        <trkpt lat="29.5071437" lon="103.3271136"><ele>2965.97</ele><time>2026-02-09T21:21:58.000Z</time></trkpt>
        <trkpt lat="29.5072292" lon="103.3271834"><ele>2968.97</ele><time>2026-02-09T21:22:14.000Z</time></trkpt>
        <trkpt lat="29.5073101" lon="103.3272505"><ele>2971.22</ele><time>2026-02-09T21:22:26.000Z</time></trkpt>
        <trkpt lat="29.5073797" lon="103.3273273"><ele>2972.46</ele><time>2026-02-09T21:22:44.000Z</time></trkpt>
        <trkpt lat="29.5074401" lon="103.3274304"><ele>2972.62</ele><time>2026-02-09T21:22:59.000Z</time></trkpt>
        <trkpt lat="29.5074867" lon="103.3275372"><ele>2973.66</ele><time>2026-02-09T21:23:09.000Z</time></trkpt>
        <trkpt lat="29.5075208" lon="103.3276466"><ele>2973.81</ele><time>2026-02-09T21:23:21.000Z</time></trkpt>
        <trkpt lat="29.5076065" lon="103.327682"><ele>2974.2</ele><time>2026-02-09T21:23:37.000Z</time></trkpt>
        <trkpt lat="29.5077019" lon="103.3276596"><ele>2974.87</ele><time>2026-02-09T21:23:45.000Z</time></trkpt>
        <trkpt lat="29.5077874" lon="103.3275878"><ele>2975.25</ele><time>2026-02-09T21:23:59.000Z</time></trkpt>
        <trkpt lat="29.5078768" lon="103.3275798"><ele>2974.85</ele><time>2026-02-09T21:24:13.000Z</time></trkpt>
        <trkpt lat="29.5079402" lon="103.3276417"><ele>2973.63</ele><time>2026-02-09T21:24:23.000Z</time></trkpt>
        <trkpt lat="29.5079768" lon="103.327747"><ele>2972.64</ele><time>2026-02-09T21:24:33.000Z</time></trkpt>
        <trkpt lat="29.50802" lon="103.3278634"><ele>2972.2</ele><time>2026-02-09T21:24:45.000Z</time></trkpt>
        <trkpt lat="29.5080553" lon="103.327974"><ele>2972.11</ele><time>2026-02-09T21:24:57.000Z</time></trkpt>
        <trkpt lat="29.5081163" lon="103.3280621"><ele>2972.78</ele><time>2026-02-09T21:25:09.000Z</time></trkpt>
        <trkpt lat="29.5081907" lon="103.3281399"><ele>2973.43</ele><time>2026-02-09T21:25:25.000Z</time></trkpt>
        <trkpt lat="29.5082749" lon="103.3281912"><ele>2974.18</ele><time>2026-02-09T21:25:29.000Z</time></trkpt>
        <trkpt lat="29.5083352" lon="103.3282682"><ele>2976.22</ele><time>2026-02-09T21:26:00.000Z</time></trkpt>
        <trkpt lat="29.5084181" lon="103.3282889"><ele>2978.04</ele><time>2026-02-09T21:26:22.000Z</time></trkpt>
        <trkpt lat="29.5085128" lon="103.3283114"><ele>2980.39</ele><time>2026-02-09T21:26:32.000Z</time></trkpt>
        <trkpt lat="29.5086106" lon="103.3283142"><ele>2982.67</ele><time>2026-02-09T21:26:44.000Z</time></trkpt>
        <trkpt lat="29.5087181" lon="103.3283342"><ele>2984.1</ele><time>2026-02-09T21:26:56.000Z</time></trkpt>
        <trkpt lat="29.5088243" lon="103.3283306"><ele>2984.88</ele><time>2026-02-09T21:27:06.000Z</time></trkpt>
        <trkpt lat="29.5089243" lon="103.3282938"><ele>2984.81</ele><time>2026-02-09T21:27:18.000Z</time></trkpt>
        <trkpt lat="29.5090038" lon="103.3282208"><ele>2984.16</ele><time>2026-02-09T21:27:30.000Z</time></trkpt>
        <trkpt lat="29.5090864" lon="103.3281483"><ele>2982.83</ele><time>2026-02-09T21:27:40.000Z</time></trkpt>
        <trkpt lat="29.5091762" lon="103.3281092"><ele>2981.4</ele><time>2026-02-09T21:27:50.000Z</time></trkpt>
        <trkpt lat="29.5092742" lon="103.3281062"><ele>2978.89</ele><time>2026-02-09T21:28:00.000Z</time></trkpt>
        <trkpt lat="29.5093821" lon="103.3281027"><ele>2977.08</ele><time>2026-02-09T21:28:08.000Z</time></trkpt>
        <trkpt lat="29.5094818" lon="103.3281024"><ele>2976.25</ele><time>2026-02-09T21:28:16.000Z</time></trkpt>
        <trkpt lat="29.5095868" lon="103.328116"><ele>2976.13</ele><time>2026-02-09T21:28:24.000Z</time></trkpt>
        <trkpt lat="29.5096869" lon="103.3281471"><ele>2975.94</ele><time>2026-02-09T21:28:35.000Z</time></trkpt>
        <trkpt lat="29.5097468" lon="103.3281771"><ele>2972.93</ele><time>2026-02-09T21:28:39.000Z</time></trkpt>
        <trkpt lat="29.5097962" lon="103.3282508"><ele>2971.51</ele><time>2026-02-09T21:28:49.000Z</time></trkpt>
        <trkpt lat="29.5098213" lon="103.328351"><ele>2971.61</ele><time>2026-02-09T21:29:05.000Z</time></trkpt>
        <trkpt lat="29.5098213" lon="103.328351"><ele>2971.61</ele><time>2026-02-09T21:29:53.000Z</time></trkpt>
        <trkpt lat="29.5098134" lon="103.3284652"><ele>2971.06</ele><time>2026-02-09T21:29:58.000Z</time></trkpt>
        <trkpt lat="29.5098134" lon="103.3284652"><ele>2971.06</ele><time>2026-02-09T21:29:58.000Z</time></trkpt>
        <trkpt lat="29.5098127" lon="103.3285791"><ele>2973.11</ele><time>2026-02-09T21:30:20.000Z</time></trkpt>
        <trkpt lat="29.5098518" lon="103.3286802"><ele>2975.12</ele><time>2026-02-09T21:30:33.000Z</time></trkpt>
        <trkpt lat="29.5098518" lon="103.3286802"><ele>2975.12</ele><time>2026-02-09T21:33:09.000Z</time></trkpt>
        <trkpt lat="29.5097667" lon="103.3287907"><ele>2975.54</ele><time>2026-02-09T21:37:22.000Z</time></trkpt>
        <trkpt lat="29.5097667" lon="103.3287907"><ele>2975.54</ele><time>2026-02-09T21:37:27.000Z</time></trkpt>
        <trkpt lat="29.5099737" lon="103.32866"><ele>2980.02</ele><time>2026-02-09T21:37:33.000Z</time></trkpt>
        <trkpt lat="29.509972" lon="103.3287132"><ele>2982.65</ele><time>2026-02-09T21:37:37.000Z</time></trkpt>
        <trkpt lat="29.5099443" lon="103.3287377"><ele>2980.38</ele><time>2026-02-09T21:37:43.000Z</time></trkpt>
        <trkpt lat="29.5099443" lon="103.3287377"><ele>2980.38</ele><time>2026-02-09T21:38:23.000Z</time></trkpt>
        <trkpt lat="29.509974" lon="103.3288129"><ele>2980.31</ele><time>2026-02-09T21:38:26.000Z</time></trkpt>
        <trkpt lat="29.509974" lon="103.3288129"><ele>2980.31</ele><time>2026-02-09T21:38:38.000Z</time></trkpt>
        <trkpt lat="29.5099885" lon="103.3289189"><ele>2981.03</ele><time>2026-02-09T21:38:50.000Z</time></trkpt>
        <trkpt lat="29.5100412" lon="103.3290165"><ele>2981.77</ele><time>2026-02-09T21:39:44.000Z</time></trkpt>
        <trkpt lat="29.510101" lon="103.3291186"><ele>2983.37</ele><time>2026-02-09T21:40:12.000Z</time></trkpt>
        <trkpt lat="29.5101823" lon="103.3291785"><ele>2984.96</ele><time>2026-02-09T21:40:24.000Z</time></trkpt>
        <trkpt lat="29.510244" lon="103.3292663"><ele>2986.71</ele><time>2026-02-09T21:40:36.000Z</time></trkpt>
        <trkpt lat="29.5102829" lon="103.329376"><ele>2988.86</ele><time>2026-02-09T21:41:02.000Z</time></trkpt>
        <trkpt lat="29.510299" lon="103.3294853"><ele>2991.32</ele><time>2026-02-09T21:41:11.000Z</time></trkpt>
        <trkpt lat="29.510355" lon="103.329574"><ele>2992.13</ele><time>2026-02-09T21:41:19.000Z</time></trkpt>
        <trkpt lat="29.51041" lon="103.3296601"><ele>2992.95</ele><time>2026-02-09T21:41:27.000Z</time></trkpt>
        <trkpt lat="29.5104778" lon="103.3297335"><ele>2992.92</ele><time>2026-02-09T21:41:39.000Z</time></trkpt>
        <trkpt lat="29.5105391" lon="103.3298147"><ele>2991.9</ele><time>2026-02-09T21:41:47.000Z</time></trkpt>
        <trkpt lat="29.5105949" lon="103.3299133"><ele>2990.64</ele><time>2026-02-09T21:41:57.000Z</time></trkpt>
        <trkpt lat="29.510652" lon="103.3300164"><ele>2989.74</ele><time>2026-02-09T21:42:05.000Z</time></trkpt>
        <trkpt lat="29.5106853" lon="103.3301204"><ele>2989.36</ele><time>2026-02-09T21:42:15.000Z</time></trkpt>
        <trkpt lat="29.5107115" lon="103.3302223"><ele>2989.36</ele><time>2026-02-09T21:42:25.000Z</time></trkpt>
        <trkpt lat="29.5107699" lon="103.3302995"><ele>2989.46</ele><time>2026-02-09T21:42:42.000Z</time></trkpt>
        <trkpt lat="29.5107834" lon="103.3303968"><ele>2990.86</ele><time>2026-02-09T21:43:12.000Z</time></trkpt>
        <trkpt lat="29.5107431" lon="103.330503"><ele>2993.68</ele><time>2026-02-09T21:43:36.000Z</time></trkpt>
        <trkpt lat="29.5106549" lon="103.3305906"><ele>2996.3</ele><time>2026-02-09T21:44:36.000Z</time></trkpt>
        <trkpt lat="29.5106549" lon="103.3305906"><ele>2996.3</ele><time>2026-02-09T21:44:51.000Z</time></trkpt>
        <trkpt lat="29.5106549" lon="103.3305906"><ele>2996.3</ele><time>2026-02-09T21:45:00.000Z</time></trkpt>
        <trkpt lat="29.5106549" lon="103.3305906"><ele>2996.3</ele><time>2026-02-09T21:45:49.000Z</time></trkpt>
        <trkpt lat="29.5106222" lon="103.3306986"><ele>2999.37</ele><time>2026-02-09T21:45:50.000Z</time></trkpt>
        <trkpt lat="29.5106222" lon="103.3306986"><ele>2999.37</ele><time>2026-02-09T21:45:53.000Z</time></trkpt>
        <trkpt lat="29.5105425" lon="103.3307608"><ele>3001.97</ele><time>2026-02-09T21:46:28.000Z</time></trkpt>
        <trkpt lat="29.5104688" lon="103.3308342"><ele>3006.13</ele><time>2026-02-09T21:47:22.000Z</time></trkpt>
        <trkpt lat="29.5104688" lon="103.3308342"><ele>3006.13</ele><time>2026-02-09T21:47:33.000Z</time></trkpt>
        <trkpt lat="29.5103913" lon="103.3308952"><ele>3010.49</ele><time>2026-02-09T21:47:38.000Z</time></trkpt>
        <trkpt lat="29.5103913" lon="103.3308952"><ele>3010.49</ele><time>2026-02-09T21:47:48.000Z</time></trkpt>
        <trkpt lat="29.5102964" lon="103.3309262"><ele>3013.69</ele><time>2026-02-09T21:47:59.000Z</time></trkpt>
        <trkpt lat="29.5101972" lon="103.3309426"><ele>3015.76</ele><time>2026-02-09T21:48:16.000Z</time></trkpt>
        <trkpt lat="29.510134" lon="103.3310113"><ele>3018.14</ele><time>2026-02-09T21:49:01.000Z</time></trkpt>
        <trkpt lat="29.510134" lon="103.3310113"><ele>3018.14</ele><time>2026-02-09T21:49:15.000Z</time></trkpt>
        <trkpt lat="29.5100793" lon="103.3310955"><ele>3020.41</ele><time>2026-02-09T21:49:18.000Z</time></trkpt>
        <trkpt lat="29.5100793" lon="103.3310955"><ele>3020.41</ele><time>2026-02-09T21:49:34.000Z</time></trkpt>
        <trkpt lat="29.5100256" lon="103.3311881"><ele>3022.82</ele><time>2026-02-09T21:50:24.000Z</time></trkpt>
        <trkpt lat="29.5099563" lon="103.33127"><ele>3027.7</ele><time>2026-02-09T21:50:48.000Z</time></trkpt>
        <trkpt lat="29.5099423" lon="103.3313692"><ele>3031.5</ele><time>2026-02-09T21:51:18.000Z</time></trkpt>
        <trkpt lat="29.5099574" lon="103.3314732"><ele>3033.99</ele><time>2026-02-09T21:51:46.000Z</time></trkpt>
        <trkpt lat="29.5099917" lon="103.3315754"><ele>3035.07</ele><time>2026-02-09T21:52:10.000Z</time></trkpt>
        <trkpt lat="29.5100257" lon="103.3316916"><ele>3037.27</ele><time>2026-02-09T21:52:48.000Z</time></trkpt>
        <trkpt lat="29.5100769" lon="103.3318094"><ele>3039.7</ele><time>2026-02-09T21:53:05.000Z</time></trkpt>
        <trkpt lat="29.5100819" lon="103.3319214"><ele>3042.41</ele><time>2026-02-09T21:53:17.000Z</time></trkpt>
        <trkpt lat="29.5100328" lon="103.3320085"><ele>3044.67</ele><time>2026-02-09T21:53:35.000Z</time></trkpt>
        <trkpt lat="29.5100328" lon="103.3320085"><ele>3044.67</ele><time>2026-02-09T21:55:23.000Z</time></trkpt>
        <trkpt lat="29.5101164" lon="103.3320012"><ele>3046.5</ele><time>2026-02-09T21:55:38.000Z</time></trkpt>
        <trkpt lat="29.5101164" lon="103.3320012"><ele>3046.5</ele><time>2026-02-09T21:56:03.000Z</time></trkpt>
        <trkpt lat="29.5102112" lon="103.3320184"><ele>3048.66</ele><time>2026-02-09T21:56:14.000Z</time></trkpt>
        <trkpt lat="29.5102207" lon="103.332125"><ele>3049.8</ele><time>2026-02-09T21:56:49.000Z</time></trkpt>
        <trkpt lat="29.5102482" lon="103.332248"><ele>3051.42</ele><time>2026-02-09T21:56:58.000Z</time></trkpt>
        <trkpt lat="29.5101626" lon="103.3322944"><ele>3053.27</ele><time>2026-02-09T21:57:10.000Z</time></trkpt>
        <trkpt lat="29.5101626" lon="103.3322944"><ele>3053.27</ele><time>2026-02-09T21:57:45.000Z</time></trkpt>
        <trkpt lat="29.5101626" lon="103.3322944"><ele>3053.27</ele><time>2026-02-09T21:58:08.000Z</time></trkpt>
        <trkpt lat="29.5101626" lon="103.3322944"><ele>3053.27</ele><time>2026-02-09T21:58:27.000Z</time></trkpt>
        <trkpt lat="29.5100187" lon="103.3323156"><ele>3056.96</ele><time>2026-02-09T21:58:32.000Z</time></trkpt>
        <trkpt lat="29.5100187" lon="103.3323156"><ele>3056.96</ele><time>2026-02-09T21:58:40.000Z</time></trkpt>
        <trkpt lat="29.5101027" lon="103.3323685"><ele>3055.21</ele><time>2026-02-09T21:59:04.000Z</time></trkpt>
        <trkpt lat="29.5101884" lon="103.3324041"><ele>3052.96</ele><time>2026-02-09T21:59:15.000Z</time></trkpt>
        <trkpt lat="29.5102699" lon="103.3324581"><ele>3051.03</ele><time>2026-02-09T21:59:34.000Z</time></trkpt>
        <trkpt lat="29.5103696" lon="103.3324762"><ele>3049.43</ele><time>2026-02-09T21:59:42.000Z</time></trkpt>
        <trkpt lat="29.5104697" lon="103.3324826"><ele>3045.29</ele><time>2026-02-09T21:59:52.000Z</time></trkpt>
        <trkpt lat="29.5105629" lon="103.3325147"><ele>3041.63</ele><time>2026-02-09T21:59:58.000Z</time></trkpt>
        <trkpt lat="29.5106666" lon="103.3325311"><ele>3038.98</ele><time>2026-02-09T22:00:06.000Z</time></trkpt>
        <trkpt lat="29.5107697" lon="103.3325086"><ele>3037.42</ele><time>2026-02-09T22:00:14.000Z</time></trkpt>
        <trkpt lat="29.5108753" lon="103.3325022"><ele>3036.26</ele><time>2026-02-09T22:00:22.000Z</time></trkpt>
        <trkpt lat="29.5109835" lon="103.3324797"><ele>3035.68</ele><time>2026-02-09T22:00:30.000Z</time></trkpt>
        <trkpt lat="29.5110913" lon="103.3324749"><ele>3035.49</ele><time>2026-02-09T22:00:42.000Z</time></trkpt>
        <trkpt lat="29.5111973" lon="103.3324601"><ele>3035.52</ele><time>2026-02-09T22:00:56.000Z</time></trkpt>
        <trkpt lat="29.5113033" lon="103.3324344"><ele>3035.83</ele><time>2026-02-09T22:01:06.000Z</time></trkpt>
        <trkpt lat="29.5114002" lon="103.3324221"><ele>3036.01</ele><time>2026-02-09T22:01:14.000Z</time></trkpt>
        <trkpt lat="29.5115049" lon="103.3324263"><ele>3036.29</ele><time>2026-02-09T22:01:22.000Z</time></trkpt>
        <trkpt lat="29.5116003" lon="103.332461"><ele>3036.51</ele><time>2026-02-09T22:01:30.000Z</time></trkpt>
        <trkpt lat="29.5116992" lon="103.332476"><ele>3036.87</ele><time>2026-02-09T22:01:38.000Z</time></trkpt>
        <trkpt lat="29.5117935" lon="103.3325013"><ele>3037.31</ele><time>2026-02-09T22:01:46.000Z</time></trkpt>
        <trkpt lat="29.5118911" lon="103.3325389"><ele>3037.25</ele><time>2026-02-09T22:01:56.000Z</time></trkpt>
        <trkpt lat="29.51196" lon="103.3326096"><ele>3036.91</ele><time>2026-02-09T22:02:04.000Z</time></trkpt>
        <trkpt lat="29.5120384" lon="103.3326841"><ele>3036.3</ele><time>2026-02-09T22:02:12.000Z</time></trkpt>
        <trkpt lat="29.5121135" lon="103.3327584"><ele>3035.77</ele><time>2026-02-09T22:02:32.000Z</time></trkpt>
        <trkpt lat="29.5121135" lon="103.3327584"><ele>3035.77</ele><time>2026-02-09T22:03:07.000Z</time></trkpt>
        <trkpt lat="29.5121995" lon="103.3327865"><ele>3035.88</ele><time>2026-02-09T22:03:28.000Z</time></trkpt>
        <trkpt lat="29.5121995" lon="103.3327865"><ele>3035.88</ele><time>2026-02-09T22:06:25.000Z</time></trkpt>
        <trkpt lat="29.512104" lon="103.3327205"><ele>3028.04</ele><time>2026-02-09T22:06:29.000Z</time></trkpt>
        <trkpt lat="29.5121144" lon="103.3327329"><ele>3032.1</ele><time>2026-02-09T22:06:33.000Z</time></trkpt>
        <trkpt lat="29.5121966" lon="103.3327256"><ele>3034.55</ele><time>2026-02-09T22:06:48.000Z</time></trkpt>
        <trkpt lat="29.5123066" lon="103.3327174"><ele>3031.57</ele><time>2026-02-09T22:06:58.000Z</time></trkpt>
        <trkpt lat="29.5124199" lon="103.3327032"><ele>3030.18</ele><time>2026-02-09T22:07:10.000Z</time></trkpt>
        <trkpt lat="29.512523" lon="103.3326596"><ele>3028.86</ele><time>2026-02-09T22:07:22.000Z</time></trkpt>
        <trkpt lat="29.5126235" lon="103.3326512"><ele>3027.22</ele><time>2026-02-09T22:07:38.000Z</time></trkpt>
        <trkpt lat="29.5126964" lon="103.3326355"><ele>3024.87</ele><time>2026-02-09T22:07:51.000Z</time></trkpt>
        <trkpt lat="29.5127848" lon="103.3326205"><ele>3020.62</ele><time>2026-02-09T22:08:11.000Z</time></trkpt>
        <trkpt lat="29.5128613" lon="103.3325627"><ele>3017.38</ele><time>2026-02-09T22:08:22.000Z</time></trkpt>
        <trkpt lat="29.5129221" lon="103.3324729"><ele>3014.9</ele><time>2026-02-09T22:08:32.000Z</time></trkpt>
        <trkpt lat="29.5129884" lon="103.3323916"><ele>3011.11</ele><time>2026-02-09T22:08:43.000Z</time></trkpt>
        <trkpt lat="29.5130689" lon="103.3323288"><ele>3008.09</ele><time>2026-02-09T22:08:54.000Z</time></trkpt>
        <trkpt lat="29.5130824" lon="103.3322223"><ele>3006.19</ele><time>2026-02-09T22:09:04.000Z</time></trkpt>
        <trkpt lat="29.5130494" lon="103.3321105"><ele>3003.82</ele><time>2026-02-09T22:09:13.000Z</time></trkpt>
        <trkpt lat="29.5130801" lon="103.3320151"><ele>3001.4</ele><time>2026-02-09T22:09:30.000Z</time></trkpt>
        <trkpt lat="29.5131285" lon="103.3319205"><ele>2999.42</ele><time>2026-02-09T22:09:40.000Z</time></trkpt>
        <trkpt lat="29.513207" lon="103.3318396"><ele>2997.4</ele><time>2026-02-09T22:09:50.000Z</time></trkpt>
        <trkpt lat="29.5133006" lon="103.3317952"><ele>2996.34</ele><time>2026-02-09T22:10:00.000Z</time></trkpt>
        <trkpt lat="29.5133982" lon="103.3317768"><ele>2995.75</ele><time>2026-02-09T22:10:15.000Z</time></trkpt>
        <trkpt lat="29.5134836" lon="103.3317248"><ele>2995.65</ele><time>2026-02-09T22:10:28.000Z</time></trkpt>
        <trkpt lat="29.5135688" lon="103.3316789"><ele>2992.53</ele><time>2026-02-09T22:10:38.000Z</time></trkpt>
        <trkpt lat="29.5136361" lon="103.3316017"><ele>2991.37</ele><time>2026-02-09T22:10:54.000Z</time></trkpt>
        <trkpt lat="29.5136831" lon="103.3315054"><ele>2993.64</ele><time>2026-02-09T22:11:04.000Z</time></trkpt>
        <trkpt lat="29.5137155" lon="103.3314023"><ele>2994.71</ele><time>2026-02-09T22:11:14.000Z</time></trkpt>
        <trkpt lat="29.5137464" lon="103.3312978"><ele>2995.57</ele><time>2026-02-09T22:11:28.000Z</time></trkpt>
        <trkpt lat="29.5138126" lon="103.3312209"><ele>2996.03</ele><time>2026-02-09T22:11:42.000Z</time></trkpt>
        <trkpt lat="29.5138967" lon="103.3311769"><ele>2997.03</ele><time>2026-02-09T22:11:52.000Z</time></trkpt>
        <trkpt lat="29.5139877" lon="103.3311509"><ele>2998.04</ele><time>2026-02-09T22:12:02.000Z</time></trkpt>
        <trkpt lat="29.5140927" lon="103.3311439"><ele>2998.52</ele><time>2026-02-09T22:12:10.000Z</time></trkpt>
        <trkpt lat="29.5141996" lon="103.3311667"><ele>2997.19</ele><time>2026-02-09T22:12:20.000Z</time></trkpt>
        <trkpt lat="29.5143052" lon="103.3311994"><ele>2997.43</ele><time>2026-02-09T22:12:32.000Z</time></trkpt>
        <trkpt lat="29.5144004" lon="103.3312152"><ele>2998.2</ele><time>2026-02-09T22:12:42.000Z</time></trkpt>
        <trkpt lat="29.5144946" lon="103.3312339"><ele>2998.93</ele><time>2026-02-09T22:12:50.000Z</time></trkpt>
        <trkpt lat="29.5145953" lon="103.3312671"><ele>2999.24</ele><time>2026-02-09T22:12:58.000Z</time></trkpt>
        <trkpt lat="29.5146803" lon="103.3313162"><ele>2999.63</ele><time>2026-02-09T22:13:06.000Z</time></trkpt>
        <trkpt lat="29.5147675" lon="103.3313773"><ele>2999.32</ele><time>2026-02-09T22:13:14.000Z</time></trkpt>
        <trkpt lat="29.514866" lon="103.3314274"><ele>2998.81</ele><time>2026-02-09T22:13:20.000Z</time></trkpt>
        <trkpt lat="29.5149672" lon="103.3314619"><ele>2998.17</ele><time>2026-02-09T22:13:28.000Z</time></trkpt>
        <trkpt lat="29.5150657" lon="103.3314564"><ele>2997.97</ele><time>2026-02-09T22:13:36.000Z</time></trkpt>
        <trkpt lat="29.5151671" lon="103.3314435"><ele>2997.37</ele><time>2026-02-09T22:13:46.000Z</time></trkpt>
        <trkpt lat="29.5152711" lon="103.331417"><ele>2997.1</ele><time>2026-02-09T22:13:54.000Z</time></trkpt>
        <trkpt lat="29.5153703" lon="103.3314"><ele>2997.43</ele><time>2026-02-09T22:14:04.000Z</time></trkpt>
        <trkpt lat="29.515476" lon="103.3314078"><ele>2997.84</ele><time>2026-02-09T22:14:16.000Z</time></trkpt>
        <trkpt lat="29.5155838" lon="103.3314279"><ele>2998.72</ele><time>2026-02-09T22:14:24.000Z</time></trkpt>
        <trkpt lat="29.5156722" lon="103.331478"><ele>2999.48</ele><time>2026-02-09T22:14:32.000Z</time></trkpt>
        <trkpt lat="29.5157408" lon="103.3315518"><ele>2999.78</ele><time>2026-02-09T22:14:40.000Z</time></trkpt>
        <trkpt lat="29.5158062" lon="103.3316406"><ele>2999.95</ele><time>2026-02-09T22:14:48.000Z</time></trkpt>
        <trkpt lat="29.5158712" lon="103.3317325"><ele>2999.86</ele><time>2026-02-09T22:14:56.000Z</time></trkpt>
        <trkpt lat="29.5159327" lon="103.331831"><ele>2999.71</ele><time>2026-02-09T22:15:04.000Z</time></trkpt>
        <trkpt lat="29.5159958" lon="103.3319333"><ele>2999.5</ele><time>2026-02-09T22:15:14.000Z</time></trkpt>
        <trkpt lat="29.5160611" lon="103.3320415"><ele>2999.17</ele><time>2026-02-09T22:15:24.000Z</time></trkpt>
        <trkpt lat="29.516125" lon="103.3321421"><ele>2998.72</ele><time>2026-02-09T22:15:30.000Z</time></trkpt>
        <trkpt lat="29.5161921" lon="103.3322367"><ele>2998.59</ele><time>2026-02-09T22:15:38.000Z</time></trkpt>
        <trkpt lat="29.5162552" lon="103.3323225"><ele>2998.17</ele><time>2026-02-09T22:15:46.000Z</time></trkpt>
        <trkpt lat="29.5163139" lon="103.3324162"><ele>2997.38</ele><time>2026-02-09T22:15:56.000Z</time></trkpt>
        <trkpt lat="29.5163759" lon="103.3325109"><ele>2995.84</ele><time>2026-02-09T22:16:04.000Z</time></trkpt>
        <trkpt lat="29.516447" lon="103.3326017"><ele>2994.42</ele><time>2026-02-09T22:16:12.000Z</time></trkpt>
        <trkpt lat="29.5165259" lon="103.3327044"><ele>2993.46</ele><time>2026-02-09T22:16:20.000Z</time></trkpt>
        <trkpt lat="29.5166041" lon="103.3327961"><ele>2992.11</ele><time>2026-02-09T22:16:28.000Z</time></trkpt>
        <trkpt lat="29.5166805" lon="103.3328991"><ele>2990.94</ele><time>2026-02-09T22:16:36.000Z</time></trkpt>
        <trkpt lat="29.5167722" lon="103.3329785"><ele>2989.16</ele><time>2026-02-09T22:16:44.000Z</time></trkpt>
        <trkpt lat="29.5168712" lon="103.3330439"><ele>2987.32</ele><time>2026-02-09T22:16:52.000Z</time></trkpt>
        <trkpt lat="29.5169615" lon="103.3331006"><ele>2985.5</ele><time>2026-02-09T22:16:58.000Z</time></trkpt>
        <trkpt lat="29.5170615" lon="103.3331307"><ele>2983.82</ele><time>2026-02-09T22:17:04.000Z</time></trkpt>
        <trkpt lat="29.5171684" lon="103.3331226"><ele>2982.3</ele><time>2026-02-09T22:17:12.000Z</time></trkpt>
        <trkpt lat="29.5172725" lon="103.3330866"><ele>2980.87</ele><time>2026-02-09T22:17:20.000Z</time></trkpt>
        <trkpt lat="29.5173572" lon="103.3330157"><ele>2979.18</ele><time>2026-02-09T22:17:28.000Z</time></trkpt>
        <trkpt lat="29.5174374" lon="103.3329549"><ele>2977.87</ele><time>2026-02-09T22:17:36.000Z</time></trkpt>
        <trkpt lat="29.517521" lon="103.3328832"><ele>2976.86</ele><time>2026-02-09T22:17:46.000Z</time></trkpt>
        <trkpt lat="29.5176024" lon="103.3328111"><ele>2976.5</ele><time>2026-02-09T22:17:56.000Z</time></trkpt>
        <trkpt lat="29.5176745" lon="103.3327273"><ele>2976.49</ele><time>2026-02-09T22:18:06.000Z</time></trkpt>
        <trkpt lat="29.5177498" lon="103.332639"><ele>2976.55</ele><time>2026-02-09T22:18:16.000Z</time></trkpt>
        <trkpt lat="29.5178321" lon="103.3325595"><ele>2976.78</ele><time>2026-02-09T22:18:26.000Z</time></trkpt>
        <trkpt lat="29.5179252" lon="103.3325002"><ele>2976.97</ele><time>2026-02-09T22:18:40.000Z</time></trkpt>
        <trkpt lat="29.5180137" lon="103.3324583"><ele>2977.6</ele><time>2026-02-09T22:18:48.000Z</time></trkpt>
        <trkpt lat="29.5181146" lon="103.3324407"><ele>2978.19</ele><time>2026-02-09T22:19:00.000Z</time></trkpt>
        <trkpt lat="29.5182151" lon="103.3324692"><ele>2979.18</ele><time>2026-02-09T22:19:10.000Z</time></trkpt>
        <trkpt lat="29.5183073" lon="103.3325386"><ele>2980.05</ele><time>2026-02-09T22:19:20.000Z</time></trkpt>
        <trkpt lat="29.5183895" lon="103.3326083"><ele>2980.31</ele><time>2026-02-09T22:19:26.000Z</time></trkpt>
        <trkpt lat="29.5184634" lon="103.3326831"><ele>2980.32</ele><time>2026-02-09T22:19:34.000Z</time></trkpt>
        <trkpt lat="29.5185405" lon="103.3327622"><ele>2980.01</ele><time>2026-02-09T22:19:42.000Z</time></trkpt>
        <trkpt lat="29.5186233" lon="103.3328319"><ele>2979.02</ele><time>2026-02-09T22:19:50.000Z</time></trkpt>
        <trkpt lat="29.5187216" lon="103.3328738"><ele>2977.94</ele><time>2026-02-09T22:20:00.000Z</time></trkpt>
        <trkpt lat="29.5188102" lon="103.3329126"><ele>2977.5</ele><time>2026-02-09T22:20:06.000Z</time></trkpt>
        <trkpt lat="29.5189027" lon="103.3329485"><ele>2976.88</ele><time>2026-02-09T22:20:16.000Z</time></trkpt>
        <trkpt lat="29.5189904" lon="103.3329884"><ele>2975.64</ele><time>2026-02-09T22:20:24.000Z</time></trkpt>
        <trkpt lat="29.5190737" lon="103.333048"><ele>2974.4</ele><time>2026-02-09T22:20:38.000Z</time></trkpt>
        <trkpt lat="29.5191289" lon="103.3331362"><ele>2972.9</ele><time>2026-02-09T22:20:54.000Z</time></trkpt>
        <trkpt lat="29.5191656" lon="103.3332412"><ele>2971.4</ele><time>2026-02-09T22:21:16.000Z</time></trkpt>
        <trkpt lat="29.5191865" lon="103.3333549"><ele>2968.74</ele><time>2026-02-09T22:21:49.000Z</time></trkpt>
        <trkpt lat="29.5191865" lon="103.3333549"><ele>2968.74</ele><time>2026-02-09T22:22:51.000Z</time></trkpt>
        <trkpt lat="29.5191865" lon="103.3333549"><ele>2968.74</ele><time>2026-02-09T22:22:56.000Z</time></trkpt>
        <trkpt lat="29.5191865" lon="103.3333549"><ele>2968.74</ele><time>2026-02-09T22:23:11.000Z</time></trkpt>
        <trkpt lat="29.5191865" lon="103.3333549"><ele>2968.74</ele><time>2026-02-09T22:23:14.000Z</time></trkpt>
        <trkpt lat="29.5191865" lon="103.3333549"><ele>2968.74</ele><time>2026-02-09T22:28:23.000Z</time></trkpt>
        <trkpt lat="29.5191865" lon="103.3333549"><ele>2968.74</ele><time>2026-02-09T22:28:32.000Z</time></trkpt>
        <trkpt lat="29.5191865" lon="103.3333549"><ele>2968.74</ele><time>2026-02-09T22:28:43.000Z</time></trkpt>
        <trkpt lat="29.5191865" lon="103.3333549"><ele>2968.74</ele><time>2026-02-09T22:30:06.000Z</time></trkpt>
        <trkpt lat="29.5191865" lon="103.3333549"><ele>2968.74</ele><time>2026-02-09T22:30:45.000Z</time></trkpt>
        <trkpt lat="29.5192608" lon="103.3334163"><ele>2968.65</ele><time>2026-02-09T22:31:00.000Z</time></trkpt>
        <trkpt lat="29.5192608" lon="103.3334163"><ele>2968.65</ele><time>2026-02-09T22:31:34.000Z</time></trkpt>
        <trkpt lat="29.5193321" lon="103.3335"><ele>2970.65</ele><time>2026-02-09T22:31:46.000Z</time></trkpt>
        <trkpt lat="29.5194193" lon="103.3335316"><ele>2968.93</ele><time>2026-02-09T22:31:59.000Z</time></trkpt>
        <trkpt lat="29.5195105" lon="103.3335551"><ele>2965.81</ele><time>2026-02-09T22:32:07.000Z</time></trkpt>
        <trkpt lat="29.5195738" lon="103.3336255"><ele>2963.99</ele><time>2026-02-09T22:32:22.000Z</time></trkpt>
        <trkpt lat="29.5196373" lon="103.333729"><ele>2962.21</ele><time>2026-02-09T22:32:33.000Z</time></trkpt>
        <trkpt lat="29.5197088" lon="103.3338282"><ele>2959.3</ele><time>2026-02-09T22:32:42.000Z</time></trkpt>
        <trkpt lat="29.5197698" lon="103.3339211"><ele>2956.99</ele><time>2026-02-09T22:32:50.000Z</time></trkpt>
        <trkpt lat="29.5198254" lon="103.3340095"><ele>2955.93</ele><time>2026-02-09T22:32:56.000Z</time></trkpt>
        <trkpt lat="29.5198805" lon="103.3341035"><ele>2956.2</ele><time>2026-02-09T22:33:06.000Z</time></trkpt>
        <trkpt lat="29.5199531" lon="103.3341761"><ele>2956.87</ele><time>2026-02-09T22:33:14.000Z</time></trkpt>
        <trkpt lat="29.520043" lon="103.334234"><ele>2957.52</ele><time>2026-02-09T22:33:26.000Z</time></trkpt>
        <trkpt lat="29.5201325" lon="103.3342748"><ele>2958.74</ele><time>2026-02-09T22:33:48.000Z</time></trkpt>
        <trkpt lat="29.520212" lon="103.3343268"><ele>2960.52</ele><time>2026-02-09T22:34:29.000Z</time></trkpt>
        <trkpt lat="29.520212" lon="103.3343268"><ele>2960.52</ele><time>2026-02-09T22:34:55.000Z</time></trkpt>
        <trkpt lat="29.5203447" lon="103.3343743"><ele>2962.18</ele><time>2026-02-09T22:35:08.000Z</time></trkpt>
        <trkpt lat="29.5203447" lon="103.3343743"><ele>2962.18</ele><time>2026-02-09T22:35:11.000Z</time></trkpt>
        <trkpt lat="29.5203393" lon="103.3343689"><ele>2966.13</ele><time>2026-02-09T22:35:14.000Z</time></trkpt>
        <trkpt lat="29.520392" lon="103.3343773"><ele>2968.54</ele><time>2026-02-09T22:35:58.000Z</time></trkpt>
        <trkpt lat="29.5204655" lon="103.3344205"><ele>2971.25</ele><time>2026-02-09T22:36:32.000Z</time></trkpt>
        <trkpt lat="29.5205606" lon="103.3344346"><ele>2973.4</ele><time>2026-02-09T22:36:49.000Z</time></trkpt>
        <trkpt lat="29.5206595" lon="103.3344322"><ele>2976.87</ele><time>2026-02-09T22:37:03.000Z</time></trkpt>
        <trkpt lat="29.5206595" lon="103.3344322"><ele>2976.87</ele><time>2026-02-09T22:37:07.000Z</time></trkpt>
        <trkpt lat="29.5206782" lon="103.3345108"><ele>2979.3</ele><time>2026-02-09T22:37:12.000Z</time></trkpt>
        <trkpt lat="29.5206782" lon="103.3345108"><ele>2979.3</ele><time>2026-02-09T22:37:31.000Z</time></trkpt>
        <trkpt lat="29.5206114" lon="103.3346137"><ele>2980.44</ele><time>2026-02-09T22:37:39.000Z</time></trkpt>
        <trkpt lat="29.5205122" lon="103.3346851"><ele>2979.78</ele><time>2026-02-09T22:37:52.000Z</time></trkpt>
        <trkpt lat="29.5205122" lon="103.3346851"><ele>2979.78</ele><time>2026-02-09T22:38:07.000Z</time></trkpt>
        <trkpt lat="29.5205122" lon="103.3346851"><ele>2979.78</ele><time>2026-02-09T22:38:10.000Z</time></trkpt>
        <trkpt lat="29.5205122" lon="103.3346851"><ele>2979.78</ele><time>2026-02-09T22:38:35.000Z</time></trkpt>
        <trkpt lat="29.5204809" lon="103.3347905"><ele>2980.03</ele><time>2026-02-09T22:38:36.000Z</time></trkpt>
        <trkpt lat="29.5204809" lon="103.3347905"><ele>2980.03</ele><time>2026-02-09T22:38:48.000Z</time></trkpt>
        <trkpt lat="29.5204809" lon="103.3347905"><ele>2980.03</ele><time>2026-02-09T22:38:59.000Z</time></trkpt>
        <trkpt lat="29.520528" lon="103.3348874"><ele>2980.38</ele><time>2026-02-09T22:39:02.000Z</time></trkpt>
        <trkpt lat="29.520528" lon="103.3348874"><ele>2980.38</ele><time>2026-02-09T22:39:36.000Z</time></trkpt>
        <trkpt lat="29.520528" lon="103.3348874"><ele>2980.38</ele><time>2026-02-09T22:39:51.000Z</time></trkpt>
        <trkpt lat="29.5206018" lon="103.3349647"><ele>2981.87</ele><time>2026-02-09T22:39:54.000Z</time></trkpt>
        <trkpt lat="29.5206018" lon="103.3349647"><ele>2981.87</ele><time>2026-02-09T22:40:06.000Z</time></trkpt>
        <trkpt lat="29.5206985" lon="103.3349728"><ele>2984.64</ele><time>2026-02-09T22:40:44.000Z</time></trkpt>
        <trkpt lat="29.520795" lon="103.3349183"><ele>2986.25</ele><time>2026-02-09T22:41:16.000Z</time></trkpt>
        <trkpt lat="29.5208932" lon="103.3349022"><ele>2989</ele><time>2026-02-09T22:41:46.000Z</time></trkpt>
        <trkpt lat="29.5208932" lon="103.3349022"><ele>2989</ele><time>2026-02-09T22:42:19.000Z</time></trkpt>
        <trkpt lat="29.5209229" lon="103.3349806"><ele>2991.62</ele><time>2026-02-09T22:42:26.000Z</time></trkpt>
        <trkpt lat="29.5209229" lon="103.3349806"><ele>2991.62</ele><time>2026-02-09T22:42:44.000Z</time></trkpt>
        <trkpt lat="29.5209117" lon="103.3350875"><ele>2995.05</ele><time>2026-02-09T22:43:22.000Z</time></trkpt>
        <trkpt lat="29.5209117" lon="103.3350875"><ele>2995.05</ele><time>2026-02-09T22:43:39.000Z</time></trkpt>
        <trkpt lat="29.5209117" lon="103.3350875"><ele>2995.05</ele><time>2026-02-09T22:43:46.000Z</time></trkpt>
        <trkpt lat="29.5209117" lon="103.3350875"><ele>2995.05</ele><time>2026-02-09T22:44:13.000Z</time></trkpt>
        <trkpt lat="29.5208852" lon="103.3352155"><ele>2999.06</ele><time>2026-02-09T22:49:42.000Z</time></trkpt>
        <trkpt lat="29.5208852" lon="103.3352155"><ele>2999.06</ele><time>2026-02-09T22:49:45.000Z</time></trkpt>
        <trkpt lat="29.5208852" lon="103.3352155"><ele>2999.06</ele><time>2026-02-09T22:50:05.000Z</time></trkpt>
        <trkpt lat="29.5208852" lon="103.3352155"><ele>2999.06</ele><time>2026-02-09T22:57:06.000Z</time></trkpt>
        <trkpt lat="29.5208852" lon="103.3352155"><ele>2999.06</ele><time>2026-02-09T22:57:35.000Z</time></trkpt>
        <trkpt lat="29.5208852" lon="103.3352155"><ele>2999.06</ele><time>2026-02-09T22:59:38.000Z</time></trkpt>
        <trkpt lat="29.5208852" lon="103.3352155"><ele>2999.06</ele><time>2026-02-09T23:02:39.000Z</time></trkpt>
        <trkpt lat="29.5208852" lon="103.3352155"><ele>2999.06</ele><time>2026-02-09T23:02:46.000Z</time></trkpt>
        <trkpt lat="29.5208852" lon="103.3352155"><ele>2999.06</ele><time>2026-02-09T23:03:57.000Z</time></trkpt>
        <trkpt lat="29.520941" lon="103.3353009"><ele>3006.89</ele><time>2026-02-09T23:04:14.000Z</time></trkpt>
        <trkpt lat="29.520941" lon="103.3353009"><ele>3006.89</ele><time>2026-02-09T23:04:59.000Z</time></trkpt>
        <trkpt lat="29.521024" lon="103.3353452"><ele>3007.9</ele><time>2026-02-09T23:05:43.000Z</time></trkpt>
        <trkpt lat="29.5211143" lon="103.3353838"><ele>3011.72</ele><time>2026-02-09T23:06:32.000Z</time></trkpt>
        <trkpt lat="29.5211976" lon="103.3354469"><ele>3015.51</ele><time>2026-02-09T23:06:59.000Z</time></trkpt>
        <trkpt lat="29.5212907" lon="103.3355078"><ele>3017.63</ele><time>2026-02-09T23:07:16.000Z</time></trkpt>
        <trkpt lat="29.5213" lon="103.3354404"><ele>3019.06</ele><time>2026-02-09T23:07:25.000Z</time></trkpt>
        <trkpt lat="29.5212817" lon="103.33543"><ele>3020.41</ele><time>2026-02-09T23:07:29.000Z</time></trkpt>
        <trkpt lat="29.5212854" lon="103.3355223"><ele>3021.44</ele><time>2026-02-09T23:08:13.000Z</time></trkpt>
        <trkpt lat="29.5213333" lon="103.3356111"><ele>3022.43</ele><time>2026-02-09T23:08:22.000Z</time></trkpt>
        <trkpt lat="29.5213891" lon="103.3357104"><ele>3022.14</ele><time>2026-02-09T23:08:40.000Z</time></trkpt>
        <trkpt lat="29.5214742" lon="103.3357614"><ele>3022.75</ele><time>2026-02-09T23:08:48.000Z</time></trkpt>
        <trkpt lat="29.521551" lon="103.3358253"><ele>3022.55</ele><time>2026-02-09T23:08:56.000Z</time></trkpt>
        <trkpt lat="29.5215914" lon="103.3359171"><ele>3022.69</ele><time>2026-02-09T23:09:04.000Z</time></trkpt>
        <trkpt lat="29.5216423" lon="103.3360127"><ele>3023.01</ele><time>2026-02-09T23:09:14.000Z</time></trkpt>
        <trkpt lat="29.5216993" lon="103.3360976"><ele>3023.25</ele><time>2026-02-09T23:09:22.000Z</time></trkpt>
        <trkpt lat="29.5217666" lon="103.3361724"><ele>3023.28</ele><time>2026-02-09T23:09:30.000Z</time></trkpt>
        <trkpt lat="29.5218395" lon="103.3362521"><ele>3022.89</ele><time>2026-02-09T23:09:42.000Z</time></trkpt>
        <trkpt lat="29.5219193" lon="103.3363174"><ele>3022.19</ele><time>2026-02-09T23:09:56.000Z</time></trkpt>
        <trkpt lat="29.5220088" lon="103.3363271"><ele>3021.23</ele><time>2026-02-09T23:10:08.000Z</time></trkpt>
        <trkpt lat="29.5220088" lon="103.3363271"><ele>3021.23</ele><time>2026-02-09T23:10:51.000Z</time></trkpt>
        <trkpt lat="29.5222858" lon="103.336177"><ele>3019.93</ele><time>2026-02-09T23:11:04.000Z</time></trkpt>
        <trkpt lat="29.5222858" lon="103.336177"><ele>3019.93</ele><time>2026-02-09T23:11:23.000Z</time></trkpt>
        <trkpt lat="29.5221174" lon="103.3361471"><ele>3019.98</ele><time>2026-02-09T23:11:29.000Z</time></trkpt>
        <trkpt lat="29.5222017" lon="103.3361508"><ele>3015.16</ele><time>2026-02-09T23:11:49.000Z</time></trkpt>
        <trkpt lat="29.5223121" lon="103.3361421"><ele>3012.65</ele><time>2026-02-09T23:11:55.000Z</time></trkpt>
        <trkpt lat="29.5224382" lon="103.3361269"><ele>3012.85</ele><time>2026-02-09T23:12:07.000Z</time></trkpt>
        <trkpt lat="29.5225496" lon="103.336103"><ele>3012.37</ele><time>2026-02-09T23:12:14.000Z</time></trkpt>
        <trkpt lat="29.5225952" lon="103.3360131"><ele>3013.66</ele><time>2026-02-09T23:12:26.000Z</time></trkpt>
        <trkpt lat="29.5225952" lon="103.3360131"><ele>3013.66</ele><time>2026-02-09T23:13:17.000Z</time></trkpt>
        <trkpt lat="29.5225952" lon="103.3360131"><ele>3013.66</ele><time>2026-02-09T23:13:24.000Z</time></trkpt>
        <trkpt lat="29.5225952" lon="103.3360131"><ele>3013.66</ele><time>2026-02-09T23:14:33.000Z</time></trkpt>
        <trkpt lat="29.5225952" lon="103.3360131"><ele>3013.66</ele><time>2026-02-09T23:14:38.000Z</time></trkpt>
        <trkpt lat="29.5225952" lon="103.3360131"><ele>3013.66</ele><time>2026-02-09T23:16:07.000Z</time></trkpt>
        <trkpt lat="29.5225952" lon="103.3360131"><ele>3013.66</ele><time>2026-02-09T23:16:12.000Z</time></trkpt>
        <trkpt lat="29.5225952" lon="103.3360131"><ele>3013.66</ele><time>2026-02-09T23:18:25.000Z</time></trkpt>
        <trkpt lat="29.5225952" lon="103.3360131"><ele>3013.66</ele><time>2026-02-09T23:18:30.000Z</time></trkpt>
        <trkpt lat="29.5225952" lon="103.3360131"><ele>3013.66</ele><time>2026-02-09T23:19:17.000Z</time></trkpt>
        <trkpt lat="29.5229014" lon="103.3361926"><ele>3013.67</ele><time>2026-02-09T23:20:04.000Z</time></trkpt>
        <trkpt lat="29.5229014" lon="103.3361926"><ele>3013.67</ele><time>2026-02-09T23:20:06.000Z</time></trkpt>
        <trkpt lat="29.5226942" lon="103.3359913"><ele>3022.64</ele><time>2026-02-09T23:20:16.000Z</time></trkpt>
        <trkpt lat="29.5226942" lon="103.3359913"><ele>3022.64</ele><time>2026-02-09T23:20:25.000Z</time></trkpt>
        <trkpt lat="29.5225977" lon="103.335912"><ele>3028.55</ele><time>2026-02-09T23:21:00.000Z</time></trkpt>
        <trkpt lat="29.5225977" lon="103.335912"><ele>3028.55</ele><time>2026-02-09T23:21:03.000Z</time></trkpt>
        <trkpt lat="29.5225977" lon="103.335912"><ele>3028.55</ele><time>2026-02-09T23:23:31.000Z</time></trkpt>
        <trkpt lat="29.5226529" lon="103.3360394"><ele>3034.73</ele><time>2026-02-09T23:24:02.000Z</time></trkpt>
        <trkpt lat="29.5226529" lon="103.3360394"><ele>3034.73</ele><time>2026-02-09T23:24:06.000Z</time></trkpt>
        <trkpt lat="29.5227508" lon="103.3362218"><ele>3037.95</ele><time>2026-02-09T23:24:12.000Z</time></trkpt>
        <trkpt lat="29.5227508" lon="103.3362218"><ele>3037.95</ele><time>2026-02-09T23:24:17.000Z</time></trkpt>
        <trkpt lat="29.5227666" lon="103.3361515"><ele>3036.25</ele><time>2026-02-09T23:24:24.000Z</time></trkpt>
        <trkpt lat="29.5227666" lon="103.3361515"><ele>3036.25</ele><time>2026-02-09T23:24:28.000Z</time></trkpt>
        <trkpt lat="29.5227392" lon="103.3360347"><ele>3030.96</ele><time>2026-02-09T23:24:35.000Z</time></trkpt>
        <trkpt lat="29.522674" lon="103.3359313"><ele>3025.02</ele><time>2026-02-09T23:24:49.000Z</time></trkpt>
        <trkpt lat="29.522674" lon="103.3359313"><ele>3025.02</ele><time>2026-02-09T23:25:45.000Z</time></trkpt>
        <trkpt lat="29.5226067" lon="103.3360269"><ele>3022.83</ele><time>2026-02-09T23:26:00.000Z</time></trkpt>
        <trkpt lat="29.5226067" lon="103.3360269"><ele>3022.83</ele><time>2026-02-09T23:26:03.000Z</time></trkpt>
        <trkpt lat="29.5226414" lon="103.3359306"><ele>3027.86</ele><time>2026-02-09T23:26:05.000Z</time></trkpt>
        <trkpt lat="29.5225953" lon="103.3359243"><ele>3027.07</ele><time>2026-02-09T23:26:09.000Z</time></trkpt>
        <trkpt lat="29.5225953" lon="103.3359243"><ele>3027.07</ele><time>2026-02-09T23:26:40.000Z</time></trkpt>
      </trkseg>
      <trkseg>
        <trkpt lat="29.522859" lon="103.3357025"><ele>3021.5</ele><time>2026-02-09T23:35:56.000Z</time></trkpt>
        <trkpt lat="29.522859" lon="103.3357025"><ele>3021.5</ele><time>2026-02-09T23:36:52.000Z</time></trkpt>
        <trkpt lat="29.5228434" lon="103.3355972"><ele>3021.5</ele><time>2026-02-09T23:37:01.000Z</time></trkpt>
        <trkpt lat="29.5228568" lon="103.3354738"><ele>3022.02</ele><time>2026-02-09T23:37:09.000Z</time></trkpt>
        <trkpt lat="29.5228372" lon="103.335367"><ele>3021.96</ele><time>2026-02-09T23:37:17.000Z</time></trkpt>
        <trkpt lat="29.5227978" lon="103.3352716"><ele>3021.06</ele><time>2026-02-09T23:37:23.000Z</time></trkpt>
        <trkpt lat="29.5227764" lon="103.3351721"><ele>3020.15</ele><time>2026-02-09T23:37:31.000Z</time></trkpt>
        <trkpt lat="29.5227702" lon="103.3350488"><ele>3019.03</ele><time>2026-02-09T23:37:41.000Z</time></trkpt>
        <trkpt lat="29.5227702" lon="103.3350488"><ele>3019.03</ele><time>2026-02-09T23:38:31.000Z</time></trkpt>
        <trkpt lat="29.5227545" lon="103.3349289"><ele>3017.86</ele><time>2026-02-09T23:38:34.000Z</time></trkpt>
        <trkpt lat="29.5227545" lon="103.3349289"><ele>3017.86</ele><time>2026-02-09T23:39:24.000Z</time></trkpt>
        <trkpt lat="29.5227305" lon="103.3348227"><ele>3013.07</ele><time>2026-02-09T23:39:31.000Z</time></trkpt>
        <trkpt lat="29.5227319" lon="103.3348013"><ele>3009.98</ele><time>2026-02-09T23:39:34.000Z</time></trkpt>
        <trkpt lat="29.5228032" lon="103.3348109"><ele>3008.05</ele><time>2026-02-09T23:39:44.000Z</time></trkpt>
        <trkpt lat="29.5228921" lon="103.3347887"><ele>3007.04</ele><time>2026-02-09T23:39:51.000Z</time></trkpt>
        <trkpt lat="29.5229999" lon="103.3347709"><ele>3003.04</ele><time>2026-02-09T23:39:59.000Z</time></trkpt>
        <trkpt lat="29.5231042" lon="103.3347657"><ele>3000.67</ele><time>2026-02-09T23:40:07.000Z</time></trkpt>
        <trkpt lat="29.5231997" lon="103.3347808"><ele>2996.95</ele><time>2026-02-09T23:40:15.000Z</time></trkpt>
        <trkpt lat="29.5232907" lon="103.3348344"><ele>2994.08</ele><time>2026-02-09T23:40:23.000Z</time></trkpt>
        <trkpt lat="29.523385" lon="103.3348834"><ele>2992.26</ele><time>2026-02-09T23:40:33.000Z</time></trkpt>
        <trkpt lat="29.5234877" lon="103.3349274"><ele>2990.77</ele><time>2026-02-09T23:40:43.000Z</time></trkpt>
        <trkpt lat="29.5235877" lon="103.3349268"><ele>2990.57</ele><time>2026-02-09T23:42:23.000Z</time></trkpt>
        <trkpt lat="29.5236823" lon="103.3349085"><ele>2988.66</ele><time>2026-02-09T23:42:29.000Z</time></trkpt>
        <trkpt lat="29.5237776" lon="103.3349314"><ele>2985.85</ele><time>2026-02-09T23:42:37.000Z</time></trkpt>
        <trkpt lat="29.5238688" lon="103.334938"><ele>2985.22</ele><time>2026-02-09T23:42:43.000Z</time></trkpt>
        <trkpt lat="29.5239784" lon="103.3349331"><ele>2984.95</ele><time>2026-02-09T23:42:55.000Z</time></trkpt>
        <trkpt lat="29.5240852" lon="103.3349358"><ele>2984.03</ele><time>2026-02-09T23:43:01.000Z</time></trkpt>
        <trkpt lat="29.5241972" lon="103.3349466"><ele>2984.18</ele><time>2026-02-09T23:43:09.000Z</time></trkpt>
        <trkpt lat="29.5242944" lon="103.3349495"><ele>2983.82</ele><time>2026-02-09T23:43:15.000Z</time></trkpt>
        <trkpt lat="29.5243952" lon="103.3349276"><ele>2983.49</ele><time>2026-02-09T23:43:23.000Z</time></trkpt>
        <trkpt lat="29.5244892" lon="103.3348707"><ele>2983.18</ele><time>2026-02-09T23:43:31.000Z</time></trkpt>
        <trkpt lat="29.5245654" lon="103.3348032"><ele>2982.41</ele><time>2026-02-09T23:43:41.000Z</time></trkpt>
        <trkpt lat="29.5246581" lon="103.33478"><ele>2981.77</ele><time>2026-02-09T23:43:55.000Z</time></trkpt>
        <trkpt lat="29.524764" lon="103.334803"><ele>2980.53</ele><time>2026-02-09T23:44:03.000Z</time></trkpt>
        <trkpt lat="29.5248625" lon="103.3348445"><ele>2978.44</ele><time>2026-02-09T23:44:11.000Z</time></trkpt>
        <trkpt lat="29.5249647" lon="103.3348718"><ele>2977.16</ele><time>2026-02-09T23:44:19.000Z</time></trkpt>
        <trkpt lat="29.5250629" lon="103.3348597"><ele>2976.14</ele><time>2026-02-09T23:44:24.000Z</time></trkpt>
        <trkpt lat="29.525135" lon="103.334794"><ele>2977.81</ele><time>2026-02-09T23:44:36.000Z</time></trkpt>
        <trkpt lat="29.5252139" lon="103.3347397"><ele>2977.78</ele><time>2026-02-09T23:45:02.000Z</time></trkpt>
        <trkpt lat="29.5252866" lon="103.3346599"><ele>2978.28</ele><time>2026-02-09T23:45:11.000Z</time></trkpt>
        <trkpt lat="29.5253477" lon="103.3345726"><ele>2977.37</ele><time>2026-02-09T23:45:17.000Z</time></trkpt>
        <trkpt lat="29.5254133" lon="103.3344967"><ele>2971.53</ele><time>2026-02-09T23:45:25.000Z</time></trkpt>
        <trkpt lat="29.5254753" lon="103.3343988"><ele>2967.24</ele><time>2026-02-09T23:45:33.000Z</time></trkpt>
        <trkpt lat="29.5255259" lon="103.3343049"><ele>2964.81</ele><time>2026-02-09T23:45:49.000Z</time></trkpt>
        <trkpt lat="29.5255927" lon="103.3342179"><ele>2964.45</ele><time>2026-02-09T23:46:09.000Z</time></trkpt>
        <trkpt lat="29.52566" lon="103.3341363"><ele>2963.93</ele><time>2026-02-09T23:46:15.000Z</time></trkpt>
        <trkpt lat="29.5257369" lon="103.3340654"><ele>2961.93</ele><time>2026-02-09T23:46:25.000Z</time></trkpt>
        <trkpt lat="29.5258281" lon="103.3339996"><ele>2959.47</ele><time>2026-02-09T23:46:33.000Z</time></trkpt>
        <trkpt lat="29.5259309" lon="103.3339454"><ele>2957.66</ele><time>2026-02-09T23:46:45.000Z</time></trkpt>
        <trkpt lat="29.5260299" lon="103.3338925"><ele>2955.9</ele><time>2026-02-09T23:46:53.000Z</time></trkpt>
        <trkpt lat="29.5261223" lon="103.333853"><ele>2953.9</ele><time>2026-02-09T23:47:01.000Z</time></trkpt>
        <trkpt lat="29.526219" lon="103.3338077"><ele>2952.48</ele><time>2026-02-09T23:47:34.000Z</time></trkpt>
        <trkpt lat="29.526303" lon="103.3337586"><ele>2953.39</ele><time>2026-02-09T23:47:43.000Z</time></trkpt>
        <trkpt lat="29.5263906" lon="103.3336883"><ele>2951.97</ele><time>2026-02-09T23:47:57.000Z</time></trkpt>
        <trkpt lat="29.5264827" lon="103.3336309"><ele>2951.38</ele><time>2026-02-09T23:48:07.000Z</time></trkpt>
        <trkpt lat="29.5265709" lon="103.3335933"><ele>2950.5</ele><time>2026-02-09T23:48:16.000Z</time></trkpt>
        <trkpt lat="29.5266509" lon="103.3335355"><ele>2949.3</ele><time>2026-02-09T23:48:26.000Z</time></trkpt>
        <trkpt lat="29.5267511" lon="103.3335026"><ele>2945.99</ele><time>2026-02-09T23:48:34.000Z</time></trkpt>
        <trkpt lat="29.5268528" lon="103.3334787"><ele>2942.74</ele><time>2026-02-09T23:48:44.000Z</time></trkpt>
        <trkpt lat="29.5269533" lon="103.3334504"><ele>2939.81</ele><time>2026-02-09T23:48:56.000Z</time></trkpt>
        <trkpt lat="29.5270391" lon="103.3333997"><ele>2936.83</ele><time>2026-02-09T23:49:04.000Z</time></trkpt>
        <trkpt lat="29.527104" lon="103.3333225"><ele>2933.44</ele><time>2026-02-09T23:49:10.000Z</time></trkpt>
        <trkpt lat="29.5271549" lon="103.3332263"><ele>2930.5</ele><time>2026-02-09T23:49:19.000Z</time></trkpt>
        <trkpt lat="29.5271448" lon="103.3331188"><ele>2925.73</ele><time>2026-02-09T23:49:27.000Z</time></trkpt>
        <trkpt lat="29.5271035" lon="103.3330158"><ele>2922.68</ele><time>2026-02-09T23:49:33.000Z</time></trkpt>
        <trkpt lat="29.5270805" lon="103.3328985"><ele>2922.97</ele><time>2026-02-09T23:50:14.000Z</time></trkpt>
        <trkpt lat="29.5270888" lon="103.332787"><ele>2922.19</ele><time>2026-02-09T23:50:20.000Z</time></trkpt>
        <trkpt lat="29.5271008" lon="103.3326692"><ele>2920.92</ele><time>2026-02-09T23:50:27.000Z</time></trkpt>
        <trkpt lat="29.5270912" lon="103.3325505"><ele>2919.46</ele><time>2026-02-09T23:50:33.000Z</time></trkpt>
        <trkpt lat="29.5270471" lon="103.3324621"><ele>2919.26</ele><time>2026-02-09T23:50:47.000Z</time></trkpt>
        <trkpt lat="29.5270731" lon="103.3323619"><ele>2918.4</ele><time>2026-02-09T23:51:21.000Z</time></trkpt>
        <trkpt lat="29.5271382" lon="103.3322645"><ele>2917.99</ele><time>2026-02-09T23:51:31.000Z</time></trkpt>
        <trkpt lat="29.5272069" lon="103.3323225"><ele>2915.82</ele><time>2026-02-09T23:51:40.000Z</time></trkpt>
        <trkpt lat="29.5272854" lon="103.3324049"><ele>2913.92</ele><time>2026-02-09T23:51:46.000Z</time></trkpt>
        <trkpt lat="29.5273248" lon="103.3324454"><ele>2909.03</ele><time>2026-02-09T23:51:48.000Z</time></trkpt>
        <trkpt lat="29.5273638" lon="103.3324655"><ele>2907.25</ele><time>2026-02-09T23:52:03.000Z</time></trkpt>
        <trkpt lat="29.5274439" lon="103.3324908"><ele>2909.07</ele><time>2026-02-09T23:52:27.000Z</time></trkpt>
        <trkpt lat="29.5275235" lon="103.3324372"><ele>2909.7</ele><time>2026-02-09T23:52:35.000Z</time></trkpt>
        <trkpt lat="29.5276014" lon="103.3323469"><ele>2908.94</ele><time>2026-02-09T23:52:44.000Z</time></trkpt>
        <trkpt lat="29.5275828" lon="103.3322464"><ele>2905.96</ele><time>2026-02-09T23:52:53.000Z</time></trkpt>
        <trkpt lat="29.5275648" lon="103.3321275"><ele>2901.8</ele><time>2026-02-09T23:53:05.000Z</time></trkpt>
        <trkpt lat="29.5276278" lon="103.3320344"><ele>2898.24</ele><time>2026-02-09T23:53:15.000Z</time></trkpt>
        <trkpt lat="29.527694" lon="103.3319384"><ele>2894.11</ele><time>2026-02-09T23:53:23.000Z</time></trkpt>
        <trkpt lat="29.527729" lon="103.3318209"><ele>2891.07</ele><time>2026-02-09T23:53:31.000Z</time></trkpt>
        <trkpt lat="29.5277477" lon="103.3317062"><ele>2888.72</ele><time>2026-02-09T23:53:37.000Z</time></trkpt>
        <trkpt lat="29.5277657" lon="103.3315794"><ele>2887.19</ele><time>2026-02-09T23:53:45.000Z</time></trkpt>
        <trkpt lat="29.5278033" lon="103.3314645"><ele>2885.81</ele><time>2026-02-09T23:53:53.000Z</time></trkpt>
        <trkpt lat="29.5278676" lon="103.3313599"><ele>2884.72</ele><time>2026-02-09T23:54:01.000Z</time></trkpt>
        <trkpt lat="29.5279485" lon="103.3312822"><ele>2882.74</ele><time>2026-02-09T23:54:20.000Z</time></trkpt>
        <trkpt lat="29.5280152" lon="103.3312036"><ele>2880.39</ele><time>2026-02-09T23:54:27.000Z</time></trkpt>
        <trkpt lat="29.5280509" lon="103.3311013"><ele>2877.81</ele><time>2026-02-09T23:54:33.000Z</time></trkpt>
        <trkpt lat="29.5280903" lon="103.3309877"><ele>2877.5</ele><time>2026-02-09T23:54:41.000Z</time></trkpt>
        <trkpt lat="29.5281399" lon="103.3308748"><ele>2876.07</ele><time>2026-02-09T23:54:49.000Z</time></trkpt>
        <trkpt lat="29.5281951" lon="103.3307544"><ele>2874.51</ele><time>2026-02-09T23:54:59.000Z</time></trkpt>
        <trkpt lat="29.5282474" lon="103.3306545"><ele>2872.84</ele><time>2026-02-09T23:55:07.000Z</time></trkpt>
        <trkpt lat="29.5283139" lon="103.3305664"><ele>2870.79</ele><time>2026-02-09T23:55:17.000Z</time></trkpt>
        <trkpt lat="29.5283387" lon="103.3304652"><ele>2868.62</ele><time>2026-02-09T23:55:27.000Z</time></trkpt>
        <trkpt lat="29.5283328" lon="103.3303491"><ele>2867.42</ele><time>2026-02-09T23:55:36.000Z</time></trkpt>
        <trkpt lat="29.5283477" lon="103.3302209"><ele>2866.12</ele><time>2026-02-09T23:55:45.000Z</time></trkpt>
        <trkpt lat="29.5283955" lon="103.3301155"><ele>2864.89</ele><time>2026-02-09T23:55:53.000Z</time></trkpt>
        <trkpt lat="29.5284807" lon="103.3300346"><ele>2863.28</ele><time>2026-02-09T23:56:03.000Z</time></trkpt>
        <trkpt lat="29.528555" lon="103.3299551"><ele>2861.76</ele><time>2026-02-09T23:56:13.000Z</time></trkpt>
        <trkpt lat="29.5286087" lon="103.3298585"><ele>2860.87</ele><time>2026-02-09T23:56:19.000Z</time></trkpt>
        <trkpt lat="29.5286257" lon="103.329749"><ele>2860.21</ele><time>2026-02-09T23:56:27.000Z</time></trkpt>
        <trkpt lat="29.5286433" lon="103.3296294"><ele>2858.81</ele><time>2026-02-09T23:56:35.000Z</time></trkpt>
        <trkpt lat="29.5286734" lon="103.3295134"><ele>2857.16</ele><time>2026-02-09T23:56:45.000Z</time></trkpt>
        <trkpt lat="29.5286959" lon="103.3294038"><ele>2855.17</ele><time>2026-02-09T23:56:53.000Z</time></trkpt>
        <trkpt lat="29.5287364" lon="103.3292906"><ele>2853.52</ele><time>2026-02-09T23:57:01.000Z</time></trkpt>
        <trkpt lat="29.5287877" lon="103.3291963"><ele>2851.83</ele><time>2026-02-09T23:57:09.000Z</time></trkpt>
        <trkpt lat="29.5288515" lon="103.3291092"><ele>2849.81</ele><time>2026-02-09T23:57:17.000Z</time></trkpt>
        <trkpt lat="29.5289085" lon="103.3290137"><ele>2847.78</ele><time>2026-02-09T23:57:25.000Z</time></trkpt>
        <trkpt lat="29.5289615" lon="103.3289142"><ele>2845.82</ele><time>2026-02-09T23:57:33.000Z</time></trkpt>
        <trkpt lat="29.5290073" lon="103.3287963"><ele>2843.8</ele><time>2026-02-09T23:57:41.000Z</time></trkpt>
        <trkpt lat="29.5290501" lon="103.328693"><ele>2842.2</ele><time>2026-02-09T23:57:47.000Z</time></trkpt>
        <trkpt lat="29.5290844" lon="103.3285948"><ele>2841.52</ele><time>2026-02-09T23:57:55.000Z</time></trkpt>
        <trkpt lat="29.5291232" lon="103.3284917"><ele>2840.53</ele><time>2026-02-09T23:58:03.000Z</time></trkpt>
        <trkpt lat="29.5291571" lon="103.3283785"><ele>2839.15</ele><time>2026-02-09T23:58:15.000Z</time></trkpt>
        <trkpt lat="29.5291749" lon="103.3282602"><ele>2837.25</ele><time>2026-02-09T23:58:27.000Z</time></trkpt>
        <trkpt lat="29.5292036" lon="103.3281517"><ele>2835.33</ele><time>2026-02-09T23:58:35.000Z</time></trkpt>
        <trkpt lat="29.5292312" lon="103.3280505"><ele>2833.45</ele><time>2026-02-09T23:58:43.000Z</time></trkpt>
        <trkpt lat="29.5292575" lon="103.3279423"><ele>2831.65</ele><time>2026-02-09T23:58:53.000Z</time></trkpt>
        <trkpt lat="29.5292976" lon="103.3278411"><ele>2829.29</ele><time>2026-02-09T23:59:03.000Z</time></trkpt>
        <trkpt lat="29.5294031" lon="103.3278111"><ele>2827.03</ele><time>2026-02-09T23:59:17.000Z</time></trkpt>
        <trkpt lat="29.5295406" lon="103.3278011"><ele>2822.63</ele><time>2026-02-09T23:59:23.000Z</time></trkpt>
        <trkpt lat="29.5296594" lon="103.3277986"><ele>2819.31</ele><time>2026-02-09T23:59:31.000Z</time></trkpt>
        <trkpt lat="29.5297546" lon="103.3277751"><ele>2816.61</ele><time>2026-02-09T23:59:37.000Z</time></trkpt>
        <trkpt lat="29.5298217" lon="103.327677"><ele>2814.75</ele><time>2026-02-09T23:59:45.000Z</time></trkpt>
        <trkpt lat="29.52987" lon="103.3275705"><ele>2812.84</ele><time>2026-02-09T23:59:53.000Z</time></trkpt>
        <trkpt lat="29.5299123" lon="103.3274488"><ele>2811.3</ele><time>2026-02-10T00:00:01.000Z</time></trkpt>
        <trkpt lat="29.5299575" lon="103.3273478"><ele>2809.24</ele><time>2026-02-10T00:00:09.000Z</time></trkpt>
        <trkpt lat="29.5300174" lon="103.3272554"><ele>2806.6</ele><time>2026-02-10T00:00:15.000Z</time></trkpt>
        <trkpt lat="29.5300174" lon="103.3272554"><ele>2806.6</ele><time>2026-02-10T00:00:45.000Z</time></trkpt>
        <trkpt lat="29.5300911" lon="103.3271916"><ele>2805.96</ele><time>2026-02-10T00:00:48.000Z</time></trkpt>
        <trkpt lat="29.5300911" lon="103.3271916"><ele>2805.96</ele><time>2026-02-10T00:01:01.000Z</time></trkpt>
        <trkpt lat="29.5301692" lon="103.3271302"><ele>2805.96</ele><time>2026-02-10T00:02:28.000Z</time></trkpt>
        <trkpt lat="29.5302552" lon="103.327075"><ele>2808.58</ele><time>2026-02-10T00:02:38.000Z</time></trkpt>
        <trkpt lat="29.5303354" lon="103.3270243"><ele>2809.28</ele><time>2026-02-10T00:02:47.000Z</time></trkpt>
        <trkpt lat="29.5304216" lon="103.3269665"><ele>2805.48</ele><time>2026-02-10T00:02:57.000Z</time></trkpt>
        <trkpt lat="29.5305116" lon="103.3269105"><ele>2802.38</ele><time>2026-02-10T00:03:11.000Z</time></trkpt>
        <trkpt lat="29.5306001" lon="103.3268721"><ele>2799.36</ele><time>2026-02-10T00:03:23.000Z</time></trkpt>
        <trkpt lat="29.5306943" lon="103.3268357"><ele>2796.1</ele><time>2026-02-10T00:03:35.000Z</time></trkpt>
        <trkpt lat="29.530787" lon="103.3268192"><ele>2793.22</ele><time>2026-02-10T00:03:47.000Z</time></trkpt>
        <trkpt lat="29.530839" lon="103.3268947"><ele>2789.82</ele><time>2026-02-10T00:04:01.000Z</time></trkpt>
        <trkpt lat="29.5309127" lon="103.326965"><ele>2786.51</ele><time>2026-02-10T00:04:09.000Z</time></trkpt>
        <trkpt lat="29.5310076" lon="103.3270274"><ele>2783.04</ele><time>2026-02-10T00:04:19.000Z</time></trkpt>
        <trkpt lat="29.531095" lon="103.327086"><ele>2779.97</ele><time>2026-02-10T00:04:27.000Z</time></trkpt>
        <trkpt lat="29.5311932" lon="103.3271631"><ele>2777.3</ele><time>2026-02-10T00:04:39.000Z</time></trkpt>
        <trkpt lat="29.5312305" lon="103.3272618"><ele>2775.41</ele><time>2026-02-10T00:04:53.000Z</time></trkpt>
        <trkpt lat="29.531249" lon="103.3273799"><ele>2773.83</ele><time>2026-02-10T00:05:03.000Z</time></trkpt>
        <trkpt lat="29.5312574" lon="103.327503"><ele>2770.67</ele><time>2026-02-10T00:05:17.000Z</time></trkpt>
        <trkpt lat="29.5312606" lon="103.3276268"><ele>2767.14</ele><time>2026-02-10T00:05:29.000Z</time></trkpt>
        <trkpt lat="29.5312474" lon="103.3277479"><ele>2764.03</ele><time>2026-02-10T00:05:39.000Z</time></trkpt>
        <trkpt lat="29.5312503" lon="103.3278646"><ele>2761.41</ele><time>2026-02-10T00:05:49.000Z</time></trkpt>
        <trkpt lat="29.5312606" lon="103.3279855"><ele>2758.86</ele><time>2026-02-10T00:06:05.000Z</time></trkpt>
        <trkpt lat="29.5312495" lon="103.3281042"><ele>2755.25</ele><time>2026-02-10T00:06:11.000Z</time></trkpt>
        <trkpt lat="29.531225" lon="103.3282212"><ele>2751.98</ele><time>2026-02-10T00:06:17.000Z</time></trkpt>
        <trkpt lat="29.5311919" lon="103.3283546"><ele>2749.56</ele><time>2026-02-10T00:06:25.000Z</time></trkpt>
        <trkpt lat="29.5311743" lon="103.3284781"><ele>2747.24</ele><time>2026-02-10T00:06:35.000Z</time></trkpt>
        <trkpt lat="29.53116" lon="103.3285902"><ele>2745.47</ele><time>2026-02-10T00:06:45.000Z</time></trkpt>
        <trkpt lat="29.5311447" lon="103.3286939"><ele>2743.44</ele><time>2026-02-10T00:06:59.000Z</time></trkpt>
        <trkpt lat="29.5311325" lon="103.3288141"><ele>2741.48</ele><time>2026-02-10T00:07:07.000Z</time></trkpt>
        <trkpt lat="29.5311228" lon="103.3289424"><ele>2740.55</ele><time>2026-02-10T00:07:17.000Z</time></trkpt>
        <trkpt lat="29.531117" lon="103.329084"><ele>2739.06</ele><time>2026-02-10T00:07:23.000Z</time></trkpt>
        <trkpt lat="29.5310833" lon="103.329241"><ele>2737.74</ele><time>2026-02-10T00:07:28.000Z</time></trkpt>
        <trkpt lat="29.5310936" lon="103.3293962"><ele>2734.92</ele><time>2026-02-10T00:07:36.000Z</time></trkpt>
        <trkpt lat="29.5311185" lon="103.3295126"><ele>2732.26</ele><time>2026-02-10T00:07:42.000Z</time></trkpt>
        <trkpt lat="29.5311857" lon="103.329593"><ele>2729.58</ele><time>2026-02-10T00:07:54.000Z</time></trkpt>
        <trkpt lat="29.5312493" lon="103.3296725"><ele>2726.75</ele><time>2026-02-10T00:08:14.000Z</time></trkpt>
        <trkpt lat="29.5313095" lon="103.3297528"><ele>2723.73</ele><time>2026-02-10T00:08:26.000Z</time></trkpt>
        <trkpt lat="29.5313729" lon="103.3298296"><ele>2720.01</ele><time>2026-02-10T00:08:54.000Z</time></trkpt>
        <trkpt lat="29.5314466" lon="103.3299016"><ele>2715.6</ele><time>2026-02-10T00:09:12.000Z</time></trkpt>
        <trkpt lat="29.5315221" lon="103.3299641"><ele>2710.5</ele><time>2026-02-10T00:09:28.000Z</time></trkpt>
        <trkpt lat="29.5316065" lon="103.3300167"><ele>2705.45</ele><time>2026-02-10T00:09:40.000Z</time></trkpt>
        <trkpt lat="29.5317071" lon="103.3300541"><ele>2700.66</ele><time>2026-02-10T00:09:52.000Z</time></trkpt>
        <trkpt lat="29.531808" lon="103.3300885"><ele>2696.95</ele><time>2026-02-10T00:10:03.000Z</time></trkpt>
        <trkpt lat="29.5318662" lon="103.3301679"><ele>2689.59</ele><time>2026-02-10T00:10:17.000Z</time></trkpt>
        <trkpt lat="29.5319312" lon="103.3302437"><ele>2685.03</ele><time>2026-02-10T00:10:51.000Z</time></trkpt>
        <trkpt lat="29.5320203" lon="103.3302724"><ele>2682.52</ele><time>2026-02-10T00:11:09.000Z</time></trkpt>
        <trkpt lat="29.5321116" lon="103.3302635"><ele>2679.73</ele><time>2026-02-10T00:11:19.000Z</time></trkpt>
        <trkpt lat="29.5321728" lon="103.3302227"><ele>2675.19</ele><time>2026-02-10T00:12:11.000Z</time></trkpt>
        <trkpt lat="29.5321728" lon="103.3302227"><ele>2675.19</ele><time>2026-02-10T00:12:29.000Z</time></trkpt>
        <trkpt lat="29.5321728" lon="103.3302227"><ele>2675.19</ele><time>2026-02-10T00:12:34.000Z</time></trkpt>
        <trkpt lat="29.5321728" lon="103.3302227"><ele>2675.19</ele><time>2026-02-10T00:13:05.000Z</time></trkpt>
        <trkpt lat="29.5321728" lon="103.3302227"><ele>2675.19</ele><time>2026-02-10T00:13:14.000Z</time></trkpt>
        <trkpt lat="29.5321728" lon="103.3302227"><ele>2675.19</ele><time>2026-02-10T00:13:35.000Z</time></trkpt>
        <trkpt lat="29.5321506" lon="103.3303117"><ele>2667.93</ele><time>2026-02-10T00:13:40.000Z</time></trkpt>
        <trkpt lat="29.5321506" lon="103.3303117"><ele>2667.93</ele><time>2026-02-10T00:13:50.000Z</time></trkpt>
        <trkpt lat="29.5321336" lon="103.330427"><ele>2662.61</ele><time>2026-02-10T00:14:02.000Z</time></trkpt>
        <trkpt lat="29.5321974" lon="103.3304701"><ele>2658.1</ele><time>2026-02-10T00:14:20.000Z</time></trkpt>
        <trkpt lat="29.5321976" lon="103.3305574"><ele>2654.85</ele><time>2026-02-10T00:14:40.000Z</time></trkpt>
        <trkpt lat="29.5321819" lon="103.3306676"><ele>2651.42</ele><time>2026-02-10T00:14:47.000Z</time></trkpt>
        <trkpt lat="29.5322071" lon="103.330777"><ele>2648.03</ele><time>2026-02-10T00:14:53.000Z</time></trkpt>
        <trkpt lat="29.5322265" lon="103.330903"><ele>2644.51</ele><time>2026-02-10T00:14:59.000Z</time></trkpt>
        <trkpt lat="29.5321806" lon="103.3309926"><ele>2642.01</ele><time>2026-02-10T00:15:13.000Z</time></trkpt>
        <trkpt lat="29.5321424" lon="103.3310972"><ele>2641.7</ele><time>2026-02-10T00:15:22.000Z</time></trkpt>
        <trkpt lat="29.5321693" lon="103.3311965"><ele>2641.01</ele><time>2026-02-10T00:15:32.000Z</time></trkpt>
        <trkpt lat="29.5321976" lon="103.3313025"><ele>2639.28</ele><time>2026-02-10T00:15:39.000Z</time></trkpt>
        <trkpt lat="29.5322765" lon="103.3312973"><ele>2638.36</ele><time>2026-02-10T00:15:57.000Z</time></trkpt>
        <trkpt lat="29.5323699" lon="103.3313144"><ele>2635.08</ele><time>2026-02-10T00:16:11.000Z</time></trkpt>
        <trkpt lat="29.5324284" lon="103.3313878"><ele>2630.83</ele><time>2026-02-10T00:16:17.000Z</time></trkpt>
        <trkpt lat="29.5324728" lon="103.3314925"><ele>2627.06</ele><time>2026-02-10T00:16:25.000Z</time></trkpt>
        <trkpt lat="29.5325151" lon="103.3315984"><ele>2623.73</ele><time>2026-02-10T00:16:31.000Z</time></trkpt>
        <trkpt lat="29.5325645" lon="103.3316911"><ele>2620.81</ele><time>2026-02-10T00:16:39.000Z</time></trkpt>
        <trkpt lat="29.5326117" lon="103.3318011"><ele>2617.52</ele><time>2026-02-10T00:16:51.000Z</time></trkpt>
        <trkpt lat="29.5326557" lon="103.3319003"><ele>2613.01</ele><time>2026-02-10T00:17:01.000Z</time></trkpt>
        <trkpt lat="29.5327116" lon="103.3319939"><ele>2608.59</ele><time>2026-02-10T00:17:11.000Z</time></trkpt>
        <trkpt lat="29.5327708" lon="103.3320793"><ele>2604.01</ele><time>2026-02-10T00:18:14.000Z</time></trkpt>
        <trkpt lat="29.5328193" lon="103.3321747"><ele>2594.01</ele><time>2026-02-10T00:18:24.000Z</time></trkpt>
        <trkpt lat="29.5328737" lon="103.3322599"><ele>2587.67</ele><time>2026-02-10T00:18:48.000Z</time></trkpt>
        <trkpt lat="29.5329418" lon="103.3323334"><ele>2584.03</ele><time>2026-02-10T00:18:52.000Z</time></trkpt>
        <trkpt lat="29.5330272" lon="103.3323714"><ele>2582.21</ele><time>2026-02-10T00:18:58.000Z</time></trkpt>
        <trkpt lat="29.5331116" lon="103.3324835"><ele>2580.48</ele><time>2026-02-10T00:19:02.000Z</time></trkpt>
        <trkpt lat="29.5331998" lon="103.3325764"><ele>2579</ele><time>2026-02-10T00:19:10.000Z</time></trkpt>
        <trkpt lat="29.5332791" lon="103.3326471"><ele>2576.79</ele><time>2026-02-10T00:19:20.000Z</time></trkpt>
        <trkpt lat="29.5333486" lon="103.332727"><ele>2574.34</ele><time>2026-02-10T00:19:32.000Z</time></trkpt>
        <trkpt lat="29.5334463" lon="103.3327988"><ele>2563.9</ele><time>2026-02-10T00:19:40.000Z</time></trkpt>
        <trkpt lat="29.5335386" lon="103.3328379"><ele>2557.31</ele><time>2026-02-10T00:19:48.000Z</time></trkpt>
        <trkpt lat="29.5336298" lon="103.3328975"><ele>2551.9</ele><time>2026-02-10T00:20:02.000Z</time></trkpt>
        <trkpt lat="29.5337063" lon="103.3329707"><ele>2549.63</ele><time>2026-02-10T00:20:14.000Z</time></trkpt>
        <trkpt lat="29.533777" lon="103.333043"><ele>2547.98</ele><time>2026-02-10T00:20:24.000Z</time></trkpt>
        <trkpt lat="29.5338767" lon="103.333118"><ele>2545.79</ele><time>2026-02-10T00:20:32.000Z</time></trkpt>
        <trkpt lat="29.5339548" lon="103.3331927"><ele>2541.52</ele><time>2026-02-10T00:20:46.000Z</time></trkpt>
        <trkpt lat="29.534046" lon="103.3332333"><ele>2538.52</ele><time>2026-02-10T00:21:36.000Z</time></trkpt>
        <trkpt lat="29.5341393" lon="103.3332274"><ele>2532.11</ele><time>2026-02-10T00:21:45.000Z</time></trkpt>
        <trkpt lat="29.5342445" lon="103.3331736"><ele>2528.44</ele><time>2026-02-10T00:21:52.000Z</time></trkpt>
        <trkpt lat="29.5343488" lon="103.3331209"><ele>2525.93</ele><time>2026-02-10T00:22:01.000Z</time></trkpt>
        <trkpt lat="29.5344632" lon="103.3330593"><ele>2521.43</ele><time>2026-02-10T00:22:07.000Z</time></trkpt>
        <trkpt lat="29.5345664" lon="103.3330114"><ele>2519.11</ele><time>2026-02-10T00:22:13.000Z</time></trkpt>
        <trkpt lat="29.5346705" lon="103.3329695"><ele>2516.73</ele><time>2026-02-10T00:22:20.000Z</time></trkpt>
        <trkpt lat="29.5347644" lon="103.3329206"><ele>2514.97</ele><time>2026-02-10T00:22:30.000Z</time></trkpt>
        <trkpt lat="29.5348531" lon="103.3328926"><ele>2511.71</ele><time>2026-02-10T00:22:38.000Z</time></trkpt>
        <trkpt lat="29.5349332" lon="103.3329295"><ele>2509.46</ele><time>2026-02-10T00:22:51.000Z</time></trkpt>
        <trkpt lat="29.5349036" lon="103.3330219"><ele>2507.51</ele><time>2026-02-10T00:23:13.000Z</time></trkpt>
        <trkpt lat="29.5348799" lon="103.3329594"><ele>2504.12</ele><time>2026-02-10T00:23:22.000Z</time></trkpt>
        <trkpt lat="29.5349112" lon="103.3328596"><ele>2501.6</ele><time>2026-02-10T00:23:35.000Z</time></trkpt>
        <trkpt lat="29.5350032" lon="103.3328169"><ele>2499.89</ele><time>2026-02-10T00:23:47.000Z</time></trkpt>
        <trkpt lat="29.5350862" lon="103.3328749"><ele>2498.47</ele><time>2026-02-10T00:23:56.000Z</time></trkpt>
        <trkpt lat="29.5351758" lon="103.3329515"><ele>2496.01</ele><time>2026-02-10T00:24:07.000Z</time></trkpt>
        <trkpt lat="29.5352272" lon="103.3330646"><ele>2492.85</ele><time>2026-02-10T00:24:15.000Z</time></trkpt>
        <trkpt lat="29.5352664" lon="103.3331826"><ele>2491.42</ele><time>2026-02-10T00:24:31.000Z</time></trkpt>
        <trkpt lat="29.535309" lon="103.3332832"><ele>2489.42</ele><time>2026-02-10T00:24:39.000Z</time></trkpt>
        <trkpt lat="29.5353452" lon="103.3333854"><ele>2487.33</ele><time>2026-02-10T00:24:46.000Z</time></trkpt>
        <trkpt lat="29.535379" lon="103.3334921"><ele>2485.63</ele><time>2026-02-10T00:24:56.000Z</time></trkpt>
        <trkpt lat="29.5354211" lon="103.3336115"><ele>2484.69</ele><time>2026-02-10T00:25:04.000Z</time></trkpt>
        <trkpt lat="29.5354819" lon="103.3337162"><ele>2483.41</ele><time>2026-02-10T00:25:10.000Z</time></trkpt>
        <trkpt lat="29.5355642" lon="103.33378"><ele>2481.97</ele><time>2026-02-10T00:25:17.000Z</time></trkpt>
        <trkpt lat="29.5356277" lon="103.3338597"><ele>2480.57</ele><time>2026-02-10T00:25:31.000Z</time></trkpt>
        <trkpt lat="29.5356848" lon="103.3339562"><ele>2478.17</ele><time>2026-02-10T00:25:43.000Z</time></trkpt>
        <trkpt lat="29.5357781" lon="103.3340393"><ele>2475.2</ele><time>2026-02-10T00:25:53.000Z</time></trkpt>
        <trkpt lat="29.5358682" lon="103.3340985"><ele>2473.03</ele><time>2026-02-10T00:26:01.000Z</time></trkpt>
        <trkpt lat="29.5359566" lon="103.3341536"><ele>2470.7</ele><time>2026-02-10T00:26:11.000Z</time></trkpt>
        <trkpt lat="29.5360439" lon="103.3341975"><ele>2467.83</ele><time>2026-02-10T00:26:23.000Z</time></trkpt>
        <trkpt lat="29.5361254" lon="103.3342626"><ele>2464.97</ele><time>2026-02-10T00:26:33.000Z</time></trkpt>
        <trkpt lat="29.5362148" lon="103.3343161"><ele>2461.91</ele><time>2026-02-10T00:26:47.000Z</time></trkpt>
        <trkpt lat="29.5363055" lon="103.3343663"><ele>2459.42</ele><time>2026-02-10T00:26:57.000Z</time></trkpt>
        <trkpt lat="29.5364007" lon="103.3343636"><ele>2456.62</ele><time>2026-02-10T00:27:07.000Z</time></trkpt>
        <trkpt lat="29.5365093" lon="103.3343461"><ele>2453.9</ele><time>2026-02-10T00:27:15.000Z</time></trkpt>
        <trkpt lat="29.5366169" lon="103.3343528"><ele>2452.29</ele><time>2026-02-10T00:27:23.000Z</time></trkpt>
        <trkpt lat="29.5367142" lon="103.3343377"><ele>2451.06</ele><time>2026-02-10T00:27:33.000Z</time></trkpt>
        <trkpt lat="29.5368067" lon="103.334318"><ele>2450.28</ele><time>2026-02-10T00:27:45.000Z</time></trkpt>
        <trkpt lat="29.5368963" lon="103.3342819"><ele>2448.93</ele><time>2026-02-10T00:27:57.000Z</time></trkpt>
        <trkpt lat="29.5369837" lon="103.334247"><ele>2447.16</ele><time>2026-02-10T00:28:05.000Z</time></trkpt>
        <trkpt lat="29.5370606" lon="103.3341912"><ele>2444.97</ele><time>2026-02-10T00:28:17.000Z</time></trkpt>
        <trkpt lat="29.5371295" lon="103.334114"><ele>2443.66</ele><time>2026-02-10T00:28:27.000Z</time></trkpt>
        <trkpt lat="29.5372032" lon="103.3340334"><ele>2442.36</ele><time>2026-02-10T00:28:33.000Z</time></trkpt>
        <trkpt lat="29.5372681" lon="103.3339215"><ele>2439.65</ele><time>2026-02-10T00:28:41.000Z</time></trkpt>
        <trkpt lat="29.5373448" lon="103.3338213"><ele>2437.06</ele><time>2026-02-10T00:28:49.000Z</time></trkpt>
        <trkpt lat="29.537438" lon="103.333786"><ele>2435.78</ele><time>2026-02-10T00:28:57.000Z</time></trkpt>
        <trkpt lat="29.5375522" lon="103.3337545"><ele>2432.77</ele><time>2026-02-10T00:29:05.000Z</time></trkpt>
        <trkpt lat="29.5376442" lon="103.3337014"><ele>2429.15</ele><time>2026-02-10T00:29:11.000Z</time></trkpt>
        <trkpt lat="29.5377292" lon="103.3336091"><ele>2426.52</ele><time>2026-02-10T00:29:17.000Z</time></trkpt>
        <trkpt lat="29.5378321" lon="103.3335174"><ele>2423.68</ele><time>2026-02-10T00:29:23.000Z</time></trkpt>
        <trkpt lat="29.5379208" lon="103.3334487"><ele>2421.62</ele><time>2026-02-10T00:29:29.000Z</time></trkpt>
        <trkpt lat="29.5380195" lon="103.3334017"><ele>2420.48</ele><time>2026-02-10T00:29:39.000Z</time></trkpt>
        <trkpt lat="29.5381108" lon="103.333346"><ele>2418.53</ele><time>2026-02-10T00:29:47.000Z</time></trkpt>
        <trkpt lat="29.538206" lon="103.3332882"><ele>2417.38</ele><time>2026-02-10T00:29:57.000Z</time></trkpt>
        <trkpt lat="29.5382892" lon="103.3332289"><ele>2415.81</ele><time>2026-02-10T00:30:03.000Z</time></trkpt>
        <trkpt lat="29.5383802" lon="103.3331876"><ele>2415.16</ele><time>2026-02-10T00:30:14.000Z</time></trkpt>
        <trkpt lat="29.5384771" lon="103.3331726"><ele>2413.83</ele><time>2026-02-10T00:30:22.000Z</time></trkpt>
        <trkpt lat="29.5385857" lon="103.3331585"><ele>2411.34</ele><time>2026-02-10T00:30:30.000Z</time></trkpt>
        <trkpt lat="29.5386853" lon="103.3331214"><ele>2408.77</ele><time>2026-02-10T00:30:37.000Z</time></trkpt>
        <trkpt lat="29.538779" lon="103.3330756"><ele>2407.36</ele><time>2026-02-10T00:30:43.000Z</time></trkpt>
        <trkpt lat="29.5388766" lon="103.3330544"><ele>2406.45</ele><time>2026-02-10T00:30:51.000Z</time></trkpt>
        <trkpt lat="29.5389733" lon="103.3329956"><ele>2406.37</ele><time>2026-02-10T00:30:59.000Z</time></trkpt>
        <trkpt lat="29.5390476" lon="103.3329128"><ele>2404.98</ele><time>2026-02-10T00:31:09.000Z</time></trkpt>
        <trkpt lat="29.539126" lon="103.3328574"><ele>2403.69</ele><time>2026-02-10T00:31:15.000Z</time></trkpt>
        <trkpt lat="29.5392149" lon="103.3327948"><ele>2402.57</ele><time>2026-02-10T00:31:21.000Z</time></trkpt>
        <trkpt lat="29.5392936" lon="103.3327272"><ele>2401.08</ele><time>2026-02-10T00:31:27.000Z</time></trkpt>
        <trkpt lat="29.5393762" lon="103.3326492"><ele>2399.12</ele><time>2026-02-10T00:31:33.000Z</time></trkpt>
        <trkpt lat="29.5394548" lon="103.332569"><ele>2398.01</ele><time>2026-02-10T00:31:45.000Z</time></trkpt>
        <trkpt lat="29.5395376" lon="103.3324896"><ele>2396.82</ele><time>2026-02-10T00:31:57.000Z</time></trkpt>
        <trkpt lat="29.5396165" lon="103.3324284"><ele>2395.21</ele><time>2026-02-10T00:32:07.000Z</time></trkpt>
        <trkpt lat="29.5397013" lon="103.332372"><ele>2393.43</ele><time>2026-02-10T00:32:15.000Z</time></trkpt>
        <trkpt lat="29.53978" lon="103.332311"><ele>2391.65</ele><time>2026-02-10T00:32:21.000Z</time></trkpt>
        <trkpt lat="29.5398776" lon="103.3322404"><ele>2391.19</ele><time>2026-02-10T00:32:30.000Z</time></trkpt>
        <trkpt lat="29.5399685" lon="103.3321983"><ele>2390.8</ele><time>2026-02-10T00:32:36.000Z</time></trkpt>
        <trkpt lat="29.5400601" lon="103.3321779"><ele>2390.31</ele><time>2026-02-10T00:32:43.000Z</time></trkpt>
        <trkpt lat="29.5401436" lon="103.3321328"><ele>2391.18</ele><time>2026-02-10T00:33:05.000Z</time></trkpt>
        <trkpt lat="29.5400852" lon="103.3321199"><ele>2394.69</ele><time>2026-02-10T00:34:02.000Z</time></trkpt>
        <trkpt lat="29.5399686" lon="103.3321138"><ele>2395.03</ele><time>2026-02-10T00:34:06.000Z</time></trkpt>
        <trkpt lat="29.5398401" lon="103.3321202"><ele>2395.05</ele><time>2026-02-10T00:34:14.000Z</time></trkpt>
        <trkpt lat="29.5398997" lon="103.3321673"><ele>2395.1</ele><time>2026-02-10T00:34:38.000Z</time></trkpt>
        <trkpt lat="29.5398642" lon="103.3321612"><ele>2394.85</ele><time>2026-02-10T00:34:54.000Z</time></trkpt>
        <trkpt lat="29.5398642" lon="103.3321612"><ele>2394.85</ele><time>2026-02-10T00:35:11.000Z</time></trkpt>
        <trkpt lat="29.5398642" lon="103.3321612"><ele>2394.85</ele><time>2026-02-10T00:35:12.000Z</time></trkpt>
        <trkpt lat="29.5398642" lon="103.3321612"><ele>2394.85</ele><time>2026-02-10T00:35:51.000Z</time></trkpt>
        <trkpt lat="29.5398642" lon="103.3321612"><ele>2394.85</ele><time>2026-02-10T00:36:32.000Z</time></trkpt>
        <trkpt lat="29.5398642" lon="103.3321612"><ele>2394.85</ele><time>2026-02-10T00:36:41.000Z</time></trkpt>
        <trkpt lat="29.5398642" lon="103.3321612"><ele>2394.85</ele><time>2026-02-10T00:36:46.000Z</time></trkpt>
        <trkpt lat="29.5398642" lon="103.3321612"><ele>2394.85</ele><time>2026-02-10T00:37:03.000Z</time></trkpt>
        <trkpt lat="29.5398368" lon="103.3322696"><ele>2394.53</ele><time>2026-02-10T00:37:12.000Z</time></trkpt>
        <trkpt lat="29.5398368" lon="103.3322696"><ele>2394.53</ele><time>2026-02-10T00:37:12.000Z</time></trkpt>
        <trkpt lat="29.5398368" lon="103.3322696"><ele>2394.53</ele><time>2026-02-10T00:37:21.000Z</time></trkpt>
        <trkpt lat="29.5398368" lon="103.3322696"><ele>2394.53</ele><time>2026-02-10T00:37:28.000Z</time></trkpt>
        <trkpt lat="29.5398368" lon="103.3322696"><ele>2394.53</ele><time>2026-02-10T00:37:41.000Z</time></trkpt>
        <trkpt lat="29.5399432" lon="103.3322504"><ele>2393.95</ele><time>2026-02-10T00:38:34.000Z</time></trkpt>
        <trkpt lat="29.5399432" lon="103.3322504"><ele>2393.95</ele><time>2026-02-10T00:38:48.000Z</time></trkpt>
        <trkpt lat="29.5400487" lon="103.3322311"><ele>2392.19</ele><time>2026-02-10T00:38:52.000Z</time></trkpt>
        <trkpt lat="29.5400481" lon="103.3322403"><ele>2390.87</ele><time>2026-02-10T00:38:58.000Z</time></trkpt>
        <trkpt lat="29.5399568" lon="103.3322646"><ele>2390.12</ele><time>2026-02-10T00:39:00.000Z</time></trkpt>
        <trkpt lat="29.5399568" lon="103.3322646"><ele>2390.12</ele><time>2026-02-10T00:39:05.000Z</time></trkpt>
        <trkpt lat="29.5399568" lon="103.3322646"><ele>2390.12</ele><time>2026-02-10T00:39:10.000Z</time></trkpt>
        <trkpt lat="29.5399568" lon="103.3322646"><ele>2390.12</ele><time>2026-02-10T00:39:19.000Z</time></trkpt>
        <trkpt lat="29.5398435" lon="103.332223"><ele>2388.58</ele><time>2026-02-10T00:39:26.000Z</time></trkpt>
        <trkpt lat="29.5398435" lon="103.332223"><ele>2388.58</ele><time>2026-02-10T00:39:42.000Z</time></trkpt>
        <trkpt lat="29.5398014" lon="103.3321984"><ele>2394.13</ele><time>2026-02-10T00:39:54.000Z</time></trkpt>
        <trkpt lat="29.539864" lon="103.332152"><ele>2395.99</ele><time>2026-02-10T00:40:04.000Z</time></trkpt>
        <trkpt lat="29.5398815" lon="103.3322182"><ele>2395.79</ele><time>2026-02-10T00:40:16.000Z</time></trkpt>
        <trkpt lat="29.5398815" lon="103.3322182"><ele>2395.79</ele><time>2026-02-10T00:40:39.000Z</time></trkpt>
        <trkpt lat="29.5398654" lon="103.3321472"><ele>2393.86</ele><time>2026-02-10T00:40:42.000Z</time></trkpt>
        <trkpt lat="29.5398654" lon="103.3321472"><ele>2393.86</ele><time>2026-02-10T00:40:42.000Z</time></trkpt>
        <trkpt lat="29.5398654" lon="103.3321472"><ele>2393.86</ele><time>2026-02-10T00:40:53.000Z</time></trkpt>
        <trkpt lat="29.5398014" lon="103.3321978"><ele>2395.97</ele><time>2026-02-10T00:41:18.000Z</time></trkpt>
        <trkpt lat="29.5398014" lon="103.3321978"><ele>2395.97</ele><time>2026-02-10T00:41:27.000Z</time></trkpt>
        <trkpt lat="29.5398014" lon="103.3321978"><ele>2395.97</ele><time>2026-02-10T00:41:33.000Z</time></trkpt>
        <trkpt lat="29.5398189" lon="103.3321316"><ele>2395.28</ele><time>2026-02-10T00:41:40.000Z</time></trkpt>
        <trkpt lat="29.5398189" lon="103.3321316"><ele>2395.28</ele><time>2026-02-10T00:41:43.000Z</time></trkpt>
        <trkpt lat="29.5398189" lon="103.3321316"><ele>2395.28</ele><time>2026-02-10T00:41:49.000Z</time></trkpt>
        <trkpt lat="29.5395596" lon="103.3320574"><ele>2397.44</ele><time>2026-02-10T00:42:16.000Z</time></trkpt>
        <trkpt lat="29.5395596" lon="103.3320574"><ele>2397.44</ele><time>2026-02-10T00:42:28.000Z</time></trkpt>
        <trkpt lat="29.5398326" lon="103.3321926"><ele>2399.41</ele><time>2026-02-10T00:42:36.000Z</time></trkpt>
        <trkpt lat="29.5398098" lon="103.3321523"><ele>2395.81</ele><time>2026-02-10T00:42:40.000Z</time></trkpt>
        <trkpt lat="29.5398817" lon="103.3321606"><ele>2392.93</ele><time>2026-02-10T00:43:02.000Z</time></trkpt>
        <trkpt lat="29.5399236" lon="103.3322848"><ele>2392.84</ele><time>2026-02-10T00:43:08.000Z</time></trkpt>
        <trkpt lat="29.539962" lon="103.3327962"><ele>2391.87</ele><time>2026-02-10T00:43:12.000Z</time></trkpt>
        <trkpt lat="29.539962" lon="103.3327962"><ele>2391.87</ele><time>2026-02-10T00:43:25.000Z</time></trkpt>
        <trkpt lat="29.539919" lon="103.3323946"><ele>2391.59</ele><time>2026-02-10T00:43:28.000Z</time></trkpt>
        <trkpt lat="29.539919" lon="103.3323946"><ele>2391.59</ele><time>2026-02-10T00:43:28.000Z</time></trkpt>
        <trkpt lat="29.5399028" lon="103.332227"><ele>2391.99</ele><time>2026-02-10T00:43:32.000Z</time></trkpt>
        <trkpt lat="29.5399028" lon="103.332227"><ele>2391.99</ele><time>2026-02-10T00:43:39.000Z</time></trkpt>
        <trkpt lat="29.5399706" lon="103.3321682"><ele>2392.45</ele><time>2026-02-10T00:43:46.000Z</time></trkpt>
        <trkpt lat="29.5399706" lon="103.3321682"><ele>2392.45</ele><time>2026-02-10T00:43:48.000Z</time></trkpt>
        <trkpt lat="29.540043" lon="103.3320887"><ele>2390.46</ele><time>2026-02-10T00:43:56.000Z</time></trkpt>
        <trkpt lat="29.5399998" lon="103.332116"><ele>2391.74</ele><time>2026-02-10T00:44:00.000Z</time></trkpt>
        <trkpt lat="29.5399016" lon="103.332155"><ele>2393.17</ele><time>2026-02-10T00:44:06.000Z</time></trkpt>
        <trkpt lat="29.5398984" lon="103.3322424"><ele>2393.2</ele><time>2026-02-10T00:44:30.000Z</time></trkpt>
        <trkpt lat="29.53981" lon="103.3322765"><ele>2391.87</ele><time>2026-02-10T00:45:00.000Z</time></trkpt>
        <trkpt lat="29.53981" lon="103.3322765"><ele>2391.87</ele><time>2026-02-10T00:45:01.000Z</time></trkpt>
        <trkpt lat="29.5397164" lon="103.3322271"><ele>2391.92</ele><time>2026-02-10T00:45:04.000Z</time></trkpt>
        <trkpt lat="29.5397164" lon="103.3322271"><ele>2391.92</ele><time>2026-02-10T00:45:08.000Z</time></trkpt>
        <trkpt lat="29.5397439" lon="103.3321504"><ele>2392.46</ele><time>2026-02-10T00:45:22.000Z</time></trkpt>
        <trkpt lat="29.5397392" lon="103.3322025"><ele>2393.07</ele><time>2026-02-10T00:46:18.000Z</time></trkpt>
        <trkpt lat="29.5397579" lon="103.3323074"><ele>2394.01</ele><time>2026-02-10T00:46:28.000Z</time></trkpt>
        <trkpt lat="29.5398357" lon="103.3323207"><ele>2394.92</ele><time>2026-02-10T00:46:41.000Z</time></trkpt>
        <trkpt lat="29.5399227" lon="103.3322719"><ele>2395.4</ele><time>2026-02-10T00:46:47.000Z</time></trkpt>
        <trkpt lat="29.5400197" lon="103.332217"><ele>2395.75</ele><time>2026-02-10T00:46:55.000Z</time></trkpt>
        <trkpt lat="29.540111" lon="103.3321597"><ele>2395.32</ele><time>2026-02-10T00:47:01.000Z</time></trkpt>
        <trkpt lat="29.5401988" lon="103.3320835"><ele>2395.28</ele><time>2026-02-10T00:47:09.000Z</time></trkpt>
        <trkpt lat="29.5402546" lon="103.3320286"><ele>2395.45</ele><time>2026-02-10T00:47:22.000Z</time></trkpt>
        <trkpt lat="29.5402689" lon="103.3319075"><ele>2398.76</ele><time>2026-02-10T00:47:32.000Z</time></trkpt>
        <trkpt lat="29.5403684" lon="103.3318733"><ele>2400.49</ele><time>2026-02-10T00:47:40.000Z</time></trkpt>
        <trkpt lat="29.5404747" lon="103.3318498"><ele>2400.94</ele><time>2026-02-10T00:47:46.000Z</time></trkpt>
        <trkpt lat="29.5405878" lon="103.3318115"><ele>2400.39</ele><time>2026-02-10T00:47:54.000Z</time></trkpt>
        <trkpt lat="29.5406828" lon="103.3317711"><ele>2398.62</ele><time>2026-02-10T00:48:03.000Z</time></trkpt>
        <trkpt lat="29.5407887" lon="103.3317271"><ele>2396.52</ele><time>2026-02-10T00:48:12.000Z</time></trkpt>
        <trkpt lat="29.5408911" lon="103.3317559"><ele>2393.76</ele><time>2026-02-10T00:48:22.000Z</time></trkpt>
        <trkpt lat="29.5409924" lon="103.3317906"><ele>2391.28</ele><time>2026-02-10T00:48:31.000Z</time></trkpt>
        <trkpt lat="29.5411105" lon="103.3317913"><ele>2389.3</ele><time>2026-02-10T00:48:41.000Z</time></trkpt>
        <trkpt lat="29.5412122" lon="103.3317835"><ele>2387.47</ele><time>2026-02-10T00:49:00.000Z</time></trkpt>
        <trkpt lat="29.5412122" lon="103.3317835"><ele>2387.47</ele><time>2026-02-10T00:49:29.000Z</time></trkpt>
        <trkpt lat="29.5412858" lon="103.3320716"><ele>2386.24</ele><time>2026-02-10T00:49:54.000Z</time></trkpt>
        <trkpt lat="29.5412858" lon="103.3320716"><ele>2386.24</ele><time>2026-02-10T00:49:55.000Z</time></trkpt>
        <trkpt lat="29.5412298" lon="103.3319753"><ele>2386.05</ele><time>2026-02-10T00:49:59.000Z</time></trkpt>
        <trkpt lat="29.5411866" lon="103.3318579"><ele>2387.31</ele><time>2026-02-10T00:50:08.000Z</time></trkpt>
        <trkpt lat="29.5411866" lon="103.3318579"><ele>2387.31</ele><time>2026-02-10T00:52:23.000Z</time></trkpt>
        <trkpt lat="29.5412154" lon="103.3314886"><ele>2389.61</ele><time>2026-02-10T00:52:46.000Z</time></trkpt>
        <trkpt lat="29.5412154" lon="103.3314886"><ele>2389.61</ele><time>2026-02-10T00:52:47.000Z</time></trkpt>
        <trkpt lat="29.5412168" lon="103.3316547"><ele>2397.25</ele><time>2026-02-10T00:52:53.000Z</time></trkpt>
        <trkpt lat="29.5412168" lon="103.3316547"><ele>2397.25</ele><time>2026-02-10T00:53:19.000Z</time></trkpt>
        <trkpt lat="29.5411386" lon="103.3315797"><ele>2399.05</ele><time>2026-02-10T00:54:02.000Z</time></trkpt>
        <trkpt lat="29.5411386" lon="103.3315797"><ele>2399.05</ele><time>2026-02-10T00:54:03.000Z</time></trkpt>
        <trkpt lat="29.5412943" lon="103.3316508"><ele>2395.26</ele><time>2026-02-10T00:54:05.000Z</time></trkpt>
        <trkpt lat="29.5412723" lon="103.3317612"><ele>2393.71</ele><time>2026-02-10T00:54:09.000Z</time></trkpt>
        <trkpt lat="29.5412608" lon="103.3317879"><ele>2394.87</ele><time>2026-02-10T00:54:15.000Z</time></trkpt>
        <trkpt lat="29.5412608" lon="103.3317879"><ele>2394.87</ele><time>2026-02-10T00:54:33.000Z</time></trkpt>
        <trkpt lat="29.5411878" lon="103.3317509"><ele>2395.53</ele><time>2026-02-10T00:54:50.000Z</time></trkpt>
        <trkpt lat="29.5411878" lon="103.3317509"><ele>2395.53</ele><time>2026-02-10T00:54:53.000Z</time></trkpt>
        <trkpt lat="29.5412122" lon="103.331805"><ele>2396.12</ele><time>2026-02-10T00:55:21.000Z</time></trkpt>
        <trkpt lat="29.5412122" lon="103.331805"><ele>2396.12</ele><time>2026-02-10T00:55:33.000Z</time></trkpt>
        <trkpt lat="29.5414159" lon="103.3316164"><ele>2391.81</ele><time>2026-02-10T00:55:46.000Z</time></trkpt>
        <trkpt lat="29.5414159" lon="103.3316164"><ele>2391.81</ele><time>2026-02-10T00:55:47.000Z</time></trkpt>
        <trkpt lat="29.5412433" lon="103.3316011"><ele>2389.43</ele><time>2026-02-10T00:55:52.000Z</time></trkpt>
        <trkpt lat="29.5412174" lon="103.3316904"><ele>2386.81</ele><time>2026-02-10T00:55:58.000Z</time></trkpt>
        <trkpt lat="29.5412174" lon="103.3316904"><ele>2386.81</ele><time>2026-02-10T00:56:07.000Z</time></trkpt>
        <trkpt lat="29.5412174" lon="103.3316904"><ele>2386.81</ele><time>2026-02-10T01:00:06.000Z</time></trkpt>
        <trkpt lat="29.5412174" lon="103.3316904"><ele>2386.81</ele><time>2026-02-10T01:00:17.000Z</time></trkpt>
        <trkpt lat="29.5412154" lon="103.3319899"><ele>2385.45</ele><time>2026-02-10T01:01:34.000Z</time></trkpt>
        <trkpt lat="29.5412154" lon="103.3319899"><ele>2385.45</ele><time>2026-02-10T01:01:35.000Z</time></trkpt>
        <trkpt lat="29.5412727" lon="103.33189"><ele>2385.4</ele><time>2026-02-10T01:01:38.000Z</time></trkpt>
        <trkpt lat="29.541216" lon="103.3317793"><ele>2385.76</ele><time>2026-02-10T01:01:42.000Z</time></trkpt>
        <trkpt lat="29.541216" lon="103.3317793"><ele>2385.76</ele><time>2026-02-10T01:02:15.000Z</time></trkpt>
        <trkpt lat="29.541216" lon="103.3317793"><ele>2385.76</ele><time>2026-02-10T01:02:18.000Z</time></trkpt>
        <trkpt lat="29.541216" lon="103.3317793"><ele>2385.76</ele><time>2026-02-10T01:03:05.000Z</time></trkpt>
        <trkpt lat="29.541216" lon="103.3317793"><ele>2385.76</ele><time>2026-02-10T01:03:14.000Z</time></trkpt>
        <trkpt lat="29.541216" lon="103.3317793"><ele>2385.76</ele><time>2026-02-10T01:04:23.000Z</time></trkpt>
        <trkpt lat="29.541216" lon="103.3317793"><ele>2385.76</ele><time>2026-02-10T01:04:30.000Z</time></trkpt>
        <trkpt lat="29.541216" lon="103.3317793"><ele>2385.76</ele><time>2026-02-10T01:04:41.000Z</time></trkpt>
        <trkpt lat="29.541216" lon="103.3317793"><ele>2385.76</ele><time>2026-02-10T01:04:46.000Z</time></trkpt>
        <trkpt lat="29.541216" lon="103.3317793"><ele>2385.76</ele><time>2026-02-10T01:05:09.000Z</time></trkpt>
        <trkpt lat="29.5413324" lon="103.3318874"><ele>2387.02</ele><time>2026-02-10T01:05:58.000Z</time></trkpt>
        <trkpt lat="29.5413324" lon="103.3318874"><ele>2387.02</ele><time>2026-02-10T01:06:00.000Z</time></trkpt>
        <trkpt lat="29.5411839" lon="103.3317811"><ele>2382.69</ele><time>2026-02-10T01:06:04.000Z</time></trkpt>
        <trkpt lat="29.5412486" lon="103.3317197"><ele>2383.67</ele><time>2026-02-10T01:06:36.000Z</time></trkpt>
        <trkpt lat="29.5413385" lon="103.3316783"><ele>2384.45</ele><time>2026-02-10T01:06:43.000Z</time></trkpt>
        <trkpt lat="29.541452" lon="103.3316513"><ele>2384.52</ele><time>2026-02-10T01:06:51.000Z</time></trkpt>
        <trkpt lat="29.5415678" lon="103.331641"><ele>2385.88</ele><time>2026-02-10T01:06:57.000Z</time></trkpt>
        <trkpt lat="29.5416911" lon="103.331633"><ele>2386.78</ele><time>2026-02-10T01:07:05.000Z</time></trkpt>
        <trkpt lat="29.5418089" lon="103.331636"><ele>2387.02</ele><time>2026-02-10T01:07:13.000Z</time></trkpt>
        <trkpt lat="29.5419073" lon="103.3316294"><ele>2386.95</ele><time>2026-02-10T01:07:19.000Z</time></trkpt>
        <trkpt lat="29.5420052" lon="103.3316051"><ele>2387.12</ele><time>2026-02-10T01:07:25.000Z</time></trkpt>
        <trkpt lat="29.5421095" lon="103.331562"><ele>2387.04</ele><time>2026-02-10T01:07:33.000Z</time></trkpt>
        <trkpt lat="29.5421965" lon="103.3315132"><ele>2386.19</ele><time>2026-02-10T01:07:41.000Z</time></trkpt>
        <trkpt lat="29.5422719" lon="103.3314544"><ele>2385.28</ele><time>2026-02-10T01:07:47.000Z</time></trkpt>
        <trkpt lat="29.5423487" lon="103.3314069"><ele>2384.3</ele><time>2026-02-10T01:08:04.000Z</time></trkpt>
        <trkpt lat="29.5423031" lon="103.3314485"><ele>2382.8</ele><time>2026-02-10T01:08:22.000Z</time></trkpt>
        <trkpt lat="29.5422208" lon="103.3315308"><ele>2383.1</ele><time>2026-02-10T01:08:30.000Z</time></trkpt>
        <trkpt lat="29.5421061" lon="103.331599"><ele>2383.07</ele><time>2026-02-10T01:08:36.000Z</time></trkpt>
        <trkpt lat="29.5419826" lon="103.3316635"><ele>2383.29</ele><time>2026-02-10T01:08:44.000Z</time></trkpt>
        <trkpt lat="29.5418723" lon="103.3317258"><ele>2383.65</ele><time>2026-02-10T01:08:51.000Z</time></trkpt>
        <trkpt lat="29.5418117" lon="103.3318246"><ele>2384.28</ele><time>2026-02-10T01:09:01.000Z</time></trkpt>
        <trkpt lat="29.5417554" lon="103.3319356"><ele>2382.74</ele><time>2026-02-10T01:09:09.000Z</time></trkpt>
        <trkpt lat="29.5417864" lon="103.3320376"><ele>2381.48</ele><time>2026-02-10T01:09:16.000Z</time></trkpt>
        <trkpt lat="29.5418923" lon="103.3320639"><ele>2380.92</ele><time>2026-02-10T01:09:23.000Z</time></trkpt>
        <trkpt lat="29.5420083" lon="103.3320508"><ele>2379.49</ele><time>2026-02-10T01:09:30.000Z</time></trkpt>
        <trkpt lat="29.5421218" lon="103.3320302"><ele>2378.19</ele><time>2026-02-10T01:09:38.000Z</time></trkpt>
        <trkpt lat="29.542236" lon="103.332023"><ele>2377.44</ele><time>2026-02-10T01:09:57.000Z</time></trkpt>
        <trkpt lat="29.5423224" lon="103.3320663"><ele>2377.46</ele><time>2026-02-10T01:10:03.000Z</time></trkpt>
        <trkpt lat="29.5424009" lon="103.3321272"><ele>2377.59</ele><time>2026-02-10T01:10:11.000Z</time></trkpt>
        <trkpt lat="29.542474" lon="103.3322176"><ele>2377.2</ele><time>2026-02-10T01:10:29.000Z</time></trkpt>
        <trkpt lat="29.5425373" lon="103.3323228"><ele>2377.88</ele><time>2026-02-10T01:10:35.000Z</time></trkpt>
        <trkpt lat="29.5425812" lon="103.3324433"><ele>2377.84</ele><time>2026-02-10T01:10:45.000Z</time></trkpt>
        <trkpt lat="29.5425999" lon="103.3325572"><ele>2378</ele><time>2026-02-10T01:10:51.000Z</time></trkpt>
        <trkpt lat="29.5426739" lon="103.3326491"><ele>2378.06</ele><time>2026-02-10T01:10:59.000Z</time></trkpt>
        <trkpt lat="29.5427683" lon="103.3327116"><ele>2378.03</ele><time>2026-02-10T01:11:07.000Z</time></trkpt>
        <trkpt lat="29.5428464" lon="103.3328066"><ele>2378.15</ele><time>2026-02-10T01:11:15.000Z</time></trkpt>
        <trkpt lat="29.5429023" lon="103.3329138"><ele>2377.92</ele><time>2026-02-10T01:11:23.000Z</time></trkpt>
        <trkpt lat="29.5429797" lon="103.3329809"><ele>2378.15</ele><time>2026-02-10T01:11:32.000Z</time></trkpt>
        <trkpt lat="29.5430787" lon="103.3330055"><ele>2378.6</ele><time>2026-02-10T01:11:40.000Z</time></trkpt>
        <trkpt lat="29.5431643" lon="103.3330584"><ele>2378.79</ele><time>2026-02-10T01:11:49.000Z</time></trkpt>
        <trkpt lat="29.543244" lon="103.3331282"><ele>2378.72</ele><time>2026-02-10T01:12:01.000Z</time></trkpt>
        <trkpt lat="29.5433026" lon="103.3332247"><ele>2377.82</ele><time>2026-02-10T01:12:07.000Z</time></trkpt>
        <trkpt lat="29.5433485" lon="103.3333321"><ele>2377.48</ele><time>2026-02-10T01:12:17.000Z</time></trkpt>
        <trkpt lat="29.5433845" lon="103.3334565"><ele>2377.71</ele><time>2026-02-10T01:12:25.000Z</time></trkpt>
        <trkpt lat="29.5434164" lon="103.3335807"><ele>2378.03</ele><time>2026-02-10T01:12:33.000Z</time></trkpt>
        <trkpt lat="29.54347" lon="103.3336753"><ele>2378.53</ele><time>2026-02-10T01:12:47.000Z</time></trkpt>
        <trkpt lat="29.5435399" lon="103.3337431"><ele>2378.99</ele><time>2026-02-10T01:13:05.000Z</time></trkpt>
        <trkpt lat="29.5436084" lon="103.3338279"><ele>2379.05</ele><time>2026-02-10T01:13:21.000Z</time></trkpt>
        <trkpt lat="29.5436866" lon="103.3339178"><ele>2379.14</ele><time>2026-02-10T01:13:29.000Z</time></trkpt>
        <trkpt lat="29.5437792" lon="103.3339581"><ele>2379.29</ele><time>2026-02-10T01:13:37.000Z</time></trkpt>
        <trkpt lat="29.5438757" lon="103.3339588"><ele>2379.87</ele><time>2026-02-10T01:13:51.000Z</time></trkpt>
        <trkpt lat="29.5439479" lon="103.334016"><ele>2380.62</ele><time>2026-02-10T01:14:03.000Z</time></trkpt>
        <trkpt lat="29.5440283" lon="103.334093"><ele>2380.55</ele><time>2026-02-10T01:14:13.000Z</time></trkpt>
        <trkpt lat="29.544127" lon="103.3341463"><ele>2381.21</ele><time>2026-02-10T01:14:23.000Z</time></trkpt>
        <trkpt lat="29.544231" lon="103.3341704"><ele>2381.75</ele><time>2026-02-10T01:14:33.000Z</time></trkpt>
        <trkpt lat="29.5443269" lon="103.3341868"><ele>2382.21</ele><time>2026-02-10T01:14:41.000Z</time></trkpt>
        <trkpt lat="29.5444191" lon="103.3342109"><ele>2382.31</ele><time>2026-02-10T01:14:51.000Z</time></trkpt>
        <trkpt lat="29.5445154" lon="103.3342193"><ele>2382.09</ele><time>2026-02-10T01:14:55.000Z</time></trkpt>
        <trkpt lat="29.5446189" lon="103.3342234"><ele>2382.39</ele><time>2026-02-10T01:14:57.000Z</time></trkpt>
        <trkpt lat="29.5446189" lon="103.3342234"><ele>2382.39</ele><time>2026-02-10T01:15:05.000Z</time></trkpt>
        <trkpt lat="29.5445179" lon="103.3344089"><ele>2386.89</ele><time>2026-02-10T01:16:24.000Z</time></trkpt>
        <trkpt lat="29.5445179" lon="103.3344089"><ele>2386.89</ele><time>2026-02-10T01:16:25.000Z</time></trkpt>
        <trkpt lat="29.544602" lon="103.3341404"><ele>2389.99</ele><time>2026-02-10T01:16:29.000Z</time></trkpt>
        <trkpt lat="29.5445843" lon="103.3341264"><ele>2391.85</ele><time>2026-02-10T01:16:31.000Z</time></trkpt>
        <trkpt lat="29.5445843" lon="103.3341264"><ele>2391.85</ele><time>2026-02-10T01:16:53.000Z</time></trkpt>
        <trkpt lat="29.5445843" lon="103.3341264"><ele>2391.85</ele><time>2026-02-10T01:17:12.000Z</time></trkpt>
        <trkpt lat="29.5445843" lon="103.3341264"><ele>2391.85</ele><time>2026-02-10T01:17:23.000Z</time></trkpt>
        <trkpt lat="29.5445843" lon="103.3341264"><ele>2391.85</ele><time>2026-02-10T01:17:24.000Z</time></trkpt>
        <trkpt lat="29.5445843" lon="103.3341264"><ele>2391.85</ele><time>2026-02-10T01:17:37.000Z</time></trkpt>
        <trkpt lat="29.544638" lon="103.3342414"><ele>2390.61</ele><time>2026-02-10T01:18:20.000Z</time></trkpt>
        <trkpt lat="29.544638" lon="103.3342414"><ele>2390.61</ele><time>2026-02-10T01:18:21.000Z</time></trkpt>
        <trkpt lat="29.5445861" lon="103.3342238"><ele>2389.34</ele><time>2026-02-10T01:18:25.000Z</time></trkpt>
        <trkpt lat="29.5445861" lon="103.3342238"><ele>2389.34</ele><time>2026-02-10T01:18:31.000Z</time></trkpt>
        <trkpt lat="29.5445861" lon="103.3342238"><ele>2389.34</ele><time>2026-02-10T01:18:34.000Z</time></trkpt>
        <trkpt lat="29.5445861" lon="103.3342238"><ele>2389.34</ele><time>2026-02-10T01:19:21.000Z</time></trkpt>
        <trkpt lat="29.5446964" lon="103.3342355"><ele>2387.33</ele><time>2026-02-10T01:19:26.000Z</time></trkpt>
        <trkpt lat="29.5446964" lon="103.3342355"><ele>2387.33</ele><time>2026-02-10T01:21:26.000Z</time></trkpt>
        <trkpt lat="29.5447708" lon="103.3341763"><ele>2389</ele><time>2026-02-10T01:21:33.000Z</time></trkpt>
        <trkpt lat="29.5448436" lon="103.3340883"><ele>2390.31</ele><time>2026-02-10T01:21:39.000Z</time></trkpt>
        <trkpt lat="29.5449449" lon="103.3340523"><ele>2390</ele><time>2026-02-10T01:21:47.000Z</time></trkpt>
        <trkpt lat="29.545053" lon="103.3340464"><ele>2389.79</ele><time>2026-02-10T01:21:57.000Z</time></trkpt>
        <trkpt lat="29.5451534" lon="103.334088"><ele>2388.83</ele><time>2026-02-10T01:22:09.000Z</time></trkpt>
        <trkpt lat="29.545234" lon="103.3341606"><ele>2388.17</ele><time>2026-02-10T01:22:17.000Z</time></trkpt>
        <trkpt lat="29.5452995" lon="103.3342474"><ele>2386.58</ele><time>2026-02-10T01:22:25.000Z</time></trkpt>
        <trkpt lat="29.5453668" lon="103.3343219"><ele>2385.35</ele><time>2026-02-10T01:22:31.000Z</time></trkpt>
        <trkpt lat="29.5454534" lon="103.3344003"><ele>2384.63</ele><time>2026-02-10T01:22:47.000Z</time></trkpt>
        <trkpt lat="29.5455491" lon="103.3344685"><ele>2383.19</ele><time>2026-02-10T01:22:56.000Z</time></trkpt>
        <trkpt lat="29.545648" lon="103.3345263"><ele>2381.78</ele><time>2026-02-10T01:23:04.000Z</time></trkpt>
        <trkpt lat="29.5457369" lon="103.3345816"><ele>2380.81</ele><time>2026-02-10T01:23:12.000Z</time></trkpt>
        <trkpt lat="29.545813" lon="103.3346416"><ele>2380.78</ele><time>2026-02-10T01:23:20.000Z</time></trkpt>
        <trkpt lat="29.5458861" lon="103.3347089"><ele>2380.93</ele><time>2026-02-10T01:23:32.000Z</time></trkpt>
        <trkpt lat="29.5459812" lon="103.3347511"><ele>2381.52</ele><time>2026-02-10T01:23:45.000Z</time></trkpt>
        <trkpt lat="29.546084" lon="103.3347676"><ele>2384.42</ele><time>2026-02-10T01:24:08.000Z</time></trkpt>
        <trkpt lat="29.546185" lon="103.3347834"><ele>2387.34</ele><time>2026-02-10T01:24:21.000Z</time></trkpt>
        <trkpt lat="29.5462769" lon="103.3347667"><ele>2389.56</ele><time>2026-02-10T01:24:37.000Z</time></trkpt>
        <trkpt lat="29.5463683" lon="103.3347859"><ele>2390.94</ele><time>2026-02-10T01:24:53.000Z</time></trkpt>
        <trkpt lat="29.5464684" lon="103.3348404"><ele>2389.34</ele><time>2026-02-10T01:25:09.000Z</time></trkpt>
        <trkpt lat="29.5465753" lon="103.3348685"><ele>2387.87</ele><time>2026-02-10T01:25:17.000Z</time></trkpt>
        <trkpt lat="29.5465753" lon="103.3348685"><ele>2387.87</ele><time>2026-02-10T01:26:03.000Z</time></trkpt>
        <trkpt lat="29.5465753" lon="103.3348685"><ele>2387.87</ele><time>2026-02-10T01:26:16.000Z</time></trkpt>
        <trkpt lat="29.5465753" lon="103.3348685"><ele>2387.87</ele><time>2026-02-10T01:26:55.000Z</time></trkpt>
        <trkpt lat="29.5466458" lon="103.3349384"><ele>2385.37</ele><time>2026-02-10T01:27:00.000Z</time></trkpt>
        <trkpt lat="29.5466458" lon="103.3349384"><ele>2385.37</ele><time>2026-02-10T01:27:14.000Z</time></trkpt>
        <trkpt lat="29.5467367" lon="103.3350046"><ele>2385.27</ele><time>2026-02-10T01:27:18.000Z</time></trkpt>
        <trkpt lat="29.5468077" lon="103.3350996"><ele>2385.01</ele><time>2026-02-10T01:27:24.000Z</time></trkpt>
        <trkpt lat="29.5468238" lon="103.3352228"><ele>2384.99</ele><time>2026-02-10T01:27:31.000Z</time></trkpt>
        <trkpt lat="29.5468083" lon="103.3353356"><ele>2387.47</ele><time>2026-02-10T01:27:37.000Z</time></trkpt>
        <trkpt lat="29.5467785" lon="103.335453"><ele>2390.18</ele><time>2026-02-10T01:28:01.000Z</time></trkpt>
        <trkpt lat="29.5467576" lon="103.3355619"><ele>2390.09</ele><time>2026-02-10T01:28:09.000Z</time></trkpt>
        <trkpt lat="29.5467296" lon="103.335624"><ele>2391.68</ele><time>2026-02-10T01:28:17.000Z</time></trkpt>
        <trkpt lat="29.5466904" lon="103.3357096"><ele>2391.99</ele><time>2026-02-10T01:28:25.000Z</time></trkpt>
        <trkpt lat="29.5466716" lon="103.3358216"><ele>2392.49</ele><time>2026-02-10T01:28:32.000Z</time></trkpt>
        <trkpt lat="29.5466716" lon="103.3358216"><ele>2392.49</ele><time>2026-02-10T01:29:03.000Z</time></trkpt>
        <trkpt lat="29.5466562" lon="103.3359385"><ele>2393.53</ele><time>2026-02-10T01:29:08.000Z</time></trkpt>
        <trkpt lat="29.5466562" lon="103.3359385"><ele>2393.53</ele><time>2026-02-10T01:29:18.000Z</time></trkpt>
        <trkpt lat="29.5466423" lon="103.336051"><ele>2393.81</ele><time>2026-02-10T01:29:26.000Z</time></trkpt>
        <trkpt lat="29.5466014" lon="103.3361531"><ele>2395.05</ele><time>2026-02-10T01:29:35.000Z</time></trkpt>
        <trkpt lat="29.5465441" lon="103.3362424"><ele>2399.5</ele><time>2026-02-10T01:29:46.000Z</time></trkpt>
        <trkpt lat="29.5465302" lon="103.3363494"><ele>2401.89</ele><time>2026-02-10T01:30:16.000Z</time></trkpt>
        <trkpt lat="29.5465399" lon="103.3364315"><ele>2402.23</ele><time>2026-02-10T01:30:26.000Z</time></trkpt>
        <trkpt lat="29.5465101" lon="103.3365186"><ele>2403.26</ele><time>2026-02-10T01:30:42.000Z</time></trkpt>
        <trkpt lat="29.5464891" lon="103.3366209"><ele>2405.2</ele><time>2026-02-10T01:31:10.000Z</time></trkpt>
        <trkpt lat="29.54648" lon="103.3367263"><ele>2408.1</ele><time>2026-02-10T01:31:24.000Z</time></trkpt>
        <trkpt lat="29.5465005" lon="103.336835"><ele>2410.07</ele><time>2026-02-10T01:32:03.000Z</time></trkpt>
        <trkpt lat="29.546509" lon="103.3369481"><ele>2411.81</ele><time>2026-02-10T01:32:11.000Z</time></trkpt>
        <trkpt lat="29.5465567" lon="103.3370399"><ele>2411.24</ele><time>2026-02-10T01:32:25.000Z</time></trkpt>
        <trkpt lat="29.5467135" lon="103.337176"><ele>2412.14</ele><time>2026-02-10T01:32:33.000Z</time></trkpt>
        <trkpt lat="29.5467738" lon="103.3373198"><ele>2412.86</ele><time>2026-02-10T01:32:39.000Z</time></trkpt>
        <trkpt lat="29.5467171" lon="103.3373682"><ele>2413.47</ele><time>2026-02-10T01:32:46.000Z</time></trkpt>
        <trkpt lat="29.5466358" lon="103.3374267"><ele>2414.63</ele><time>2026-02-10T01:32:56.000Z</time></trkpt>
        <trkpt lat="29.5465769" lon="103.3374694"><ele>2414.21</ele><time>2026-02-10T01:33:02.000Z</time></trkpt>
        <trkpt lat="29.5465769" lon="103.3374694"><ele>2414.21</ele><time>2026-02-10T01:33:09.000Z</time></trkpt>
        <trkpt lat="29.5465769" lon="103.3374694"><ele>2414.21</ele><time>2026-02-10T01:33:14.000Z</time></trkpt>
        <trkpt lat="29.5465769" lon="103.3374694"><ele>2414.21</ele><time>2026-02-10T01:33:59.000Z</time></trkpt>
        <trkpt lat="29.5466165" lon="103.3375792"><ele>2414.36</ele><time>2026-02-10T01:34:10.000Z</time></trkpt>
        <trkpt lat="29.5466165" lon="103.3375792"><ele>2414.36</ele><time>2026-02-10T01:34:11.000Z</time></trkpt>
        <trkpt lat="29.5465883" lon="103.337524"><ele>2413.55</ele><time>2026-02-10T01:34:13.000Z</time></trkpt>
        <trkpt lat="29.5465883" lon="103.337524"><ele>2413.55</ele><time>2026-02-10T01:35:11.000Z</time></trkpt>
        <trkpt lat="29.5464964" lon="103.3375492"><ele>2414.74</ele><time>2026-02-10T01:35:20.000Z</time></trkpt>
        <trkpt lat="29.5464964" lon="103.3375492"><ele>2414.74</ele><time>2026-02-10T01:35:48.000Z</time></trkpt>
        <trkpt lat="29.5464425" lon="103.3376956"><ele>2415.08</ele><time>2026-02-10T01:35:57.000Z</time></trkpt>
        <trkpt lat="29.5463619" lon="103.3378655"><ele>2419.5</ele><time>2026-02-10T01:36:03.000Z</time></trkpt>
        <trkpt lat="29.546293" lon="103.3379664"><ele>2417.89</ele><time>2026-02-10T01:36:09.000Z</time></trkpt>
        <trkpt lat="29.546241" lon="103.3380707"><ele>2417.07</ele><time>2026-02-10T01:36:18.000Z</time></trkpt>
        <trkpt lat="29.5462092" lon="103.3381779"><ele>2417.08</ele><time>2026-02-10T01:36:28.000Z</time></trkpt>
        <trkpt lat="29.5461861" lon="103.3382817"><ele>2416.6</ele><time>2026-02-10T01:36:40.000Z</time></trkpt>
        <trkpt lat="29.5461757" lon="103.3383627"><ele>2414.94</ele><time>2026-02-10T01:36:51.000Z</time></trkpt>
        <trkpt lat="29.5461819" lon="103.3384649"><ele>2413.23</ele><time>2026-02-10T01:36:59.000Z</time></trkpt>
        <trkpt lat="29.5462252" lon="103.3385849"><ele>2411.84</ele><time>2026-02-10T01:37:03.000Z</time></trkpt>
        <trkpt lat="29.5462733" lon="103.3386903"><ele>2410.61</ele><time>2026-02-10T01:37:07.000Z</time></trkpt>
        <trkpt lat="29.546347" lon="103.3387775"><ele>2408.9</ele><time>2026-02-10T01:37:17.000Z</time></trkpt>
        <trkpt lat="29.5464282" lon="103.3388504"><ele>2405.09</ele><time>2026-02-10T01:37:30.000Z</time></trkpt>
        <trkpt lat="29.5464897" lon="103.338946"><ele>2399.93</ele><time>2026-02-10T01:37:46.000Z</time></trkpt>
        <trkpt lat="29.5465694" lon="103.3390381"><ele>2393.69</ele><time>2026-02-10T01:37:55.000Z</time></trkpt>
        <trkpt lat="29.5466562" lon="103.3391172"><ele>2388.01</ele><time>2026-02-10T01:38:01.000Z</time></trkpt>
        <trkpt lat="29.5467268" lon="103.339206"><ele>2384.47</ele><time>2026-02-10T01:38:17.000Z</time></trkpt>
        <trkpt lat="29.5467653" lon="103.3393075"><ele>2380.1</ele><time>2026-02-10T01:38:27.000Z</time></trkpt>
        <trkpt lat="29.5468275" lon="103.3393786"><ele>2376.86</ele><time>2026-02-10T01:38:37.000Z</time></trkpt>
        <trkpt lat="29.5468917" lon="103.3394602"><ele>2372.77</ele><time>2026-02-10T01:39:08.000Z</time></trkpt>
        <trkpt lat="29.5469367" lon="103.3395602"><ele>2368.12</ele><time>2026-02-10T01:39:40.000Z</time></trkpt>
        <trkpt lat="29.5470005" lon="103.3396668"><ele>2362.29</ele><time>2026-02-10T01:39:52.000Z</time></trkpt>
        <trkpt lat="29.5470764" lon="103.3397745"><ele>2356.14</ele><time>2026-02-10T01:40:10.000Z</time></trkpt>
        <trkpt lat="29.5470981" lon="103.3398997"><ele>2349.58</ele><time>2026-02-10T01:40:21.000Z</time></trkpt>
        <trkpt lat="29.5470983" lon="103.3400178"><ele>2344.61</ele><time>2026-02-10T01:40:33.000Z</time></trkpt>
        <trkpt lat="29.5471412" lon="103.3401062"><ele>2341.34</ele><time>2026-02-10T01:40:46.000Z</time></trkpt>
        <trkpt lat="29.5471412" lon="103.3401062"><ele>2341.34</ele><time>2026-02-10T01:41:57.000Z</time></trkpt>
        <trkpt lat="29.5471412" lon="103.3401062"><ele>2341.34</ele><time>2026-02-10T01:41:58.000Z</time></trkpt>
        <trkpt lat="29.5471412" lon="103.3401062"><ele>2341.34</ele><time>2026-02-10T01:42:25.000Z</time></trkpt>
        <trkpt lat="29.5472436" lon="103.3402001"><ele>2339.24</ele><time>2026-02-10T01:42:44.000Z</time></trkpt>
        <trkpt lat="29.5472436" lon="103.3402001"><ele>2339.24</ele><time>2026-02-10T01:42:45.000Z</time></trkpt>
        <trkpt lat="29.5471354" lon="103.3401736"><ele>2333.4</ele><time>2026-02-10T01:42:49.000Z</time></trkpt>
        <trkpt lat="29.5471555" lon="103.3401366"><ele>2329.45</ele><time>2026-02-10T01:42:51.000Z</time></trkpt>
        <trkpt lat="29.5471555" lon="103.3401366"><ele>2329.45</ele><time>2026-02-10T01:43:57.000Z</time></trkpt>
        <trkpt lat="29.5471555" lon="103.3401366"><ele>2329.45</ele><time>2026-02-10T01:44:30.000Z</time></trkpt>
        <trkpt lat="29.5471555" lon="103.3401366"><ele>2329.45</ele><time>2026-02-10T01:44:49.000Z</time></trkpt>
        <trkpt lat="29.547086" lon="103.3401367"><ele>2330.26</ele><time>2026-02-10T01:44:52.000Z</time></trkpt>
        <trkpt lat="29.547086" lon="103.3401367"><ele>2330.26</ele><time>2026-02-10T01:45:20.000Z</time></trkpt>
        <trkpt lat="29.547086" lon="103.3401367"><ele>2330.26</ele><time>2026-02-10T01:47:37.000Z</time></trkpt>
        <trkpt lat="29.5474122" lon="103.3402022"><ele>2327.15</ele><time>2026-02-10T01:47:58.000Z</time></trkpt>
        <trkpt lat="29.5474122" lon="103.3402022"><ele>2327.15</ele><time>2026-02-10T01:47:59.000Z</time></trkpt>
        <trkpt lat="29.5471162" lon="103.3401665"><ele>2324.36</ele><time>2026-02-10T01:48:05.000Z</time></trkpt>
        <trkpt lat="29.5470874" lon="103.3402548"><ele>2323.64</ele><time>2026-02-10T01:48:54.000Z</time></trkpt>
        <trkpt lat="29.5471314" lon="103.3403531"><ele>2320.74</ele><time>2026-02-10T01:49:14.000Z</time></trkpt>
        <trkpt lat="29.5472054" lon="103.3404419"><ele>2318.17</ele><time>2026-02-10T01:49:26.000Z</time></trkpt>
        <trkpt lat="29.5472809" lon="103.340546"><ele>2315.82</ele><time>2026-02-10T01:49:36.000Z</time></trkpt>
        <trkpt lat="29.5473745" lon="103.3406335"><ele>2314.85</ele><time>2026-02-10T01:49:44.000Z</time></trkpt>
        <trkpt lat="29.5474473" lon="103.3407371"><ele>2315.06</ele><time>2026-02-10T01:49:53.000Z</time></trkpt>
        <trkpt lat="29.5474868" lon="103.3408655"><ele>2314.65</ele><time>2026-02-10T01:50:01.000Z</time></trkpt>
        <trkpt lat="29.5475434" lon="103.3409641"><ele>2313.21</ele><time>2026-02-10T01:50:09.000Z</time></trkpt>
        <trkpt lat="29.5476163" lon="103.3410365"><ele>2311.26</ele><time>2026-02-10T01:50:20.000Z</time></trkpt>
        <trkpt lat="29.547705" lon="103.3410758"><ele>2306.86</ele><time>2026-02-10T01:50:28.000Z</time></trkpt>
        <trkpt lat="29.5478028" lon="103.3411043"><ele>2301.2</ele><time>2026-02-10T01:50:34.000Z</time></trkpt>
        <trkpt lat="29.5479108" lon="103.3411464"><ele>2296.98</ele><time>2026-02-10T01:50:42.000Z</time></trkpt>
        <trkpt lat="29.5480073" lon="103.3411795"><ele>2295.15</ele><time>2026-02-10T01:50:53.000Z</time></trkpt>
        <trkpt lat="29.5481187" lon="103.3412287"><ele>2294.03</ele><time>2026-02-10T01:51:27.000Z</time></trkpt>
        <trkpt lat="29.5480704" lon="103.3412342"><ele>2290.08</ele><time>2026-02-10T01:51:46.000Z</time></trkpt>
        <trkpt lat="29.5480704" lon="103.3412342"><ele>2290.08</ele><time>2026-02-10T01:52:21.000Z</time></trkpt>
        <trkpt lat="29.5481409" lon="103.3412578"><ele>2287.96</ele><time>2026-02-10T01:52:26.000Z</time></trkpt>
        <trkpt lat="29.5481409" lon="103.3412578"><ele>2287.96</ele><time>2026-02-10T01:54:53.000Z</time></trkpt>
        <trkpt lat="29.5482491" lon="103.3412448"><ele>2289</ele><time>2026-02-10T01:55:05.000Z</time></trkpt>
        <trkpt lat="29.5483452" lon="103.3412678"><ele>2287.66</ele><time>2026-02-10T01:55:15.000Z</time></trkpt>
        <trkpt lat="29.5484364" lon="103.3412924"><ele>2286.21</ele><time>2026-02-10T01:55:35.000Z</time></trkpt>
        <trkpt lat="29.5485249" lon="103.3412722"><ele>2283.57</ele><time>2026-02-10T01:55:44.000Z</time></trkpt>
        <trkpt lat="29.5486179" lon="103.34124"><ele>2279.53</ele><time>2026-02-10T01:55:55.000Z</time></trkpt>
        <trkpt lat="29.5487085" lon="103.3412261"><ele>2276.74</ele><time>2026-02-10T01:56:03.000Z</time></trkpt>
        <trkpt lat="29.548808" lon="103.3412138"><ele>2274.64</ele><time>2026-02-10T01:56:13.000Z</time></trkpt>
        <trkpt lat="29.5489097" lon="103.3412083"><ele>2272.2</ele><time>2026-02-10T01:56:21.000Z</time></trkpt>
        <trkpt lat="29.5490243" lon="103.3412058"><ele>2269.19</ele><time>2026-02-10T01:56:23.000Z</time></trkpt>
        <trkpt lat="29.549124" lon="103.3412816"><ele>2264.84</ele><time>2026-02-10T01:56:29.000Z</time></trkpt>
        <trkpt lat="29.5492097" lon="103.3413744"><ele>2261.18</ele><time>2026-02-10T01:56:40.000Z</time></trkpt>
        <trkpt lat="29.5492648" lon="103.3415056"><ele>2256.17</ele><time>2026-02-10T01:56:46.000Z</time></trkpt>
        <trkpt lat="29.5492901" lon="103.3416403"><ele>2251.55</ele><time>2026-02-10T01:56:53.000Z</time></trkpt>
        <trkpt lat="29.5493107" lon="103.3417581"><ele>2247.29</ele><time>2026-02-10T01:57:01.000Z</time></trkpt>
        <trkpt lat="29.549337" lon="103.3418801"><ele>2244.81</ele><time>2026-02-10T01:57:11.000Z</time></trkpt>
        <trkpt lat="29.549353" lon="103.3419971"><ele>2243.93</ele><time>2026-02-10T01:57:19.000Z</time></trkpt>
        <trkpt lat="29.549383" lon="103.3421206"><ele>2244.47</ele><time>2026-02-10T01:57:27.000Z</time></trkpt>
        <trkpt lat="29.549441" lon="103.3422229"><ele>2244.68</ele><time>2026-02-10T01:57:33.000Z</time></trkpt>
        <trkpt lat="29.5495155" lon="103.3423227"><ele>2244.92</ele><time>2026-02-10T01:57:41.000Z</time></trkpt>
        <trkpt lat="29.549587" lon="103.3424111"><ele>2245.01</ele><time>2026-02-10T01:57:47.000Z</time></trkpt>
        <trkpt lat="29.5496701" lon="103.3424986"><ele>2244.64</ele><time>2026-02-10T01:57:55.000Z</time></trkpt>
        <trkpt lat="29.5497441" lon="103.3425919"><ele>2243.63</ele><time>2026-02-10T01:58:03.000Z</time></trkpt>
        <trkpt lat="29.5498006" lon="103.3426826"><ele>2242.46</ele><time>2026-02-10T01:58:10.000Z</time></trkpt>
        <trkpt lat="29.5498484" lon="103.3427722"><ele>2241.59</ele><time>2026-02-10T01:58:16.000Z</time></trkpt>
        <trkpt lat="29.549892" lon="103.3428711"><ele>2240.57</ele><time>2026-02-10T01:58:22.000Z</time></trkpt>
        <trkpt lat="29.5499485" lon="103.3429828"><ele>2239.93</ele><time>2026-02-10T01:58:31.000Z</time></trkpt>
        <trkpt lat="29.5500122" lon="103.3430835"><ele>2239.17</ele><time>2026-02-10T01:58:37.000Z</time></trkpt>
        <trkpt lat="29.5500709" lon="103.3431723"><ele>2238.47</ele><time>2026-02-10T01:58:43.000Z</time></trkpt>
        <trkpt lat="29.5501546" lon="103.3432461"><ele>2237.98</ele><time>2026-02-10T01:58:49.000Z</time></trkpt>
        <trkpt lat="29.550231" lon="103.3433408"><ele>2237.4</ele><time>2026-02-10T01:58:57.000Z</time></trkpt>
        <trkpt lat="29.55029" lon="103.3434617"><ele>2236.61</ele><time>2026-02-10T01:59:07.000Z</time></trkpt>
        <trkpt lat="29.5503476" lon="103.3435756"><ele>2235.79</ele><time>2026-02-10T01:59:15.000Z</time></trkpt>
        <trkpt lat="29.5504265" lon="103.3436704"><ele>2234.94</ele><time>2026-02-10T01:59:23.000Z</time></trkpt>
        <trkpt lat="29.5504991" lon="103.3437554"><ele>2234.25</ele><time>2026-02-10T01:59:28.000Z</time></trkpt>
        <trkpt lat="29.55056" lon="103.3438376"><ele>2233.99</ele><time>2026-02-10T01:59:35.000Z</time></trkpt>
        <trkpt lat="29.5506304" lon="103.3439064"><ele>2233.47</ele><time>2026-02-10T01:59:41.000Z</time></trkpt>
        <trkpt lat="29.5507117" lon="103.343954"><ele>2233.09</ele><time>2026-02-10T01:59:49.000Z</time></trkpt>
        <trkpt lat="29.5507661" lon="103.3440395"><ele>2232.67</ele><time>2026-02-10T01:59:57.000Z</time></trkpt>
        <trkpt lat="29.5508362" lon="103.3441072"><ele>2232.1</ele><time>2026-02-10T02:00:03.000Z</time></trkpt>
        <trkpt lat="29.5509385" lon="103.3441453"><ele>2231.66</ele><time>2026-02-10T02:00:11.000Z</time></trkpt>
        <trkpt lat="29.5510384" lon="103.3441774"><ele>2231.59</ele><time>2026-02-10T02:00:19.000Z</time></trkpt>
        <trkpt lat="29.551149" lon="103.3441847"><ele>2231.28</ele><time>2026-02-10T02:00:33.000Z</time></trkpt>
        <trkpt lat="29.5512514" lon="103.3441813"><ele>2231.44</ele><time>2026-02-10T02:00:43.000Z</time></trkpt>
        <trkpt lat="29.551354" lon="103.3441754"><ele>2232.05</ele><time>2026-02-10T02:00:57.000Z</time></trkpt>
        <trkpt lat="29.551457" lon="103.3441935"><ele>2231.62</ele><time>2026-02-10T02:01:06.000Z</time></trkpt>
        <trkpt lat="29.5515497" lon="103.3442495"><ele>2234.32</ele><time>2026-02-10T02:01:15.000Z</time></trkpt>
        <trkpt lat="29.5516249" lon="103.3443238"><ele>2233.14</ele><time>2026-02-10T02:01:28.000Z</time></trkpt>
        <trkpt lat="29.5516959" lon="103.3444063"><ele>2231.92</ele><time>2026-02-10T02:01:37.000Z</time></trkpt>
        <trkpt lat="29.5517664" lon="103.3445047"><ele>2231.43</ele><time>2026-02-10T02:01:47.000Z</time></trkpt>
        <trkpt lat="29.5518253" lon="103.3445974"><ele>2231.68</ele><time>2026-02-10T02:01:54.000Z</time></trkpt>
        <trkpt lat="29.5518774" lon="103.3446902"><ele>2231.99</ele><time>2026-02-10T02:02:00.000Z</time></trkpt>
        <trkpt lat="29.5519445" lon="103.3447842"><ele>2232.68</ele><time>2026-02-10T02:02:09.000Z</time></trkpt>
        <trkpt lat="29.5520077" lon="103.3448759"><ele>2233.74</ele><time>2026-02-10T02:02:17.000Z</time></trkpt>
        <trkpt lat="29.5520334" lon="103.3449904"><ele>2235.16</ele><time>2026-02-10T02:02:30.000Z</time></trkpt>
        <trkpt lat="29.5520972" lon="103.3450701"><ele>2235.71</ele><time>2026-02-10T02:02:42.000Z</time></trkpt>
        <trkpt lat="29.5521681" lon="103.3451531"><ele>2235.89</ele><time>2026-02-10T02:02:51.000Z</time></trkpt>
        <trkpt lat="29.5522652" lon="103.3451671"><ele>2235.91</ele><time>2026-02-10T02:03:01.000Z</time></trkpt>
        <trkpt lat="29.552365" lon="103.3452079"><ele>2236.7</ele><time>2026-02-10T02:03:13.000Z</time></trkpt>
        <trkpt lat="29.5524234" lon="103.3452898"><ele>2236.86</ele><time>2026-02-10T02:03:21.000Z</time></trkpt>
        <trkpt lat="29.5524882" lon="103.3453823"><ele>2237.32</ele><time>2026-02-10T02:03:29.000Z</time></trkpt>
        <trkpt lat="29.5525784" lon="103.34542"><ele>2238.03</ele><time>2026-02-10T02:03:39.000Z</time></trkpt>
        <trkpt lat="29.5526781" lon="103.3454335"><ele>2238.93</ele><time>2026-02-10T02:03:49.000Z</time></trkpt>
        <trkpt lat="29.5527738" lon="103.3454393"><ele>2239.91</ele><time>2026-02-10T02:03:57.000Z</time></trkpt>
        <trkpt lat="29.5528706" lon="103.3454245"><ele>2240.7</ele><time>2026-02-10T02:04:05.000Z</time></trkpt>
        <trkpt lat="29.5529651" lon="103.3453963"><ele>2241.42</ele><time>2026-02-10T02:04:11.000Z</time></trkpt>
        <trkpt lat="29.5530649" lon="103.3453713"><ele>2241.88</ele><time>2026-02-10T02:04:19.000Z</time></trkpt>
        <trkpt lat="29.5531853" lon="103.3453611"><ele>2242.02</ele><time>2026-02-10T02:04:28.000Z</time></trkpt>
        <trkpt lat="29.5532968" lon="103.3453592"><ele>2241.46</ele><time>2026-02-10T02:04:35.000Z</time></trkpt>
        <trkpt lat="29.5533904" lon="103.3453374"><ele>2240.63</ele><time>2026-02-10T02:04:42.000Z</time></trkpt>
        <trkpt lat="29.553538" lon="103.3453231"><ele>2240.03</ele><time>2026-02-10T02:04:44.000Z</time></trkpt>
        <trkpt lat="29.5536915" lon="103.3453185"><ele>2241.62</ele><time>2026-02-10T02:04:50.000Z</time></trkpt>
        <trkpt lat="29.5538267" lon="103.3453503"><ele>2241.07</ele><time>2026-02-10T02:04:54.000Z</time></trkpt>
        <trkpt lat="29.5539474" lon="103.3454018"><ele>2239.37</ele><time>2026-02-10T02:04:58.000Z</time></trkpt>
        <trkpt lat="29.5540495" lon="103.3454513"><ele>2236.1</ele><time>2026-02-10T02:05:02.000Z</time></trkpt>
        <trkpt lat="29.5541392" lon="103.345456"><ele>2233.24</ele><time>2026-02-10T02:05:08.000Z</time></trkpt>
        <trkpt lat="29.5542259" lon="103.3454289"><ele>2230.21</ele><time>2026-02-10T02:05:23.000Z</time></trkpt>
        <trkpt lat="29.5543127" lon="103.3454083"><ele>2222.74</ele><time>2026-02-10T02:05:46.000Z</time></trkpt>
        <trkpt lat="29.5544218" lon="103.3453777"><ele>2218.5</ele><time>2026-02-10T02:05:55.000Z</time></trkpt>
        <trkpt lat="29.5545281" lon="103.3453465"><ele>2214.04</ele><time>2026-02-10T02:06:01.000Z</time></trkpt>
        <trkpt lat="29.5546242" lon="103.3452935"><ele>2208.92</ele><time>2026-02-10T02:06:09.000Z</time></trkpt>
        <trkpt lat="29.5547138" lon="103.3452939"><ele>2204.8</ele><time>2026-02-10T02:06:24.000Z</time></trkpt>
        <trkpt lat="29.5547692" lon="103.3452861"><ele>2199.61</ele><time>2026-02-10T02:06:36.000Z</time></trkpt>
        <trkpt lat="29.554834" lon="103.3452385"><ele>2195.32</ele><time>2026-02-10T02:06:50.000Z</time></trkpt>
        <trkpt lat="29.5549025" lon="103.3451749"><ele>2190.35</ele><time>2026-02-10T02:07:02.000Z</time></trkpt>
        <trkpt lat="29.554987" lon="103.3451403"><ele>2186.35</ele><time>2026-02-10T02:07:06.000Z</time></trkpt>
        <trkpt lat="29.5550848" lon="103.34512"><ele>2183.01</ele><time>2026-02-10T02:07:11.000Z</time></trkpt>
        <trkpt lat="29.5552009" lon="103.3450721"><ele>2179.99</ele><time>2026-02-10T02:07:15.000Z</time></trkpt>
        <trkpt lat="29.5553072" lon="103.3450091"><ele>2177.86</ele><time>2026-02-10T02:07:21.000Z</time></trkpt>
        <trkpt lat="29.55538" lon="103.3450561"><ele>2175.54</ele><time>2026-02-10T02:07:25.000Z</time></trkpt>
        <trkpt lat="29.5554668" lon="103.3450911"><ele>2173.13</ele><time>2026-02-10T02:07:36.000Z</time></trkpt>
        <trkpt lat="29.5555333" lon="103.3450383"><ele>2169.85</ele><time>2026-02-10T02:08:16.000Z</time></trkpt>
        <trkpt lat="29.5555926" lon="103.3449442"><ele>2165.2</ele><time>2026-02-10T02:08:37.000Z</time></trkpt>
        <trkpt lat="29.5556779" lon="103.3449394"><ele>2160.5</ele><time>2026-02-10T02:10:14.000Z</time></trkpt>
        <trkpt lat="29.5557769" lon="103.3449579"><ele>2153.83</ele><time>2026-02-10T02:10:35.000Z</time></trkpt>
        <trkpt lat="29.5558648" lon="103.3449132"><ele>2144.29</ele><time>2026-02-10T02:10:49.000Z</time></trkpt>
        <trkpt lat="29.5559246" lon="103.3448346"><ele>2137.6</ele><time>2026-02-10T02:10:59.000Z</time></trkpt>
        <trkpt lat="29.5559718" lon="103.3447373"><ele>2133.41</ele><time>2026-02-10T02:11:11.000Z</time></trkpt>
        <trkpt lat="29.5560237" lon="103.3446303"><ele>2130.35</ele><time>2026-02-10T02:11:21.000Z</time></trkpt>
        <trkpt lat="29.5560802" lon="103.3445404"><ele>2127.33</ele><time>2026-02-10T02:11:29.000Z</time></trkpt>
        <trkpt lat="29.5561503" lon="103.3444537"><ele>2124.11</ele><time>2026-02-10T02:11:38.000Z</time></trkpt>
        <trkpt lat="29.5562171" lon="103.3443735"><ele>2121.05</ele><time>2026-02-10T02:11:49.000Z</time></trkpt>
        <trkpt lat="29.556276" lon="103.3442816"><ele>2118.05</ele><time>2026-02-10T02:12:03.000Z</time></trkpt>
        <trkpt lat="29.5563492" lon="103.3442153"><ele>2114.96</ele><time>2026-02-10T02:12:13.000Z</time></trkpt>
        <trkpt lat="29.5564377" lon="103.344162"><ele>2112.42</ele><time>2026-02-10T02:12:34.000Z</time></trkpt>
        <trkpt lat="29.5565166" lon="103.3440934"><ele>2107.74</ele><time>2026-02-10T02:12:45.000Z</time></trkpt>
        <trkpt lat="29.5565166" lon="103.3440934"><ele>2107.74</ele><time>2026-02-10T02:12:57.000Z</time></trkpt>
        <trkpt lat="29.5565667" lon="103.3440044"><ele>2101.08</ele><time>2026-02-10T02:13:04.000Z</time></trkpt>
        <trkpt lat="29.5565667" lon="103.3440044"><ele>2101.08</ele><time>2026-02-10T02:13:14.000Z</time></trkpt>
        <trkpt lat="29.556586" lon="103.3439021"><ele>2097</ele><time>2026-02-10T02:13:28.000Z</time></trkpt>
        <trkpt lat="29.5566199" lon="103.3437959"><ele>2091.82</ele><time>2026-02-10T02:13:41.000Z</time></trkpt>
        <trkpt lat="29.5566813" lon="103.343704"><ele>2086.22</ele><time>2026-02-10T02:13:51.000Z</time></trkpt>
        <trkpt lat="29.5567734" lon="103.343683"><ele>2081.47</ele><time>2026-02-10T02:14:00.000Z</time></trkpt>
        <trkpt lat="29.5568821" lon="103.3436905"><ele>2077.87</ele><time>2026-02-10T02:14:13.000Z</time></trkpt>
        <trkpt lat="29.5569893" lon="103.3436758"><ele>2072.83</ele><time>2026-02-10T02:14:23.000Z</time></trkpt>
        <trkpt lat="29.5570854" lon="103.3436495"><ele>2067.97</ele><time>2026-02-10T02:14:33.000Z</time></trkpt>
        <trkpt lat="29.5571742" lon="103.3436076"><ele>2063.96</ele><time>2026-02-10T02:14:49.000Z</time></trkpt>
        <trkpt lat="29.557262" lon="103.3436093"><ele>2056.53</ele><time>2026-02-10T02:15:03.000Z</time></trkpt>
        <trkpt lat="29.5573625" lon="103.3436477"><ele>2051.87</ele><time>2026-02-10T02:15:19.000Z</time></trkpt>
        <trkpt lat="29.5574489" lon="103.3437122"><ele>2046.57</ele><time>2026-02-10T02:15:35.000Z</time></trkpt>
        <trkpt lat="29.5575266" lon="103.3438032"><ele>2042.18</ele><time>2026-02-10T02:15:41.000Z</time></trkpt>
        <trkpt lat="29.557595" lon="103.3437626"><ele>2039.57</ele><time>2026-02-10T02:16:06.000Z</time></trkpt>
        <trkpt lat="29.5576902" lon="103.3437386"><ele>2037.57</ele><time>2026-02-10T02:16:15.000Z</time></trkpt>
        <trkpt lat="29.5577823" lon="103.3437447"><ele>2036.51</ele><time>2026-02-10T02:16:25.000Z</time></trkpt>
        <trkpt lat="29.5577823" lon="103.3437447"><ele>2036.51</ele><time>2026-02-10T02:16:53.000Z</time></trkpt>
        <trkpt lat="29.5577823" lon="103.3437447"><ele>2036.51</ele><time>2026-02-10T02:17:12.000Z</time></trkpt>
        <trkpt lat="29.5577823" lon="103.3437447"><ele>2036.51</ele><time>2026-02-10T02:17:21.000Z</time></trkpt>
        <trkpt lat="29.5577823" lon="103.3437447"><ele>2036.51</ele><time>2026-02-10T02:17:36.000Z</time></trkpt>
        <trkpt lat="29.5577823" lon="103.3437447"><ele>2036.51</ele><time>2026-02-10T02:17:45.000Z</time></trkpt>
        <trkpt lat="29.5577823" lon="103.3437447"><ele>2036.51</ele><time>2026-02-10T02:18:08.000Z</time></trkpt>
        <trkpt lat="29.5577823" lon="103.3437447"><ele>2036.51</ele><time>2026-02-10T02:21:23.000Z</time></trkpt>
        <trkpt lat="29.5577823" lon="103.3437447"><ele>2036.51</ele><time>2026-02-10T02:21:30.000Z</time></trkpt>
        <trkpt lat="29.5577823" lon="103.3437447"><ele>2036.51</ele><time>2026-02-10T02:21:43.000Z</time></trkpt>
        <trkpt lat="29.5577823" lon="103.3437447"><ele>2036.51</ele><time>2026-02-10T02:21:54.000Z</time></trkpt>
        <trkpt lat="29.5577823" lon="103.3437447"><ele>2036.51</ele><time>2026-02-10T02:22:09.000Z</time></trkpt>
        <trkpt lat="29.5578858" lon="103.3437349"><ele>2036.3</ele><time>2026-02-10T02:22:20.000Z</time></trkpt>
        <trkpt lat="29.5578858" lon="103.3437349"><ele>2036.3</ele><time>2026-02-10T02:24:04.000Z</time></trkpt>
        <trkpt lat="29.5579798" lon="103.343735"><ele>2041.05</ele><time>2026-02-10T02:24:09.000Z</time></trkpt>
        <trkpt lat="29.558089" lon="103.3437706"><ele>2037.79</ele><time>2026-02-10T02:24:17.000Z</time></trkpt>
        <trkpt lat="29.5581878" lon="103.3437787"><ele>2036.44</ele><time>2026-02-10T02:24:23.000Z</time></trkpt>
        <trkpt lat="29.5582781" lon="103.3438057"><ele>2036.34</ele><time>2026-02-10T02:24:29.000Z</time></trkpt>
        <trkpt lat="29.5583675" lon="103.3438487"><ele>2037.11</ele><time>2026-02-10T02:24:37.000Z</time></trkpt>
        <trkpt lat="29.558449" lon="103.3439194"><ele>2037.3</ele><time>2026-02-10T02:24:45.000Z</time></trkpt>
        <trkpt lat="29.5584933" lon="103.3440333"><ele>2037.16</ele><time>2026-02-10T02:24:53.000Z</time></trkpt>
        <trkpt lat="29.5585495" lon="103.3441213"><ele>2035.92</ele><time>2026-02-10T02:25:17.000Z</time></trkpt>
        <trkpt lat="29.5586201" lon="103.3441955"><ele>2033.99</ele><time>2026-02-10T02:25:37.000Z</time></trkpt>
        <trkpt lat="29.5587119" lon="103.3442186"><ele>2030.53</ele><time>2026-02-10T02:25:49.000Z</time></trkpt>
        <trkpt lat="29.5587119" lon="103.3442186"><ele>2030.53</ele><time>2026-02-10T02:26:39.000Z</time></trkpt>
        <trkpt lat="29.5588132" lon="103.3442837"><ele>2026.9</ele><time>2026-02-10T02:26:40.000Z</time></trkpt>
        <trkpt lat="29.5588132" lon="103.3442837"><ele>2026.9</ele><time>2026-02-10T02:27:40.000Z</time></trkpt>
        <trkpt lat="29.55888" lon="103.3442029"><ele>2021.99</ele><time>2026-02-10T02:28:02.000Z</time></trkpt>
        <trkpt lat="29.5588887" lon="103.3441005"><ele>2017</ele><time>2026-02-10T02:28:16.000Z</time></trkpt>
        <trkpt lat="29.558956" lon="103.344101"><ele>2013.23</ele><time>2026-02-10T02:28:34.000Z</time></trkpt>
        <trkpt lat="29.5589507" lon="103.3440107"><ele>2008.04</ele><time>2026-02-10T02:28:42.000Z</time></trkpt>
        <trkpt lat="29.5589266" lon="103.3438931"><ele>2004.05</ele><time>2026-02-10T02:28:51.000Z</time></trkpt>
        <trkpt lat="29.5589034" lon="103.3437988"><ele>2002.87</ele><time>2026-02-10T02:28:55.000Z</time></trkpt>
        <trkpt lat="29.5589468" lon="103.343719"><ele>2001.14</ele><time>2026-02-10T02:29:13.000Z</time></trkpt>
        <trkpt lat="29.5590048" lon="103.343629"><ele>1999.06</ele><time>2026-02-10T02:29:29.000Z</time></trkpt>
        <trkpt lat="29.5590824" lon="103.3436489"><ele>1993.81</ele><time>2026-02-10T02:30:04.000Z</time></trkpt>
        <trkpt lat="29.5591651" lon="103.3437084"><ele>1989.31</ele><time>2026-02-10T02:30:46.000Z</time></trkpt>
        <trkpt lat="29.5592607" lon="103.3437284"><ele>1986.19</ele><time>2026-02-10T02:31:24.000Z</time></trkpt>
        <trkpt lat="29.5593048" lon="103.3436551"><ele>1981.86</ele><time>2026-02-10T02:31:38.000Z</time></trkpt>
        <trkpt lat="29.5593744" lon="103.3435886"><ele>1976.93</ele><time>2026-02-10T02:32:10.000Z</time></trkpt>
        <trkpt lat="29.559449" lon="103.3435245"><ele>1971.06</ele><time>2026-02-10T02:32:26.000Z</time></trkpt>
        <trkpt lat="29.5595382" lon="103.3435017"><ele>1965.41</ele><time>2026-02-10T02:32:44.000Z</time></trkpt>
        <trkpt lat="29.559633" lon="103.3435487"><ele>1959.86</ele><time>2026-02-10T02:32:56.000Z</time></trkpt>
        <trkpt lat="29.5597056" lon="103.3435021"><ele>1954.15</ele><time>2026-02-10T02:33:12.000Z</time></trkpt>
        <trkpt lat="29.5597781" lon="103.3435571"><ele>1948.35</ele><time>2026-02-10T02:33:23.000Z</time></trkpt>
        <trkpt lat="29.5598353" lon="103.3436438"><ele>1939.81</ele><time>2026-02-10T02:33:33.000Z</time></trkpt>
        <trkpt lat="29.5599067" lon="103.3437178"><ele>1934.11</ele><time>2026-02-10T02:33:48.000Z</time></trkpt>
        <trkpt lat="29.5599851" lon="103.3437886"><ele>1931.52</ele><time>2026-02-10T02:34:06.000Z</time></trkpt>
        <trkpt lat="29.5600645" lon="103.3438551"><ele>1927.6</ele><time>2026-02-10T02:34:14.000Z</time></trkpt>
        <trkpt lat="29.5601455" lon="103.343916"><ele>1923.83</ele><time>2026-02-10T02:34:30.000Z</time></trkpt>
        <trkpt lat="29.5601171" lon="103.3439942"><ele>1918.82</ele><time>2026-02-10T02:34:44.000Z</time></trkpt>
        <trkpt lat="29.5601171" lon="103.3439942"><ele>1918.82</ele><time>2026-02-10T02:35:17.000Z</time></trkpt>
        <trkpt lat="29.5601245" lon="103.3441004"><ele>1913</ele><time>2026-02-10T02:35:22.000Z</time></trkpt>
        <trkpt lat="29.5601245" lon="103.3441004"><ele>1913</ele><time>2026-02-10T02:35:58.000Z</time></trkpt>
        <trkpt lat="29.5600631" lon="103.3441893"><ele>1905.96</ele><time>2026-02-10T02:36:12.000Z</time></trkpt>
        <trkpt lat="29.5600563" lon="103.3442207"><ele>1900.93</ele><time>2026-02-10T02:36:20.000Z</time></trkpt>
        <trkpt lat="29.5601374" lon="103.3442497"><ele>1897.27</ele><time>2026-02-10T02:36:30.000Z</time></trkpt>
        <trkpt lat="29.5601778" lon="103.3443404"><ele>1893.48</ele><time>2026-02-10T02:36:51.000Z</time></trkpt>
        <trkpt lat="29.5601778" lon="103.3443404"><ele>1893.48</ele><time>2026-02-10T02:37:19.000Z</time></trkpt>
        <trkpt lat="29.5601778" lon="103.3443404"><ele>1893.48</ele><time>2026-02-10T02:37:48.000Z</time></trkpt>
        <trkpt lat="29.5601778" lon="103.3443404"><ele>1893.48</ele><time>2026-02-10T02:38:13.000Z</time></trkpt>
        <trkpt lat="29.5602992" lon="103.3444609"><ele>1885.68</ele><time>2026-02-10T02:38:32.000Z</time></trkpt>
        <trkpt lat="29.5602992" lon="103.3444609"><ele>1885.68</ele><time>2026-02-10T02:38:33.000Z</time></trkpt>
        <trkpt lat="29.5603815" lon="103.34452"><ele>1876.68</ele><time>2026-02-10T02:39:04.000Z</time></trkpt>
        <trkpt lat="29.560455" lon="103.3445895"><ele>1873.21</ele><time>2026-02-10T02:39:20.000Z</time></trkpt>
        <trkpt lat="29.5605445" lon="103.3446453"><ele>1867.75</ele><time>2026-02-10T02:39:30.000Z</time></trkpt>
        <trkpt lat="29.5606405" lon="103.3446859"><ele>1862.42</ele><time>2026-02-10T02:39:39.000Z</time></trkpt>
        <trkpt lat="29.5607217" lon="103.3447514"><ele>1856.99</ele><time>2026-02-10T02:39:54.000Z</time></trkpt>
        <trkpt lat="29.5607513" lon="103.3448554"><ele>1850.54</ele><time>2026-02-10T02:40:04.000Z</time></trkpt>
        <trkpt lat="29.5608144" lon="103.3449266"><ele>1845.17</ele><time>2026-02-10T02:40:24.000Z</time></trkpt>
        <trkpt lat="29.5608574" lon="103.3450154"><ele>1839.87</ele><time>2026-02-10T02:40:52.000Z</time></trkpt>
        <trkpt lat="29.5609345" lon="103.345074"><ele>1831.51</ele><time>2026-02-10T02:41:12.000Z</time></trkpt>
        <trkpt lat="29.561012" lon="103.3450378"><ele>1824.59</ele><time>2026-02-10T02:41:24.000Z</time></trkpt>
        <trkpt lat="29.5611138" lon="103.3450364"><ele>1818.67</ele><time>2026-02-10T02:41:45.000Z</time></trkpt>
        <trkpt lat="29.5612084" lon="103.3450736"><ele>1809.24</ele><time>2026-02-10T02:42:05.000Z</time></trkpt>
        <trkpt lat="29.5612337" lon="103.3450978"><ele>1800.33</ele><time>2026-02-10T02:42:11.000Z</time></trkpt>
        <trkpt lat="29.5612337" lon="103.3450978"><ele>1800.33</ele><time>2026-02-10T02:42:51.000Z</time></trkpt>
        <trkpt lat="29.5612337" lon="103.3450978"><ele>1800.33</ele><time>2026-02-10T02:42:56.000Z</time></trkpt>
        <trkpt lat="29.5612337" lon="103.3450978"><ele>1800.33</ele><time>2026-02-10T02:43:53.000Z</time></trkpt>
        <trkpt lat="29.5612337" lon="103.3450978"><ele>1800.33</ele><time>2026-02-10T02:44:16.000Z</time></trkpt>
        <trkpt lat="29.5612337" lon="103.3450978"><ele>1800.33</ele><time>2026-02-10T02:44:43.000Z</time></trkpt>
        <trkpt lat="29.5613446" lon="103.3451624"><ele>1794.51</ele><time>2026-02-10T02:45:02.000Z</time></trkpt>
        <trkpt lat="29.5613446" lon="103.3451624"><ele>1794.51</ele><time>2026-02-10T02:45:03.000Z</time></trkpt>
        <trkpt lat="29.5612489" lon="103.3451224"><ele>1787.97</ele><time>2026-02-10T02:45:07.000Z</time></trkpt>
        <trkpt lat="29.5612885" lon="103.3451789"><ele>1787.14</ele><time>2026-02-10T02:46:07.000Z</time></trkpt>
        <trkpt lat="29.5613633" lon="103.3452612"><ele>1785.89</ele><time>2026-02-10T02:46:17.000Z</time></trkpt>
        <trkpt lat="29.5614472" lon="103.3453494"><ele>1782.26</ele><time>2026-02-10T02:46:23.000Z</time></trkpt>
        <trkpt lat="29.5615055" lon="103.3454527"><ele>1775.99</ele><time>2026-02-10T02:46:31.000Z</time></trkpt>
        <trkpt lat="29.561578" lon="103.3455322"><ele>1773.27</ele><time>2026-02-10T02:47:40.000Z</time></trkpt>
        <trkpt lat="29.5616634" lon="103.3455912"><ele>1771.94</ele><time>2026-02-10T02:47:47.000Z</time></trkpt>
        <trkpt lat="29.5617711" lon="103.3456185"><ele>1771.81</ele><time>2026-02-10T02:47:55.000Z</time></trkpt>
        <trkpt lat="29.5618829" lon="103.3456075"><ele>1771.83</ele><time>2026-02-10T02:48:05.000Z</time></trkpt>
        <trkpt lat="29.5619934" lon="103.3456126"><ele>1771.35</ele><time>2026-02-10T02:48:15.000Z</time></trkpt>
        <trkpt lat="29.5620732" lon="103.3456756"><ele>1770.74</ele><time>2026-02-10T02:48:23.000Z</time></trkpt>
        <trkpt lat="29.5621292" lon="103.345769"><ele>1768.86</ele><time>2026-02-10T02:48:31.000Z</time></trkpt>
        <trkpt lat="29.5621752" lon="103.3458647"><ele>1766.49</ele><time>2026-02-10T02:48:37.000Z</time></trkpt>
        <trkpt lat="29.562231" lon="103.3459719"><ele>1765.07</ele><time>2026-02-10T02:48:45.000Z</time></trkpt>
        <trkpt lat="29.5622792" lon="103.3460822"><ele>1764.09</ele><time>2026-02-10T02:48:53.000Z</time></trkpt>
        <trkpt lat="29.5623351" lon="103.3461777"><ele>1763.47</ele><time>2026-02-10T02:49:01.000Z</time></trkpt>
        <trkpt lat="29.5624033" lon="103.346263"><ele>1763.46</ele><time>2026-02-10T02:49:09.000Z</time></trkpt>
        <trkpt lat="29.5624686" lon="103.3463504"><ele>1763.58</ele><time>2026-02-10T02:49:17.000Z</time></trkpt>
        <trkpt lat="29.56255" lon="103.3464083"><ele>1764.15</ele><time>2026-02-10T02:49:25.000Z</time></trkpt>
        <trkpt lat="29.5626453" lon="103.3464719"><ele>1765.22</ele><time>2026-02-10T02:49:33.000Z</time></trkpt>
        <trkpt lat="29.5627476" lon="103.3465148"><ele>1766.44</ele><time>2026-02-10T02:49:43.000Z</time></trkpt>
        <trkpt lat="29.5628341" lon="103.346587"><ele>1767.84</ele><time>2026-02-10T02:49:55.000Z</time></trkpt>
        <trkpt lat="29.5628988" lon="103.3466887"><ele>1768.75</ele><time>2026-02-10T02:50:05.000Z</time></trkpt>
        <trkpt lat="29.562963" lon="103.3467752"><ele>1768.96</ele><time>2026-02-10T02:50:13.000Z</time></trkpt>
        <trkpt lat="29.563026" lon="103.3468609"><ele>1769.6</ele><time>2026-02-10T02:50:29.000Z</time></trkpt>
        <trkpt lat="29.5630975" lon="103.3469394"><ele>1770.11</ele><time>2026-02-10T02:50:39.000Z</time></trkpt>
        <trkpt lat="29.5631642" lon="103.3470263"><ele>1770.86</ele><time>2026-02-10T02:50:49.000Z</time></trkpt>
        <trkpt lat="29.5632361" lon="103.3471077"><ele>1772.13</ele><time>2026-02-10T02:50:57.000Z</time></trkpt>
        <trkpt lat="29.5633176" lon="103.3471785"><ele>1773.25</ele><time>2026-02-10T02:51:05.000Z</time></trkpt>
        <trkpt lat="29.563402" lon="103.3472385"><ele>1774.12</ele><time>2026-02-10T02:51:13.000Z</time></trkpt>
        <trkpt lat="29.5634667" lon="103.3473203"><ele>1774.96</ele><time>2026-02-10T02:51:23.000Z</time></trkpt>
        <trkpt lat="29.5635109" lon="103.3474138"><ele>1775.33</ele><time>2026-02-10T02:51:31.000Z</time></trkpt>
        <trkpt lat="29.5635544" lon="103.3475163"><ele>1775.27</ele><time>2026-02-10T02:51:41.000Z</time></trkpt>
        <trkpt lat="29.5635802" lon="103.3476648"><ele>1774.67</ele><time>2026-02-10T02:51:58.000Z</time></trkpt>
        <trkpt lat="29.5635802" lon="103.3476648"><ele>1774.67</ele><time>2026-02-10T02:52:03.000Z</time></trkpt>
        <trkpt lat="29.5635802" lon="103.3476648"><ele>1774.67</ele><time>2026-02-10T02:52:08.000Z</time></trkpt>
        <trkpt lat="29.5635802" lon="103.3476648"><ele>1774.67</ele><time>2026-02-10T02:52:17.000Z</time></trkpt>
        <trkpt lat="29.5635055" lon="103.3477923"><ele>1777.97</ele><time>2026-02-10T02:52:32.000Z</time></trkpt>
        <trkpt lat="29.5635055" lon="103.3477923"><ele>1777.97</ele><time>2026-02-10T02:52:33.000Z</time></trkpt>
        <trkpt lat="29.5635513" lon="103.3477752"><ele>1779.33</ele><time>2026-02-10T02:52:37.000Z</time></trkpt>
        <trkpt lat="29.5635731" lon="103.3477851"><ele>1783.82</ele><time>2026-02-10T02:52:43.000Z</time></trkpt>
        <trkpt lat="29.563593" lon="103.3478698"><ele>1783.65</ele><time>2026-02-10T02:52:54.000Z</time></trkpt>
        <trkpt lat="29.5635552" lon="103.3479676"><ele>1783.45</ele><time>2026-02-10T02:53:07.000Z</time></trkpt>
        <trkpt lat="29.5634754" lon="103.3480599"><ele>1783.66</ele><time>2026-02-10T02:53:38.000Z</time></trkpt>
        <trkpt lat="29.5634133" lon="103.3481598"><ele>1783.46</ele><time>2026-02-10T02:53:45.000Z</time></trkpt>
        <trkpt lat="29.5633423" lon="103.3482702"><ele>1783.79</ele><time>2026-02-10T02:53:53.000Z</time></trkpt>
        <trkpt lat="29.5633157" lon="103.3483162"><ele>1784.33</ele><time>2026-02-10T02:53:55.000Z</time></trkpt>
        <trkpt lat="29.5632822" lon="103.3483988"><ele>1785.01</ele><time>2026-02-10T02:54:04.000Z</time></trkpt>
        <trkpt lat="29.5632437" lon="103.3485057"><ele>1784.79</ele><time>2026-02-10T02:54:11.000Z</time></trkpt>
        <trkpt lat="29.5632347" lon="103.3486186"><ele>1785.39</ele><time>2026-02-10T02:54:17.000Z</time></trkpt>
        <trkpt lat="29.5632374" lon="103.3487377"><ele>1785.96</ele><time>2026-02-10T02:54:25.000Z</time></trkpt>
        <trkpt lat="29.563245" lon="103.3488479"><ele>1785.05</ele><time>2026-02-10T02:54:33.000Z</time></trkpt>
        <trkpt lat="29.5632182" lon="103.348964"><ele>1784</ele><time>2026-02-10T02:54:41.000Z</time></trkpt>
        <trkpt lat="29.5632188" lon="103.3490798"><ele>1782.28</ele><time>2026-02-10T02:54:49.000Z</time></trkpt>
        <trkpt lat="29.5631855" lon="103.3491897"><ele>1780.74</ele><time>2026-02-10T02:54:57.000Z</time></trkpt>
        <trkpt lat="29.563134" lon="103.3492906"><ele>1779.1</ele><time>2026-02-10T02:55:05.000Z</time></trkpt>
        <trkpt lat="29.5630992" lon="103.3494039"><ele>1777.19</ele><time>2026-02-10T02:55:13.000Z</time></trkpt>
        <trkpt lat="29.5630477" lon="103.3494954"><ele>1775.49</ele><time>2026-02-10T02:55:19.000Z</time></trkpt>
        <trkpt lat="29.5629858" lon="103.3496029"><ele>1774.38</ele><time>2026-02-10T02:55:27.000Z</time></trkpt>
        <trkpt lat="29.5629301" lon="103.3497059"><ele>1773.85</ele><time>2026-02-10T02:55:33.000Z</time></trkpt>
        <trkpt lat="29.5628877" lon="103.3498196"><ele>1773.5</ele><time>2026-02-10T02:55:41.000Z</time></trkpt>
        <trkpt lat="29.5628697" lon="103.3499261"><ele>1772.96</ele><time>2026-02-10T02:55:47.000Z</time></trkpt>
        <trkpt lat="29.5628656" lon="103.3500464"><ele>1772.31</ele><time>2026-02-10T02:55:57.000Z</time></trkpt>
        <trkpt lat="29.5628503" lon="103.3501574"><ele>1771.93</ele><time>2026-02-10T02:56:05.000Z</time></trkpt>
        <trkpt lat="29.5628158" lon="103.3502651"><ele>1771.92</ele><time>2026-02-10T02:56:15.000Z</time></trkpt>
        <trkpt lat="29.5627885" lon="103.350378"><ele>1772.14</ele><time>2026-02-10T02:56:29.000Z</time></trkpt>
        <trkpt lat="29.5627763" lon="103.3504845"><ele>1772.53</ele><time>2026-02-10T02:56:43.000Z</time></trkpt>
        <trkpt lat="29.562763" lon="103.3505955"><ele>1774.01</ele><time>2026-02-10T02:56:55.000Z</time></trkpt>
        <trkpt lat="29.5627905" lon="103.350695"><ele>1774.59</ele><time>2026-02-10T02:57:01.000Z</time></trkpt>
        <trkpt lat="29.5628366" lon="103.3508047"><ele>1775.72</ele><time>2026-02-10T02:57:22.000Z</time></trkpt>
        <trkpt lat="29.5628366" lon="103.3508047"><ele>1775.72</ele><time>2026-02-10T02:58:59.000Z</time></trkpt>
        <trkpt lat="29.5628366" lon="103.3508047"><ele>1775.72</ele><time>2026-02-10T02:59:00.000Z</time></trkpt>
        <trkpt lat="29.5628366" lon="103.3508047"><ele>1775.72</ele><time>2026-02-10T02:59:33.000Z</time></trkpt>
        <trkpt lat="29.562825" lon="103.3509129"><ele>1780.49</ele><time>2026-02-10T02:59:34.000Z</time></trkpt>
        <trkpt lat="29.562825" lon="103.3509129"><ele>1780.49</ele><time>2026-02-10T03:00:01.000Z</time></trkpt>
        <trkpt lat="29.5628236" lon="103.3510208"><ele>1782.59</ele><time>2026-02-10T03:00:13.000Z</time></trkpt>
        <trkpt lat="29.562805" lon="103.3511421"><ele>1782.96</ele><time>2026-02-10T03:00:25.000Z</time></trkpt>
        <trkpt lat="29.5627557" lon="103.3512535"><ele>1782.44</ele><time>2026-02-10T03:00:37.000Z</time></trkpt>
        <trkpt lat="29.5627019" lon="103.3513632"><ele>1781.34</ele><time>2026-02-10T03:00:45.000Z</time></trkpt>
        <trkpt lat="29.5626561" lon="103.3514733"><ele>1780.95</ele><time>2026-02-10T03:00:53.000Z</time></trkpt>
        <trkpt lat="29.5626174" lon="103.351575"><ele>1779.83</ele><time>2026-02-10T03:01:01.000Z</time></trkpt>
        <trkpt lat="29.5625687" lon="103.3516661"><ele>1779.15</ele><time>2026-02-10T03:01:19.000Z</time></trkpt>
        <trkpt lat="29.5625022" lon="103.3517426"><ele>1776.55</ele><time>2026-02-10T03:01:38.000Z</time></trkpt>
        <trkpt lat="29.5625243" lon="103.3518314"><ele>1770.85</ele><time>2026-02-10T03:01:44.000Z</time></trkpt>
        <trkpt lat="29.5625699" lon="103.3519332"><ele>1766.44</ele><time>2026-02-10T03:01:53.000Z</time></trkpt>
        <trkpt lat="29.5626395" lon="103.3520226"><ele>1761.53</ele><time>2026-02-10T03:02:01.000Z</time></trkpt>
        <trkpt lat="29.5627021" lon="103.3521223"><ele>1758.48</ele><time>2026-02-10T03:02:10.000Z</time></trkpt>
        <trkpt lat="29.5626757" lon="103.3522069"><ele>1758.84</ele><time>2026-02-10T03:02:25.000Z</time></trkpt>
        <trkpt lat="29.562586" lon="103.3522328"><ele>1760.19</ele><time>2026-02-10T03:02:40.000Z</time></trkpt>
        <trkpt lat="29.5625584" lon="103.3521436"><ele>1759.29</ele><time>2026-02-10T03:02:54.000Z</time></trkpt>
        <trkpt lat="29.5624776" lon="103.3521112"><ele>1763.32</ele><time>2026-02-10T03:03:14.000Z</time></trkpt>
        <trkpt lat="29.5623858" lon="103.3520765"><ele>1764.79</ele><time>2026-02-10T03:03:28.000Z</time></trkpt>
        <trkpt lat="29.5622839" lon="103.352094"><ele>1763.83</ele><time>2026-02-10T03:03:44.000Z</time></trkpt>
        <trkpt lat="29.5621806" lon="103.3521057"><ele>1759.55</ele><time>2026-02-10T03:04:00.000Z</time></trkpt>
        <trkpt lat="29.5620817" lon="103.352128"><ele>1755.16</ele><time>2026-02-10T03:04:14.000Z</time></trkpt>
        <trkpt lat="29.5619877" lon="103.3521239"><ele>1750.12</ele><time>2026-02-10T03:04:28.000Z</time></trkpt>
        <trkpt lat="29.5619013" lon="103.3521483"><ele>1745.69</ele><time>2026-02-10T03:04:40.000Z</time></trkpt>
        <trkpt lat="29.5618067" lon="103.3521325"><ele>1740.81</ele><time>2026-02-10T03:05:00.000Z</time></trkpt>
        <trkpt lat="29.5617154" lon="103.3521053"><ele>1735.59</ele><time>2026-02-10T03:05:14.000Z</time></trkpt>
        <trkpt lat="29.5617437" lon="103.3520362"><ele>1733.16</ele><time>2026-02-10T03:05:24.000Z</time></trkpt>
        <trkpt lat="29.5616916" lon="103.3519853"><ele>1731.12</ele><time>2026-02-10T03:05:52.000Z</time></trkpt>
        <trkpt lat="29.5616248" lon="103.3519147"><ele>1724.98</ele><time>2026-02-10T03:06:04.000Z</time></trkpt>
        <trkpt lat="29.5615368" lon="103.3518779"><ele>1719.85</ele><time>2026-02-10T03:06:16.000Z</time></trkpt>
        <trkpt lat="29.561443" lon="103.3518663"><ele>1716.49</ele><time>2026-02-10T03:06:54.000Z</time></trkpt>
        <trkpt lat="29.5614234" lon="103.3517895"><ele>1710.2</ele><time>2026-02-10T03:07:14.000Z</time></trkpt>
        <trkpt lat="29.5614571" lon="103.3516893"><ele>1704.14</ele><time>2026-02-10T03:07:30.000Z</time></trkpt>
        <trkpt lat="29.561406" lon="103.3516473"><ele>1697.92</ele><time>2026-02-10T03:07:46.000Z</time></trkpt>
        <trkpt lat="29.5613331" lon="103.3515921"><ele>1691.9</ele><time>2026-02-10T03:08:12.000Z</time></trkpt>
        <trkpt lat="29.5612321" lon="103.3515948"><ele>1687.13</ele><time>2026-02-10T03:08:27.000Z</time></trkpt>
        <trkpt lat="29.5611201" lon="103.351583"><ele>1675.72</ele><time>2026-02-10T03:08:35.000Z</time></trkpt>
        <trkpt lat="29.5610206" lon="103.3515697"><ele>1670.83</ele><time>2026-02-10T03:08:45.000Z</time></trkpt>
        <trkpt lat="29.5609317" lon="103.3515338"><ele>1667.61</ele><time>2026-02-10T03:08:57.000Z</time></trkpt>
        <trkpt lat="29.560841" lon="103.3515027"><ele>1665.12</ele><time>2026-02-10T03:09:05.000Z</time></trkpt>
        <trkpt lat="29.5607433" lon="103.351525"><ele>1663.68</ele><time>2026-02-10T03:09:19.000Z</time></trkpt>
        <trkpt lat="29.5606502" lon="103.3515123"><ele>1661.98</ele><time>2026-02-10T03:09:25.000Z</time></trkpt>
        <trkpt lat="29.5605901" lon="103.351596"><ele>1660.47</ele><time>2026-02-10T03:09:33.000Z</time></trkpt>
        <trkpt lat="29.5605078" lon="103.3515794"><ele>1659.38</ele><time>2026-02-10T03:11:14.000Z</time></trkpt>
        <trkpt lat="29.5605625" lon="103.3514545"><ele>1654.57</ele><time>2026-02-10T03:11:26.000Z</time></trkpt>
        <trkpt lat="29.5606077" lon="103.3513533"><ele>1649.78</ele><time>2026-02-10T03:11:36.000Z</time></trkpt>
        <trkpt lat="29.5606772" lon="103.3512798"><ele>1645.27</ele><time>2026-02-10T03:11:47.000Z</time></trkpt>
        <trkpt lat="29.5607096" lon="103.3512519"><ele>1640.95</ele><time>2026-02-10T03:11:58.000Z</time></trkpt>
        <trkpt lat="29.5606459" lon="103.3512462"><ele>1637.55</ele><time>2026-02-10T03:12:16.000Z</time></trkpt>
        <trkpt lat="29.560594" lon="103.3511739"><ele>1635.38</ele><time>2026-02-10T03:12:50.000Z</time></trkpt>
        <trkpt lat="29.5606025" lon="103.3510781"><ele>1632.36</ele><time>2026-02-10T03:13:04.000Z</time></trkpt>
        <trkpt lat="29.5605422" lon="103.3510154"><ele>1630.79</ele><time>2026-02-10T03:13:30.000Z</time></trkpt>
        <trkpt lat="29.5604519" lon="103.3510301"><ele>1628.12</ele><time>2026-02-10T03:14:02.000Z</time></trkpt>
        <trkpt lat="29.5603537" lon="103.3510791"><ele>1621.6</ele><time>2026-02-10T03:14:16.000Z</time></trkpt>
        <trkpt lat="29.560252" lon="103.3511198"><ele>1615.95</ele><time>2026-02-10T03:14:40.000Z</time></trkpt>
        <trkpt lat="29.5602158" lon="103.3510491"><ele>1610.95</ele><time>2026-02-10T03:14:58.000Z</time></trkpt>
        <trkpt lat="29.5601982" lon="103.350943"><ele>1605.68</ele><time>2026-02-10T03:15:10.000Z</time></trkpt>
        <trkpt lat="29.5601837" lon="103.3508189"><ele>1601.58</ele><time>2026-02-10T03:15:24.000Z</time></trkpt>
        <trkpt lat="29.5602315" lon="103.3507102"><ele>1597.01</ele><time>2026-02-10T03:15:36.000Z</time></trkpt>
        <trkpt lat="29.5602206" lon="103.3505936"><ele>1591.31</ele><time>2026-02-10T03:16:22.000Z</time></trkpt>
        <trkpt lat="29.560176" lon="103.3504997"><ele>1586.05</ele><time>2026-02-10T03:16:46.000Z</time></trkpt>
        <trkpt lat="29.5600988" lon="103.3504222"><ele>1581.65</ele><time>2026-02-10T03:17:04.000Z</time></trkpt>
        <trkpt lat="29.5600218" lon="103.3503505"><ele>1574.57</ele><time>2026-02-10T03:17:16.000Z</time></trkpt>
        <trkpt lat="29.5599295" lon="103.3503331"><ele>1567.8</ele><time>2026-02-10T03:17:56.000Z</time></trkpt>
        <trkpt lat="29.5598352" lon="103.3503569"><ele>1560.24</ele><time>2026-02-10T03:18:18.000Z</time></trkpt>
        <trkpt lat="29.5597474" lon="103.3504161"><ele>1555.37</ele><time>2026-02-10T03:18:48.000Z</time></trkpt>
        <trkpt lat="29.5596608" lon="103.3504728"><ele>1547.28</ele><time>2026-02-10T03:19:04.000Z</time></trkpt>
        <trkpt lat="29.5595935" lon="103.3505498"><ele>1538.89</ele><time>2026-02-10T03:19:14.000Z</time></trkpt>
        <trkpt lat="29.5595124" lon="103.3506127"><ele>1533.77</ele><time>2026-02-10T03:19:24.000Z</time></trkpt>
        <trkpt lat="29.5594244" lon="103.35065"><ele>1530.16</ele><time>2026-02-10T03:19:39.000Z</time></trkpt>
        <trkpt lat="29.5594244" lon="103.35065"><ele>1530.16</ele><time>2026-02-10T03:20:05.000Z</time></trkpt>
        <trkpt lat="29.5594004" lon="103.3504636"><ele>1526.07</ele><time>2026-02-10T03:20:16.000Z</time></trkpt>
        <trkpt lat="29.5594004" lon="103.3504636"><ele>1526.07</ele><time>2026-02-10T03:20:17.000Z</time></trkpt>
        <trkpt lat="29.5594004" lon="103.3504636"><ele>1526.07</ele><time>2026-02-10T03:20:25.000Z</time></trkpt>
        <trkpt lat="29.5594007" lon="103.3508299"><ele>1525.08</ele><time>2026-02-10T03:22:00.000Z</time></trkpt>
        <trkpt lat="29.5594007" lon="103.3508299"><ele>1525.08</ele><time>2026-02-10T03:22:02.000Z</time></trkpt>
        <trkpt lat="29.5594007" lon="103.3508299"><ele>1525.08</ele><time>2026-02-10T03:22:09.000Z</time></trkpt>
        <trkpt lat="29.5593947" lon="103.3506494"><ele>1527.14</ele><time>2026-02-10T03:22:16.000Z</time></trkpt>
        <trkpt lat="29.5593947" lon="103.3506494"><ele>1527.14</ele><time>2026-02-10T03:22:16.000Z</time></trkpt>
        <trkpt lat="29.5593947" lon="103.3506494"><ele>1527.14</ele><time>2026-02-10T03:22:41.000Z</time></trkpt>
        <trkpt lat="29.5593947" lon="103.3506494"><ele>1527.14</ele><time>2026-02-10T03:22:46.000Z</time></trkpt>
        <trkpt lat="29.5593947" lon="103.3506494"><ele>1527.14</ele><time>2026-02-10T03:23:23.000Z</time></trkpt>
        <trkpt lat="29.5593868" lon="103.350533"><ele>1525.62</ele><time>2026-02-10T03:23:28.000Z</time></trkpt>
        <trkpt lat="29.5593868" lon="103.350533"><ele>1525.62</ele><time>2026-02-10T03:23:28.000Z</time></trkpt>
        <trkpt lat="29.5593868" lon="103.350533"><ele>1525.62</ele><time>2026-02-10T03:23:47.000Z</time></trkpt>
        <trkpt lat="29.5593868" lon="103.350533"><ele>1525.62</ele><time>2026-02-10T03:23:50.000Z</time></trkpt>
        <trkpt lat="29.5593868" lon="103.350533"><ele>1525.62</ele><time>2026-02-10T03:24:13.000Z</time></trkpt>
        <trkpt lat="29.5593868" lon="103.350533"><ele>1525.62</ele><time>2026-02-10T03:24:16.000Z</time></trkpt>
        <trkpt lat="29.5593868" lon="103.350533"><ele>1525.62</ele><time>2026-02-10T03:26:15.000Z</time></trkpt>
        <trkpt lat="29.5593868" lon="103.350533"><ele>1525.62</ele><time>2026-02-10T03:26:40.000Z</time></trkpt>
        <trkpt lat="29.5593868" lon="103.350533"><ele>1525.62</ele><time>2026-02-10T03:26:51.000Z</time></trkpt>
        <trkpt lat="29.5594258" lon="103.3506281"><ele>1524.52</ele><time>2026-02-10T03:27:08.000Z</time></trkpt>
        <trkpt lat="29.5594258" lon="103.3506281"><ele>1524.52</ele><time>2026-02-10T03:27:46.000Z</time></trkpt>
        <trkpt lat="29.5594258" lon="103.3506281"><ele>1524.52</ele><time>2026-02-10T03:28:23.000Z</time></trkpt>
        <trkpt lat="29.5594258" lon="103.3506281"><ele>1524.52</ele><time>2026-02-10T03:28:28.000Z</time></trkpt>
        <trkpt lat="29.5594258" lon="103.3506281"><ele>1524.52</ele><time>2026-02-10T03:29:15.000Z</time></trkpt>
        <trkpt lat="29.5595647" lon="103.350671"><ele>1526.23</ele><time>2026-02-10T03:30:36.000Z</time></trkpt>
        <trkpt lat="29.5595647" lon="103.350671"><ele>1526.23</ele><time>2026-02-10T03:30:38.000Z</time></trkpt>
        <trkpt lat="29.559541" lon="103.3506267"><ele>1525.23</ele><time>2026-02-10T03:30:40.000Z</time></trkpt>
        <trkpt lat="29.559541" lon="103.3506267"><ele>1525.23</ele><time>2026-02-10T03:31:39.000Z</time></trkpt>
        <trkpt lat="29.559541" lon="103.3506267"><ele>1525.23</ele><time>2026-02-10T03:31:46.000Z</time></trkpt>
        <trkpt lat="29.559541" lon="103.3506267"><ele>1525.23</ele><time>2026-02-10T03:32:17.000Z</time></trkpt>
        <trkpt lat="29.5596286" lon="103.3507245"><ele>1517.99</ele><time>2026-02-10T03:32:52.000Z</time></trkpt>
        <trkpt lat="29.5596286" lon="103.3507245"><ele>1517.99</ele><time>2026-02-10T03:32:52.000Z</time></trkpt>
        <trkpt lat="29.5596286" lon="103.3507245"><ele>1517.99</ele><time>2026-02-10T03:33:43.000Z</time></trkpt>
        <trkpt lat="29.5595235" lon="103.3507049"><ele>1535.72</ele><time>2026-02-10T03:33:50.000Z</time></trkpt>
        <trkpt lat="29.5595235" lon="103.3507049"><ele>1535.72</ele><time>2026-02-10T03:34:10.000Z</time></trkpt>
        <trkpt lat="29.5594318" lon="103.3507774"><ele>1541.44</ele><time>2026-02-10T03:34:20.000Z</time></trkpt>
        <trkpt lat="29.5594318" lon="103.3507774"><ele>1541.44</ele><time>2026-02-10T03:34:43.000Z</time></trkpt>
        <trkpt lat="29.5594318" lon="103.3507774"><ele>1541.44</ele><time>2026-02-10T03:34:46.000Z</time></trkpt>
        <trkpt lat="29.5594318" lon="103.3507774"><ele>1541.44</ele><time>2026-02-10T03:35:01.000Z</time></trkpt>
        <trkpt lat="29.5593409" lon="103.350789"><ele>1541.32</ele><time>2026-02-10T03:35:08.000Z</time></trkpt>
        <trkpt lat="29.5593409" lon="103.350789"><ele>1541.32</ele><time>2026-02-10T03:35:18.000Z</time></trkpt>
        <trkpt lat="29.5592468" lon="103.3508112"><ele>1539.58</ele><time>2026-02-10T03:35:36.000Z</time></trkpt>
        <trkpt lat="29.5591584" lon="103.3508642"><ele>1537.42</ele><time>2026-02-10T03:35:46.000Z</time></trkpt>
        <trkpt lat="29.5590644" lon="103.3509177"><ele>1537.09</ele><time>2026-02-10T03:35:55.000Z</time></trkpt>
        <trkpt lat="29.559015" lon="103.3510115"><ele>1538.15</ele><time>2026-02-10T03:37:18.000Z</time></trkpt>
        <trkpt lat="29.5589372" lon="103.3510905"><ele>1535.92</ele><time>2026-02-10T03:37:27.000Z</time></trkpt>
        <trkpt lat="29.5588522" lon="103.3511646"><ele>1531.96</ele><time>2026-02-10T03:37:35.000Z</time></trkpt>
        <trkpt lat="29.558752" lon="103.3512057"><ele>1530.34</ele><time>2026-02-10T03:37:45.000Z</time></trkpt>
        <trkpt lat="29.5586602" lon="103.3512419"><ele>1529.75</ele><time>2026-02-10T03:37:59.000Z</time></trkpt>
        <trkpt lat="29.5585708" lon="103.3512969"><ele>1530.02</ele><time>2026-02-10T03:38:07.000Z</time></trkpt>
        <trkpt lat="29.5584795" lon="103.3513489"><ele>1530.22</ele><time>2026-02-10T03:38:15.000Z</time></trkpt>
        <trkpt lat="29.5583906" lon="103.3513949"><ele>1530.45</ele><time>2026-02-10T03:38:26.000Z</time></trkpt>
        <trkpt lat="29.5582934" lon="103.3514289"><ele>1531.24</ele><time>2026-02-10T03:38:39.000Z</time></trkpt>
        <trkpt lat="29.5581946" lon="103.3514736"><ele>1531.96</ele><time>2026-02-10T03:38:59.000Z</time></trkpt>
        <trkpt lat="29.5580912" lon="103.3514905"><ele>1532.44</ele><time>2026-02-10T03:39:11.000Z</time></trkpt>
        <trkpt lat="29.5579989" lon="103.3514736"><ele>1532.78</ele><time>2026-02-10T03:39:19.000Z</time></trkpt>
        <trkpt lat="29.5579067" lon="103.3514366"><ele>1532.78</ele><time>2026-02-10T03:39:29.000Z</time></trkpt>
        <trkpt lat="29.5578116" lon="103.351436"><ele>1531.77</ele><time>2026-02-10T03:39:39.000Z</time></trkpt>
        <trkpt lat="29.5577117" lon="103.3514299"><ele>1530.65</ele><time>2026-02-10T03:39:48.000Z</time></trkpt>
        <trkpt lat="29.5576218" lon="103.351464"><ele>1529.33</ele><time>2026-02-10T03:40:01.000Z</time></trkpt>
        <trkpt lat="29.5575751" lon="103.3515583"><ele>1527.88</ele><time>2026-02-10T03:40:19.000Z</time></trkpt>
        <trkpt lat="29.5576078" lon="103.3516974"><ele>1527.16</ele><time>2026-02-10T03:40:37.000Z</time></trkpt>
        <trkpt lat="29.5575755" lon="103.3517942"><ele>1532.84</ele><time>2026-02-10T03:41:10.000Z</time></trkpt>
        <trkpt lat="29.557543" lon="103.3519053"><ele>1536.1</ele><time>2026-02-10T03:41:32.000Z</time></trkpt>
        <trkpt lat="29.557523" lon="103.3520182"><ele>1540.65</ele><time>2026-02-10T03:41:46.000Z</time></trkpt>
        <trkpt lat="29.5574903" lon="103.3521188"><ele>1545.48</ele><time>2026-02-10T03:42:06.000Z</time></trkpt>
        <trkpt lat="29.5574372" lon="103.3522063"><ele>1547.81</ele><time>2026-02-10T03:42:28.000Z</time></trkpt>
        <trkpt lat="29.5573637" lon="103.3522796"><ele>1550.33</ele><time>2026-02-10T03:42:44.000Z</time></trkpt>
        <trkpt lat="29.5573637" lon="103.3522796"><ele>1550.33</ele><time>2026-02-10T03:43:09.000Z</time></trkpt>
        <trkpt lat="29.5573066" lon="103.3523715"><ele>1553.48</ele><time>2026-02-10T03:43:16.000Z</time></trkpt>
        <trkpt lat="29.5573066" lon="103.3523715"><ele>1553.48</ele><time>2026-02-10T03:44:20.000Z</time></trkpt>
        <trkpt lat="29.5572293" lon="103.3524251"><ele>1556.74</ele><time>2026-02-10T03:44:31.000Z</time></trkpt>
        <trkpt lat="29.557144" lon="103.3524837"><ele>1558.35</ele><time>2026-02-10T03:44:50.000Z</time></trkpt>
        <trkpt lat="29.5570648" lon="103.3525573"><ele>1560.02</ele><time>2026-02-10T03:45:18.000Z</time></trkpt>
        <trkpt lat="29.5569746" lon="103.3526149"><ele>1560.7</ele><time>2026-02-10T03:45:28.000Z</time></trkpt>
        <trkpt lat="29.5569746" lon="103.3526149"><ele>1560.7</ele><time>2026-02-10T03:46:01.000Z</time></trkpt>
        <trkpt lat="29.556902" lon="103.3526921"><ele>1561.41</ele><time>2026-02-10T03:46:04.000Z</time></trkpt>
        <trkpt lat="29.556902" lon="103.3526921"><ele>1561.41</ele><time>2026-02-10T03:46:10.000Z</time></trkpt>
        <trkpt lat="29.5568664" lon="103.3527995"><ele>1563.68</ele><time>2026-02-10T03:46:26.000Z</time></trkpt>
        <trkpt lat="29.5568168" lon="103.352914"><ele>1566.83</ele><time>2026-02-10T03:46:37.000Z</time></trkpt>
        <trkpt lat="29.556752" lon="103.3530006"><ele>1568.97</ele><time>2026-02-10T03:47:04.000Z</time></trkpt>
        <trkpt lat="29.556691" lon="103.3530806"><ele>1570.56</ele><time>2026-02-10T03:47:16.000Z</time></trkpt>
        <trkpt lat="29.5566242" lon="103.3531494"><ele>1573.13</ele><time>2026-02-10T03:47:28.000Z</time></trkpt>
        <trkpt lat="29.556561" lon="103.3532346"><ele>1575.51</ele><time>2026-02-10T03:47:38.000Z</time></trkpt>
        <trkpt lat="29.5564974" lon="103.3533323"><ele>1577.22</ele><time>2026-02-10T03:47:50.000Z</time></trkpt>
        <trkpt lat="29.5564406" lon="103.3534283"><ele>1581.51</ele><time>2026-02-10T03:48:02.000Z</time></trkpt>
        <trkpt lat="29.5563686" lon="103.3535058"><ele>1586.17</ele><time>2026-02-10T03:48:14.000Z</time></trkpt>
        <trkpt lat="29.5562838" lon="103.3535676"><ele>1589.75</ele><time>2026-02-10T03:48:25.000Z</time></trkpt>
        <trkpt lat="29.5561863" lon="103.3535719"><ele>1592.44</ele><time>2026-02-10T03:48:38.000Z</time></trkpt>
        <trkpt lat="29.5560912" lon="103.3535447"><ele>1592.32</ele><time>2026-02-10T03:48:48.000Z</time></trkpt>
        <trkpt lat="29.5559946" lon="103.3534961"><ele>1591.21</ele><time>2026-02-10T03:48:56.000Z</time></trkpt>
        <trkpt lat="29.555902" lon="103.3534328"><ele>1588.99</ele><time>2026-02-10T03:49:02.000Z</time></trkpt>
        <trkpt lat="29.5557929" lon="103.353364"><ele>1586.74</ele><time>2026-02-10T03:49:12.000Z</time></trkpt>
        <trkpt lat="29.5556979" lon="103.3533199"><ele>1586.88</ele><time>2026-02-10T03:49:19.000Z</time></trkpt>
        <trkpt lat="29.5556027" lon="103.3533048"><ele>1588.66</ele><time>2026-02-10T03:49:25.000Z</time></trkpt>
        <trkpt lat="29.5555132" lon="103.3533321"><ele>1588.99</ele><time>2026-02-10T03:49:43.000Z</time></trkpt>
        <trkpt lat="29.5554198" lon="103.3533426"><ele>1587.46</ele><time>2026-02-10T03:49:53.000Z</time></trkpt>
        <trkpt lat="29.5553284" lon="103.3533275"><ele>1586.86</ele><time>2026-02-10T03:50:03.000Z</time></trkpt>
        <trkpt lat="29.5552355" lon="103.3533241"><ele>1586.15</ele><time>2026-02-10T03:50:11.000Z</time></trkpt>
        <trkpt lat="29.5551446" lon="103.3533574"><ele>1585.82</ele><time>2026-02-10T03:50:29.000Z</time></trkpt>
        <trkpt lat="29.5550856" lon="103.3534502"><ele>1586.06</ele><time>2026-02-10T03:50:40.000Z</time></trkpt>
        <trkpt lat="29.5550297" lon="103.353542"><ele>1590.05</ele><time>2026-02-10T03:51:04.000Z</time></trkpt>
        <trkpt lat="29.5549651" lon="103.3536295"><ele>1591.59</ele><time>2026-02-10T03:51:38.000Z</time></trkpt>
        <trkpt lat="29.5548934" lon="103.3537231"><ele>1595.72</ele><time>2026-02-10T03:52:04.000Z</time></trkpt>
        <trkpt lat="29.5548016" lon="103.3537532"><ele>1600.09</ele><time>2026-02-10T03:52:22.000Z</time></trkpt>
        <trkpt lat="29.5547019" lon="103.3537119"><ele>1603.98</ele><time>2026-02-10T03:52:34.000Z</time></trkpt>
        <trkpt lat="29.5546579" lon="103.3536042"><ele>1605.87</ele><time>2026-02-10T03:52:44.000Z</time></trkpt>
        <trkpt lat="29.5546412" lon="103.3534814"><ele>1605.45</ele><time>2026-02-10T03:52:52.000Z</time></trkpt>
        <trkpt lat="29.5545892" lon="103.3533704"><ele>1604.88</ele><time>2026-02-10T03:53:07.000Z</time></trkpt>
        <trkpt lat="29.5545844" lon="103.3532428"><ele>1606.31</ele><time>2026-02-10T03:53:21.000Z</time></trkpt>
        <trkpt lat="29.5545382" lon="103.3531548"><ele>1610.45</ele><time>2026-02-10T03:53:29.000Z</time></trkpt>
        <trkpt lat="29.5544775" lon="103.3530427"><ele>1611.4</ele><time>2026-02-10T03:54:03.000Z</time></trkpt>
        <trkpt lat="29.5544382" lon="103.3529257"><ele>1609.27</ele><time>2026-02-10T03:54:13.000Z</time></trkpt>
        <trkpt lat="29.5544581" lon="103.3528025"><ele>1607.23</ele><time>2026-02-10T03:54:25.000Z</time></trkpt>
        <trkpt lat="29.5544056" lon="103.3526976"><ele>1604.72</ele><time>2026-02-10T03:54:31.000Z</time></trkpt>
        <trkpt lat="29.5543148" lon="103.3526593"><ele>1602.77</ele><time>2026-02-10T03:54:39.000Z</time></trkpt>
        <trkpt lat="29.5542075" lon="103.3526638"><ele>1601.45</ele><time>2026-02-10T03:54:55.000Z</time></trkpt>
        <trkpt lat="29.5540972" lon="103.3526842"><ele>1598.7</ele><time>2026-02-10T03:55:03.000Z</time></trkpt>
        <trkpt lat="29.5539976" lon="103.3526926"><ele>1596.53</ele><time>2026-02-10T03:55:15.000Z</time></trkpt>
        <trkpt lat="29.5539179" lon="103.3526436"><ele>1594.83</ele><time>2026-02-10T03:55:25.000Z</time></trkpt>
        <trkpt lat="29.5538445" lon="103.3525589"><ele>1593.05</ele><time>2026-02-10T03:55:33.000Z</time></trkpt>
        <trkpt lat="29.5537641" lon="103.3524973"><ele>1591.16</ele><time>2026-02-10T03:55:39.000Z</time></trkpt>
        <trkpt lat="29.5536656" lon="103.3525033"><ele>1590.16</ele><time>2026-02-10T03:55:47.000Z</time></trkpt>
        <trkpt lat="29.5535659" lon="103.3525403"><ele>1588.91</ele><time>2026-02-10T03:55:55.000Z</time></trkpt>
        <trkpt lat="29.5534678" lon="103.3525704"><ele>1587.27</ele><time>2026-02-10T03:56:03.000Z</time></trkpt>
        <trkpt lat="29.5533736" lon="103.3526076"><ele>1586.26</ele><time>2026-02-10T03:56:19.000Z</time></trkpt>
        <trkpt lat="29.5532811" lon="103.3526538"><ele>1585.82</ele><time>2026-02-10T03:56:33.000Z</time></trkpt>
        <trkpt lat="29.5531873" lon="103.3526507"><ele>1586</ele><time>2026-02-10T03:56:45.000Z</time></trkpt>
        <trkpt lat="29.5530811" lon="103.3526487"><ele>1585.96</ele><time>2026-02-10T03:56:53.000Z</time></trkpt>
        <trkpt lat="29.5530322" lon="103.3525717"><ele>1585.68</ele><time>2026-02-10T03:57:07.000Z</time></trkpt>
        <trkpt lat="29.5530367" lon="103.3524634"><ele>1584.04</ele><time>2026-02-10T03:57:17.000Z</time></trkpt>
        <trkpt lat="29.5529999" lon="103.3523541"><ele>1582.56</ele><time>2026-02-10T03:57:25.000Z</time></trkpt>
        <trkpt lat="29.5529165" lon="103.3523139"><ele>1580.68</ele><time>2026-02-10T03:57:29.000Z</time></trkpt>
        <trkpt lat="29.552821" lon="103.3522869"><ele>1579.26</ele><time>2026-02-10T03:57:35.000Z</time></trkpt>
        <trkpt lat="29.5527167" lon="103.3522828"><ele>1578.29</ele><time>2026-02-10T03:57:41.000Z</time></trkpt>
        <trkpt lat="29.5526254" lon="103.3523212"><ele>1576.96</ele><time>2026-02-10T03:57:51.000Z</time></trkpt>
        <trkpt lat="29.5525599" lon="103.352402"><ele>1574.26</ele><time>2026-02-10T03:58:01.000Z</time></trkpt>
        <trkpt lat="29.5524847" lon="103.3523928"><ele>1571.75</ele><time>2026-02-10T03:58:15.000Z</time></trkpt>
        <trkpt lat="29.552413" lon="103.3523299"><ele>1569.9</ele><time>2026-02-10T03:58:29.000Z</time></trkpt>
        <trkpt lat="29.5523272" lon="103.3523076"><ele>1567.7</ele><time>2026-02-10T03:58:33.000Z</time></trkpt>
        <trkpt lat="29.5522379" lon="103.3523266"><ele>1566.59</ele><time>2026-02-10T03:58:43.000Z</time></trkpt>
        <trkpt lat="29.5521977" lon="103.3524126"><ele>1566.47</ele><time>2026-02-10T03:59:00.000Z</time></trkpt>
        <trkpt lat="29.5521699" lon="103.3525188"><ele>1569.74</ele><time>2026-02-10T03:59:56.000Z</time></trkpt>
        <trkpt lat="29.5521699" lon="103.3525188"><ele>1569.74</ele><time>2026-02-10T04:00:29.000Z</time></trkpt>
        <trkpt lat="29.5521807" lon="103.3526302"><ele>1573</ele><time>2026-02-10T04:00:32.000Z</time></trkpt>
        <trkpt lat="29.5521807" lon="103.3526302"><ele>1573</ele><time>2026-02-10T04:00:40.000Z</time></trkpt>
        <trkpt lat="29.5522147" lon="103.3527413"><ele>1576.08</ele><time>2026-02-10T04:01:08.000Z</time></trkpt>
        <trkpt lat="29.5522147" lon="103.3527413"><ele>1576.08</ele><time>2026-02-10T04:01:31.000Z</time></trkpt>
        <trkpt lat="29.5521593" lon="103.3527742"><ele>1578.14</ele><time>2026-02-10T04:01:32.000Z</time></trkpt>
        <trkpt lat="29.5521593" lon="103.3527742"><ele>1578.14</ele><time>2026-02-10T04:01:52.000Z</time></trkpt>
        <trkpt lat="29.5521593" lon="103.3527742"><ele>1578.14</ele><time>2026-02-10T04:02:11.000Z</time></trkpt>
        <trkpt lat="29.5520675" lon="103.3527666"><ele>1580.71</ele><time>2026-02-10T04:02:14.000Z</time></trkpt>
        <trkpt lat="29.5520675" lon="103.3527666"><ele>1580.71</ele><time>2026-02-10T04:02:24.000Z</time></trkpt>
        <trkpt lat="29.5520675" lon="103.3527666"><ele>1580.71</ele><time>2026-02-10T04:03:07.000Z</time></trkpt>
        <trkpt lat="29.551967" lon="103.352751"><ele>1583.6</ele><time>2026-02-10T04:03:10.000Z</time></trkpt>
        <trkpt lat="29.551967" lon="103.352751"><ele>1583.6</ele><time>2026-02-10T04:03:12.000Z</time></trkpt>
        <trkpt lat="29.551967" lon="103.352751"><ele>1583.6</ele><time>2026-02-10T04:03:53.000Z</time></trkpt>
        <trkpt lat="29.5518827" lon="103.3527936"><ele>1589.61</ele><time>2026-02-10T04:03:58.000Z</time></trkpt>
        <trkpt lat="29.5518827" lon="103.3527936"><ele>1589.61</ele><time>2026-02-10T04:04:00.000Z</time></trkpt>
        <trkpt lat="29.5518827" lon="103.3527936"><ele>1589.61</ele><time>2026-02-10T04:04:39.000Z</time></trkpt>
        <trkpt lat="29.5518614" lon="103.3529067"><ele>1597.09</ele><time>2026-02-10T04:04:48.000Z</time></trkpt>
        <trkpt lat="29.5518614" lon="103.3529067"><ele>1597.09</ele><time>2026-02-10T04:05:02.000Z</time></trkpt>
        <trkpt lat="29.5518187" lon="103.3530032"><ele>1602.4</ele><time>2026-02-10T04:05:16.000Z</time></trkpt>
        <trkpt lat="29.5518151" lon="103.3531242"><ele>1610.31</ele><time>2026-02-10T04:05:27.000Z</time></trkpt>
        <trkpt lat="29.5517823" lon="103.3532282"><ele>1615.28</ele><time>2026-02-10T04:05:42.000Z</time></trkpt>
        <trkpt lat="29.5517502" lon="103.3533402"><ele>1619.44</ele><time>2026-02-10T04:05:56.000Z</time></trkpt>
        <trkpt lat="29.5517179" lon="103.3534489"><ele>1622.28</ele><time>2026-02-10T04:06:14.000Z</time></trkpt>
        <trkpt lat="29.5517097" lon="103.3535656"><ele>1623.53</ele><time>2026-02-10T04:06:26.000Z</time></trkpt>
        <trkpt lat="29.5517454" lon="103.3536802"><ele>1625.91</ele><time>2026-02-10T04:06:52.000Z</time></trkpt>
        <trkpt lat="29.5518015" lon="103.3537728"><ele>1628.43</ele><time>2026-02-10T04:07:00.000Z</time></trkpt>
        <trkpt lat="29.5518433" lon="103.3538704"><ele>1629.75</ele><time>2026-02-10T04:07:15.000Z</time></trkpt>
        <trkpt lat="29.5518433" lon="103.3538704"><ele>1629.75</ele><time>2026-02-10T04:07:39.000Z</time></trkpt>
        <trkpt lat="29.5518433" lon="103.3538704"><ele>1629.75</ele><time>2026-02-10T04:07:40.000Z</time></trkpt>
        <trkpt lat="29.5518433" lon="103.3538704"><ele>1629.75</ele><time>2026-02-10T04:07:51.000Z</time></trkpt>
        <trkpt lat="29.5521354" lon="103.3536497"><ele>1626.35</ele><time>2026-02-10T04:08:32.000Z</time></trkpt>
        <trkpt lat="29.5521354" lon="103.3536497"><ele>1626.35</ele><time>2026-02-10T04:08:33.000Z</time></trkpt>
        <trkpt lat="29.5519717" lon="103.353949"><ele>1625.2</ele><time>2026-02-10T04:08:41.000Z</time></trkpt>
        <trkpt lat="29.5519717" lon="103.353949"><ele>1625.2</ele><time>2026-02-10T04:08:59.000Z</time></trkpt>
        <trkpt lat="29.5519717" lon="103.353949"><ele>1625.2</ele><time>2026-02-10T04:09:00.000Z</time></trkpt>
        <trkpt lat="29.5519717" lon="103.353949"><ele>1625.2</ele><time>2026-02-10T04:09:21.000Z</time></trkpt>
        <trkpt lat="29.5519717" lon="103.353949"><ele>1625.2</ele><time>2026-02-10T04:09:30.000Z</time></trkpt>
        <trkpt lat="29.5519717" lon="103.353949"><ele>1625.2</ele><time>2026-02-10T04:09:43.000Z</time></trkpt>
        <trkpt lat="29.5519717" lon="103.353949"><ele>1625.2</ele><time>2026-02-10T04:09:48.000Z</time></trkpt>
        <trkpt lat="29.5519717" lon="103.353949"><ele>1625.2</ele><time>2026-02-10T04:09:59.000Z</time></trkpt>
        <trkpt lat="29.5522848" lon="103.3541624"><ele>1629.53</ele><time>2026-02-10T04:10:10.000Z</time></trkpt>
        <trkpt lat="29.5522848" lon="103.3541624"><ele>1629.53</ele><time>2026-02-10T04:10:13.000Z</time></trkpt>
        <trkpt lat="29.5522848" lon="103.3541624"><ele>1629.53</ele><time>2026-02-10T04:10:19.000Z</time></trkpt>
        <trkpt lat="29.5519044" lon="103.3539914"><ele>1634.5</ele><time>2026-02-10T04:10:26.000Z</time></trkpt>
        <trkpt lat="29.5519044" lon="103.3539914"><ele>1634.5</ele><time>2026-02-10T04:10:26.000Z</time></trkpt>
        <trkpt lat="29.5519044" lon="103.3539914"><ele>1634.5</ele><time>2026-02-10T04:10:39.000Z</time></trkpt>
        <trkpt lat="29.5519044" lon="103.3539914"><ele>1634.5</ele><time>2026-02-10T04:10:44.000Z</time></trkpt>
        <trkpt lat="29.5519044" lon="103.3539914"><ele>1634.5</ele><time>2026-02-10T04:13:27.000Z</time></trkpt>
        <trkpt lat="29.5519044" lon="103.3539914"><ele>1634.5</ele><time>2026-02-10T04:13:28.000Z</time></trkpt>
        <trkpt lat="29.5519044" lon="103.3539914"><ele>1634.5</ele><time>2026-02-10T04:14:09.000Z</time></trkpt>
        <trkpt lat="29.5519044" lon="103.3539914"><ele>1634.5</ele><time>2026-02-10T04:14:18.000Z</time></trkpt>
        <trkpt lat="29.5519044" lon="103.3539914"><ele>1634.5</ele><time>2026-02-10T04:14:49.000Z</time></trkpt>
        <trkpt lat="29.5516597" lon="103.3537378"><ele>1637.08</ele><time>2026-02-10T04:15:00.000Z</time></trkpt>
        <trkpt lat="29.5516597" lon="103.3537378"><ele>1637.08</ele><time>2026-02-10T04:15:01.000Z</time></trkpt>
        <trkpt lat="29.5516597" lon="103.3537378"><ele>1637.08</ele><time>2026-02-10T04:15:09.000Z</time></trkpt>
        <trkpt lat="29.5520246" lon="103.3539615"><ele>1636</ele><time>2026-02-10T04:15:12.000Z</time></trkpt>
        <trkpt lat="29.5520246" lon="103.3539615"><ele>1636</ele><time>2026-02-10T04:15:12.000Z</time></trkpt>
        <trkpt lat="29.5520246" lon="103.3539615"><ele>1636</ele><time>2026-02-10T04:15:55.000Z</time></trkpt>
        <trkpt lat="29.5520246" lon="103.3539615"><ele>1636</ele><time>2026-02-10T04:16:06.000Z</time></trkpt>
        <trkpt lat="29.5520246" lon="103.3539615"><ele>1636</ele><time>2026-02-10T04:16:33.000Z</time></trkpt>
        <trkpt lat="29.5520246" lon="103.3539615"><ele>1636</ele><time>2026-02-10T04:16:40.000Z</time></trkpt>
        <trkpt lat="29.5520246" lon="103.3539615"><ele>1636</ele><time>2026-02-10T04:17:13.000Z</time></trkpt>
        <trkpt lat="29.5520246" lon="103.3539615"><ele>1636</ele><time>2026-02-10T04:17:18.000Z</time></trkpt>
        <trkpt lat="29.5520246" lon="103.3539615"><ele>1636</ele><time>2026-02-10T04:17:45.000Z</time></trkpt>
        <trkpt lat="29.551892" lon="103.3539662"><ele>1644.9</ele><time>2026-02-10T04:19:24.000Z</time></trkpt>
        <trkpt lat="29.551892" lon="103.3539662"><ele>1644.9</ele><time>2026-02-10T04:19:25.000Z</time></trkpt>
        <trkpt lat="29.5519023" lon="103.354038"><ele>1653.03</ele><time>2026-02-10T04:19:31.000Z</time></trkpt>
        <trkpt lat="29.5519023" lon="103.354038"><ele>1653.03</ele><time>2026-02-10T04:21:11.000Z</time></trkpt>
        <trkpt lat="29.5516867" lon="103.3536686"><ele>1651.13</ele><time>2026-02-10T04:22:24.000Z</time></trkpt>
        <trkpt lat="29.5516867" lon="103.3536686"><ele>1651.13</ele><time>2026-02-10T04:22:26.000Z</time></trkpt>
        <trkpt lat="29.5518397" lon="103.3537814"><ele>1648.26</ele><time>2026-02-10T04:22:30.000Z</time></trkpt>
        <trkpt lat="29.5518627" lon="103.3538719"><ele>1645.77</ele><time>2026-02-10T04:22:32.000Z</time></trkpt>
        <trkpt lat="29.5518627" lon="103.3538719"><ele>1645.77</ele><time>2026-02-10T04:22:35.000Z</time></trkpt>
        <trkpt lat="29.5518627" lon="103.3538719"><ele>1645.77</ele><time>2026-02-10T04:22:44.000Z</time></trkpt>
        <trkpt lat="29.5518627" lon="103.3538719"><ele>1645.77</ele><time>2026-02-10T04:22:55.000Z</time></trkpt>
        <trkpt lat="29.5518627" lon="103.3538719"><ele>1645.77</ele><time>2026-02-10T04:22:56.000Z</time></trkpt>
        <trkpt lat="29.5518627" lon="103.3538719"><ele>1645.77</ele><time>2026-02-10T04:23:13.000Z</time></trkpt>
        <trkpt lat="29.5522844" lon="103.3537191"><ele>1641.51</ele><time>2026-02-10T04:23:46.000Z</time></trkpt>
        <trkpt lat="29.5522844" lon="103.3537191"><ele>1641.51</ele><time>2026-02-10T04:23:47.000Z</time></trkpt>
        <trkpt lat="29.5519231" lon="103.3539231"><ele>1635.21</ele><time>2026-02-10T04:23:57.000Z</time></trkpt>
        <trkpt lat="29.5518695" lon="103.3540472"><ele>1633.25</ele><time>2026-02-10T04:24:18.000Z</time></trkpt>
        <trkpt lat="29.5518167" lon="103.3541429"><ele>1631.66</ele><time>2026-02-10T04:24:32.000Z</time></trkpt>
        <trkpt lat="29.5517806" lon="103.3542372"><ele>1630.87</ele><time>2026-02-10T04:24:43.000Z</time></trkpt>
        <trkpt lat="29.5517838" lon="103.3543412"><ele>1630.86</ele><time>2026-02-10T04:24:56.000Z</time></trkpt>
        <trkpt lat="29.5517502" lon="103.3544333"><ele>1630.74</ele><time>2026-02-10T04:25:13.000Z</time></trkpt>
        <trkpt lat="29.5516894" lon="103.3545038"><ele>1629.67</ele><time>2026-02-10T04:25:25.000Z</time></trkpt>
        <trkpt lat="29.5516161" lon="103.3545702"><ele>1628.44</ele><time>2026-02-10T04:25:35.000Z</time></trkpt>
        <trkpt lat="29.5516316" lon="103.3546632"><ele>1627.73</ele><time>2026-02-10T04:25:44.000Z</time></trkpt>
        <trkpt lat="29.5516112" lon="103.3547599"><ele>1629.25</ele><time>2026-02-10T04:26:10.000Z</time></trkpt>
        <trkpt lat="29.5515708" lon="103.3548583"><ele>1633.12</ele><time>2026-02-10T04:26:32.000Z</time></trkpt>
        <trkpt lat="29.5515398" lon="103.3549599"><ele>1636.38</ele><time>2026-02-10T04:26:42.000Z</time></trkpt>
        <trkpt lat="29.551483" lon="103.3550549"><ele>1641.01</ele><time>2026-02-10T04:26:56.000Z</time></trkpt>
        <trkpt lat="29.5514181" lon="103.3551449"><ele>1643.89</ele><time>2026-02-10T04:27:06.000Z</time></trkpt>
        <trkpt lat="29.5513695" lon="103.3552377"><ele>1645.8</ele><time>2026-02-10T04:27:30.000Z</time></trkpt>
        <trkpt lat="29.5513273" lon="103.3553303"><ele>1647.59</ele><time>2026-02-10T04:28:08.000Z</time></trkpt>
        <trkpt lat="29.5512841" lon="103.3554273"><ele>1648.8</ele><time>2026-02-10T04:28:32.000Z</time></trkpt>
        <trkpt lat="29.5512841" lon="103.3554273"><ele>1648.8</ele><time>2026-02-10T04:29:01.000Z</time></trkpt>
        <trkpt lat="29.5512092" lon="103.3554996"><ele>1650.92</ele><time>2026-02-10T04:29:06.000Z</time></trkpt>
        <trkpt lat="29.5512092" lon="103.3554996"><ele>1650.92</ele><time>2026-02-10T04:29:16.000Z</time></trkpt>
        <trkpt lat="29.5511355" lon="103.3555795"><ele>1653.85</ele><time>2026-02-10T04:29:52.000Z</time></trkpt>
        <trkpt lat="29.5510367" lon="103.3556294"><ele>1656.34</ele><time>2026-02-10T04:30:12.000Z</time></trkpt>
        <trkpt lat="29.5509403" lon="103.3556497"><ele>1659.23</ele><time>2026-02-10T04:30:34.000Z</time></trkpt>
        <trkpt lat="29.5509403" lon="103.3556497"><ele>1659.23</ele><time>2026-02-10T04:30:49.000Z</time></trkpt>
        <trkpt lat="29.5508601" lon="103.3557131"><ele>1661.75</ele><time>2026-02-10T04:30:50.000Z</time></trkpt>
        <trkpt lat="29.5508601" lon="103.3557131"><ele>1661.75</ele><time>2026-02-10T04:31:00.000Z</time></trkpt>
        <trkpt lat="29.5507813" lon="103.3557837"><ele>1662.73</ele><time>2026-02-10T04:31:30.000Z</time></trkpt>
        <trkpt lat="29.5506795" lon="103.355816"><ele>1664.67</ele><time>2026-02-10T04:31:52.000Z</time></trkpt>
        <trkpt lat="29.5505838" lon="103.355823"><ele>1668.24</ele><time>2026-02-10T04:32:12.000Z</time></trkpt>
        <trkpt lat="29.5504872" lon="103.3558059"><ele>1671.96</ele><time>2026-02-10T04:32:38.000Z</time></trkpt>
        <trkpt lat="29.5504872" lon="103.3558059"><ele>1671.96</ele><time>2026-02-10T04:32:55.000Z</time></trkpt>
        <trkpt lat="29.5503861" lon="103.3557965"><ele>1675.31</ele><time>2026-02-10T04:33:02.000Z</time></trkpt>
        <trkpt lat="29.5503861" lon="103.3557965"><ele>1675.31</ele><time>2026-02-10T04:33:18.000Z</time></trkpt>
        <trkpt lat="29.550302" lon="103.3558538"><ele>1677.77</ele><time>2026-02-10T04:33:58.000Z</time></trkpt>
        <trkpt lat="29.5502517" lon="103.3559585"><ele>1681.66</ele><time>2026-02-10T04:34:16.000Z</time></trkpt>
        <trkpt lat="29.5502175" lon="103.3560768"><ele>1685.47</ele><time>2026-02-10T04:34:30.000Z</time></trkpt>
        <trkpt lat="29.5502026" lon="103.3561959"><ele>1687.57</ele><time>2026-02-10T04:34:48.000Z</time></trkpt>
        <trkpt lat="29.5501705" lon="103.3562973"><ele>1689.67</ele><time>2026-02-10T04:35:00.000Z</time></trkpt>
        <trkpt lat="29.5501227" lon="103.3563846"><ele>1690.26</ele><time>2026-02-10T04:35:10.000Z</time></trkpt>
        <trkpt lat="29.5500518" lon="103.3564528"><ele>1691.58</ele><time>2026-02-10T04:35:28.000Z</time></trkpt>
        <trkpt lat="29.5499721" lon="103.3565153"><ele>1693.15</ele><time>2026-02-10T04:36:04.000Z</time></trkpt>
        <trkpt lat="29.5499665" lon="103.3566076"><ele>1693.99</ele><time>2026-02-10T04:36:18.000Z</time></trkpt>
        <trkpt lat="29.5499819" lon="103.3567172"><ele>1694.54</ele><time>2026-02-10T04:36:56.000Z</time></trkpt>
        <trkpt lat="29.549977" lon="103.3568427"><ele>1694.93</ele><time>2026-02-10T04:37:11.000Z</time></trkpt>
        <trkpt lat="29.5500199" lon="103.3569614"><ele>1692.51</ele><time>2026-02-10T04:37:42.000Z</time></trkpt>
        <trkpt lat="29.5500199" lon="103.3569614"><ele>1692.51</ele><time>2026-02-10T04:38:21.000Z</time></trkpt>
        <trkpt lat="29.5501051" lon="103.3570014"><ele>1697.03</ele><time>2026-02-10T04:38:36.000Z</time></trkpt>
        <trkpt lat="29.5501051" lon="103.3570014"><ele>1697.03</ele><time>2026-02-10T04:38:37.000Z</time></trkpt>
        <trkpt lat="29.5501036" lon="103.3570119"><ele>1698.56</ele><time>2026-02-10T04:38:43.000Z</time></trkpt>
        <trkpt lat="29.5501036" lon="103.3570119"><ele>1698.56</ele><time>2026-02-10T04:38:51.000Z</time></trkpt>
        <trkpt lat="29.5501036" lon="103.3570119"><ele>1698.56</ele><time>2026-02-10T04:38:52.000Z</time></trkpt>
        <trkpt lat="29.5501036" lon="103.3570119"><ele>1698.56</ele><time>2026-02-10T04:39:13.000Z</time></trkpt>
        <trkpt lat="29.5501036" lon="103.3570119"><ele>1698.56</ele><time>2026-02-10T04:39:22.000Z</time></trkpt>
        <trkpt lat="29.5501036" lon="103.3570119"><ele>1698.56</ele><time>2026-02-10T04:39:31.000Z</time></trkpt>
        <trkpt lat="29.5501036" lon="103.3570119"><ele>1698.56</ele><time>2026-02-10T04:39:32.000Z</time></trkpt>
        <trkpt lat="29.5501036" lon="103.3570119"><ele>1698.56</ele><time>2026-02-10T04:40:15.000Z</time></trkpt>
        <trkpt lat="29.5501036" lon="103.3570119"><ele>1698.56</ele><time>2026-02-10T04:40:18.000Z</time></trkpt>
        <trkpt lat="29.5501036" lon="103.3570119"><ele>1698.56</ele><time>2026-02-10T04:40:39.000Z</time></trkpt>
        <trkpt lat="29.5501036" lon="103.3570119"><ele>1698.56</ele><time>2026-02-10T04:40:46.000Z</time></trkpt>
        <trkpt lat="29.5501036" lon="103.3570119"><ele>1698.56</ele><time>2026-02-10T04:40:59.000Z</time></trkpt>
        <trkpt lat="29.5497517" lon="103.3567577"><ele>1696.46</ele><time>2026-02-10T04:42:20.000Z</time></trkpt>
        <trkpt lat="29.5497517" lon="103.3567577"><ele>1696.46</ele><time>2026-02-10T04:42:22.000Z</time></trkpt>
        <trkpt lat="29.5499823" lon="103.3570231"><ele>1699.78</ele><time>2026-02-10T04:42:30.000Z</time></trkpt>
        <trkpt lat="29.5499823" lon="103.3570231"><ele>1699.78</ele><time>2026-02-10T04:42:49.000Z</time></trkpt>
        <trkpt lat="29.5499202" lon="103.3568842"><ele>1705.22</ele><time>2026-02-10T04:44:44.000Z</time></trkpt>
        <trkpt lat="29.5499202" lon="103.3568842"><ele>1705.22</ele><time>2026-02-10T04:44:51.000Z</time></trkpt>
        <trkpt lat="29.5500102" lon="103.3568482"><ele>1702.11</ele><time>2026-02-10T04:45:12.000Z</time></trkpt>
        <trkpt lat="29.5500102" lon="103.3568482"><ele>1702.11</ele><time>2026-02-10T04:45:41.000Z</time></trkpt>
        <trkpt lat="29.5499813" lon="103.35725"><ele>1701.62</ele><time>2026-02-10T04:45:52.000Z</time></trkpt>
        <trkpt lat="29.5499813" lon="103.35725"><ele>1701.62</ele><time>2026-02-10T04:45:54.000Z</time></trkpt>
        <trkpt lat="29.550003" lon="103.3570326"><ele>1703.34</ele><time>2026-02-10T04:45:58.000Z</time></trkpt>
        <trkpt lat="29.5499417" lon="103.3569765"><ele>1704.42</ele><time>2026-02-10T04:46:28.000Z</time></trkpt>
        <trkpt lat="29.550006" lon="103.356953"><ele>1704.61</ele><time>2026-02-10T04:47:45.000Z</time></trkpt>
        <trkpt lat="29.5501147" lon="103.3569025"><ele>1701.14</ele><time>2026-02-10T04:47:57.000Z</time></trkpt>
        <trkpt lat="29.5502147" lon="103.3568934"><ele>1699.57</ele><time>2026-02-10T04:48:09.000Z</time></trkpt>
        <trkpt lat="29.5503207" lon="103.3569174"><ele>1698.72</ele><time>2026-02-10T04:48:23.000Z</time></trkpt>
        <trkpt lat="29.5504043" lon="103.3569895"><ele>1697.78</ele><time>2026-02-10T04:48:36.000Z</time></trkpt>
        <trkpt lat="29.5504367" lon="103.3571109"><ele>1697.02</ele><time>2026-02-10T04:48:47.000Z</time></trkpt>
        <trkpt lat="29.5504256" lon="103.3572376"><ele>1694.95</ele><time>2026-02-10T04:48:59.000Z</time></trkpt>
        <trkpt lat="29.5504301" lon="103.3573592"><ele>1694.43</ele><time>2026-02-10T04:49:15.000Z</time></trkpt>
        <trkpt lat="29.5504179" lon="103.3574786"><ele>1692.81</ele><time>2026-02-10T04:49:29.000Z</time></trkpt>
        <trkpt lat="29.5504129" lon="103.3575892"><ele>1691.26</ele><time>2026-02-10T04:49:37.000Z</time></trkpt>
        <trkpt lat="29.5504129" lon="103.3575892"><ele>1691.26</ele><time>2026-02-10T04:50:05.000Z</time></trkpt>
        <trkpt lat="29.5504094" lon="103.3577105"><ele>1690.34</ele><time>2026-02-10T04:50:12.000Z</time></trkpt>
        <trkpt lat="29.5504094" lon="103.3577105"><ele>1690.34</ele><time>2026-02-10T04:50:16.000Z</time></trkpt>
        <trkpt lat="29.5503941" lon="103.3578369"><ele>1689.55</ele><time>2026-02-10T04:50:37.000Z</time></trkpt>
        <trkpt lat="29.5503706" lon="103.357959"><ele>1687.78</ele><time>2026-02-10T04:50:48.000Z</time></trkpt>
        <trkpt lat="29.5503259" lon="103.3580746"><ele>1685.34</ele><time>2026-02-10T04:50:58.000Z</time></trkpt>
        <trkpt lat="29.5502754" lon="103.3581927"><ele>1682.68</ele><time>2026-02-10T04:51:07.000Z</time></trkpt>
        <trkpt lat="29.5502755" lon="103.358303"><ele>1679.22</ele><time>2026-02-10T04:51:17.000Z</time></trkpt>
        <trkpt lat="29.5503034" lon="103.3584213"><ele>1675.31</ele><time>2026-02-10T04:51:27.000Z</time></trkpt>
        <trkpt lat="29.5502853" lon="103.3585237"><ele>1672.75</ele><time>2026-02-10T04:51:41.000Z</time></trkpt>
        <trkpt lat="29.5502652" lon="103.3586293"><ele>1670.02</ele><time>2026-02-10T04:52:01.000Z</time></trkpt>
        <trkpt lat="29.5502556" lon="103.3587371"><ele>1666.96</ele><time>2026-02-10T04:52:11.000Z</time></trkpt>
        <trkpt lat="29.5502554" lon="103.3588485"><ele>1664.26</ele><time>2026-02-10T04:52:21.000Z</time></trkpt>
        <trkpt lat="29.5502562" lon="103.3589564"><ele>1661.76</ele><time>2026-02-10T04:52:35.000Z</time></trkpt>
        <trkpt lat="29.5502612" lon="103.3590734"><ele>1659.38</ele><time>2026-02-10T04:52:43.000Z</time></trkpt>
        <trkpt lat="29.5501933" lon="103.3591248"><ele>1657.57</ele><time>2026-02-10T04:52:51.000Z</time></trkpt>
        <trkpt lat="29.5500972" lon="103.3591607"><ele>1655.76</ele><time>2026-02-10T04:52:59.000Z</time></trkpt>
        <trkpt lat="29.5500193" lon="103.3592353"><ele>1653.39</ele><time>2026-02-10T04:53:05.000Z</time></trkpt>
        <trkpt lat="29.5499378" lon="103.3592946"><ele>1651.28</ele><time>2026-02-10T04:53:15.000Z</time></trkpt>
        <trkpt lat="29.5498593" lon="103.3593672"><ele>1649.52</ele><time>2026-02-10T04:53:25.000Z</time></trkpt>
        <trkpt lat="29.5498402" lon="103.3594732"><ele>1647.74</ele><time>2026-02-10T04:53:41.000Z</time></trkpt>
        <trkpt lat="29.5498638" lon="103.359592"><ele>1645.26</ele><time>2026-02-10T04:54:01.000Z</time></trkpt>
        <trkpt lat="29.5499262" lon="103.3596984"><ele>1642.16</ele><time>2026-02-10T04:54:13.000Z</time></trkpt>
        <trkpt lat="29.5499898" lon="103.3597896"><ele>1638.37</ele><time>2026-02-10T04:54:23.000Z</time></trkpt>
        <trkpt lat="29.5500547" lon="103.3598757"><ele>1635.3</ele><time>2026-02-10T04:54:35.000Z</time></trkpt>
        <trkpt lat="29.5501029" lon="103.3599745"><ele>1631.78</ele><time>2026-02-10T04:54:51.000Z</time></trkpt>
        <trkpt lat="29.5501461" lon="103.3600746"><ele>1627.81</ele><time>2026-02-10T04:55:01.000Z</time></trkpt>
        <trkpt lat="29.5501519" lon="103.3601796"><ele>1624.58</ele><time>2026-02-10T04:55:13.000Z</time></trkpt>
        <trkpt lat="29.5501095" lon="103.3602761"><ele>1620.98</ele><time>2026-02-10T04:55:23.000Z</time></trkpt>
        <trkpt lat="29.5500601" lon="103.3603734"><ele>1618.2</ele><time>2026-02-10T04:55:31.000Z</time></trkpt>
        <trkpt lat="29.5499988" lon="103.3604634"><ele>1616.1</ele><time>2026-02-10T04:55:41.000Z</time></trkpt>
        <trkpt lat="29.5499505" lon="103.3605574"><ele>1615.01</ele><time>2026-02-10T04:55:51.000Z</time></trkpt>
        <trkpt lat="29.5498975" lon="103.360663"><ele>1614.28</ele><time>2026-02-10T04:55:59.000Z</time></trkpt>
        <trkpt lat="29.5498493" lon="103.3607656"><ele>1613.89</ele><time>2026-02-10T04:56:13.000Z</time></trkpt>
        <trkpt lat="29.549846" lon="103.3608758"><ele>1613.95</ele><time>2026-02-10T04:56:29.000Z</time></trkpt>
        <trkpt lat="29.5498806" lon="103.3609791"><ele>1612.85</ele><time>2026-02-10T04:56:39.000Z</time></trkpt>
        <trkpt lat="29.5499114" lon="103.3610894"><ele>1610.09</ele><time>2026-02-10T04:56:45.000Z</time></trkpt>
        <trkpt lat="29.5499705" lon="103.3611971"><ele>1608.31</ele><time>2026-02-10T04:56:57.000Z</time></trkpt>
        <trkpt lat="29.5500591" lon="103.3612603"><ele>1607.01</ele><time>2026-02-10T04:57:07.000Z</time></trkpt>
        <trkpt lat="29.5501495" lon="103.361306"><ele>1606.25</ele><time>2026-02-10T04:57:19.000Z</time></trkpt>
        <trkpt lat="29.5502311" lon="103.3613633"><ele>1604.9</ele><time>2026-02-10T04:57:37.000Z</time></trkpt>
        <trkpt lat="29.5502997" lon="103.3614468"><ele>1602.79</ele><time>2026-02-10T04:57:49.000Z</time></trkpt>
        <trkpt lat="29.5503729" lon="103.3615155"><ele>1600.36</ele><time>2026-02-10T04:57:59.000Z</time></trkpt>
        <trkpt lat="29.5503651" lon="103.3616138"><ele>1598.61</ele><time>2026-02-10T04:58:15.000Z</time></trkpt>
        <trkpt lat="29.5504183" lon="103.3616773"><ele>1596.45</ele><time>2026-02-10T04:58:27.000Z</time></trkpt>
        <trkpt lat="29.5504754" lon="103.3617554"><ele>1593.83</ele><time>2026-02-10T04:58:37.000Z</time></trkpt>
        <trkpt lat="29.5505387" lon="103.3618417"><ele>1591.01</ele><time>2026-02-10T04:58:49.000Z</time></trkpt>
        <trkpt lat="29.5505905" lon="103.3619346"><ele>1587.79</ele><time>2026-02-10T04:59:00.000Z</time></trkpt>
        <trkpt lat="29.5505806" lon="103.3620359"><ele>1584.81</ele><time>2026-02-10T04:59:11.000Z</time></trkpt>
        <trkpt lat="29.5505658" lon="103.3621472"><ele>1582.13</ele><time>2026-02-10T04:59:21.000Z</time></trkpt>
        <trkpt lat="29.5505949" lon="103.3622468"><ele>1579.74</ele><time>2026-02-10T04:59:41.000Z</time></trkpt>
        <trkpt lat="29.5506411" lon="103.3623599"><ele>1576.19</ele><time>2026-02-10T05:00:03.000Z</time></trkpt>
        <trkpt lat="29.5506729" lon="103.3624756"><ele>1572.09</ele><time>2026-02-10T05:00:19.000Z</time></trkpt>
        <trkpt lat="29.5506424" lon="103.3625718"><ele>1568.7</ele><time>2026-02-10T05:00:39.000Z</time></trkpt>
        <trkpt lat="29.5506074" lon="103.3626763"><ele>1565.41</ele><time>2026-02-10T05:00:55.000Z</time></trkpt>
        <trkpt lat="29.5505739" lon="103.3627764"><ele>1561.93</ele><time>2026-02-10T05:01:11.000Z</time></trkpt>
        <trkpt lat="29.5505413" lon="103.3628827"><ele>1558.39</ele><time>2026-02-10T05:01:25.000Z</time></trkpt>
        <trkpt lat="29.5505905" lon="103.3629604"><ele>1554.67</ele><time>2026-02-10T05:01:43.000Z</time></trkpt>
        <trkpt lat="29.5506851" lon="103.3629789"><ele>1548.06</ele><time>2026-02-10T05:02:03.000Z</time></trkpt>
        <trkpt lat="29.5507733" lon="103.3630259"><ele>1541.62</ele><time>2026-02-10T05:02:19.000Z</time></trkpt>
        <trkpt lat="29.5507673" lon="103.3631047"><ele>1536.04</ele><time>2026-02-10T05:02:45.000Z</time></trkpt>
        <trkpt lat="29.5507655" lon="103.3632083"><ele>1530.55</ele><time>2026-02-10T05:03:03.000Z</time></trkpt>
        <trkpt lat="29.5507727" lon="103.3633195"><ele>1524.8</ele><time>2026-02-10T05:03:21.000Z</time></trkpt>
        <trkpt lat="29.5507008" lon="103.3633362"><ele>1519.55</ele><time>2026-02-10T05:03:50.000Z</time></trkpt>
        <trkpt lat="29.5506834" lon="103.3634361"><ele>1514.66</ele><time>2026-02-10T05:04:13.000Z</time></trkpt>
        <trkpt lat="29.5507158" lon="103.3635365"><ele>1509.1</ele><time>2026-02-10T05:04:23.000Z</time></trkpt>
        <trkpt lat="29.5507012" lon="103.3636383"><ele>1504.93</ele><time>2026-02-10T05:04:37.000Z</time></trkpt>
        <trkpt lat="29.5506323" lon="103.3637425"><ele>1501.73</ele><time>2026-02-10T05:04:44.000Z</time></trkpt>
        <trkpt lat="29.5505285" lon="103.3638049"><ele>1499.4</ele><time>2026-02-10T05:04:53.000Z</time></trkpt>
        <trkpt lat="29.5504317" lon="103.3638584"><ele>1497.52</ele><time>2026-02-10T05:05:05.000Z</time></trkpt>
        <trkpt lat="29.5504148" lon="103.3639596"><ele>1495.55</ele><time>2026-02-10T05:05:17.000Z</time></trkpt>
        <trkpt lat="29.5503642" lon="103.3640474"><ele>1492.36</ele><time>2026-02-10T05:05:53.000Z</time></trkpt>
        <trkpt lat="29.5503296" lon="103.3641445"><ele>1486.32</ele><time>2026-02-10T05:06:07.000Z</time></trkpt>
        <trkpt lat="29.5502898" lon="103.3642593"><ele>1481.53</ele><time>2026-02-10T05:06:17.000Z</time></trkpt>
        <trkpt lat="29.5502394" lon="103.3643675"><ele>1478.05</ele><time>2026-02-10T05:06:23.000Z</time></trkpt>
        <trkpt lat="29.5501644" lon="103.3644457"><ele>1475.91</ele><time>2026-02-10T05:06:33.000Z</time></trkpt>
        <trkpt lat="29.5500925" lon="103.3645162"><ele>1474.24</ele><time>2026-02-10T05:06:43.000Z</time></trkpt>
        <trkpt lat="29.5500433" lon="103.364609"><ele>1472.17</ele><time>2026-02-10T05:06:53.000Z</time></trkpt>
        <trkpt lat="29.5500379" lon="103.3647171"><ele>1470.41</ele><time>2026-02-10T05:07:01.000Z</time></trkpt>
        <trkpt lat="29.5500141" lon="103.3648325"><ele>1468.78</ele><time>2026-02-10T05:07:11.000Z</time></trkpt>
        <trkpt lat="29.5499519" lon="103.3649245"><ele>1467.9</ele><time>2026-02-10T05:07:23.000Z</time></trkpt>
        <trkpt lat="29.5498994" lon="103.3650177"><ele>1467.54</ele><time>2026-02-10T05:07:31.000Z</time></trkpt>
        <trkpt lat="29.5498346" lon="103.3651107"><ele>1466.81</ele><time>2026-02-10T05:07:39.000Z</time></trkpt>
        <trkpt lat="29.5497725" lon="103.3651927"><ele>1466.53</ele><time>2026-02-10T05:07:45.000Z</time></trkpt>
        <trkpt lat="29.5497188" lon="103.3652956"><ele>1466.55</ele><time>2026-02-10T05:07:53.000Z</time></trkpt>
        <trkpt lat="29.5496538" lon="103.3653853"><ele>1466.03</ele><time>2026-02-10T05:08:01.000Z</time></trkpt>
        <trkpt lat="29.5495723" lon="103.3654613"><ele>1465.66</ele><time>2026-02-10T05:08:09.000Z</time></trkpt>
        <trkpt lat="29.5495029" lon="103.3655482"><ele>1465.51</ele><time>2026-02-10T05:08:17.000Z</time></trkpt>
        <trkpt lat="29.5495342" lon="103.3656377"><ele>1465.29</ele><time>2026-02-10T05:08:29.000Z</time></trkpt>
        <trkpt lat="29.5495781" lon="103.3657351"><ele>1464.76</ele><time>2026-02-10T05:08:39.000Z</time></trkpt>
        <trkpt lat="29.549631" lon="103.3658329"><ele>1463.34</ele><time>2026-02-10T05:08:53.000Z</time></trkpt>
        <trkpt lat="29.5496589" lon="103.3659441"><ele>1462.03</ele><time>2026-02-10T05:09:09.000Z</time></trkpt>
        <trkpt lat="29.549657" lon="103.3660611"><ele>1461.11</ele><time>2026-02-10T05:09:19.000Z</time></trkpt>
        <trkpt lat="29.5495768" lon="103.3661419"><ele>1460.86</ele><time>2026-02-10T05:09:25.000Z</time></trkpt>
        <trkpt lat="29.549493" lon="103.3662102"><ele>1461.28</ele><time>2026-02-10T05:09:39.000Z</time></trkpt>
        <trkpt lat="29.5494038" lon="103.3662696"><ele>1462.69</ele><time>2026-02-10T05:09:49.000Z</time></trkpt>
        <trkpt lat="29.549381" lon="103.3663643"><ele>1462.16</ele><time>2026-02-10T05:09:59.000Z</time></trkpt>
        <trkpt lat="29.5494184" lon="103.366456"><ele>1459.35</ele><time>2026-02-10T05:10:23.000Z</time></trkpt>
        <trkpt lat="29.549498" lon="103.3665184"><ele>1454.26</ele><time>2026-02-10T05:10:51.000Z</time></trkpt>
        <trkpt lat="29.5495942" lon="103.3665629"><ele>1448.36</ele><time>2026-02-10T05:11:13.000Z</time></trkpt>
        <trkpt lat="29.5496848" lon="103.3666211"><ele>1443.25</ele><time>2026-02-10T05:11:42.000Z</time></trkpt>
        <trkpt lat="29.5496848" lon="103.3666211"><ele>1443.25</ele><time>2026-02-10T05:11:59.000Z</time></trkpt>
        <trkpt lat="29.5496848" lon="103.3666211"><ele>1443.25</ele><time>2026-02-10T05:12:04.000Z</time></trkpt>
        <trkpt lat="29.5496848" lon="103.3666211"><ele>1443.25</ele><time>2026-02-10T05:12:13.000Z</time></trkpt>
        <trkpt lat="29.5497941" lon="103.3666189"><ele>1439.24</ele><time>2026-02-10T05:12:18.000Z</time></trkpt>
        <trkpt lat="29.5497941" lon="103.3666189"><ele>1439.24</ele><time>2026-02-10T05:12:47.000Z</time></trkpt>
        <trkpt lat="29.5498887" lon="103.3665905"><ele>1433.41</ele><time>2026-02-10T05:13:00.000Z</time></trkpt>
        <trkpt lat="29.5499718" lon="103.3666329"><ele>1428.49</ele><time>2026-02-10T05:13:20.000Z</time></trkpt>
        <trkpt lat="29.5500482" lon="103.3666943"><ele>1424.43</ele><time>2026-02-10T05:13:34.000Z</time></trkpt>
        <trkpt lat="29.5501278" lon="103.3667696"><ele>1421.11</ele><time>2026-02-10T05:13:50.000Z</time></trkpt>
        <trkpt lat="29.5502127" lon="103.36683"><ele>1418.86</ele><time>2026-02-10T05:14:14.000Z</time></trkpt>
        <trkpt lat="29.550232" lon="103.366932"><ele>1414.57</ele><time>2026-02-10T05:14:40.000Z</time></trkpt>
        <trkpt lat="29.5501738" lon="103.3670263"><ele>1405.93</ele><time>2026-02-10T05:14:48.000Z</time></trkpt>
        <trkpt lat="29.5501394" lon="103.3671516"><ele>1400.98</ele><time>2026-02-10T05:14:57.000Z</time></trkpt>
        <trkpt lat="29.5500961" lon="103.3672614"><ele>1396.32</ele><time>2026-02-10T05:15:09.000Z</time></trkpt>
        <trkpt lat="29.5500546" lon="103.3673689"><ele>1393.34</ele><time>2026-02-10T05:15:24.000Z</time></trkpt>
        <trkpt lat="29.5501125" lon="103.3673912"><ele>1390.31</ele><time>2026-02-10T05:15:38.000Z</time></trkpt>
        <trkpt lat="29.5501705" lon="103.3674633"><ele>1385.78</ele><time>2026-02-10T05:16:03.000Z</time></trkpt>
        <trkpt lat="29.550171" lon="103.3675684"><ele>1376.24</ele><time>2026-02-10T05:16:17.000Z</time></trkpt>
        <trkpt lat="29.5501057" lon="103.3676622"><ele>1370.27</ele><time>2026-02-10T05:16:27.000Z</time></trkpt>
        <trkpt lat="29.5500352" lon="103.3677447"><ele>1365.69</ele><time>2026-02-10T05:16:43.000Z</time></trkpt>
        <trkpt lat="29.5500352" lon="103.3677447"><ele>1365.69</ele><time>2026-02-10T05:17:01.000Z</time></trkpt>
        <trkpt lat="29.5499412" lon="103.3677735"><ele>1361.94</ele><time>2026-02-10T05:17:18.000Z</time></trkpt>
        <trkpt lat="29.5499412" lon="103.3677735"><ele>1361.94</ele><time>2026-02-10T05:17:23.000Z</time></trkpt>
        <trkpt lat="29.5499541" lon="103.3678386"><ele>1355.98</ele><time>2026-02-10T05:17:50.000Z</time></trkpt>
        <trkpt lat="29.5498942" lon="103.3678452"><ele>1351.31</ele><time>2026-02-10T05:18:04.000Z</time></trkpt>
        <trkpt lat="29.549879" lon="103.3679185"><ele>1349.67</ele><time>2026-02-10T05:18:28.000Z</time></trkpt>
        <trkpt lat="29.5498724" lon="103.3680308"><ele>1342.26</ele><time>2026-02-10T05:18:48.000Z</time></trkpt>
        <trkpt lat="29.5498724" lon="103.3680308"><ele>1342.26</ele><time>2026-02-10T05:19:01.000Z</time></trkpt>
        <trkpt lat="29.5500095" lon="103.368269"><ele>1335.75</ele><time>2026-02-10T05:19:18.000Z</time></trkpt>
        <trkpt lat="29.5500095" lon="103.368269"><ele>1335.75</ele><time>2026-02-10T05:19:19.000Z</time></trkpt>
        <trkpt lat="29.5499887" lon="103.3681155"><ele>1332.67</ele><time>2026-02-10T05:19:27.000Z</time></trkpt>
        <trkpt lat="29.5499292" lon="103.3681146"><ele>1330.23</ele><time>2026-02-10T05:19:50.000Z</time></trkpt>
        <trkpt lat="29.5499292" lon="103.3681146"><ele>1330.23</ele><time>2026-02-10T05:20:15.000Z</time></trkpt>
        <trkpt lat="29.549945" lon="103.3683109"><ele>1325.98</ele><time>2026-02-10T05:20:48.000Z</time></trkpt>
        <trkpt lat="29.549945" lon="103.3683109"><ele>1325.98</ele><time>2026-02-10T05:20:50.000Z</time></trkpt>
        <trkpt lat="29.5499104" lon="103.3682588"><ele>1325.89</ele><time>2026-02-10T05:20:55.000Z</time></trkpt>
        <trkpt lat="29.5499104" lon="103.3682588"><ele>1325.89</ele><time>2026-02-10T05:21:01.000Z</time></trkpt>
        <trkpt lat="29.5499104" lon="103.3682588"><ele>1325.89</ele><time>2026-02-10T05:21:02.000Z</time></trkpt>
        <trkpt lat="29.5499104" lon="103.3682588"><ele>1325.89</ele><time>2026-02-10T05:21:27.000Z</time></trkpt>
        <trkpt lat="29.5497623" lon="103.3681054"><ele>1325.01</ele><time>2026-02-10T05:22:26.000Z</time></trkpt>
        <trkpt lat="29.5497623" lon="103.3681054"><ele>1325.01</ele><time>2026-02-10T05:22:27.000Z</time></trkpt>
        <trkpt lat="29.5498635" lon="103.3682516"><ele>1326.45</ele><time>2026-02-10T05:22:31.000Z</time></trkpt>
        <trkpt lat="29.5498255" lon="103.3682423"><ele>1319.78</ele><time>2026-02-10T05:22:33.000Z</time></trkpt>
        <trkpt lat="29.5498255" lon="103.3682423"><ele>1319.78</ele><time>2026-02-10T05:22:49.000Z</time></trkpt>
        <trkpt lat="29.5498818" lon="103.36817"><ele>1321.33</ele><time>2026-02-10T05:22:56.000Z</time></trkpt>
        <trkpt lat="29.5498818" lon="103.36817"><ele>1321.33</ele><time>2026-02-10T05:25:58.000Z</time></trkpt>
        <trkpt lat="29.5498919" lon="103.3682885"><ele>1317.79</ele><time>2026-02-10T05:26:18.000Z</time></trkpt>
        <trkpt lat="29.549833" lon="103.3683626"><ele>1314.65</ele><time>2026-02-10T05:26:26.000Z</time></trkpt>
        <trkpt lat="29.5497638" lon="103.3684294"><ele>1313.4</ele><time>2026-02-10T05:27:06.000Z</time></trkpt>
        <trkpt lat="29.5497287" lon="103.3685198"><ele>1305.44</ele><time>2026-02-10T05:27:18.000Z</time></trkpt>
        <trkpt lat="29.5496529" lon="103.3685414"><ele>1300.68</ele><time>2026-02-10T05:27:32.000Z</time></trkpt>
        <trkpt lat="29.5496034" lon="103.3686201"><ele>1295.65</ele><time>2026-02-10T05:27:54.000Z</time></trkpt>
        <trkpt lat="29.5495971" lon="103.3687351"><ele>1291.05</ele><time>2026-02-10T05:28:14.000Z</time></trkpt>
        <trkpt lat="29.5496673" lon="103.36881"><ele>1284.47</ele><time>2026-02-10T05:28:25.000Z</time></trkpt>
        <trkpt lat="29.5497614" lon="103.3688585"><ele>1266.54</ele><time>2026-02-10T05:28:35.000Z</time></trkpt>
        <trkpt lat="29.5498665" lon="103.3688622"><ele>1257.03</ele><time>2026-02-10T05:28:55.000Z</time></trkpt>
        <trkpt lat="29.5499151" lon="103.368932"><ele>1249.61</ele><time>2026-02-10T05:29:21.000Z</time></trkpt>
        <trkpt lat="29.5499153" lon="103.3690356"><ele>1242.06</ele><time>2026-02-10T05:29:51.000Z</time></trkpt>
        <trkpt lat="29.5499152" lon="103.3691577"><ele>1235.23</ele><time>2026-02-10T05:29:57.000Z</time></trkpt>
        <trkpt lat="29.5499148" lon="103.3692749"><ele>1234.62</ele><time>2026-02-10T05:30:05.000Z</time></trkpt>
        <trkpt lat="29.5499597" lon="103.369391"><ele>1233.47</ele><time>2026-02-10T05:30:14.000Z</time></trkpt>
        <trkpt lat="29.5499597" lon="103.369391"><ele>1233.47</ele><time>2026-02-10T05:34:19.000Z</time></trkpt>
        <trkpt lat="29.5499597" lon="103.369391"><ele>1233.47</ele><time>2026-02-10T05:34:20.000Z</time></trkpt>
        <trkpt lat="29.5499597" lon="103.369391"><ele>1233.47</ele><time>2026-02-10T05:35:09.000Z</time></trkpt>
        <trkpt lat="29.5500594" lon="103.3692655"><ele>1228.17</ele><time>2026-02-10T05:35:10.000Z</time></trkpt>
        <trkpt lat="29.5500594" lon="103.3692655"><ele>1228.17</ele><time>2026-02-10T05:36:16.000Z</time></trkpt>
        <trkpt lat="29.5500167" lon="103.3693823"><ele>1226.46</ele><time>2026-02-10T05:36:23.000Z</time></trkpt>
        <trkpt lat="29.5500638" lon="103.36947"><ele>1224.55</ele><time>2026-02-10T05:36:36.000Z</time></trkpt>
        <trkpt lat="29.5501104" lon="103.3695619"><ele>1224.35</ele><time>2026-02-10T05:36:55.000Z</time></trkpt>
        <trkpt lat="29.5501718" lon="103.3696518"><ele>1223.24</ele><time>2026-02-10T05:37:37.000Z</time></trkpt>
        <trkpt lat="29.5502191" lon="103.3697522"><ele>1220.2</ele><time>2026-02-10T05:37:52.000Z</time></trkpt>
        <trkpt lat="29.5502779" lon="103.3698551"><ele>1216.73</ele><time>2026-02-10T05:38:08.000Z</time></trkpt>
        <trkpt lat="29.5502831" lon="103.3700548"><ele>1214.33</ele><time>2026-02-10T05:38:25.000Z</time></trkpt>
        <trkpt lat="29.5502785" lon="103.3702212"><ele>1220.1</ele><time>2026-02-10T05:38:31.000Z</time></trkpt>
        <trkpt lat="29.5503181" lon="103.3703409"><ele>1222.23</ele><time>2026-02-10T05:38:41.000Z</time></trkpt>
        <trkpt lat="29.5503874" lon="103.3704284"><ele>1218.06</ele><time>2026-02-10T05:39:01.000Z</time></trkpt>
        <trkpt lat="29.5504193" lon="103.3705265"><ele>1213.59</ele><time>2026-02-10T05:39:09.000Z</time></trkpt>
        <trkpt lat="29.5504345" lon="103.3706296"><ele>1210.98</ele><time>2026-02-10T05:39:28.000Z</time></trkpt>
        <trkpt lat="29.5504459" lon="103.3707603"><ele>1208.41</ele><time>2026-02-10T05:40:06.000Z</time></trkpt>
        <trkpt lat="29.5504638" lon="103.3708743"><ele>1209.35</ele><time>2026-02-10T05:40:12.000Z</time></trkpt>
        <trkpt lat="29.5504889" lon="103.3709827"><ele>1209.33</ele><time>2026-02-10T05:40:21.000Z</time></trkpt>
        <trkpt lat="29.5504814" lon="103.3710933"><ele>1209.66</ele><time>2026-02-10T05:40:31.000Z</time></trkpt>
        <trkpt lat="29.5504151" lon="103.3711854"><ele>1207.34</ele><time>2026-02-10T05:40:41.000Z</time></trkpt>
        <trkpt lat="29.5503715" lon="103.3713004"><ele>1205.34</ele><time>2026-02-10T05:40:49.000Z</time></trkpt>
        <trkpt lat="29.5503057" lon="103.3713857"><ele>1206.54</ele><time>2026-02-10T05:40:55.000Z</time></trkpt>
        <trkpt lat="29.5502545" lon="103.3714734"><ele>1207.21</ele><time>2026-02-10T05:41:07.000Z</time></trkpt>
        <trkpt lat="29.5503115" lon="103.3714998"><ele>1208.21</ele><time>2026-02-10T05:41:19.000Z</time></trkpt>
        <trkpt lat="29.5503805" lon="103.3715697"><ele>1211.08</ele><time>2026-02-10T05:41:31.000Z</time></trkpt>
        <trkpt lat="29.5504608" lon="103.3716563"><ele>1213.98</ele><time>2026-02-10T05:41:46.000Z</time></trkpt>
        <trkpt lat="29.5505248" lon="103.371747"><ele>1216.68</ele><time>2026-02-10T05:41:55.000Z</time></trkpt>
        <trkpt lat="29.5505914" lon="103.3718355"><ele>1218.3</ele><time>2026-02-10T05:42:03.000Z</time></trkpt>
        <trkpt lat="29.5506546" lon="103.3719594"><ele>1219.72</ele><time>2026-02-10T05:42:11.000Z</time></trkpt>
        <trkpt lat="29.5506868" lon="103.3720743"><ele>1220.68</ele><time>2026-02-10T05:42:21.000Z</time></trkpt>
        <trkpt lat="29.5506826" lon="103.3721853"><ele>1222.01</ele><time>2026-02-10T05:42:33.000Z</time></trkpt>
        <trkpt lat="29.5506644" lon="103.3722976"><ele>1223.26</ele><time>2026-02-10T05:42:39.000Z</time></trkpt>
        <trkpt lat="29.5506396" lon="103.3724144"><ele>1222.63</ele><time>2026-02-10T05:42:47.000Z</time></trkpt>
        <trkpt lat="29.5505857" lon="103.3725212"><ele>1223.2</ele><time>2026-02-10T05:42:57.000Z</time></trkpt>
        <trkpt lat="29.5505137" lon="103.3725957"><ele>1223.93</ele><time>2026-02-10T05:43:05.000Z</time></trkpt>
        <trkpt lat="29.5504492" lon="103.3726765"><ele>1224.66</ele><time>2026-02-10T05:43:17.000Z</time></trkpt>
        <trkpt lat="29.5503782" lon="103.3727643"><ele>1225.53</ele><time>2026-02-10T05:43:27.000Z</time></trkpt>
        <trkpt lat="29.5502942" lon="103.3728283"><ele>1226.45</ele><time>2026-02-10T05:43:35.000Z</time></trkpt>
        <trkpt lat="29.5501981" lon="103.3728582"><ele>1227.56</ele><time>2026-02-10T05:43:43.000Z</time></trkpt>
        <trkpt lat="29.5502194" lon="103.3729215"><ele>1229.01</ele><time>2026-02-10T05:44:07.000Z</time></trkpt>
        <trkpt lat="29.5503035" lon="103.3729049"><ele>1231.46</ele><time>2026-02-10T05:44:19.000Z</time></trkpt>
        <trkpt lat="29.5504235" lon="103.3729293"><ele>1235.68</ele><time>2026-02-10T05:44:22.000Z</time></trkpt>
        <trkpt lat="29.5505472" lon="103.3729359"><ele>1240.43</ele><time>2026-02-10T05:44:29.000Z</time></trkpt>
        <trkpt lat="29.5506569" lon="103.3729002"><ele>1242.58</ele><time>2026-02-10T05:44:39.000Z</time></trkpt>
        <trkpt lat="29.5507551" lon="103.3728722"><ele>1242.38</ele><time>2026-02-10T05:44:45.000Z</time></trkpt>
        <trkpt lat="29.5508588" lon="103.37287"><ele>1243.62</ele><time>2026-02-10T05:44:53.000Z</time></trkpt>
        <trkpt lat="29.550953" lon="103.3728651"><ele>1244.34</ele><time>2026-02-10T05:44:59.000Z</time></trkpt>
        <trkpt lat="29.5510519" lon="103.3729139"><ele>1243.89</ele><time>2026-02-10T05:45:09.000Z</time></trkpt>
        <trkpt lat="29.5511437" lon="103.3729762"><ele>1240.61</ele><time>2026-02-10T05:45:21.000Z</time></trkpt>
        <trkpt lat="29.5512278" lon="103.373052"><ele>1236.2</ele><time>2026-02-10T05:45:32.000Z</time></trkpt>
        <trkpt lat="29.5513027" lon="103.373137"><ele>1234.08</ele><time>2026-02-10T05:45:40.000Z</time></trkpt>
        <trkpt lat="29.551333" lon="103.3732451"><ele>1232.87</ele><time>2026-02-10T05:45:46.000Z</time></trkpt>
        <trkpt lat="29.5513092" lon="103.3733802"><ele>1231.57</ele><time>2026-02-10T05:45:55.000Z</time></trkpt>
        <trkpt lat="29.5512964" lon="103.3734998"><ele>1230.5</ele><time>2026-02-10T05:46:01.000Z</time></trkpt>
        <trkpt lat="29.5513419" lon="103.3735948"><ele>1226.91</ele><time>2026-02-10T05:46:11.000Z</time></trkpt>
        <trkpt lat="29.5513096" lon="103.3737173"><ele>1223.84</ele><time>2026-02-10T05:46:17.000Z</time></trkpt>
        <trkpt lat="29.5512279" lon="103.3737768"><ele>1222.38</ele><time>2026-02-10T05:46:29.000Z</time></trkpt>
        <trkpt lat="29.5511111" lon="103.3738115"><ele>1221.61</ele><time>2026-02-10T05:46:35.000Z</time></trkpt>
        <trkpt lat="29.5510137" lon="103.3738714"><ele>1221.96</ele><time>2026-02-10T05:46:46.000Z</time></trkpt>
        <trkpt lat="29.5509343" lon="103.3739438"><ele>1223.62</ele><time>2026-02-10T05:47:07.000Z</time></trkpt>
        <trkpt lat="29.5508676" lon="103.3740288"><ele>1226.11</ele><time>2026-02-10T05:47:15.000Z</time></trkpt>
        <trkpt lat="29.5507761" lon="103.3740832"><ele>1228.84</ele><time>2026-02-10T05:47:35.000Z</time></trkpt>
        <trkpt lat="29.5506575" lon="103.3741158"><ele>1231.01</ele><time>2026-02-10T05:47:41.000Z</time></trkpt>
        <trkpt lat="29.5505481" lon="103.374164"><ele>1232.58</ele><time>2026-02-10T05:47:51.000Z</time></trkpt>
        <trkpt lat="29.5504629" lon="103.3742403"><ele>1234.79</ele><time>2026-02-10T05:48:01.000Z</time></trkpt>
        <trkpt lat="29.5503858" lon="103.3743122"><ele>1236.43</ele><time>2026-02-10T05:48:11.000Z</time></trkpt>
        <trkpt lat="29.5502997" lon="103.3743654"><ele>1237.74</ele><time>2026-02-10T05:48:19.000Z</time></trkpt>
        <trkpt lat="29.5502191" lon="103.3744309"><ele>1238.78</ele><time>2026-02-10T05:48:27.000Z</time></trkpt>
        <trkpt lat="29.5501338" lon="103.3744745"><ele>1239.47</ele><time>2026-02-10T05:48:37.000Z</time></trkpt>
        <trkpt lat="29.5500562" lon="103.3745267"><ele>1239.23</ele><time>2026-02-10T05:48:51.000Z</time></trkpt>
        <trkpt lat="29.5500562" lon="103.3745267"><ele>1239.23</ele><time>2026-02-10T05:49:23.000Z</time></trkpt>
        <trkpt lat="29.5499798" lon="103.3746027"><ele>1236.68</ele><time>2026-02-10T05:49:28.000Z</time></trkpt>
        <trkpt lat="29.5499798" lon="103.3746027"><ele>1236.68</ele><time>2026-02-10T05:49:57.000Z</time></trkpt>
        <trkpt lat="29.5499628" lon="103.3747104"><ele>1232.03</ele><time>2026-02-10T05:50:11.000Z</time></trkpt>
        <trkpt lat="29.5500358" lon="103.374744"><ele>1231.54</ele><time>2026-02-10T05:50:32.000Z</time></trkpt>
        <trkpt lat="29.5501174" lon="103.3748056"><ele>1232.02</ele><time>2026-02-10T05:50:44.000Z</time></trkpt>
        <trkpt lat="29.5502118" lon="103.3748386"><ele>1232.45</ele><time>2026-02-10T05:50:52.000Z</time></trkpt>
        <trkpt lat="29.5503108" lon="103.3748756"><ele>1232.25</ele><time>2026-02-10T05:50:58.000Z</time></trkpt>
        <trkpt lat="29.550407" lon="103.3749441"><ele>1231.64</ele><time>2026-02-10T05:51:02.000Z</time></trkpt>
        <trkpt lat="29.5504964" lon="103.3750008"><ele>1230.56</ele><time>2026-02-10T05:51:11.000Z</time></trkpt>
        <trkpt lat="29.5505837" lon="103.3750596"><ele>1229.3</ele><time>2026-02-10T05:51:21.000Z</time></trkpt>
        <trkpt lat="29.5506825" lon="103.3751028"><ele>1228.02</ele><time>2026-02-10T05:51:31.000Z</time></trkpt>
        <trkpt lat="29.5507742" lon="103.3751381"><ele>1226.82</ele><time>2026-02-10T05:51:39.000Z</time></trkpt>
        <trkpt lat="29.5508672" lon="103.3751994"><ele>1226.08</ele><time>2026-02-10T05:51:50.000Z</time></trkpt>
        <trkpt lat="29.5509782" lon="103.3752344"><ele>1225.06</ele><time>2026-02-10T05:52:02.000Z</time></trkpt>
        <trkpt lat="29.5510755" lon="103.3752441"><ele>1223.26</ele><time>2026-02-10T05:52:10.000Z</time></trkpt>
        <trkpt lat="29.5511638" lon="103.3752675"><ele>1221.87</ele><time>2026-02-10T05:52:23.000Z</time></trkpt>
        <trkpt lat="29.5512521" lon="103.3752932"><ele>1219.82</ele><time>2026-02-10T05:52:41.000Z</time></trkpt>
        <trkpt lat="29.5513607" lon="103.3753206"><ele>1218.12</ele><time>2026-02-10T05:52:50.000Z</time></trkpt>
        <trkpt lat="29.5514431" lon="103.3753789"><ele>1216.63</ele><time>2026-02-10T05:52:58.000Z</time></trkpt>
        <trkpt lat="29.5515323" lon="103.3754557"><ele>1215.23</ele><time>2026-02-10T05:53:09.000Z</time></trkpt>
        <trkpt lat="29.5516111" lon="103.3755631"><ele>1213.94</ele><time>2026-02-10T05:53:21.000Z</time></trkpt>
        <trkpt lat="29.5516692" lon="103.3756762"><ele>1212.71</ele><time>2026-02-10T05:53:29.000Z</time></trkpt>
        <trkpt lat="29.5517123" lon="103.3757823"><ele>1210.95</ele><time>2026-02-10T05:53:39.000Z</time></trkpt>
        <trkpt lat="29.551737" lon="103.3758971"><ele>1209.22</ele><time>2026-02-10T05:53:51.000Z</time></trkpt>
        <trkpt lat="29.5517457" lon="103.37601"><ele>1207.35</ele><time>2026-02-10T05:54:09.000Z</time></trkpt>
        <trkpt lat="29.551739" lon="103.3761261"><ele>1205.99</ele><time>2026-02-10T05:54:23.000Z</time></trkpt>
        <trkpt lat="29.5517337" lon="103.3762405"><ele>1204.07</ele><time>2026-02-10T05:54:37.000Z</time></trkpt>
        <trkpt lat="29.551736" lon="103.3763569"><ele>1202.49</ele><time>2026-02-10T05:54:53.000Z</time></trkpt>
        <trkpt lat="29.5517725" lon="103.3764554"><ele>1198.74</ele><time>2026-02-10T05:55:32.000Z</time></trkpt>
        <trkpt lat="29.5517907" lon="103.3765614"><ele>1190.59</ele><time>2026-02-10T05:55:58.000Z</time></trkpt>
        <trkpt lat="29.5518443" lon="103.3766448"><ele>1183.15</ele><time>2026-02-10T05:56:26.000Z</time></trkpt>
        <trkpt lat="29.5518443" lon="103.3766448"><ele>1183.15</ele><time>2026-02-10T05:56:43.000Z</time></trkpt>
        <trkpt lat="29.5518041" lon="103.3767252"><ele>1174.68</ele><time>2026-02-10T05:56:50.000Z</time></trkpt>
        <trkpt lat="29.5518041" lon="103.3767252"><ele>1174.68</ele><time>2026-02-10T05:58:18.000Z</time></trkpt>
        <trkpt lat="29.5518041" lon="103.3767252"><ele>1174.68</ele><time>2026-02-10T05:58:27.000Z</time></trkpt>
        <trkpt lat="29.551865" lon="103.3768043"><ele>1169.97</ele><time>2026-02-10T05:58:30.000Z</time></trkpt>
        <trkpt lat="29.551865" lon="103.3768043"><ele>1169.97</ele><time>2026-02-10T05:58:43.000Z</time></trkpt>
        <trkpt lat="29.551865" lon="103.3768043"><ele>1169.97</ele><time>2026-02-10T05:58:57.000Z</time></trkpt>
        <trkpt lat="29.5517732" lon="103.3764241"><ele>1167.13</ele><time>2026-02-10T05:59:30.000Z</time></trkpt>
        <trkpt lat="29.5517732" lon="103.3764241"><ele>1167.13</ele><time>2026-02-10T05:59:31.000Z</time></trkpt>
        <trkpt lat="29.551782" lon="103.3766794"><ele>1168.01</ele><time>2026-02-10T05:59:43.000Z</time></trkpt>
        <trkpt lat="29.551782" lon="103.3766794"><ele>1168.01</ele><time>2026-02-10T05:59:49.000Z</time></trkpt>
        <trkpt lat="29.5518935" lon="103.3768743"><ele>1166.21</ele><time>2026-02-10T06:00:16.000Z</time></trkpt>
        <trkpt lat="29.5518935" lon="103.3768743"><ele>1166.21</ele><time>2026-02-10T06:00:24.000Z</time></trkpt>
        <trkpt lat="29.5518935" lon="103.3768743"><ele>1166.21</ele><time>2026-02-10T06:00:25.000Z</time></trkpt>
        <trkpt lat="29.5519326" lon="103.3766665"><ele>1161.28</ele><time>2026-02-10T06:00:52.000Z</time></trkpt>
        <trkpt lat="29.5519326" lon="103.3766665"><ele>1161.28</ele><time>2026-02-10T06:00:55.000Z</time></trkpt>
        <trkpt lat="29.5517837" lon="103.3767402"><ele>1161.5</ele><time>2026-02-10T06:01:02.000Z</time></trkpt>
        <trkpt lat="29.5517654" lon="103.3768378"><ele>1162.86</ele><time>2026-02-10T06:01:16.000Z</time></trkpt>
        <trkpt lat="29.5517654" lon="103.3768378"><ele>1162.86</ele><time>2026-02-10T06:01:27.000Z</time></trkpt>
        <trkpt lat="29.5517654" lon="103.3768378"><ele>1162.86</ele><time>2026-02-10T06:01:34.000Z</time></trkpt>
        <trkpt lat="29.5517654" lon="103.3768378"><ele>1162.86</ele><time>2026-02-10T06:03:17.000Z</time></trkpt>
        <trkpt lat="29.5517654" lon="103.3768378"><ele>1162.86</ele><time>2026-02-10T06:03:18.000Z</time></trkpt>
        <trkpt lat="29.5517654" lon="103.3768378"><ele>1162.86</ele><time>2026-02-10T06:05:35.000Z</time></trkpt>
        <trkpt lat="29.551715" lon="103.3769593"><ele>1164.31</ele><time>2026-02-10T06:05:56.000Z</time></trkpt>
        <trkpt lat="29.551715" lon="103.3769593"><ele>1164.31</ele><time>2026-02-10T06:05:57.000Z</time></trkpt>
        <trkpt lat="29.5518621" lon="103.3769952"><ele>1160.05</ele><time>2026-02-10T06:06:01.000Z</time></trkpt>
        <trkpt lat="29.5518214" lon="103.3769283"><ele>1158.87</ele><time>2026-02-10T06:06:05.000Z</time></trkpt>
        <trkpt lat="29.5518075" lon="103.3768937"><ele>1159.79</ele><time>2026-02-10T06:06:07.000Z</time></trkpt>
        <trkpt lat="29.5518012" lon="103.3768047"><ele>1161.29</ele><time>2026-02-10T06:06:41.000Z</time></trkpt>
        <trkpt lat="29.5518012" lon="103.3768047"><ele>1161.29</ele><time>2026-02-10T06:07:09.000Z</time></trkpt>
        <trkpt lat="29.5518405" lon="103.3766922"><ele>1159.01</ele><time>2026-02-10T06:07:40.000Z</time></trkpt>
        <trkpt lat="29.5518405" lon="103.3766922"><ele>1159.01</ele><time>2026-02-10T06:07:41.000Z</time></trkpt>
        <trkpt lat="29.5518009" lon="103.3767932"><ele>1157.02</ele><time>2026-02-10T06:07:47.000Z</time></trkpt>
        <trkpt lat="29.5518009" lon="103.3767932"><ele>1157.02</ele><time>2026-02-10T06:10:25.000Z</time></trkpt>
        <trkpt lat="29.5518009" lon="103.3767932"><ele>1157.02</ele><time>2026-02-10T06:10:26.000Z</time></trkpt>
        <trkpt lat="29.5518009" lon="103.3767932"><ele>1157.02</ele><time>2026-02-10T06:11:05.000Z</time></trkpt>
        <trkpt lat="29.5518009" lon="103.3767932"><ele>1157.02</ele><time>2026-02-10T06:11:10.000Z</time></trkpt>
        <trkpt lat="29.5518009" lon="103.3767932"><ele>1157.02</ele><time>2026-02-10T06:11:19.000Z</time></trkpt>
        <trkpt lat="29.551847" lon="103.3767832"><ele>1155.83</ele><time>2026-02-10T06:11:22.000Z</time></trkpt>
        <trkpt lat="29.551847" lon="103.3767832"><ele>1155.83</ele><time>2026-02-10T06:11:26.000Z</time></trkpt>
        <trkpt lat="29.5519499" lon="103.3767873"><ele>1155.21</ele><time>2026-02-10T06:11:36.000Z</time></trkpt>
        <trkpt lat="29.5520531" lon="103.3768086"><ele>1153.69</ele><time>2026-02-10T06:11:44.000Z</time></trkpt>
        <trkpt lat="29.5521422" lon="103.376828"><ele>1152.36</ele><time>2026-02-10T06:11:58.000Z</time></trkpt>
        <trkpt lat="29.5522235" lon="103.3769003"><ele>1152.55</ele><time>2026-02-10T06:12:13.000Z</time></trkpt>
        <trkpt lat="29.5523059" lon="103.3769614"><ele>1152.2</ele><time>2026-02-10T06:12:21.000Z</time></trkpt>
        <trkpt lat="29.5523908" lon="103.3770066"><ele>1145.75</ele><time>2026-02-10T06:12:43.000Z</time></trkpt>
        <trkpt lat="29.5524762" lon="103.3770407"><ele>1138.45</ele><time>2026-02-10T06:12:53.000Z</time></trkpt>
        <trkpt lat="29.5525647" lon="103.3770748"><ele>1133.32</ele><time>2026-02-10T06:13:09.000Z</time></trkpt>
        <trkpt lat="29.5526487" lon="103.3771249"><ele>1128.33</ele><time>2026-02-10T06:13:21.000Z</time></trkpt>
        <trkpt lat="29.5527319" lon="103.3771846"><ele>1123.84</ele><time>2026-02-10T06:13:31.000Z</time></trkpt>
        <trkpt lat="29.5528188" lon="103.3772229"><ele>1118.79</ele><time>2026-02-10T06:13:45.000Z</time></trkpt>
        <trkpt lat="29.5529061" lon="103.3772818"><ele>1113.88</ele><time>2026-02-10T06:13:59.000Z</time></trkpt>
        <trkpt lat="29.5529846" lon="103.377353"><ele>1109.81</ele><time>2026-02-10T06:14:13.000Z</time></trkpt>
        <trkpt lat="29.5530651" lon="103.3774268"><ele>1106.02</ele><time>2026-02-10T06:14:25.000Z</time></trkpt>
        <trkpt lat="29.5531302" lon="103.3775123"><ele>1102.07</ele><time>2026-02-10T06:14:43.000Z</time></trkpt>
        <trkpt lat="29.5531923" lon="103.3775909"><ele>1097.97</ele><time>2026-02-10T06:15:03.000Z</time></trkpt>
        <trkpt lat="29.5532612" lon="103.3776707"><ele>1093.82</ele><time>2026-02-10T06:15:13.000Z</time></trkpt>
        <trkpt lat="29.5533419" lon="103.3777205"><ele>1090.44</ele><time>2026-02-10T06:15:34.000Z</time></trkpt>
        <trkpt lat="29.5534179" lon="103.3777834"><ele>1088.26</ele><time>2026-02-10T06:16:04.000Z</time></trkpt>
        <trkpt lat="29.5534798" lon="103.3778613"><ele>1082.96</ele><time>2026-02-10T06:16:20.000Z</time></trkpt>
        <trkpt lat="29.553527" lon="103.3779628"><ele>1079.15</ele><time>2026-02-10T06:16:42.000Z</time></trkpt>
        <trkpt lat="29.5535891" lon="103.3780416"><ele>1075.41</ele><time>2026-02-10T06:16:54.000Z</time></trkpt>
        <trkpt lat="29.5536529" lon="103.3781306"><ele>1072.64</ele><time>2026-02-10T06:17:08.000Z</time></trkpt>
        <trkpt lat="29.5537075" lon="103.3782294"><ele>1074.81</ele><time>2026-02-10T06:17:17.000Z</time></trkpt>
        <trkpt lat="29.553758" lon="103.378324"><ele>1077.45</ele><time>2026-02-10T06:17:27.000Z</time></trkpt>
        <trkpt lat="29.5538061" lon="103.3784156"><ele>1066.64</ele><time>2026-02-10T06:17:40.000Z</time></trkpt>
        <trkpt lat="29.55384" lon="103.3785183"><ele>1059.43</ele><time>2026-02-10T06:17:57.000Z</time></trkpt>
        <trkpt lat="29.55388" lon="103.3786173"><ele>1055.04</ele><time>2026-02-10T06:18:10.000Z</time></trkpt>
        <trkpt lat="29.5538947" lon="103.3787368"><ele>1057.85</ele><time>2026-02-10T06:18:20.000Z</time></trkpt>
        <trkpt lat="29.55387" lon="103.3788488"><ele>1056.58</ele><time>2026-02-10T06:18:29.000Z</time></trkpt>
        <trkpt lat="29.5538207" lon="103.3789682"><ele>1048.15</ele><time>2026-02-10T06:18:37.000Z</time></trkpt>
        <trkpt lat="29.5538001" lon="103.3790925"><ele>1043.01</ele><time>2026-02-10T06:18:47.000Z</time></trkpt>
        <trkpt lat="29.5538144" lon="103.3792085"><ele>1041.45</ele><time>2026-02-10T06:18:56.000Z</time></trkpt>
        <trkpt lat="29.5538406" lon="103.3793118"><ele>1041.51</ele><time>2026-02-10T06:19:04.000Z</time></trkpt>
        <trkpt lat="29.5538728" lon="103.3794143"><ele>1040.3</ele><time>2026-02-10T06:19:12.000Z</time></trkpt>
        <trkpt lat="29.5538903" lon="103.3795169"><ele>1038.74</ele><time>2026-02-10T06:19:24.000Z</time></trkpt>
        <trkpt lat="29.5539189" lon="103.3796271"><ele>1036.38</ele><time>2026-02-10T06:19:34.000Z</time></trkpt>
        <trkpt lat="29.5539507" lon="103.3797361"><ele>1034.28</ele><time>2026-02-10T06:19:44.000Z</time></trkpt>
        <trkpt lat="29.5539617" lon="103.3798434"><ele>1031.42</ele><time>2026-02-10T06:19:59.000Z</time></trkpt>
        <trkpt lat="29.5539993" lon="103.3799404"><ele>1033.83</ele><time>2026-02-10T06:20:12.000Z</time></trkpt>
        <trkpt lat="29.5540289" lon="103.3800421"><ele>1034.92</ele><time>2026-02-10T06:20:28.000Z</time></trkpt>
        <trkpt lat="29.5540608" lon="103.380142"><ele>1029.76</ele><time>2026-02-10T06:20:36.000Z</time></trkpt>
        <trkpt lat="29.5540708" lon="103.3802665"><ele>1026.55</ele><time>2026-02-10T06:20:45.000Z</time></trkpt>
        <trkpt lat="29.5540435" lon="103.3803919"><ele>1019.76</ele><time>2026-02-10T06:20:53.000Z</time></trkpt>
        <trkpt lat="29.5540527" lon="103.3805098"><ele>1014.69</ele><time>2026-02-10T06:21:00.000Z</time></trkpt>
        <trkpt lat="29.5540684" lon="103.3806287"><ele>1012.87</ele><time>2026-02-10T06:21:10.000Z</time></trkpt>
        <trkpt lat="29.5540381" lon="103.3807335"><ele>1010.62</ele><time>2026-02-10T06:21:19.000Z</time></trkpt>
        <trkpt lat="29.5539832" lon="103.3808277"><ele>1008.52</ele><time>2026-02-10T06:21:26.000Z</time></trkpt>
        <trkpt lat="29.5539479" lon="103.3809353"><ele>1005.69</ele><time>2026-02-10T06:21:34.000Z</time></trkpt>
        <trkpt lat="29.5539442" lon="103.3810468"><ele>1003.62</ele><time>2026-02-10T06:21:43.000Z</time></trkpt>
        <trkpt lat="29.5539866" lon="103.3811568"><ele>1002.53</ele><time>2026-02-10T06:21:51.000Z</time></trkpt>
        <trkpt lat="29.5540286" lon="103.3812591"><ele>1001.75</ele><time>2026-02-10T06:21:59.000Z</time></trkpt>
        <trkpt lat="29.554043" lon="103.3813615"><ele>1000.98</ele><time>2026-02-10T06:22:07.000Z</time></trkpt>
        <trkpt lat="29.5540634" lon="103.3814643"><ele>999.76</ele><time>2026-02-10T06:22:13.000Z</time></trkpt>
        <trkpt lat="29.5540936" lon="103.3815759"><ele>998.73</ele><time>2026-02-10T06:22:21.000Z</time></trkpt>
        <trkpt lat="29.5541215" lon="103.3816804"><ele>998.41</ele><time>2026-02-10T06:22:29.000Z</time></trkpt>
        <trkpt lat="29.554153" lon="103.3817796"><ele>997.97</ele><time>2026-02-10T06:22:39.000Z</time></trkpt>
        <trkpt lat="29.5541823" lon="103.3818962"><ele>996.74</ele><time>2026-02-10T06:22:51.000Z</time></trkpt>
        <trkpt lat="29.5542134" lon="103.3820092"><ele>995.35</ele><time>2026-02-10T06:22:59.000Z</time></trkpt>
        <trkpt lat="29.5542344" lon="103.3821227"><ele>994.68</ele><time>2026-02-10T06:23:09.000Z</time></trkpt>
        <trkpt lat="29.5542445" lon="103.3822423"><ele>993.57</ele><time>2026-02-10T06:23:19.000Z</time></trkpt>
        <trkpt lat="29.5542435" lon="103.3823575"><ele>991.91</ele><time>2026-02-10T06:23:29.000Z</time></trkpt>
        <trkpt lat="29.5542655" lon="103.3824609"><ele>990.66</ele><time>2026-02-10T06:23:36.000Z</time></trkpt>
        <trkpt lat="29.5543179" lon="103.3825445"><ele>989.83</ele><time>2026-02-10T06:23:46.000Z</time></trkpt>
        <trkpt lat="29.5543854" lon="103.3826271"><ele>988.87</ele><time>2026-02-10T06:23:58.000Z</time></trkpt>
        <trkpt lat="29.5544528" lon="103.3827149"><ele>987.94</ele><time>2026-02-10T06:24:20.000Z</time></trkpt>
        <trkpt lat="29.5544528" lon="103.3827149"><ele>987.94</ele><time>2026-02-10T06:24:29.000Z</time></trkpt>
        <trkpt lat="29.5544632" lon="103.3824461"><ele>986.31</ele><time>2026-02-10T06:24:44.000Z</time></trkpt>
        <trkpt lat="29.5544632" lon="103.3824461"><ele>986.31</ele><time>2026-02-10T06:24:45.000Z</time></trkpt>
        <trkpt lat="29.5544025" lon="103.3825834"><ele>985.45</ele><time>2026-02-10T06:24:51.000Z</time></trkpt>
        <trkpt lat="29.5544025" lon="103.3825834"><ele>985.45</ele><time>2026-02-10T06:24:57.000Z</time></trkpt>
        <trkpt lat="29.5542918" lon="103.3827145"><ele>982.46</ele><time>2026-02-10T06:25:24.000Z</time></trkpt>
        <trkpt lat="29.5542918" lon="103.3827145"><ele>982.46</ele><time>2026-02-10T06:25:25.000Z</time></trkpt>
        <trkpt lat="29.5544167" lon="103.3827933"><ele>982.3</ele><time>2026-02-10T06:25:31.000Z</time></trkpt>
        <trkpt lat="29.5544662" lon="103.3829009"><ele>980.31</ele><time>2026-02-10T06:25:58.000Z</time></trkpt>
        <trkpt lat="29.5544695" lon="103.3830133"><ele>978.71</ele><time>2026-02-10T06:26:14.000Z</time></trkpt>
        <trkpt lat="29.5545073" lon="103.3831232"><ele>980.55</ele><time>2026-02-10T06:26:35.000Z</time></trkpt>
        <trkpt lat="29.5545661" lon="103.3832256"><ele>975.79</ele><time>2026-02-10T06:26:44.000Z</time></trkpt>
        <trkpt lat="29.5546543" lon="103.3832987"><ele>972.06</ele><time>2026-02-10T06:26:54.000Z</time></trkpt>
        <trkpt lat="29.5547558" lon="103.3833164"><ele>974.36</ele><time>2026-02-10T06:27:00.000Z</time></trkpt>
        <trkpt lat="29.5548324" lon="103.3833817"><ele>974.97</ele><time>2026-02-10T06:27:09.000Z</time></trkpt>
        <trkpt lat="29.5549178" lon="103.3834463"><ele>974.14</ele><time>2026-02-10T06:27:17.000Z</time></trkpt>
        <trkpt lat="29.5549812" lon="103.3835275"><ele>972.05</ele><time>2026-02-10T06:27:25.000Z</time></trkpt>
        <trkpt lat="29.5550192" lon="103.3836325"><ele>969</ele><time>2026-02-10T06:27:35.000Z</time></trkpt>
        <trkpt lat="29.5549972" lon="103.3837429"><ele>965.7</ele><time>2026-02-10T06:27:43.000Z</time></trkpt>
        <trkpt lat="29.5549693" lon="103.3838568"><ele>962.75</ele><time>2026-02-10T06:27:59.000Z</time></trkpt>
        <trkpt lat="29.5549564" lon="103.3839684"><ele>960.2</ele><time>2026-02-10T06:28:05.000Z</time></trkpt>
        <trkpt lat="29.5549822" lon="103.3840715"><ele>958.17</ele><time>2026-02-10T06:28:15.000Z</time></trkpt>
        <trkpt lat="29.5550295" lon="103.3841681"><ele>957.08</ele><time>2026-02-10T06:28:25.000Z</time></trkpt>
        <trkpt lat="29.5550377" lon="103.3842768"><ele>955.95</ele><time>2026-02-10T06:28:39.000Z</time></trkpt>
        <trkpt lat="29.5549807" lon="103.3843484"><ele>954.7</ele><time>2026-02-10T06:28:55.000Z</time></trkpt>
        <trkpt lat="29.5549061" lon="103.3844146"><ele>953.49</ele><time>2026-02-10T06:29:07.000Z</time></trkpt>
        <trkpt lat="29.5548395" lon="103.3844947"><ele>951.84</ele><time>2026-02-10T06:29:44.000Z</time></trkpt>
        <trkpt lat="29.5548395" lon="103.3844947"><ele>951.84</ele><time>2026-02-10T06:30:27.000Z</time></trkpt>
        <trkpt lat="29.5548395" lon="103.3844947"><ele>951.84</ele><time>2026-02-10T06:30:30.000Z</time></trkpt>
        <trkpt lat="29.5548395" lon="103.3844947"><ele>951.84</ele><time>2026-02-10T06:31:03.000Z</time></trkpt>
        <trkpt lat="29.5547618" lon="103.38438"><ele>949.43</ele><time>2026-02-10T06:31:14.000Z</time></trkpt>
        <trkpt lat="29.5547618" lon="103.38438"><ele>949.43</ele><time>2026-02-10T06:31:15.000Z</time></trkpt>
        <trkpt lat="29.5548464" lon="103.3845135"><ele>947.8</ele><time>2026-02-10T06:31:19.000Z</time></trkpt>
        <trkpt lat="29.5548464" lon="103.3845135"><ele>947.8</ele><time>2026-02-10T06:31:25.000Z</time></trkpt>
        <trkpt lat="29.5548464" lon="103.3845135"><ele>947.8</ele><time>2026-02-10T06:31:26.000Z</time></trkpt>
        <trkpt lat="29.5548464" lon="103.3845135"><ele>947.8</ele><time>2026-02-10T06:32:21.000Z</time></trkpt>
        <trkpt lat="29.5547492" lon="103.3845076"><ele>947.81</ele><time>2026-02-10T06:32:24.000Z</time></trkpt>
        <trkpt lat="29.5547492" lon="103.3845076"><ele>947.81</ele><time>2026-02-10T06:32:54.000Z</time></trkpt>
        <trkpt lat="29.5546577" lon="103.3845437"><ele>946.43</ele><time>2026-02-10T06:33:10.000Z</time></trkpt>
        <trkpt lat="29.5546854" lon="103.3846265"><ele>944.12</ele><time>2026-02-10T06:33:30.000Z</time></trkpt>
        <trkpt lat="29.5547533" lon="103.3847115"><ele>939.69</ele><time>2026-02-10T06:33:44.000Z</time></trkpt>
        <trkpt lat="29.5548264" lon="103.3848052"><ele>937.13</ele><time>2026-02-10T06:33:56.000Z</time></trkpt>
        <trkpt lat="29.5548264" lon="103.3848052"><ele>937.13</ele><time>2026-02-10T06:36:23.000Z</time></trkpt>
        <trkpt lat="29.5548264" lon="103.3848052"><ele>937.13</ele><time>2026-02-10T06:36:32.000Z</time></trkpt>
        <trkpt lat="29.5548264" lon="103.3848052"><ele>937.13</ele><time>2026-02-10T06:36:45.000Z</time></trkpt>
        <trkpt lat="29.5549322" lon="103.3848575"><ele>935.93</ele><time>2026-02-10T06:36:58.000Z</time></trkpt>
        <trkpt lat="29.5549322" lon="103.3848575"><ele>935.93</ele><time>2026-02-10T06:37:42.000Z</time></trkpt>
        <trkpt lat="29.5550125" lon="103.3849258"><ele>937.54</ele><time>2026-02-10T06:37:56.000Z</time></trkpt>
        <trkpt lat="29.5550987" lon="103.3849784"><ele>934.62</ele><time>2026-02-10T06:38:04.000Z</time></trkpt>
        <trkpt lat="29.5551923" lon="103.3849791"><ele>931.4</ele><time>2026-02-10T06:38:18.000Z</time></trkpt>
        <trkpt lat="29.5552923" lon="103.3849665"><ele>927.26</ele><time>2026-02-10T06:38:30.000Z</time></trkpt>
        <trkpt lat="29.5553862" lon="103.3849941"><ele>922.93</ele><time>2026-02-10T06:38:42.000Z</time></trkpt>
        <trkpt lat="29.555472" lon="103.3850417"><ele>918.67</ele><time>2026-02-10T06:38:56.000Z</time></trkpt>
        <trkpt lat="29.5555613" lon="103.3850446"><ele>914.34</ele><time>2026-02-10T06:39:09.000Z</time></trkpt>
        <trkpt lat="29.555653" lon="103.385065"><ele>910.05</ele><time>2026-02-10T06:39:18.000Z</time></trkpt>
        <trkpt lat="29.5557039" lon="103.3851483"><ele>909.62</ele><time>2026-02-10T06:39:30.000Z</time></trkpt>
        <trkpt lat="29.5556941" lon="103.3852592"><ele>908.28</ele><time>2026-02-10T06:39:41.000Z</time></trkpt>
        <trkpt lat="29.5556878" lon="103.385373"><ele>901.24</ele><time>2026-02-10T06:39:51.000Z</time></trkpt>
        <trkpt lat="29.5557419" lon="103.3854521"><ele>896.19</ele><time>2026-02-10T06:40:16.000Z</time></trkpt>
        <trkpt lat="29.5557956" lon="103.3855436"><ele>894.14</ele><time>2026-02-10T06:40:39.000Z</time></trkpt>
        <trkpt lat="29.5558802" lon="103.3855228"><ele>890.61</ele><time>2026-02-10T06:41:08.000Z</time></trkpt>
        <trkpt lat="29.5559263" lon="103.3855906"><ele>883.05</ele><time>2026-02-10T06:41:18.000Z</time></trkpt>
        <trkpt lat="29.5560037" lon="103.385557"><ele>876.94</ele><time>2026-02-10T06:41:36.000Z</time></trkpt>
        <trkpt lat="29.556072" lon="103.385465"><ele>870.35</ele><time>2026-02-10T06:41:51.000Z</time></trkpt>
        <trkpt lat="29.5560955" lon="103.3855185"><ele>864.82</ele><time>2026-02-10T06:42:10.000Z</time></trkpt>
        <trkpt lat="29.5560715" lon="103.385625"><ele>861.44</ele><time>2026-02-10T06:42:21.000Z</time></trkpt>
        <trkpt lat="29.5560739" lon="103.3857434"><ele>858.33</ele><time>2026-02-10T06:42:33.000Z</time></trkpt>
        <trkpt lat="29.5560039" lon="103.385828"><ele>854.22</ele><time>2026-02-10T06:42:53.000Z</time></trkpt>
        <trkpt lat="29.5560397" lon="103.3858949"><ele>851.72</ele><time>2026-02-10T06:43:06.000Z</time></trkpt>
        <trkpt lat="29.5559916" lon="103.3859401"><ele>848.88</ele><time>2026-02-10T06:43:25.000Z</time></trkpt>
        <trkpt lat="29.5559133" lon="103.385995"><ele>845.45</ele><time>2026-02-10T06:43:34.000Z</time></trkpt>
        <trkpt lat="29.5559133" lon="103.385995"><ele>845.45</ele><time>2026-02-10T06:43:41.000Z</time></trkpt>
        <trkpt lat="29.5559133" lon="103.385995"><ele>845.45</ele><time>2026-02-10T06:43:50.000Z</time></trkpt>
        <trkpt lat="29.5559133" lon="103.385995"><ele>845.45</ele><time>2026-02-10T06:44:07.000Z</time></trkpt>
        <trkpt lat="29.5559801" lon="103.385876"><ele>842.62</ele><time>2026-02-10T06:44:32.000Z</time></trkpt>
        <trkpt lat="29.5559801" lon="103.385876"><ele>842.62</ele><time>2026-02-10T06:44:35.000Z</time></trkpt>
        <trkpt lat="29.5559468" lon="103.3859792"><ele>840.08</ele><time>2026-02-10T06:44:37.000Z</time></trkpt>
        <trkpt lat="29.5559468" lon="103.3859792"><ele>840.08</ele><time>2026-02-10T06:44:43.000Z</time></trkpt>
        <trkpt lat="29.5560262" lon="103.3858311"><ele>838</ele><time>2026-02-10T06:45:12.000Z</time></trkpt>
        <trkpt lat="29.5560262" lon="103.3858311"><ele>838</ele><time>2026-02-10T06:45:13.000Z</time></trkpt>
        <trkpt lat="29.5559351" lon="103.3858487"><ele>837.25</ele><time>2026-02-10T06:45:17.000Z</time></trkpt>
        <trkpt lat="29.5559635" lon="103.3859113"><ele>835.88</ele><time>2026-02-10T06:45:30.000Z</time></trkpt>
        <trkpt lat="29.5560039" lon="103.3860083"><ele>832.65</ele><time>2026-02-10T06:45:42.000Z</time></trkpt>
        <trkpt lat="29.5560842" lon="103.3860628"><ele>830.64</ele><time>2026-02-10T06:45:53.000Z</time></trkpt>
        <trkpt lat="29.5561849" lon="103.3860882"><ele>828.33</ele><time>2026-02-10T06:46:09.000Z</time></trkpt>
        <trkpt lat="29.5562782" lon="103.386055"><ele>823.18</ele><time>2026-02-10T06:46:23.000Z</time></trkpt>
        <trkpt lat="29.5563583" lon="103.3859832"><ele>821.29</ele><time>2026-02-10T06:46:43.000Z</time></trkpt>
        <trkpt lat="29.5563583" lon="103.3859832"><ele>821.29</ele><time>2026-02-10T06:47:13.000Z</time></trkpt>
        <trkpt lat="29.5565103" lon="103.385674"><ele>818.89</ele><time>2026-02-10T06:47:30.000Z</time></trkpt>
        <trkpt lat="29.5565103" lon="103.385674"><ele>818.89</ele><time>2026-02-10T06:47:31.000Z</time></trkpt>
        <trkpt lat="29.5566209" lon="103.3858637"><ele>825.16</ele><time>2026-02-10T06:47:39.000Z</time></trkpt>
        <trkpt lat="29.5565805" lon="103.3859672"><ele>825.33</ele><time>2026-02-10T06:47:58.000Z</time></trkpt>
        <trkpt lat="29.5565308" lon="103.3860285"><ele>822.2</ele><time>2026-02-10T06:48:06.000Z</time></trkpt>
        <trkpt lat="29.5565435" lon="103.3861235"><ele>818.62</ele><time>2026-02-10T06:48:35.000Z</time></trkpt>
        <trkpt lat="29.5566135" lon="103.3861262"><ele>812.95</ele><time>2026-02-10T06:49:16.000Z</time></trkpt>
        <trkpt lat="29.5567121" lon="103.3860752"><ele>804.35</ele><time>2026-02-10T06:49:22.000Z</time></trkpt>
        <trkpt lat="29.5568138" lon="103.3860276"><ele>799.26</ele><time>2026-02-10T06:49:28.000Z</time></trkpt>
        <trkpt lat="29.5568964" lon="103.3860794"><ele>796.44</ele><time>2026-02-10T06:49:42.000Z</time></trkpt>
        <trkpt lat="29.5569782" lon="103.3861565"><ele>793.2</ele><time>2026-02-10T06:49:52.000Z</time></trkpt>
        <trkpt lat="29.5570238" lon="103.386275"><ele>792.03</ele><time>2026-02-10T06:50:03.000Z</time></trkpt>
        <trkpt lat="29.5570483" lon="103.3863997"><ele>792.37</ele><time>2026-02-10T06:50:12.000Z</time></trkpt>
        <trkpt lat="29.5571218" lon="103.3864282"><ele>791.72</ele><time>2026-02-10T06:50:26.000Z</time></trkpt>
        <trkpt lat="29.5572152" lon="103.3864582"><ele>789.54</ele><time>2026-02-10T06:50:34.000Z</time></trkpt>
        <trkpt lat="29.5573089" lon="103.3864961"><ele>792.01</ele><time>2026-02-10T06:50:43.000Z</time></trkpt>
        <trkpt lat="29.5573882" lon="103.3865552"><ele>793.49</ele><time>2026-02-10T06:50:54.000Z</time></trkpt>
        <trkpt lat="29.5574233" lon="103.3866551"><ele>793.73</ele><time>2026-02-10T06:51:07.000Z</time></trkpt>
        <trkpt lat="29.557502" lon="103.3867185"><ele>790</ele><time>2026-02-10T06:51:21.000Z</time></trkpt>
        <trkpt lat="29.557568" lon="103.3867668"><ele>789.14</ele><time>2026-02-10T06:51:27.000Z</time></trkpt>
        <trkpt lat="29.5576499" lon="103.386829"><ele>788.04</ele><time>2026-02-10T06:51:35.000Z</time></trkpt>
        <trkpt lat="29.557693" lon="103.3869268"><ele>787.61</ele><time>2026-02-10T06:51:45.000Z</time></trkpt>
        <trkpt lat="29.5576854" lon="103.3870408"><ele>787.4</ele><time>2026-02-10T06:51:55.000Z</time></trkpt>
        <trkpt lat="29.5576854" lon="103.3870408"><ele>787.4</ele><time>2026-02-10T06:52:27.000Z</time></trkpt>
        <trkpt lat="29.5578566" lon="103.3870678"><ele>787.3</ele><time>2026-02-10T06:53:24.000Z</time></trkpt>
        <trkpt lat="29.5578566" lon="103.3870678"><ele>787.3</ele><time>2026-02-10T06:53:26.000Z</time></trkpt>
        <trkpt lat="29.5578566" lon="103.3870678"><ele>787.3</ele><time>2026-02-10T06:53:39.000Z</time></trkpt>
        <trkpt lat="29.5577328" lon="103.3869216"><ele>782.48</ele><time>2026-02-10T06:53:52.000Z</time></trkpt>
        <trkpt lat="29.5577328" lon="103.3869216"><ele>782.48</ele><time>2026-02-10T06:53:53.000Z</time></trkpt>
        <trkpt lat="29.5577074" lon="103.3869756"><ele>774.85</ele><time>2026-02-10T06:53:57.000Z</time></trkpt>
        <trkpt lat="29.5577074" lon="103.3869756"><ele>774.85</ele><time>2026-02-10T06:54:19.000Z</time></trkpt>
        <trkpt lat="29.5577074" lon="103.3869756"><ele>774.85</ele><time>2026-02-10T06:54:20.000Z</time></trkpt>
        <trkpt lat="29.5577074" lon="103.3869756"><ele>774.85</ele><time>2026-02-10T06:55:01.000Z</time></trkpt>
        <trkpt lat="29.5577074" lon="103.3869756"><ele>774.85</ele><time>2026-02-10T06:55:12.000Z</time></trkpt>
        <trkpt lat="29.5577074" lon="103.3869756"><ele>774.85</ele><time>2026-02-10T06:56:23.000Z</time></trkpt>
        <trkpt lat="29.5575444" lon="103.3870795"><ele>773.38</ele><time>2026-02-10T06:56:58.000Z</time></trkpt>
        <trkpt lat="29.5575444" lon="103.3870795"><ele>773.38</ele><time>2026-02-10T06:56:59.000Z</time></trkpt>
        <trkpt lat="29.5576727" lon="103.3869885"><ele>773.08</ele><time>2026-02-10T06:57:03.000Z</time></trkpt>
        <trkpt lat="29.5576727" lon="103.3869885"><ele>773.08</ele><time>2026-02-10T06:57:11.000Z</time></trkpt>
        <trkpt lat="29.5576727" lon="103.3869885"><ele>773.08</ele><time>2026-02-10T06:57:22.000Z</time></trkpt>
        <trkpt lat="29.5576727" lon="103.3869885"><ele>773.08</ele><time>2026-02-10T06:58:01.000Z</time></trkpt>
        <trkpt lat="29.5576727" lon="103.3869885"><ele>773.08</ele><time>2026-02-10T06:58:02.000Z</time></trkpt>
        <trkpt lat="29.5576727" lon="103.3869885"><ele>773.08</ele><time>2026-02-10T06:58:45.000Z</time></trkpt>
        <trkpt lat="29.557641" lon="103.3871044"><ele>771.78</ele><time>2026-02-10T06:59:00.000Z</time></trkpt>
        <trkpt lat="29.557641" lon="103.3871044"><ele>771.78</ele><time>2026-02-10T06:59:03.000Z</time></trkpt>
        <trkpt lat="29.5576793" lon="103.3869946"><ele>779.69</ele><time>2026-02-10T06:59:05.000Z</time></trkpt>
        <trkpt lat="29.5576793" lon="103.3869946"><ele>779.69</ele><time>2026-02-10T06:59:23.000Z</time></trkpt>
        <trkpt lat="29.5577508" lon="103.3868774"><ele>778.85</ele><time>2026-02-10T07:00:16.000Z</time></trkpt>
        <trkpt lat="29.5577508" lon="103.3868774"><ele>778.85</ele><time>2026-02-10T07:00:38.000Z</time></trkpt>
        <trkpt lat="29.5577915" lon="103.3869715"><ele>776.24</ele><time>2026-02-10T07:00:42.000Z</time></trkpt>
        <trkpt lat="29.5577087" lon="103.3870281"><ele>769.73</ele><time>2026-02-10T07:00:48.000Z</time></trkpt>
        <trkpt lat="29.5577087" lon="103.3870281"><ele>769.73</ele><time>2026-02-10T07:01:41.000Z</time></trkpt>
        <trkpt lat="29.5577087" lon="103.3870281"><ele>769.73</ele><time>2026-02-10T07:01:58.000Z</time></trkpt>
        <trkpt lat="29.5577087" lon="103.3870281"><ele>769.73</ele><time>2026-02-10T07:02:07.000Z</time></trkpt>
        <trkpt lat="29.5575281" lon="103.3872547"><ele>775.82</ele><time>2026-02-10T07:02:22.000Z</time></trkpt>
        <trkpt lat="29.5575281" lon="103.3872547"><ele>775.82</ele><time>2026-02-10T07:02:23.000Z</time></trkpt>
        <trkpt lat="29.5576861" lon="103.3869"><ele>775.76</ele><time>2026-02-10T07:02:29.000Z</time></trkpt>
        <trkpt lat="29.5577305" lon="103.3869313"><ele>778.34</ele><time>2026-02-10T07:02:51.000Z</time></trkpt>
        <trkpt lat="29.5577957" lon="103.3870027"><ele>780.39</ele><time>2026-02-10T07:03:03.000Z</time></trkpt>
        <trkpt lat="29.5578831" lon="103.3870674"><ele>778.58</ele><time>2026-02-10T07:03:11.000Z</time></trkpt>
        <trkpt lat="29.558004" lon="103.3871503"><ele>775.92</ele><time>2026-02-10T07:03:19.000Z</time></trkpt>
        <trkpt lat="29.5580619" lon="103.3872085"><ele>779.25</ele><time>2026-02-10T07:03:23.000Z</time></trkpt>
        <trkpt lat="29.5581374" lon="103.3872527"><ele>779.16</ele><time>2026-02-10T07:03:33.000Z</time></trkpt>
        <trkpt lat="29.5582113" lon="103.3873109"><ele>778.81</ele><time>2026-02-10T07:03:43.000Z</time></trkpt>
        <trkpt lat="29.5582725" lon="103.3873862"><ele>778.03</ele><time>2026-02-10T07:03:51.000Z</time></trkpt>
        <trkpt lat="29.5583213" lon="103.387478"><ele>777.3</ele><time>2026-02-10T07:03:57.000Z</time></trkpt>
        <trkpt lat="29.5583859" lon="103.3875785"><ele>775.53</ele><time>2026-02-10T07:04:06.000Z</time></trkpt>
        <trkpt lat="29.5584512" lon="103.3876917"><ele>772.62</ele><time>2026-02-10T07:04:15.000Z</time></trkpt>
        <trkpt lat="29.5585309" lon="103.3877766"><ele>770.32</ele><time>2026-02-10T07:04:27.000Z</time></trkpt>
        <trkpt lat="29.5586022" lon="103.3878591"><ele>768.5</ele><time>2026-02-10T07:04:35.000Z</time></trkpt>
        <trkpt lat="29.558697" lon="103.3879187"><ele>766.71</ele><time>2026-02-10T07:04:43.000Z</time></trkpt>
        <trkpt lat="29.5588082" lon="103.3879139"><ele>765.02</ele><time>2026-02-10T07:04:47.000Z</time></trkpt>
        <trkpt lat="29.5589202" lon="103.3878725"><ele>764.38</ele><time>2026-02-10T07:04:53.000Z</time></trkpt>
        <trkpt lat="29.5590213" lon="103.3878402"><ele>763.67</ele><time>2026-02-10T07:04:59.000Z</time></trkpt>
        <trkpt lat="29.5591156" lon="103.3878473"><ele>762.95</ele><time>2026-02-10T07:05:05.000Z</time></trkpt>
        <trkpt lat="29.5592172" lon="103.3878889"><ele>762.31</ele><time>2026-02-10T07:05:15.000Z</time></trkpt>
        <trkpt lat="29.5593105" lon="103.3879443"><ele>761.21</ele><time>2026-02-10T07:05:23.000Z</time></trkpt>
        <trkpt lat="29.5593991" lon="103.3879876"><ele>760.07</ele><time>2026-02-10T07:05:30.000Z</time></trkpt>
        <trkpt lat="29.5594909" lon="103.3880349"><ele>759.37</ele><time>2026-02-10T07:05:39.000Z</time></trkpt>
        <trkpt lat="29.5595771" lon="103.388091"><ele>758.77</ele><time>2026-02-10T07:05:47.000Z</time></trkpt>
        <trkpt lat="29.5596417" lon="103.3881944"><ele>758.25</ele><time>2026-02-10T07:05:56.000Z</time></trkpt>
        <trkpt lat="29.5596686" lon="103.3883045"><ele>758.35</ele><time>2026-02-10T07:06:06.000Z</time></trkpt>
        <trkpt lat="29.5597385" lon="103.3883941"><ele>758.43</ele><time>2026-02-10T07:06:15.000Z</time></trkpt>
        <trkpt lat="29.5598259" lon="103.3884762"><ele>759.49</ele><time>2026-02-10T07:06:25.000Z</time></trkpt>
        <trkpt lat="29.5599058" lon="103.3885623"><ele>760.42</ele><time>2026-02-10T07:06:32.000Z</time></trkpt>
        <trkpt lat="29.5599895" lon="103.3886416"><ele>760.41</ele><time>2026-02-10T07:06:40.000Z</time></trkpt>
        <trkpt lat="29.5600895" lon="103.3886891"><ele>760.19</ele><time>2026-02-10T07:06:49.000Z</time></trkpt>
        <trkpt lat="29.560182" lon="103.3887301"><ele>760.52</ele><time>2026-02-10T07:06:57.000Z</time></trkpt>
        <trkpt lat="29.5601696" lon="103.388818"><ele>761.2</ele><time>2026-02-10T07:07:07.000Z</time></trkpt>
        <trkpt lat="29.5601384" lon="103.3889255"><ele>761.43</ele><time>2026-02-10T07:07:18.000Z</time></trkpt>
        <trkpt lat="29.5601517" lon="103.3890372"><ele>760.54</ele><time>2026-02-10T07:07:29.000Z</time></trkpt>
        <trkpt lat="29.5601764" lon="103.3891459"><ele>759.18</ele><time>2026-02-10T07:07:37.000Z</time></trkpt>
        <trkpt lat="29.5602238" lon="103.3892411"><ele>756.78</ele><time>2026-02-10T07:07:50.000Z</time></trkpt>
        <trkpt lat="29.5602552" lon="103.3893439"><ele>754.11</ele><time>2026-02-10T07:08:09.000Z</time></trkpt>
        <trkpt lat="29.5602976" lon="103.389444"><ele>750.56</ele><time>2026-02-10T07:08:25.000Z</time></trkpt>
        <trkpt lat="29.5603853" lon="103.3894872"><ele>747.47</ele><time>2026-02-10T07:08:31.000Z</time></trkpt>
        <trkpt lat="29.5604958" lon="103.3895107"><ele>745.9</ele><time>2026-02-10T07:08:41.000Z</time></trkpt>
        <trkpt lat="29.5605977" lon="103.3895042"><ele>743.79</ele><time>2026-02-10T07:08:51.000Z</time></trkpt>
        <trkpt lat="29.5607046" lon="103.3894781"><ele>742.39</ele><time>2026-02-10T07:08:59.000Z</time></trkpt>
        <trkpt lat="29.560825" lon="103.3894423"><ele>741.16</ele><time>2026-02-10T07:09:07.000Z</time></trkpt>
        <trkpt lat="29.5609339" lon="103.3894048"><ele>739.6</ele><time>2026-02-10T07:09:17.000Z</time></trkpt>
        <trkpt lat="29.5610277" lon="103.389366"><ele>737.9</ele><time>2026-02-10T07:09:24.000Z</time></trkpt>
        <trkpt lat="29.5611223" lon="103.3893382"><ele>736.97</ele><time>2026-02-10T07:09:32.000Z</time></trkpt>
        <trkpt lat="29.5612244" lon="103.3893334"><ele>736.66</ele><time>2026-02-10T07:09:41.000Z</time></trkpt>
        <trkpt lat="29.5613365" lon="103.3893459"><ele>735.4</ele><time>2026-02-10T07:09:51.000Z</time></trkpt>
        <trkpt lat="29.5614357" lon="103.3893409"><ele>733.72</ele><time>2026-02-10T07:09:58.000Z</time></trkpt>
        <trkpt lat="29.5615369" lon="103.3893392"><ele>733.4</ele><time>2026-02-10T07:10:06.000Z</time></trkpt>
        <trkpt lat="29.5616411" lon="103.3893534"><ele>733.4</ele><time>2026-02-10T07:10:17.000Z</time></trkpt>
        <trkpt lat="29.5617314" lon="103.3894105"><ele>732.44</ele><time>2026-02-10T07:10:25.000Z</time></trkpt>
        <trkpt lat="29.5618802" lon="103.3894638"><ele>730.69</ele><time>2026-02-10T07:10:33.000Z</time></trkpt>
        <trkpt lat="29.5619905" lon="103.3894729"><ele>731.04</ele><time>2026-02-10T07:10:39.000Z</time></trkpt>
        <trkpt lat="29.5620778" lon="103.3894225"><ele>727.89</ele><time>2026-02-10T07:10:49.000Z</time></trkpt>
        <trkpt lat="29.5621159" lon="103.3893226"><ele>728.1</ele><time>2026-02-10T07:10:59.000Z</time></trkpt>
        <trkpt lat="29.5620523" lon="103.3892404"><ele>727.55</ele><time>2026-02-10T07:11:04.000Z</time></trkpt>
        <trkpt lat="29.5619944" lon="103.3891436"><ele>729.15</ele><time>2026-02-10T07:11:31.000Z</time></trkpt>
        <trkpt lat="29.5620503" lon="103.3890798"><ele>731.75</ele><time>2026-02-10T07:12:08.000Z</time></trkpt>
        <trkpt lat="29.5621482" lon="103.3890556"><ele>734.74</ele><time>2026-02-10T07:12:19.000Z</time></trkpt>
        <trkpt lat="29.5622607" lon="103.3890279"><ele>736.6</ele><time>2026-02-10T07:12:31.000Z</time></trkpt>
        <trkpt lat="29.5623694" lon="103.3890215"><ele>738.17</ele><time>2026-02-10T07:12:39.000Z</time></trkpt>
        <trkpt lat="29.5624546" lon="103.3890918"><ele>736.87</ele><time>2026-02-10T07:12:45.000Z</time></trkpt>
        <trkpt lat="29.5625426" lon="103.3891339"><ele>734.89</ele><time>2026-02-10T07:12:55.000Z</time></trkpt>
        <trkpt lat="29.5626401" lon="103.3891184"><ele>732.75</ele><time>2026-02-10T07:13:13.000Z</time></trkpt>
        <trkpt lat="29.5627468" lon="103.3890974"><ele>730.4</ele><time>2026-02-10T07:13:25.000Z</time></trkpt>
        <trkpt lat="29.5628665" lon="103.3890665"><ele>727.99</ele><time>2026-02-10T07:13:37.000Z</time></trkpt>
        <trkpt lat="29.5629778" lon="103.3890149"><ele>725.56</ele><time>2026-02-10T07:13:46.000Z</time></trkpt>
        <trkpt lat="29.5630822" lon="103.3889574"><ele>723.1</ele><time>2026-02-10T07:14:43.000Z</time></trkpt>
        <trkpt lat="29.5631769" lon="103.3889019"><ele>722.99</ele><time>2026-02-10T07:14:51.000Z</time></trkpt>
        <trkpt lat="29.5632683" lon="103.3888678"><ele>723.97</ele><time>2026-02-10T07:14:59.000Z</time></trkpt>
        <trkpt lat="29.5633611" lon="103.3888477"><ele>723.8</ele><time>2026-02-10T07:15:13.000Z</time></trkpt>
        <trkpt lat="29.563451" lon="103.3888328"><ele>722.9</ele><time>2026-02-10T07:15:23.000Z</time></trkpt>
        <trkpt lat="29.5635522" lon="103.388842"><ele>722.33</ele><time>2026-02-10T07:15:33.000Z</time></trkpt>
        <trkpt lat="29.5636396" lon="103.3888971"><ele>721.4</ele><time>2026-02-10T07:15:42.000Z</time></trkpt>
        <trkpt lat="29.5637341" lon="103.3889513"><ele>720.3</ele><time>2026-02-10T07:15:50.000Z</time></trkpt>
        <trkpt lat="29.563837" lon="103.3889711"><ele>719.12</ele><time>2026-02-10T07:16:00.000Z</time></trkpt>
        <trkpt lat="29.5639354" lon="103.3889549"><ele>717.29</ele><time>2026-02-10T07:16:09.000Z</time></trkpt>
        <trkpt lat="29.5640184" lon="103.3889028"><ele>715.64</ele><time>2026-02-10T07:16:17.000Z</time></trkpt>
        <trkpt lat="29.5641239" lon="103.3888658"><ele>714.1</ele><time>2026-02-10T07:16:24.000Z</time></trkpt>
        <trkpt lat="29.5642275" lon="103.3888624"><ele>712.63</ele><time>2026-02-10T07:16:37.000Z</time></trkpt>
        <trkpt lat="29.56433" lon="103.3888865"><ele>711.49</ele><time>2026-02-10T07:16:49.000Z</time></trkpt>
        <trkpt lat="29.5644434" lon="103.3889101"><ele>709.01</ele><time>2026-02-10T07:16:58.000Z</time></trkpt>
        <trkpt lat="29.5645433" lon="103.3889598"><ele>706.36</ele><time>2026-02-10T07:17:07.000Z</time></trkpt>
        <trkpt lat="29.5646363" lon="103.3889987"><ele>704.44</ele><time>2026-02-10T07:17:16.000Z</time></trkpt>
        <trkpt lat="29.564735" lon="103.38904"><ele>703.09</ele><time>2026-02-10T07:17:27.000Z</time></trkpt>
        <trkpt lat="29.5648092" lon="103.3891183"><ele>701.61</ele><time>2026-02-10T07:17:35.000Z</time></trkpt>
        <trkpt lat="29.564888" lon="103.3891977"><ele>700.3</ele><time>2026-02-10T07:17:43.000Z</time></trkpt>
        <trkpt lat="29.5649747" lon="103.3892552"><ele>700.39</ele><time>2026-02-10T07:17:51.000Z</time></trkpt>
        <trkpt lat="29.5650605" lon="103.3892983"><ele>700.78</ele><time>2026-02-10T07:17:57.000Z</time></trkpt>
        <trkpt lat="29.5651216" lon="103.3893814"><ele>701.05</ele><time>2026-02-10T07:18:03.000Z</time></trkpt>
        <trkpt lat="29.5651884" lon="103.3894686"><ele>701.34</ele><time>2026-02-10T07:18:14.000Z</time></trkpt>
        <trkpt lat="29.5652695" lon="103.3895377"><ele>701.45</ele><time>2026-02-10T07:18:25.000Z</time></trkpt>
        <trkpt lat="29.5653551" lon="103.3896093"><ele>700.37</ele><time>2026-02-10T07:18:35.000Z</time></trkpt>
        <trkpt lat="29.5654408" lon="103.3896552"><ele>699.29</ele><time>2026-02-10T07:18:47.000Z</time></trkpt>
        <trkpt lat="29.5655367" lon="103.3896777"><ele>697.55</ele><time>2026-02-10T07:18:55.000Z</time></trkpt>
        <trkpt lat="29.5656301" lon="103.3896911"><ele>696.37</ele><time>2026-02-10T07:19:05.000Z</time></trkpt>
        <trkpt lat="29.5657845" lon="103.3896606"><ele>695.09</ele><time>2026-02-10T07:19:17.000Z</time></trkpt>
        <trkpt lat="29.5658407" lon="103.3897228"><ele>694.95</ele><time>2026-02-10T07:19:37.000Z</time></trkpt>
        <trkpt lat="29.5659248" lon="103.3897378"><ele>696.77</ele><time>2026-02-10T07:19:51.000Z</time></trkpt>
        <trkpt lat="29.566008" lon="103.3897091"><ele>694.18</ele><time>2026-02-10T07:19:57.000Z</time></trkpt>
        <trkpt lat="29.5661179" lon="103.3896877"><ele>692.5</ele><time>2026-02-10T07:20:05.000Z</time></trkpt>
        <trkpt lat="29.5662071" lon="103.3897293"><ele>691.07</ele><time>2026-02-10T07:20:15.000Z</time></trkpt>
        <trkpt lat="29.5662912" lon="103.3897865"><ele>690.22</ele><time>2026-02-10T07:20:22.000Z</time></trkpt>
        <trkpt lat="29.5663833" lon="103.3898064"><ele>689.29</ele><time>2026-02-10T07:20:29.000Z</time></trkpt>
        <trkpt lat="29.5664759" lon="103.3898206"><ele>686.59</ele><time>2026-02-10T07:20:44.000Z</time></trkpt>
        <trkpt lat="29.56656" lon="103.3898624"><ele>688.1</ele><time>2026-02-10T07:21:11.000Z</time></trkpt>
        <trkpt lat="29.5666443" lon="103.3899275"><ele>688.49</ele><time>2026-02-10T07:21:20.000Z</time></trkpt>
        <trkpt lat="29.5667153" lon="103.3900035"><ele>686.41</ele><time>2026-02-10T07:21:26.000Z</time></trkpt>
        <trkpt lat="29.5667925" lon="103.3900863"><ele>685.4</ele><time>2026-02-10T07:21:34.000Z</time></trkpt>
        <trkpt lat="29.5668769" lon="103.3901451"><ele>683.38</ele><time>2026-02-10T07:21:45.000Z</time></trkpt>
        <trkpt lat="29.5669559" lon="103.3902102"><ele>681.17</ele><time>2026-02-10T07:21:52.000Z</time></trkpt>
        <trkpt lat="29.5670422" lon="103.3902636"><ele>680.15</ele><time>2026-02-10T07:21:59.000Z</time></trkpt>
        <trkpt lat="29.5671466" lon="103.3902851"><ele>681.17</ele><time>2026-02-10T07:22:09.000Z</time></trkpt>
        <trkpt lat="29.5672364" lon="103.3903234"><ele>682.48</ele><time>2026-02-10T07:22:15.000Z</time></trkpt>
        <trkpt lat="29.5673259" lon="103.3903907"><ele>682.69</ele><time>2026-02-10T07:22:25.000Z</time></trkpt>
        <trkpt lat="29.567412" lon="103.3904427"><ele>682.58</ele><time>2026-02-10T07:22:35.000Z</time></trkpt>
        <trkpt lat="29.5674614" lon="103.3905526"><ele>682.48</ele><time>2026-02-10T07:22:44.000Z</time></trkpt>
        <trkpt lat="29.5674907" lon="103.3906607"><ele>681.35</ele><time>2026-02-10T07:22:49.000Z</time></trkpt>
        <trkpt lat="29.5675683" lon="103.390723"><ele>680.24</ele><time>2026-02-10T07:22:55.000Z</time></trkpt>
        <trkpt lat="29.5676639" lon="103.3907678"><ele>680.25</ele><time>2026-02-10T07:23:03.000Z</time></trkpt>
        <trkpt lat="29.5677583" lon="103.3908092"><ele>679.06</ele><time>2026-02-10T07:23:12.000Z</time></trkpt>
        <trkpt lat="29.5678519" lon="103.3908029"><ele>677.75</ele><time>2026-02-10T07:23:22.000Z</time></trkpt>
        <trkpt lat="29.5679421" lon="103.3908346"><ele>676.75</ele><time>2026-02-10T07:23:33.000Z</time></trkpt>
        <trkpt lat="29.5680346" lon="103.3908877"><ele>675.84</ele><time>2026-02-10T07:23:43.000Z</time></trkpt>
        <trkpt lat="29.5681249" lon="103.3909555"><ele>676.38</ele><time>2026-02-10T07:23:55.000Z</time></trkpt>
        <trkpt lat="29.5682927" lon="103.3908671"><ele>677.02</ele><time>2026-02-10T07:24:39.000Z</time></trkpt>
        <trkpt lat="29.5683185" lon="103.3908482"><ele>677.73</ele><time>2026-02-10T07:24:50.000Z</time></trkpt>
        <trkpt lat="29.5683845" lon="103.3908256"><ele>678.81</ele><time>2026-02-10T07:25:09.000Z</time></trkpt>
        <trkpt lat="29.5683845" lon="103.3908256"><ele>678.81</ele><time>2026-02-10T07:25:27.000Z</time></trkpt>
        <trkpt lat="29.5683468" lon="103.3909021"><ele>673.66</ele><time>2026-02-10T07:25:30.000Z</time></trkpt>
        <trkpt lat="29.5683468" lon="103.3909021"><ele>673.66</ele><time>2026-02-10T07:25:36.000Z</time></trkpt>
        <trkpt lat="29.5683468" lon="103.3909021"><ele>673.66</ele><time>2026-02-10T07:25:41.000Z</time></trkpt>
        <trkpt lat="29.5684433" lon="103.3909006"><ele>673.88</ele><time>2026-02-10T07:26:06.000Z</time></trkpt>
        <trkpt lat="29.5684433" lon="103.3909006"><ele>673.88</ele><time>2026-02-10T07:26:08.000Z</time></trkpt>
        <trkpt lat="29.568376" lon="103.3910091"><ele>675.56</ele><time>2026-02-10T07:26:16.000Z</time></trkpt>
        <trkpt lat="29.5683686" lon="103.3909372"><ele>675.1</ele><time>2026-02-10T07:26:20.000Z</time></trkpt>
        <trkpt lat="29.5683038" lon="103.3909674"><ele>671.33</ele><time>2026-02-10T07:26:24.000Z</time></trkpt>
        <trkpt lat="29.5682826" lon="103.390965"><ele>672.39</ele><time>2026-02-10T07:26:28.000Z</time></trkpt>
        <trkpt lat="29.5683347" lon="103.3909179"><ele>673.07</ele><time>2026-02-10T07:26:42.000Z</time></trkpt>
        <trkpt lat="29.5683347" lon="103.3909179"><ele>673.07</ele><time>2026-02-10T07:27:11.000Z</time></trkpt>
        <trkpt lat="29.5683347" lon="103.3909179"><ele>673.07</ele><time>2026-02-10T07:27:18.000Z</time></trkpt>
        <trkpt lat="29.5683347" lon="103.3909179"><ele>673.07</ele><time>2026-02-10T07:28:17.000Z</time></trkpt>
        <trkpt lat="29.5683347" lon="103.3909179"><ele>673.07</ele><time>2026-02-10T07:28:24.000Z</time></trkpt>
        <trkpt lat="29.5683347" lon="103.3909179"><ele>673.07</ele><time>2026-02-10T07:28:37.000Z</time></trkpt>
        <trkpt lat="29.5683303" lon="103.3910103"><ele>670.33</ele><time>2026-02-10T07:28:46.000Z</time></trkpt>
        <trkpt lat="29.5683303" lon="103.3910103"><ele>670.33</ele><time>2026-02-10T07:28:50.000Z</time></trkpt>
        <trkpt lat="29.5683686" lon="103.3909046"><ele>670.38</ele><time>2026-02-10T07:29:16.000Z</time></trkpt>
        <trkpt lat="29.5684315" lon="103.3907938"><ele>668.64</ele><time>2026-02-10T07:30:00.000Z</time></trkpt>
        <trkpt lat="29.5684315" lon="103.3907938"><ele>668.64</ele><time>2026-02-10T07:30:05.000Z</time></trkpt>
        <trkpt lat="29.5684315" lon="103.3907938"><ele>668.64</ele><time>2026-02-10T07:32:32.000Z</time></trkpt>
        <trkpt lat="29.5684315" lon="103.3907938"><ele>668.64</ele><time>2026-02-10T07:32:43.000Z</time></trkpt>
        <trkpt lat="29.5680138" lon="103.3914583"><ele>669.85</ele><time>2026-02-10T07:33:42.000Z</time></trkpt>
        <trkpt lat="29.5680138" lon="103.3914583"><ele>669.85</ele><time>2026-02-10T07:33:44.000Z</time></trkpt>
        <trkpt lat="29.5681979" lon="103.3914576"><ele>674.19</ele><time>2026-02-10T07:33:48.000Z</time></trkpt>
        <trkpt lat="29.5681979" lon="103.3914576"><ele>674.19</ele><time>2026-02-10T07:33:53.000Z</time></trkpt>
        <trkpt lat="29.5684683" lon="103.3909656"><ele>673.98</ele><time>2026-02-10T07:34:02.000Z</time></trkpt>
        <trkpt lat="29.5684683" lon="103.3909656"><ele>673.98</ele><time>2026-02-10T07:34:02.000Z</time></trkpt>
        <trkpt lat="29.5684683" lon="103.3909656"><ele>673.98</ele><time>2026-02-10T07:34:31.000Z</time></trkpt>
        <trkpt lat="29.5684559" lon="103.390828"><ele>674.93</ele><time>2026-02-10T07:34:34.000Z</time></trkpt>
        <trkpt lat="29.5684559" lon="103.390828"><ele>674.93</ele><time>2026-02-10T07:34:34.000Z</time></trkpt>
        <trkpt lat="29.5684061" lon="103.3907173"><ele>677.03</ele><time>2026-02-10T07:35:10.000Z</time></trkpt>
        <trkpt lat="29.5684061" lon="103.3907173"><ele>677.03</ele><time>2026-02-10T07:35:17.000Z</time></trkpt>
        <trkpt lat="29.5684623" lon="103.3907213"><ele>677.33</ele><time>2026-02-10T07:35:18.000Z</time></trkpt>
        <trkpt lat="29.5684623" lon="103.3907213"><ele>677.33</ele><time>2026-02-10T07:35:25.000Z</time></trkpt>
        <trkpt lat="29.5685462" lon="103.3907684"><ele>675.07</ele><time>2026-02-10T07:35:31.000Z</time></trkpt>
        <trkpt lat="29.5686256" lon="103.3908538"><ele>675.03</ele><time>2026-02-10T07:35:40.000Z</time></trkpt>
        <trkpt lat="29.5686763" lon="103.3909591"><ele>674.26</ele><time>2026-02-10T07:35:48.000Z</time></trkpt>
        <trkpt lat="29.5686891" lon="103.3910789"><ele>669.24</ele><time>2026-02-10T07:35:56.000Z</time></trkpt>
        <trkpt lat="29.5687473" lon="103.3911774"><ele>667.38</ele><time>2026-02-10T07:36:06.000Z</time></trkpt>
        <trkpt lat="29.5688382" lon="103.3912138"><ele>667.4</ele><time>2026-02-10T07:36:11.000Z</time></trkpt>
        <trkpt lat="29.5689336" lon="103.3912325"><ele>667.27</ele><time>2026-02-10T07:36:21.000Z</time></trkpt>
        <trkpt lat="29.5690136" lon="103.3911697"><ele>668.1</ele><time>2026-02-10T07:36:29.000Z</time></trkpt>
        <trkpt lat="29.5690786" lon="103.3910696"><ele>668.36</ele><time>2026-02-10T07:36:37.000Z</time></trkpt>
        <trkpt lat="29.56917" lon="103.3910047"><ele>668.15</ele><time>2026-02-10T07:36:45.000Z</time></trkpt>
        <trkpt lat="29.5692647" lon="103.3910056"><ele>666.82</ele><time>2026-02-10T07:36:51.000Z</time></trkpt>
        <trkpt lat="29.5693673" lon="103.3910273"><ele>665.78</ele><time>2026-02-10T07:36:59.000Z</time></trkpt>
        <trkpt lat="29.5694688" lon="103.3910401"><ele>664.39</ele><time>2026-02-10T07:37:25.000Z</time></trkpt>
        <trkpt lat="29.5695686" lon="103.3910811"><ele>665.36</ele><time>2026-02-10T07:37:35.000Z</time></trkpt>
        <trkpt lat="29.5696926" lon="103.3911124"><ele>665.32</ele><time>2026-02-10T07:37:45.000Z</time></trkpt>
        <trkpt lat="29.569806" lon="103.3911401"><ele>661.25</ele><time>2026-02-10T07:37:52.000Z</time></trkpt>
        <trkpt lat="29.569919" lon="103.3911714"><ele>660.05</ele><time>2026-02-10T07:37:59.000Z</time></trkpt>
        <trkpt lat="29.5700276" lon="103.3911931"><ele>660.27</ele><time>2026-02-10T07:38:09.000Z</time></trkpt>
        <trkpt lat="29.5701363" lon="103.3912158"><ele>660.37</ele><time>2026-02-10T07:38:17.000Z</time></trkpt>
        <trkpt lat="29.5702498" lon="103.39123"><ele>660.39</ele><time>2026-02-10T07:38:25.000Z</time></trkpt>
        <trkpt lat="29.5703535" lon="103.3912657"><ele>659.09</ele><time>2026-02-10T07:38:33.000Z</time></trkpt>
        <trkpt lat="29.5704618" lon="103.3913152"><ele>658.15</ele><time>2026-02-10T07:38:41.000Z</time></trkpt>
        <trkpt lat="29.5705404" lon="103.3913918"><ele>657.14</ele><time>2026-02-10T07:38:47.000Z</time></trkpt>
        <trkpt lat="29.5705864" lon="103.3914869"><ele>656.45</ele><time>2026-02-10T07:38:53.000Z</time></trkpt>
        <trkpt lat="29.5706568" lon="103.3915571"><ele>656.5</ele><time>2026-02-10T07:39:24.000Z</time></trkpt>
        <trkpt lat="29.5707465" lon="103.3916025"><ele>657.34</ele><time>2026-02-10T07:39:36.000Z</time></trkpt>
        <trkpt lat="29.5708514" lon="103.3916571"><ele>658.23</ele><time>2026-02-10T07:39:45.000Z</time></trkpt>
        <trkpt lat="29.5709631" lon="103.3917126"><ele>659.33</ele><time>2026-02-10T07:39:53.000Z</time></trkpt>
        <trkpt lat="29.5710639" lon="103.3917528"><ele>659.54</ele><time>2026-02-10T07:40:02.000Z</time></trkpt>
        <trkpt lat="29.5711696" lon="103.3917276"><ele>659.94</ele><time>2026-02-10T07:40:10.000Z</time></trkpt>
        <trkpt lat="29.5712617" lon="103.391684"><ele>654.56</ele><time>2026-02-10T07:40:16.000Z</time></trkpt>
        <trkpt lat="29.5713606" lon="103.3916345"><ele>653.74</ele><time>2026-02-10T07:40:25.000Z</time></trkpt>
        <trkpt lat="29.5714547" lon="103.3916121"><ele>654.05</ele><time>2026-02-10T07:40:33.000Z</time></trkpt>
        <trkpt lat="29.5715701" lon="103.3916152"><ele>654.76</ele><time>2026-02-10T07:40:44.000Z</time></trkpt>
        <trkpt lat="29.5716755" lon="103.3916263"><ele>655.96</ele><time>2026-02-10T07:40:51.000Z</time></trkpt>
        <trkpt lat="29.5717722" lon="103.3916417"><ele>656.53</ele><time>2026-02-10T07:40:57.000Z</time></trkpt>
        <trkpt lat="29.5718778" lon="103.391655"><ele>658.58</ele><time>2026-02-10T07:41:09.000Z</time></trkpt>
        <trkpt lat="29.5719855" lon="103.3916777"><ele>660.99</ele><time>2026-02-10T07:41:17.000Z</time></trkpt>
        <trkpt lat="29.5720844" lon="103.3917"><ele>664.6</ele><time>2026-02-10T07:41:28.000Z</time></trkpt>
        <trkpt lat="29.572173" lon="103.3917441"><ele>666.74</ele><time>2026-02-10T07:41:39.000Z</time></trkpt>
        <trkpt lat="29.572262" lon="103.3917652"><ele>667.47</ele><time>2026-02-10T07:41:47.000Z</time></trkpt>
        <trkpt lat="29.572342" lon="103.3918089"><ele>667.25</ele><time>2026-02-10T07:41:56.000Z</time></trkpt>
        <trkpt lat="29.5724315" lon="103.3918496"><ele>666.26</ele><time>2026-02-10T07:42:05.000Z</time></trkpt>
        <trkpt lat="29.5725223" lon="103.3918725"><ele>665.02</ele><time>2026-02-10T07:42:11.000Z</time></trkpt>
        <trkpt lat="29.5725223" lon="103.3918725"><ele>665.02</ele><time>2026-02-10T07:42:17.000Z</time></trkpt>
        <trkpt lat="29.5726214" lon="103.3918736"><ele>665.58</ele><time>2026-02-10T07:42:22.000Z</time></trkpt>
        <trkpt lat="29.5726214" lon="103.3918736"><ele>665.58</ele><time>2026-02-10T07:42:44.000Z</time></trkpt>
        <trkpt lat="29.5727082" lon="103.3919114"><ele>665.71</ele><time>2026-02-10T07:42:53.000Z</time></trkpt>
        <trkpt lat="29.5728115" lon="103.3919149"><ele>666.07</ele><time>2026-02-10T07:43:01.000Z</time></trkpt>
        <trkpt lat="29.5729043" lon="103.3918752"><ele>662.81</ele><time>2026-02-10T07:43:07.000Z</time></trkpt>
        <trkpt lat="29.5729803" lon="103.3918062"><ele>659.84</ele><time>2026-02-10T07:43:13.000Z</time></trkpt>
        <trkpt lat="29.5730538" lon="103.3917255"><ele>658.07</ele><time>2026-02-10T07:43:21.000Z</time></trkpt>
        <trkpt lat="29.5731378" lon="103.3917227"><ele>657.34</ele><time>2026-02-10T07:43:35.000Z</time></trkpt>
        <trkpt lat="29.5732296" lon="103.3917689"><ele>655.91</ele><time>2026-02-10T07:43:45.000Z</time></trkpt>
        <trkpt lat="29.573315" lon="103.3918446"><ele>654.76</ele><time>2026-02-10T07:44:01.000Z</time></trkpt>
        <trkpt lat="29.5734037" lon="103.3919406"><ele>653.53</ele><time>2026-02-10T07:44:09.000Z</time></trkpt>
        <trkpt lat="29.5734989" lon="103.3920269"><ele>652.42</ele><time>2026-02-10T07:44:15.000Z</time></trkpt>
        <trkpt lat="29.5735881" lon="103.3920966"><ele>652.53</ele><time>2026-02-10T07:44:23.000Z</time></trkpt>
        <trkpt lat="29.5736913" lon="103.3921475"><ele>653.12</ele><time>2026-02-10T07:44:31.000Z</time></trkpt>
        <trkpt lat="29.57379" lon="103.3921533"><ele>653</ele><time>2026-02-10T07:44:41.000Z</time></trkpt>
        <trkpt lat="29.5738851" lon="103.3921337"><ele>652.91</ele><time>2026-02-10T07:44:51.000Z</time></trkpt>
        <trkpt lat="29.5739878" lon="103.3921039"><ele>652.36</ele><time>2026-02-10T07:45:01.000Z</time></trkpt>
        <trkpt lat="29.5740902" lon="103.3921296"><ele>650.61</ele><time>2026-02-10T07:45:12.000Z</time></trkpt>
        <trkpt lat="29.5741699" lon="103.392187"><ele>649.69</ele><time>2026-02-10T07:45:48.000Z</time></trkpt>
        <trkpt lat="29.5742616" lon="103.3922938"><ele>650.95</ele><time>2026-02-10T07:46:00.000Z</time></trkpt>
        <trkpt lat="29.5743366" lon="103.3924026"><ele>651.21</ele><time>2026-02-10T07:46:04.000Z</time></trkpt>
        <trkpt lat="29.5743586" lon="103.3924537"><ele>651.49</ele><time>2026-02-10T07:46:10.000Z</time></trkpt>
        <trkpt lat="29.5742906" lon="103.3924347"><ele>651.6</ele><time>2026-02-10T07:46:48.000Z</time></trkpt>
        <trkpt lat="29.5741909" lon="103.3924481"><ele>651.14</ele><time>2026-02-10T07:47:42.000Z</time></trkpt>
        <trkpt lat="29.5741909" lon="103.3924481"><ele>651.14</ele><time>2026-02-10T07:48:05.000Z</time></trkpt>
        <trkpt lat="29.5740688" lon="103.3924517"><ele>651.9</ele><time>2026-02-10T07:48:10.000Z</time></trkpt>
        <trkpt lat="29.5740688" lon="103.3924517"><ele>651.9</ele><time>2026-02-10T07:48:42.000Z</time></trkpt>
        <trkpt lat="29.574071" lon="103.3925573"><ele>651.43</ele><time>2026-02-10T07:48:55.000Z</time></trkpt>
        <trkpt lat="29.5740857" lon="103.3926623"><ele>651.03</ele><time>2026-02-10T07:49:15.000Z</time></trkpt>
        <trkpt lat="29.5741414" lon="103.3927443"><ele>652.22</ele><time>2026-02-10T07:49:29.000Z</time></trkpt>
        <trkpt lat="29.5741414" lon="103.3927443"><ele>652.22</ele><time>2026-02-10T07:49:47.000Z</time></trkpt>
        <trkpt lat="29.5741414" lon="103.3927443"><ele>652.22</ele><time>2026-02-10T07:49:50.000Z</time></trkpt>
        <trkpt lat="29.5741414" lon="103.3927443"><ele>652.22</ele><time>2026-02-10T07:50:15.000Z</time></trkpt>
        <trkpt lat="29.5741414" lon="103.3927443"><ele>652.22</ele><time>2026-02-10T07:50:18.000Z</time></trkpt>
        <trkpt lat="29.5741414" lon="103.3927443"><ele>652.22</ele><time>2026-02-10T07:50:29.000Z</time></trkpt>
        <trkpt lat="29.5739078" lon="103.3929116"><ele>653.98</ele><time>2026-02-10T07:50:48.000Z</time></trkpt>
        <trkpt lat="29.5739078" lon="103.3929116"><ele>653.98</ele><time>2026-02-10T07:50:49.000Z</time></trkpt>
        <trkpt lat="29.5740349" lon="103.3928296"><ele>658.2</ele><time>2026-02-10T07:50:53.000Z</time></trkpt>
        <trkpt lat="29.5740349" lon="103.3928296"><ele>658.2</ele><time>2026-02-10T07:50:57.000Z</time></trkpt>
        <trkpt lat="29.5741572" lon="103.3927519"><ele>660.59</ele><time>2026-02-10T07:51:08.000Z</time></trkpt>
        <trkpt lat="29.5741572" lon="103.3927519"><ele>660.59</ele><time>2026-02-10T07:51:11.000Z</time></trkpt>
        <trkpt lat="29.5741952" lon="103.3927416"><ele>661.88</ele><time>2026-02-10T07:51:21.000Z</time></trkpt>
        <trkpt lat="29.5741952" lon="103.3927416"><ele>661.88</ele><time>2026-02-10T07:54:17.000Z</time></trkpt>
        <trkpt lat="29.5741797" lon="103.3924921"><ele>667.01</ele><time>2026-02-10T07:54:46.000Z</time></trkpt>
        <trkpt lat="29.5741797" lon="103.3924921"><ele>667.01</ele><time>2026-02-10T07:54:47.000Z</time></trkpt>
        <trkpt lat="29.574118" lon="103.3927208"><ele>671.84</ele><time>2026-02-10T07:54:51.000Z</time></trkpt>
        <trkpt lat="29.5741213" lon="103.3927347"><ele>667.12</ele><time>2026-02-10T07:54:53.000Z</time></trkpt>
        <trkpt lat="29.5741418" lon="103.3928094"><ele>662.57</ele><time>2026-02-10T07:55:24.000Z</time></trkpt>
        <trkpt lat="29.5741187" lon="103.3928992"><ele>662.95</ele><time>2026-02-10T07:55:33.000Z</time></trkpt>
        <trkpt lat="29.5741144" lon="103.3930043"><ele>664.8</ele><time>2026-02-10T07:55:51.000Z</time></trkpt>
        <trkpt lat="29.574062" lon="103.3930851"><ele>665.95</ele><time>2026-02-10T07:56:18.000Z</time></trkpt>
        <trkpt lat="29.5740066" lon="103.3931725"><ele>666.21</ele><time>2026-02-10T07:56:24.000Z</time></trkpt>
        <trkpt lat="29.5739598" lon="103.393267"><ele>667.07</ele><time>2026-02-10T07:56:34.000Z</time></trkpt>
        <trkpt lat="29.5739189" lon="103.3933661"><ele>667.76</ele><time>2026-02-10T07:56:43.000Z</time></trkpt>
        <trkpt lat="29.5738399" lon="103.3934136"><ele>668.66</ele><time>2026-02-10T07:56:49.000Z</time></trkpt>
        <trkpt lat="29.5737457" lon="103.3934427"><ele>671.37</ele><time>2026-02-10T07:56:57.000Z</time></trkpt>
        <trkpt lat="29.573653" lon="103.3934894"><ele>672.67</ele><time>2026-02-10T07:57:05.000Z</time></trkpt>
        <trkpt lat="29.5735762" lon="103.3935547"><ele>673.81</ele><time>2026-02-10T07:57:13.000Z</time></trkpt>
        <trkpt lat="29.573478" lon="103.3935923"><ele>674.52</ele><time>2026-02-10T07:57:45.000Z</time></trkpt>
        <trkpt lat="29.5733841" lon="103.3936498"><ele>675.79</ele><time>2026-02-10T07:57:53.000Z</time></trkpt>
        <trkpt lat="29.5733006" lon="103.3937091"><ele>673.88</ele><time>2026-02-10T07:57:59.000Z</time></trkpt>
        <trkpt lat="29.5732273" lon="103.3937785"><ele>672.91</ele><time>2026-02-10T07:58:09.000Z</time></trkpt>
        <trkpt lat="29.5732273" lon="103.3937785"><ele>672.91</ele><time>2026-02-10T07:58:37.000Z</time></trkpt>
        <trkpt lat="29.5733446" lon="103.3938835"><ele>673.01</ele><time>2026-02-10T07:58:48.000Z</time></trkpt>
        <trkpt lat="29.5733446" lon="103.3938835"><ele>673.01</ele><time>2026-02-10T07:58:50.000Z</time></trkpt>
        <trkpt lat="29.5733717" lon="103.3938341"><ele>675.41</ele><time>2026-02-10T07:58:56.000Z</time></trkpt>
        <trkpt lat="29.5732944" lon="103.393758"><ele>676.58</ele><time>2026-02-10T07:59:00.000Z</time></trkpt>
        <trkpt lat="29.573193" lon="103.3937718"><ele>677.52</ele><time>2026-02-10T07:59:09.000Z</time></trkpt>
        <trkpt lat="29.573193" lon="103.3937718"><ele>677.52</ele><time>2026-02-10T07:59:21.000Z</time></trkpt>
        <trkpt lat="29.573193" lon="103.3937718"><ele>677.52</ele><time>2026-02-10T07:59:26.000Z</time></trkpt>
        <trkpt lat="29.573193" lon="103.3937718"><ele>677.52</ele><time>2026-02-10T07:59:45.000Z</time></trkpt>
        <trkpt lat="29.5738614" lon="103.3941175"><ele>678.61</ele><time>2026-02-10T08:00:14.000Z</time></trkpt>
        <trkpt lat="29.5738614" lon="103.3941175"><ele>678.61</ele><time>2026-02-10T08:00:15.000Z</time></trkpt>
        <trkpt lat="29.5734381" lon="103.3938631"><ele>677.32</ele><time>2026-02-10T08:00:24.000Z</time></trkpt>
        <trkpt lat="29.5729133" lon="103.3936587"><ele>677.27</ele><time>2026-02-10T08:00:34.000Z</time></trkpt>
        <trkpt lat="29.5729133" lon="103.3936587"><ele>677.27</ele><time>2026-02-10T08:00:37.000Z</time></trkpt>
        <trkpt lat="29.5729092" lon="103.393554"><ele>675.77</ele><time>2026-02-10T08:00:40.000Z</time></trkpt>
        <trkpt lat="29.5729092" lon="103.393554"><ele>675.77</ele><time>2026-02-10T08:00:42.000Z</time></trkpt>
        <trkpt lat="29.5730038" lon="103.3936424"><ele>675.5</ele><time>2026-02-10T08:00:52.000Z</time></trkpt>
        <trkpt lat="29.5730567" lon="103.3937916"><ele>675.88</ele><time>2026-02-10T08:01:02.000Z</time></trkpt>
        <trkpt lat="29.5730567" lon="103.3937916"><ele>675.88</ele><time>2026-02-10T08:01:09.000Z</time></trkpt>
        <trkpt lat="29.5730567" lon="103.3937916"><ele>675.88</ele><time>2026-02-10T08:01:10.000Z</time></trkpt>
        <trkpt lat="29.5730567" lon="103.3937916"><ele>675.88</ele><time>2026-02-10T08:01:19.000Z</time></trkpt>
        <trkpt lat="29.5730567" lon="103.3937916"><ele>675.88</ele><time>2026-02-10T09:15:40.000Z</time></trkpt>
        <trkpt lat="29.5730567" lon="103.3937916"><ele>675.88</ele><time>2026-02-10T09:16:37.000Z</time></trkpt>
        <trkpt lat="29.5730567" lon="103.3937916"><ele>675.88</ele><time>2026-02-10T09:16:44.000Z</time></trkpt>
        <trkpt lat="29.5730567" lon="103.3937916"><ele>675.88</ele><time>2026-02-10T09:17:05.000Z</time></trkpt>
        <trkpt lat="29.5730567" lon="103.3937916"><ele>675.88</ele><time>2026-02-10T09:17:34.000Z</time></trkpt>
        <trkpt lat="29.5730567" lon="103.3937916"><ele>675.88</ele><time>2026-02-10T09:19:11.000Z</time></trkpt>
        <trkpt lat="29.5730567" lon="103.3937916"><ele>675.88</ele><time>2026-02-10T09:19:16.000Z</time></trkpt>
        <trkpt lat="29.5730567" lon="103.3937916"><ele>675.88</ele><time>2026-02-10T09:19:41.000Z</time></trkpt>
        <trkpt lat="29.5681852" lon="103.4095681"><ele>846.06</ele><time>2026-02-10T09:20:12.000Z</time></trkpt>
        <trkpt lat="29.5681852" lon="103.4095681"><ele>846.06</ele><time>2026-02-10T09:20:13.000Z</time></trkpt>
        <trkpt lat="29.5681848" lon="103.4093904"><ele>846.06</ele><time>2026-02-10T09:20:17.000Z</time></trkpt>
        <trkpt lat="29.5681848" lon="103.4093904"><ele>846.06</ele><time>2026-02-10T09:20:23.000Z</time></trkpt>
        <trkpt lat="29.5681848" lon="103.4093904"><ele>846.06</ele><time>2026-02-10T09:20:24.000Z</time></trkpt>
        <trkpt lat="29.5681848" lon="103.4093904"><ele>846.06</ele><time>2026-02-10T09:20:41.000Z</time></trkpt>
        <trkpt lat="29.5682012" lon="103.4094924"><ele>837.62</ele><time>2026-02-10T09:21:24.000Z</time></trkpt>
        <trkpt lat="29.5682012" lon="103.4094924"><ele>837.62</ele><time>2026-02-10T09:22:13.000Z</time></trkpt>
        <trkpt lat="29.5682491" lon="103.409605"><ele>828.62</ele><time>2026-02-10T09:22:53.000Z</time></trkpt>
        <trkpt lat="29.5683008" lon="103.409716"><ele>823.28</ele><time>2026-02-10T09:23:03.000Z</time></trkpt>
        <trkpt lat="29.5683391" lon="103.4098216"><ele>820.36</ele><time>2026-02-10T09:23:29.000Z</time></trkpt>
        <trkpt lat="29.5683817" lon="103.4099164"><ele>819.51</ele><time>2026-02-10T09:23:35.000Z</time></trkpt>
        <trkpt lat="29.5684434" lon="103.410005"><ele>819.72</ele><time>2026-02-10T09:23:43.000Z</time></trkpt>
        <trkpt lat="29.5685317" lon="103.4100295"><ele>821.7</ele><time>2026-02-10T09:23:57.000Z</time></trkpt>
        <trkpt lat="29.5686174" lon="103.4100908"><ele>822.37</ele><time>2026-02-10T09:24:07.000Z</time></trkpt>
        <trkpt lat="29.5686753" lon="103.4101832"><ele>823.67</ele><time>2026-02-10T09:24:33.000Z</time></trkpt>
        <trkpt lat="29.5686553" lon="103.4102905"><ele>824.32</ele><time>2026-02-10T09:24:43.000Z</time></trkpt>
        <trkpt lat="29.5686519" lon="103.4104208"><ele>826.71</ele><time>2026-02-10T09:24:53.000Z</time></trkpt>
        <trkpt lat="29.5686461" lon="103.4105535"><ele>828.26</ele><time>2026-02-10T09:25:01.000Z</time></trkpt>
        <trkpt lat="29.5686356" lon="103.410673"><ele>829.13</ele><time>2026-02-10T09:25:11.000Z</time></trkpt>
        <trkpt lat="29.5685911" lon="103.4107888"><ele>829.22</ele><time>2026-02-10T09:25:21.000Z</time></trkpt>
        <trkpt lat="29.5685621" lon="103.4109105"><ele>828.46</ele><time>2026-02-10T09:25:48.000Z</time></trkpt>
        <trkpt lat="29.5685439" lon="103.4110288"><ele>829.35</ele><time>2026-02-10T09:25:58.000Z</time></trkpt>
        <trkpt lat="29.5685133" lon="103.41115"><ele>832.26</ele><time>2026-02-10T09:26:09.000Z</time></trkpt>
        <trkpt lat="29.5684538" lon="103.4112465"><ele>833.1</ele><time>2026-02-10T09:26:17.000Z</time></trkpt>
        <trkpt lat="29.5683915" lon="103.4113405"><ele>832.57</ele><time>2026-02-10T09:26:25.000Z</time></trkpt>
        <trkpt lat="29.5683423" lon="103.4114408"><ele>831.66</ele><time>2026-02-10T09:26:35.000Z</time></trkpt>
        <trkpt lat="29.5683533" lon="103.4115741"><ele>830.94</ele><time>2026-02-10T09:26:41.000Z</time></trkpt>
        <trkpt lat="29.5684214" lon="103.4116735"><ele>830.33</ele><time>2026-02-10T09:27:08.000Z</time></trkpt>
        <trkpt lat="29.5685063" lon="103.4117492"><ele>831.25</ele><time>2026-02-10T09:27:42.000Z</time></trkpt>
        <trkpt lat="29.5685967" lon="103.4118057"><ele>832.24</ele><time>2026-02-10T09:28:07.000Z</time></trkpt>
        <trkpt lat="29.5686262" lon="103.4118173"><ele>833.97</ele><time>2026-02-10T09:28:17.000Z</time></trkpt>
        <trkpt lat="29.5687036" lon="103.4118426"><ele>834.99</ele><time>2026-02-10T09:28:27.000Z</time></trkpt>
        <trkpt lat="29.5688029" lon="103.4118622"><ele>836.54</ele><time>2026-02-10T09:28:35.000Z</time></trkpt>
        <trkpt lat="29.5688817" lon="103.411921"><ele>841.16</ele><time>2026-02-10T09:28:41.000Z</time></trkpt>
        <trkpt lat="29.568941" lon="103.4120028"><ele>844.31</ele><time>2026-02-10T09:28:49.000Z</time></trkpt>
        <trkpt lat="29.5689972" lon="103.4120938"><ele>845.27</ele><time>2026-02-10T09:29:03.000Z</time></trkpt>
        <trkpt lat="29.5690788" lon="103.4121445"><ele>846.92</ele><time>2026-02-10T09:29:31.000Z</time></trkpt>
        <trkpt lat="29.5691696" lon="103.4121693"><ele>847.12</ele><time>2026-02-10T09:29:47.000Z</time></trkpt>
        <trkpt lat="29.5692656" lon="103.4121961"><ele>848.41</ele><time>2026-02-10T09:30:38.000Z</time></trkpt>
        <trkpt lat="29.5693525" lon="103.4122361"><ele>850.08</ele><time>2026-02-10T09:31:01.000Z</time></trkpt>
        <trkpt lat="29.5693676" lon="103.4123315"><ele>851.85</ele><time>2026-02-10T09:31:17.000Z</time></trkpt>
        <trkpt lat="29.569405" lon="103.412429"><ele>854.76</ele><time>2026-02-10T09:31:47.000Z</time></trkpt>
        <trkpt lat="29.5693836" lon="103.4125287"><ele>858.65</ele><time>2026-02-10T09:31:53.000Z</time></trkpt>
        <trkpt lat="29.5694053" lon="103.4126239"><ele>861.57</ele><time>2026-02-10T09:32:01.000Z</time></trkpt>
        <trkpt lat="29.5693998" lon="103.4127379"><ele>867.59</ele><time>2026-02-10T09:32:13.000Z</time></trkpt>
        <trkpt lat="29.5693344" lon="103.4128089"><ele>869.3</ele><time>2026-02-10T09:32:21.000Z</time></trkpt>
        <trkpt lat="29.5692368" lon="103.4128636"><ele>870.3</ele><time>2026-02-10T09:32:31.000Z</time></trkpt>
        <trkpt lat="29.5691509" lon="103.4129348"><ele>869.71</ele><time>2026-02-10T09:32:40.000Z</time></trkpt>
        <trkpt lat="29.5690888" lon="103.4130295"><ele>868.99</ele><time>2026-02-10T09:32:53.000Z</time></trkpt>
        <trkpt lat="29.5690253" lon="103.4131374"><ele>868.78</ele><time>2026-02-10T09:33:05.000Z</time></trkpt>
        <trkpt lat="29.5689966" lon="103.4132638"><ele>868.74</ele><time>2026-02-10T09:33:15.000Z</time></trkpt>
        <trkpt lat="29.568992" lon="103.4133952"><ele>868.52</ele><time>2026-02-10T09:33:24.000Z</time></trkpt>
        <trkpt lat="29.5690029" lon="103.41351"><ele>869.44</ele><time>2026-02-10T09:33:37.000Z</time></trkpt>
        <trkpt lat="29.5690154" lon="103.4136185"><ele>870.84</ele><time>2026-02-10T09:33:47.000Z</time></trkpt>
        <trkpt lat="29.5690626" lon="103.4137166"><ele>872.37</ele><time>2026-02-10T09:33:53.000Z</time></trkpt>
        <trkpt lat="29.5691153" lon="103.4138139"><ele>873.41</ele><time>2026-02-10T09:34:01.000Z</time></trkpt>
        <trkpt lat="29.5691477" lon="103.4139197"><ele>874.59</ele><time>2026-02-10T09:34:13.000Z</time></trkpt>
        <trkpt lat="29.5691146" lon="103.4140318"><ele>875.38</ele><time>2026-02-10T09:34:22.000Z</time></trkpt>
        <trkpt lat="29.5691092" lon="103.4141533"><ele>874.97</ele><time>2026-02-10T09:34:31.000Z</time></trkpt>
        <trkpt lat="29.5691031" lon="103.414275"><ele>875.13</ele><time>2026-02-10T09:34:40.000Z</time></trkpt>
        <trkpt lat="29.5690903" lon="103.4143879"><ele>875.92</ele><time>2026-02-10T09:34:46.000Z</time></trkpt>
        <trkpt lat="29.5691039" lon="103.414501"><ele>876.03</ele><time>2026-02-10T09:34:53.000Z</time></trkpt>
        <trkpt lat="29.5691362" lon="103.4146059"><ele>875.83</ele><time>2026-02-10T09:35:01.000Z</time></trkpt>
        <trkpt lat="29.5691821" lon="103.4147017"><ele>875.27</ele><time>2026-02-10T09:35:11.000Z</time></trkpt>
        <trkpt lat="29.5692351" lon="103.4147883"><ele>874.89</ele><time>2026-02-10T09:35:22.000Z</time></trkpt>
        <trkpt lat="29.5693092" lon="103.4148534"><ele>875.6</ele><time>2026-02-10T09:35:51.000Z</time></trkpt>
        <trkpt lat="29.569399" lon="103.4148617"><ele>875.45</ele><time>2026-02-10T09:35:59.000Z</time></trkpt>
        <trkpt lat="29.5694744" lon="103.4147888"><ele>875.48</ele><time>2026-02-10T09:36:07.000Z</time></trkpt>
        <trkpt lat="29.5695632" lon="103.4147126"><ele>877.69</ele><time>2026-02-10T09:36:17.000Z</time></trkpt>
        <trkpt lat="29.5696511" lon="103.4147306"><ele>878.82</ele><time>2026-02-10T09:36:27.000Z</time></trkpt>
        <trkpt lat="29.5697301" lon="103.414799"><ele>879.32</ele><time>2026-02-10T09:36:35.000Z</time></trkpt>
        <trkpt lat="29.5698093" lon="103.4148891"><ele>879.81</ele><time>2026-02-10T09:36:43.000Z</time></trkpt>
        <trkpt lat="29.5698544" lon="103.4149918"><ele>880.82</ele><time>2026-02-10T09:36:53.000Z</time></trkpt>
        <trkpt lat="29.5698656" lon="103.4151054"><ele>881.21</ele><time>2026-02-10T09:37:03.000Z</time></trkpt>
        <trkpt lat="29.5698769" lon="103.415229"><ele>880.5</ele><time>2026-02-10T09:37:13.000Z</time></trkpt>
        <trkpt lat="29.5699112" lon="103.4153454"><ele>879.34</ele><time>2026-02-10T09:37:19.000Z</time></trkpt>
        <trkpt lat="29.56996" lon="103.41545"><ele>879.36</ele><time>2026-02-10T09:37:31.000Z</time></trkpt>
        <trkpt lat="29.57002" lon="103.4155346"><ele>880.13</ele><time>2026-02-10T09:37:41.000Z</time></trkpt>
        <trkpt lat="29.5701075" lon="103.4155623"><ele>879.7</ele><time>2026-02-10T09:37:51.000Z</time></trkpt>
        <trkpt lat="29.5702062" lon="103.4155714"><ele>879.7</ele><time>2026-02-10T09:38:01.000Z</time></trkpt>
        <trkpt lat="29.5702931" lon="103.4156087"><ele>879.73</ele><time>2026-02-10T09:38:09.000Z</time></trkpt>
        <trkpt lat="29.570343" lon="103.4156925"><ele>879.75</ele><time>2026-02-10T09:38:17.000Z</time></trkpt>
        <trkpt lat="29.5703897" lon="103.4157867"><ele>879.5</ele><time>2026-02-10T09:38:25.000Z</time></trkpt>
        <trkpt lat="29.5704776" lon="103.4158169"><ele>878.9</ele><time>2026-02-10T09:38:31.000Z</time></trkpt>
        <trkpt lat="29.5705713" lon="103.4158716"><ele>878.49</ele><time>2026-02-10T09:38:43.000Z</time></trkpt>
        <trkpt lat="29.5706549" lon="103.4159342"><ele>878.4</ele><time>2026-02-10T09:38:53.000Z</time></trkpt>
        <trkpt lat="29.5707092" lon="103.4160201"><ele>878.24</ele><time>2026-02-10T09:39:01.000Z</time></trkpt>
        <trkpt lat="29.5707092" lon="103.4160201"><ele>878.24</ele><time>2026-02-10T09:39:23.000Z</time></trkpt>
        <trkpt lat="29.5707092" lon="103.4160201"><ele>878.24</ele><time>2026-02-10T09:39:42.000Z</time></trkpt>
        <trkpt lat="29.5707092" lon="103.4160201"><ele>878.24</ele><time>2026-02-10T09:40:03.000Z</time></trkpt>
        <trkpt lat="29.5707092" lon="103.4160201"><ele>878.24</ele><time>2026-02-10T09:40:06.000Z</time></trkpt>
        <trkpt lat="29.5707092" lon="103.4160201"><ele>878.24</ele><time>2026-02-10T09:40:23.000Z</time></trkpt>
        <trkpt lat="29.5706459" lon="103.4161282"><ele>877.87</ele><time>2026-02-10T09:40:30.000Z</time></trkpt>
        <trkpt lat="29.5706459" lon="103.4161282"><ele>877.87</ele><time>2026-02-10T09:41:07.000Z</time></trkpt>
        <trkpt lat="29.5705362" lon="103.4161775"><ele>877.67</ele><time>2026-02-10T09:41:21.000Z</time></trkpt>
        <trkpt lat="29.5705362" lon="103.4161775"><ele>877.67</ele><time>2026-02-10T09:41:39.000Z</time></trkpt>
        <trkpt lat="29.5709688" lon="103.4165606"><ele>880.03</ele><time>2026-02-10T09:41:52.000Z</time></trkpt>
        <trkpt lat="29.5709688" lon="103.4165606"><ele>880.03</ele><time>2026-02-10T09:41:53.000Z</time></trkpt>
        <trkpt lat="29.570555" lon="103.4164444"><ele>883.45</ele><time>2026-02-10T09:42:01.000Z</time></trkpt>
        <trkpt lat="29.5704122" lon="103.4164628"><ele>882.52</ele><time>2026-02-10T09:42:14.000Z</time></trkpt>
        <trkpt lat="29.5703613" lon="103.4165505"><ele>880.79</ele><time>2026-02-10T09:42:25.000Z</time></trkpt>
        <trkpt lat="29.5703505" lon="103.4166808"><ele>878.35</ele><time>2026-02-10T09:42:33.000Z</time></trkpt>
        <trkpt lat="29.5703305" lon="103.4167951"><ele>876.9</ele><time>2026-02-10T09:42:41.000Z</time></trkpt>
        <trkpt lat="29.5703235" lon="103.4168292"><ele>878.38</ele><time>2026-02-10T09:42:43.000Z</time></trkpt>
        <trkpt lat="29.5703444" lon="103.4169162"><ele>879.44</ele><time>2026-02-10T09:42:53.000Z</time></trkpt>
        <trkpt lat="29.5703272" lon="103.4170153"><ele>880.58</ele><time>2026-02-10T09:43:03.000Z</time></trkpt>
        <trkpt lat="29.570253" lon="103.4170318"><ele>879.87</ele><time>2026-02-10T09:43:11.000Z</time></trkpt>
        <trkpt lat="29.570156" lon="103.417032"><ele>878.05</ele><time>2026-02-10T09:43:21.000Z</time></trkpt>
        <trkpt lat="29.5700831" lon="103.4170915"><ele>875.78</ele><time>2026-02-10T09:43:29.000Z</time></trkpt>
        <trkpt lat="29.5700348" lon="103.4171894"><ele>874.21</ele><time>2026-02-10T09:43:37.000Z</time></trkpt>
        <trkpt lat="29.5700029" lon="103.4173011"><ele>873.26</ele><time>2026-02-10T09:43:44.000Z</time></trkpt>
        <trkpt lat="29.5699671" lon="103.4174079"><ele>872.87</ele><time>2026-02-10T09:43:52.000Z</time></trkpt>
        <trkpt lat="29.5699723" lon="103.4175256"><ele>872.56</ele><time>2026-02-10T09:44:00.000Z</time></trkpt>
        <trkpt lat="29.569989" lon="103.4176381"><ele>872.61</ele><time>2026-02-10T09:44:07.000Z</time></trkpt>
        <trkpt lat="29.5699748" lon="103.4177436"><ele>872.93</ele><time>2026-02-10T09:44:17.000Z</time></trkpt>
        <trkpt lat="29.5699484" lon="103.4178445"><ele>871.64</ele><time>2026-02-10T09:44:25.000Z</time></trkpt>
        <trkpt lat="29.569896" lon="103.4179455"><ele>870.38</ele><time>2026-02-10T09:44:35.000Z</time></trkpt>
        <trkpt lat="29.5698432" lon="103.4180414"><ele>869.55</ele><time>2026-02-10T09:44:43.000Z</time></trkpt>
        <trkpt lat="29.5698047" lon="103.4181451"><ele>869.32</ele><time>2026-02-10T09:44:51.000Z</time></trkpt>
        <trkpt lat="29.5697808" lon="103.4182614"><ele>869.16</ele><time>2026-02-10T09:45:01.000Z</time></trkpt>
        <trkpt lat="29.5697996" lon="103.4183846"><ele>869.06</ele><time>2026-02-10T09:45:11.000Z</time></trkpt>
        <trkpt lat="29.5697971" lon="103.4185102"><ele>869.07</ele><time>2026-02-10T09:45:19.000Z</time></trkpt>
        <trkpt lat="29.5697764" lon="103.4186292"><ele>869.5</ele><time>2026-02-10T09:45:27.000Z</time></trkpt>
        <trkpt lat="29.5697569" lon="103.4187419"><ele>869.54</ele><time>2026-02-10T09:45:35.000Z</time></trkpt>
        <trkpt lat="29.5697476" lon="103.4188508"><ele>869.48</ele><time>2026-02-10T09:45:43.000Z</time></trkpt>
        <trkpt lat="29.5697353" lon="103.4189598"><ele>869.78</ele><time>2026-02-10T09:45:51.000Z</time></trkpt>
        <trkpt lat="29.5697389" lon="103.4190657"><ele>870.23</ele><time>2026-02-10T09:45:59.000Z</time></trkpt>
        <trkpt lat="29.5697134" lon="103.419163"><ele>870.07</ele><time>2026-02-10T09:46:07.000Z</time></trkpt>
        <trkpt lat="29.5696902" lon="103.4193297"><ele>869.89</ele><time>2026-02-10T09:46:12.000Z</time></trkpt>
        <trkpt lat="29.5696592" lon="103.4194706"><ele>874.8</ele><time>2026-02-10T09:46:22.000Z</time></trkpt>
        <trkpt lat="29.5696592" lon="103.4194706"><ele>874.8</ele><time>2026-02-10T09:46:37.000Z</time></trkpt>
        <trkpt lat="29.5697309" lon="103.4194744"><ele>878.28</ele><time>2026-02-10T09:46:50.000Z</time></trkpt>
        <trkpt lat="29.5697309" lon="103.4194744"><ele>878.28</ele><time>2026-02-10T09:46:56.000Z</time></trkpt>
        <trkpt lat="29.5697824" lon="103.4194132"><ele>875.63</ele><time>2026-02-10T09:47:00.000Z</time></trkpt>
        <trkpt lat="29.5697824" lon="103.4194132"><ele>875.63</ele><time>2026-02-10T09:48:19.000Z</time></trkpt>
        <trkpt lat="29.5697824" lon="103.4194132"><ele>875.63</ele><time>2026-02-10T09:48:42.000Z</time></trkpt>
        <trkpt lat="29.5697824" lon="103.4194132"><ele>875.63</ele><time>2026-02-10T09:49:03.000Z</time></trkpt>
        <trkpt lat="29.5697824" lon="103.4194132"><ele>875.63</ele><time>2026-02-10T09:49:06.000Z</time></trkpt>
        <trkpt lat="29.5697824" lon="103.4194132"><ele>875.63</ele><time>2026-02-10T09:50:05.000Z</time></trkpt>
        <trkpt lat="29.5697487" lon="103.4194637"><ele>876.18</ele><time>2026-02-10T09:50:24.000Z</time></trkpt>
        <trkpt lat="29.5697487" lon="103.4194637"><ele>876.18</ele><time>2026-02-10T09:50:25.000Z</time></trkpt>
        <trkpt lat="29.5697493" lon="103.4194741"><ele>875.84</ele><time>2026-02-10T09:50:31.000Z</time></trkpt>
        <trkpt lat="29.5697493" lon="103.4194741"><ele>875.84</ele><time>2026-02-10T09:50:39.000Z</time></trkpt>
        <trkpt lat="29.5697493" lon="103.4194741"><ele>875.84</ele><time>2026-02-10T09:50:44.000Z</time></trkpt>
        <trkpt lat="29.5697493" lon="103.4194741"><ele>875.84</ele><time>2026-02-10T09:51:13.000Z</time></trkpt>
        <trkpt lat="29.5696403" lon="103.4194961"><ele>879.72</ele><time>2026-02-10T09:51:16.000Z</time></trkpt>
        <trkpt lat="29.5696403" lon="103.4194961"><ele>879.72</ele><time>2026-02-10T09:51:49.000Z</time></trkpt>
        <trkpt lat="29.5695669" lon="103.419566"><ele>878.75</ele><time>2026-02-10T09:51:55.000Z</time></trkpt>
        <trkpt lat="29.5694802" lon="103.4196215"><ele>879.1</ele><time>2026-02-10T09:52:05.000Z</time></trkpt>
        <trkpt lat="29.569375" lon="103.4196825"><ele>879.91</ele><time>2026-02-10T09:52:15.000Z</time></trkpt>
        <trkpt lat="29.5692934" lon="103.4197526"><ele>880.53</ele><time>2026-02-10T09:52:48.000Z</time></trkpt>
        <trkpt lat="29.5692037" lon="103.4197979"><ele>881.13</ele><time>2026-02-10T09:53:29.000Z</time></trkpt>
        <trkpt lat="29.5691088" lon="103.4198532"><ele>882.67</ele><time>2026-02-10T09:53:37.000Z</time></trkpt>
        <trkpt lat="29.5690449" lon="103.4198927"><ele>884.3</ele><time>2026-02-10T09:53:55.000Z</time></trkpt>
        <trkpt lat="29.5689567" lon="103.4199297"><ele>885.96</ele><time>2026-02-10T09:54:21.000Z</time></trkpt>
        <trkpt lat="29.5688594" lon="103.4199608"><ele>887.15</ele><time>2026-02-10T09:54:29.000Z</time></trkpt>
        <trkpt lat="29.5687515" lon="103.4199786"><ele>886.69</ele><time>2026-02-10T09:54:43.000Z</time></trkpt>
        <trkpt lat="29.5686581" lon="103.4200157"><ele>885.73</ele><time>2026-02-10T09:54:55.000Z</time></trkpt>
        <trkpt lat="29.5685684" lon="103.4200469"><ele>884.86</ele><time>2026-02-10T09:55:11.000Z</time></trkpt>
        <trkpt lat="29.5684608" lon="103.4200681"><ele>884.28</ele><time>2026-02-10T09:55:25.000Z</time></trkpt>
        <trkpt lat="29.5684156" lon="103.4200748"><ele>884.38</ele><time>2026-02-10T09:55:27.000Z</time></trkpt>
        <trkpt lat="29.568337" lon="103.4200765"><ele>884.16</ele><time>2026-02-10T09:55:49.000Z</time></trkpt>
        <trkpt lat="29.5682492" lon="103.4201067"><ele>881.82</ele><time>2026-02-10T09:56:02.000Z</time></trkpt>
        <trkpt lat="29.5681554" lon="103.420139"><ele>879.61</ele><time>2026-02-10T09:56:17.000Z</time></trkpt>
        <trkpt lat="29.5680559" lon="103.4201391"><ele>877.19</ele><time>2026-02-10T09:56:35.000Z</time></trkpt>
        <trkpt lat="29.567956" lon="103.4201512"><ele>872.71</ele><time>2026-02-10T09:56:55.000Z</time></trkpt>
        <trkpt lat="29.5678697" lon="103.4201937"><ele>866.84</ele><time>2026-02-10T09:57:11.000Z</time></trkpt>
        <trkpt lat="29.5677836" lon="103.4202414"><ele>862.15</ele><time>2026-02-10T09:57:31.000Z</time></trkpt>
        <trkpt lat="29.5677049" lon="103.4202971"><ele>857.15</ele><time>2026-02-10T09:57:42.000Z</time></trkpt>
        <trkpt lat="29.567621" lon="103.4203617"><ele>853.03</ele><time>2026-02-10T09:57:59.000Z</time></trkpt>
        <trkpt lat="29.5675323" lon="103.4204181"><ele>850.2</ele><time>2026-02-10T09:58:15.000Z</time></trkpt>
        <trkpt lat="29.5674366" lon="103.4204671"><ele>847.66</ele><time>2026-02-10T09:58:37.000Z</time></trkpt>
        <trkpt lat="29.5673453" lon="103.4204948"><ele>844.47</ele><time>2026-02-10T09:58:51.000Z</time></trkpt>
        <trkpt lat="29.5672461" lon="103.4205129"><ele>841.32</ele><time>2026-02-10T09:59:39.000Z</time></trkpt>
        <trkpt lat="29.5671497" lon="103.4204948"><ele>836.23</ele><time>2026-02-10T09:59:57.000Z</time></trkpt>
        <trkpt lat="29.5670776" lon="103.4204245"><ele>829.81</ele><time>2026-02-10T10:00:11.000Z</time></trkpt>
        <trkpt lat="29.5670226" lon="103.4203337"><ele>823.83</ele><time>2026-02-10T10:00:25.000Z</time></trkpt>
        <trkpt lat="29.5669823" lon="103.4202329"><ele>819.86</ele><time>2026-02-10T10:00:35.000Z</time></trkpt>
        <trkpt lat="29.5669639" lon="103.4201227"><ele>817.06</ele><time>2026-02-10T10:00:43.000Z</time></trkpt>
        <trkpt lat="29.5669181" lon="103.4200283"><ele>816.44</ele><time>2026-02-10T10:01:21.000Z</time></trkpt>
        <trkpt lat="29.5668457" lon="103.4199681"><ele>814.53</ele><time>2026-02-10T10:01:33.000Z</time></trkpt>
        <trkpt lat="29.5667624" lon="103.4199145"><ele>812.98</ele><time>2026-02-10T10:01:59.000Z</time></trkpt>
        <trkpt lat="29.5666737" lon="103.4199472"><ele>811.56</ele><time>2026-02-10T10:02:13.000Z</time></trkpt>
        <trkpt lat="29.5666407" lon="103.4200459"><ele>810.74</ele><time>2026-02-10T10:02:19.000Z</time></trkpt>
        <trkpt lat="29.5666089" lon="103.4201737"><ele>809.29</ele><time>2026-02-10T10:02:27.000Z</time></trkpt>
        <trkpt lat="29.566539" lon="103.4202682"><ele>808.34</ele><time>2026-02-10T10:02:37.000Z</time></trkpt>
        <trkpt lat="29.5664734" lon="103.4203542"><ele>807.31</ele><time>2026-02-10T10:02:45.000Z</time></trkpt>
        <trkpt lat="29.5664025" lon="103.4204467"><ele>806.31</ele><time>2026-02-10T10:02:53.000Z</time></trkpt>
        <trkpt lat="29.5663466" lon="103.4205378"><ele>805.77</ele><time>2026-02-10T10:03:03.000Z</time></trkpt>
        <trkpt lat="29.5663071" lon="103.4206408"><ele>805.79</ele><time>2026-02-10T10:03:11.000Z</time></trkpt>
        <trkpt lat="29.5662717" lon="103.4207498"><ele>805.61</ele><time>2026-02-10T10:03:19.000Z</time></trkpt>
        <trkpt lat="29.5662434" lon="103.4208702"><ele>805.59</ele><time>2026-02-10T10:03:23.000Z</time></trkpt>
        <trkpt lat="29.5662327" lon="103.4209881"><ele>803.83</ele><time>2026-02-10T10:03:33.000Z</time></trkpt>
        <trkpt lat="29.5662036" lon="103.4210896"><ele>802.8</ele><time>2026-02-10T10:03:43.000Z</time></trkpt>
        <trkpt lat="29.566141" lon="103.4211751"><ele>801.88</ele><time>2026-02-10T10:03:51.000Z</time></trkpt>
        <trkpt lat="29.5660813" lon="103.4211864"><ele>801.28</ele><time>2026-02-10T10:03:57.000Z</time></trkpt>
        <trkpt lat="29.5659879" lon="103.4211816"><ele>800.49</ele><time>2026-02-10T10:04:35.000Z</time></trkpt>
        <trkpt lat="29.5658913" lon="103.4211684"><ele>799.92</ele><time>2026-02-10T10:04:45.000Z</time></trkpt>
        <trkpt lat="29.5657964" lon="103.4211624"><ele>799.27</ele><time>2026-02-10T10:04:51.000Z</time></trkpt>
        <trkpt lat="29.5656975" lon="103.4211399"><ele>798.83</ele><time>2026-02-10T10:04:59.000Z</time></trkpt>
        <trkpt lat="29.5655929" lon="103.4211205"><ele>797.86</ele><time>2026-02-10T10:05:09.000Z</time></trkpt>
        <trkpt lat="29.5654821" lon="103.4211382"><ele>797.18</ele><time>2026-02-10T10:05:19.000Z</time></trkpt>
        <trkpt lat="29.5653834" lon="103.4212064"><ele>796</ele><time>2026-02-10T10:05:27.000Z</time></trkpt>
        <trkpt lat="29.5653381" lon="103.4212933"><ele>794.94</ele><time>2026-02-10T10:05:57.000Z</time></trkpt>
        <trkpt lat="29.5653381" lon="103.4212933"><ele>794.94</ele><time>2026-02-10T10:06:03.000Z</time></trkpt>
        <trkpt lat="29.5653381" lon="103.4212933"><ele>794.94</ele><time>2026-02-10T10:06:08.000Z</time></trkpt>
        <trkpt lat="29.5653381" lon="103.4212933"><ele>794.94</ele><time>2026-02-10T10:06:31.000Z</time></trkpt>
        <trkpt lat="29.5652644" lon="103.4212977"><ele>792.95</ele><time>2026-02-10T10:08:12.000Z</time></trkpt>
        <trkpt lat="29.5652644" lon="103.4212977"><ele>792.95</ele><time>2026-02-10T10:08:33.000Z</time></trkpt>
        <trkpt lat="29.5651736" lon="103.4213389"><ele>791.92</ele><time>2026-02-10T10:08:57.000Z</time></trkpt>
        <trkpt lat="29.5650787" lon="103.4213773"><ele>789.47</ele><time>2026-02-10T10:09:15.000Z</time></trkpt>
        <trkpt lat="29.564992" lon="103.4214221"><ele>787.13</ele><time>2026-02-10T10:09:33.000Z</time></trkpt>
        <trkpt lat="29.5649103" lon="103.4214698"><ele>785.41</ele><time>2026-02-10T10:09:51.000Z</time></trkpt>
        <trkpt lat="29.5648424" lon="103.4214208"><ele>784.38</ele><time>2026-02-10T10:10:11.000Z</time></trkpt>
        <trkpt lat="29.5647848" lon="103.4213268"><ele>782.85</ele><time>2026-02-10T10:10:21.000Z</time></trkpt>
        <trkpt lat="29.5647086" lon="103.4212387"><ele>780.73</ele><time>2026-02-10T10:10:37.000Z</time></trkpt>
        <trkpt lat="29.564608" lon="103.4212349"><ele>778.19</ele><time>2026-02-10T10:10:53.000Z</time></trkpt>
        <trkpt lat="29.5645099" lon="103.4212763"><ele>776.29</ele><time>2026-02-10T10:11:03.000Z</time></trkpt>
        <trkpt lat="29.5644144" lon="103.4213377"><ele>774.64</ele><time>2026-02-10T10:11:15.000Z</time></trkpt>
        <trkpt lat="29.5643215" lon="103.4213926"><ele>772.84</ele><time>2026-02-10T10:11:23.000Z</time></trkpt>
        <trkpt lat="29.5642754" lon="103.4214921"><ele>774.94</ele><time>2026-02-10T10:11:37.000Z</time></trkpt>
        <trkpt lat="29.5643144" lon="103.4215912"><ele>773.75</ele><time>2026-02-10T10:11:57.000Z</time></trkpt>
        <trkpt lat="29.5643493" lon="103.4216971"><ele>769.16</ele><time>2026-02-10T10:12:09.000Z</time></trkpt>
        <trkpt lat="29.5643897" lon="103.4218044"><ele>765.14</ele><time>2026-02-10T10:12:55.000Z</time></trkpt>
        <trkpt lat="29.5644322" lon="103.4219113"><ele>760.48</ele><time>2026-02-10T10:13:11.000Z</time></trkpt>
        <trkpt lat="29.5644314" lon="103.4220206"><ele>756.18</ele><time>2026-02-10T10:13:25.000Z</time></trkpt>
        <trkpt lat="29.5644525" lon="103.4221293"><ele>752.71</ele><time>2026-02-10T10:13:39.000Z</time></trkpt>
        <trkpt lat="29.5644405" lon="103.4222325"><ele>747.37</ele><time>2026-02-10T10:13:55.000Z</time></trkpt>
        <trkpt lat="29.5644463" lon="103.4223504"><ele>742.49</ele><time>2026-02-10T10:14:05.000Z</time></trkpt>
        <trkpt lat="29.5644689" lon="103.4224592"><ele>738.22</ele><time>2026-02-10T10:14:19.000Z</time></trkpt>
        <trkpt lat="29.5644662" lon="103.4225738"><ele>736.3</ele><time>2026-02-10T10:14:51.000Z</time></trkpt>
        <trkpt lat="29.5644753" lon="103.4227242"><ele>732.32</ele><time>2026-02-10T10:15:05.000Z</time></trkpt>
        <trkpt lat="29.5645105" lon="103.422841"><ele>733.48</ele><time>2026-02-10T10:15:19.000Z</time></trkpt>
        <trkpt lat="29.5645264" lon="103.4229599"><ele>733.96</ele><time>2026-02-10T10:15:43.000Z</time></trkpt>
        <trkpt lat="29.564517" lon="103.4231074"><ele>730.73</ele><time>2026-02-10T10:16:01.000Z</time></trkpt>
        <trkpt lat="29.5644936" lon="103.4232261"><ele>726.05</ele><time>2026-02-10T10:16:09.000Z</time></trkpt>
        <trkpt lat="29.5644951" lon="103.4233346"><ele>722.69</ele><time>2026-02-10T10:16:21.000Z</time></trkpt>
        <trkpt lat="29.5644744" lon="103.4234329"><ele>720.75</ele><time>2026-02-10T10:16:37.000Z</time></trkpt>
        <trkpt lat="29.5644356" lon="103.4235327"><ele>720.09</ele><time>2026-02-10T10:16:53.000Z</time></trkpt>
        <trkpt lat="29.5643967" lon="103.4236422"><ele>718.98</ele><time>2026-02-10T10:17:03.000Z</time></trkpt>
        <trkpt lat="29.5644138" lon="103.4237558"><ele>718.26</ele><time>2026-02-10T10:17:11.000Z</time></trkpt>
        <trkpt lat="29.5644167" lon="103.42387"><ele>715.29</ele><time>2026-02-10T10:17:25.000Z</time></trkpt>
        <trkpt lat="29.5644622" lon="103.4239745"><ele>711.81</ele><time>2026-02-10T10:17:33.000Z</time></trkpt>
        <trkpt lat="29.5645178" lon="103.4240739"><ele>708.36</ele><time>2026-02-10T10:17:47.000Z</time></trkpt>
        <trkpt lat="29.5645681" lon="103.4241669"><ele>701.22</ele><time>2026-02-10T10:18:01.000Z</time></trkpt>
        <trkpt lat="29.564625" lon="103.4242569"><ele>698.68</ele><time>2026-02-10T10:18:23.000Z</time></trkpt>
        <trkpt lat="29.564657" lon="103.4243659"><ele>695.05</ele><time>2026-02-10T10:18:52.000Z</time></trkpt>
        <trkpt lat="29.5647082" lon="103.4244633"><ele>693.43</ele><time>2026-02-10T10:19:06.000Z</time></trkpt>
        <trkpt lat="29.5647343" lon="103.4245714"><ele>693.12</ele><time>2026-02-10T10:19:17.000Z</time></trkpt>
        <trkpt lat="29.5647442" lon="103.4246818"><ele>691.24</ele><time>2026-02-10T10:19:27.000Z</time></trkpt>
        <trkpt lat="29.5647463" lon="103.4247987"><ele>689.9</ele><time>2026-02-10T10:19:35.000Z</time></trkpt>
        <trkpt lat="29.564742" lon="103.4249072"><ele>688.04</ele><time>2026-02-10T10:19:45.000Z</time></trkpt>
        <trkpt lat="29.5647648" lon="103.4250139"><ele>685.63</ele><time>2026-02-10T10:20:03.000Z</time></trkpt>
        <trkpt lat="29.5647751" lon="103.4251176"><ele>682.41</ele><time>2026-02-10T10:20:21.000Z</time></trkpt>
        <trkpt lat="29.564804" lon="103.4252168"><ele>677.58</ele><time>2026-02-10T10:20:33.000Z</time></trkpt>
        <trkpt lat="29.5648717" lon="103.4252942"><ele>672.88</ele><time>2026-02-10T10:20:43.000Z</time></trkpt>
        <trkpt lat="29.5649503" lon="103.4253666"><ele>670.2</ele><time>2026-02-10T10:20:51.000Z</time></trkpt>
        <trkpt lat="29.5650069" lon="103.4254573"><ele>671.88</ele><time>2026-02-10T10:20:59.000Z</time></trkpt>
        <trkpt lat="29.5650652" lon="103.4255502"><ele>672.26</ele><time>2026-02-10T10:21:09.000Z</time></trkpt>
        <trkpt lat="29.565127" lon="103.4256478"><ele>672.31</ele><time>2026-02-10T10:21:19.000Z</time></trkpt>
        <trkpt lat="29.5651956" lon="103.4257812"><ele>670.97</ele><time>2026-02-10T10:21:27.000Z</time></trkpt>
        <trkpt lat="29.5651956" lon="103.4257812"><ele>670.97</ele><time>2026-02-10T10:21:59.000Z</time></trkpt>
        <trkpt lat="29.5651956" lon="103.4257812"><ele>670.97</ele><time>2026-02-10T10:22:12.000Z</time></trkpt>
        <trkpt lat="29.5651956" lon="103.4257812"><ele>670.97</ele><time>2026-02-10T10:23:13.000Z</time></trkpt>
        <trkpt lat="29.5650914" lon="103.4258397"><ele>666.28</ele><time>2026-02-10T10:23:34.000Z</time></trkpt>
        <trkpt lat="29.5650914" lon="103.4258397"><ele>666.28</ele><time>2026-02-10T10:23:35.000Z</time></trkpt>
        <trkpt lat="29.5651331" lon="103.4258227"><ele>661.81</ele><time>2026-02-10T10:23:39.000Z</time></trkpt>
        <trkpt lat="29.5652272" lon="103.4258039"><ele>659.41</ele><time>2026-02-10T10:23:58.000Z</time></trkpt>
        <trkpt lat="29.5651483" lon="103.4258189"><ele>655.98</ele><time>2026-02-10T10:24:03.000Z</time></trkpt>
        <trkpt lat="29.5651281" lon="103.4257244"><ele>655.94</ele><time>2026-02-10T10:24:06.000Z</time></trkpt>
        <trkpt lat="29.5651615" lon="103.4257384"><ele>655.91</ele><time>2026-02-10T10:24:11.000Z</time></trkpt>
        <trkpt lat="29.5651588" lon="103.4258337"><ele>653.33</ele><time>2026-02-10T10:24:59.000Z</time></trkpt>
        <trkpt lat="29.5653853" lon="103.4259534"><ele>654.05</ele><time>2026-02-10T10:25:30.000Z</time></trkpt>
        <trkpt lat="29.5652647" lon="103.4260408"><ele>652.34</ele><time>2026-02-10T10:25:38.000Z</time></trkpt>
        <trkpt lat="29.565203" lon="103.4260883"><ele>651.2</ele><time>2026-02-10T10:25:42.000Z</time></trkpt>
        <trkpt lat="29.5651202" lon="103.4261435"><ele>651.94</ele><time>2026-02-10T10:26:17.000Z</time></trkpt>
        <trkpt lat="29.5650981" lon="103.4262396"><ele>649.05</ele><time>2026-02-10T10:26:27.000Z</time></trkpt>
        <trkpt lat="29.565002" lon="103.4263994"><ele>644.1</ele><time>2026-02-10T10:26:34.000Z</time></trkpt>
        <trkpt lat="29.5650054" lon="103.4263812"><ele>645.66</ele><time>2026-02-10T10:26:38.000Z</time></trkpt>
        <trkpt lat="29.5650091" lon="103.4264555"><ele>646.43</ele><time>2026-02-10T10:26:42.000Z</time></trkpt>
        <trkpt lat="29.5650622" lon="103.4264118"><ele>642.04</ele><time>2026-02-10T10:26:50.000Z</time></trkpt>
        <trkpt lat="29.5650723" lon="103.4265745"><ele>635.93</ele><time>2026-02-10T10:26:59.000Z</time></trkpt>
        <trkpt lat="29.5650632" lon="103.4265403"><ele>633.5</ele><time>2026-02-10T10:27:02.000Z</time></trkpt>
        <trkpt lat="29.5650534" lon="103.4265068"><ele>630.3</ele><time>2026-02-10T10:27:07.000Z</time></trkpt>
        <trkpt lat="29.5649996" lon="103.4265468"><ele>629.08</ele><time>2026-02-10T10:27:27.000Z</time></trkpt>
        <trkpt lat="29.5649574" lon="103.4266471"><ele>626.84</ele><time>2026-02-10T10:27:45.000Z</time></trkpt>
        <trkpt lat="29.5651404" lon="103.4267459"><ele>625.82</ele><time>2026-02-10T10:27:58.000Z</time></trkpt>
        <trkpt lat="29.5653741" lon="103.4267483"><ele>620.75</ele><time>2026-02-10T10:28:04.000Z</time></trkpt>
        <trkpt lat="29.5650237" lon="103.4267809"><ele>617.98</ele><time>2026-02-10T10:28:13.000Z</time></trkpt>
        <trkpt lat="29.5649543" lon="103.4268487"><ele>617.2</ele><time>2026-02-10T10:28:18.000Z</time></trkpt>
        <trkpt lat="29.5649069" lon="103.4267974"><ele>617</ele><time>2026-02-10T10:28:23.000Z</time></trkpt>
        <trkpt lat="29.5649343" lon="103.4268526"><ele>613.69</ele><time>2026-02-10T10:29:09.000Z</time></trkpt>
        <trkpt lat="29.5649701" lon="103.4268922"><ele>610.97</ele><time>2026-02-10T10:29:16.000Z</time></trkpt>
        <trkpt lat="29.5650422" lon="103.4269514"><ele>609.08</ele><time>2026-02-10T10:29:32.000Z</time></trkpt>
        <trkpt lat="29.5651386" lon="103.4270241"><ele>608.19</ele><time>2026-02-10T10:29:41.000Z</time></trkpt>
        <trkpt lat="29.5652333" lon="103.4270939"><ele>607.42</ele><time>2026-02-10T10:29:51.000Z</time></trkpt>
        <trkpt lat="29.5653074" lon="103.4271877"><ele>606.33</ele><time>2026-02-10T10:29:59.000Z</time></trkpt>
        <trkpt lat="29.5653516" lon="103.4272932"><ele>607</ele><time>2026-02-10T10:30:05.000Z</time></trkpt>
        <trkpt lat="29.565384" lon="103.427416"><ele>606.76</ele><time>2026-02-10T10:30:11.000Z</time></trkpt>
        <trkpt lat="29.5654229" lon="103.4275318"><ele>606.31</ele><time>2026-02-10T10:30:19.000Z</time></trkpt>
        <trkpt lat="29.5654429" lon="103.4276428"><ele>605.24</ele><time>2026-02-10T10:30:31.000Z</time></trkpt>
        <trkpt lat="29.5654668" lon="103.4277491"><ele>602.67</ele><time>2026-02-10T10:30:41.000Z</time></trkpt>
        <trkpt lat="29.5654756" lon="103.4278771"><ele>599.45</ele><time>2026-02-10T10:30:51.000Z</time></trkpt>
        <trkpt lat="29.5654216" lon="103.4279749"><ele>596.67</ele><time>2026-02-10T10:30:59.000Z</time></trkpt>
        <trkpt lat="29.5653587" lon="103.4280617"><ele>595.18</ele><time>2026-02-10T10:31:45.000Z</time></trkpt>
        <trkpt lat="29.5652868" lon="103.4281445"><ele>596.15</ele><time>2026-02-10T10:31:57.000Z</time></trkpt>
        <trkpt lat="29.5652047" lon="103.4282168"><ele>596.28</ele><time>2026-02-10T10:32:05.000Z</time></trkpt>
        <trkpt lat="29.5651239" lon="103.4282991"><ele>592.77</ele><time>2026-02-10T10:32:13.000Z</time></trkpt>
        <trkpt lat="29.5650343" lon="103.4283712"><ele>590.76</ele><time>2026-02-10T10:32:21.000Z</time></trkpt>
        <trkpt lat="29.5649315" lon="103.4284107"><ele>589.09</ele><time>2026-02-10T10:32:29.000Z</time></trkpt>
        <trkpt lat="29.5648457" lon="103.4284909"><ele>587.49</ele><time>2026-02-10T10:32:37.000Z</time></trkpt>
        <trkpt lat="29.5648174" lon="103.4285935"><ele>587.19</ele><time>2026-02-10T10:32:45.000Z</time></trkpt>
        <trkpt lat="29.5648174" lon="103.4287064"><ele>586.85</ele><time>2026-02-10T10:32:53.000Z</time></trkpt>
        <trkpt lat="29.5648445" lon="103.4288222"><ele>586.31</ele><time>2026-02-10T10:32:59.000Z</time></trkpt>
        <trkpt lat="29.5648731" lon="103.428948"><ele>585.76</ele><time>2026-02-10T10:33:07.000Z</time></trkpt>
        <trkpt lat="29.5648888" lon="103.4290771"><ele>585.25</ele><time>2026-02-10T10:33:17.000Z</time></trkpt>
        <trkpt lat="29.5649267" lon="103.4292026"><ele>584.71</ele><time>2026-02-10T10:33:27.000Z</time></trkpt>
        <trkpt lat="29.5649433" lon="103.4293358"><ele>583.98</ele><time>2026-02-10T10:33:33.000Z</time></trkpt>
        <trkpt lat="29.5649937" lon="103.4294484"><ele>583.55</ele><time>2026-02-10T10:33:41.000Z</time></trkpt>
        <trkpt lat="29.5650533" lon="103.4295587"><ele>583.2</ele><time>2026-02-10T10:33:49.000Z</time></trkpt>
        <trkpt lat="29.5651143" lon="103.4296477"><ele>583</ele><time>2026-02-10T10:33:57.000Z</time></trkpt>
        <trkpt lat="29.5651593" lon="103.4297417"><ele>582.68</ele><time>2026-02-10T10:34:03.000Z</time></trkpt>
        <trkpt lat="29.5652118" lon="103.4298424"><ele>582.28</ele><time>2026-02-10T10:34:11.000Z</time></trkpt>
        <trkpt lat="29.565258" lon="103.429959"><ele>581.46</ele><time>2026-02-10T10:34:21.000Z</time></trkpt>
        <trkpt lat="29.5652944" lon="103.430085"><ele>580.85</ele><time>2026-02-10T10:34:29.000Z</time></trkpt>
        <trkpt lat="29.5653056" lon="103.4302131"><ele>580.33</ele><time>2026-02-10T10:34:37.000Z</time></trkpt>
        <trkpt lat="29.565307" lon="103.4303452"><ele>580.18</ele><time>2026-02-10T10:34:45.000Z</time></trkpt>
        <trkpt lat="29.5653112" lon="103.4304575"><ele>580.01</ele><time>2026-02-10T10:34:51.000Z</time></trkpt>
        <trkpt lat="29.5653398" lon="103.4305698"><ele>579.2</ele><time>2026-02-10T10:34:59.000Z</time></trkpt>
        <trkpt lat="29.5653504" lon="103.4306784"><ele>578.6</ele><time>2026-02-10T10:35:05.000Z</time></trkpt>
        <trkpt lat="29.565363" lon="103.4307995"><ele>577.93</ele><time>2026-02-10T10:35:13.000Z</time></trkpt>
        <trkpt lat="29.5654299" lon="103.4309036"><ele>576.85</ele><time>2026-02-10T10:35:21.000Z</time></trkpt>
        <trkpt lat="29.5655109" lon="103.4310093"><ele>575.93</ele><time>2026-02-10T10:35:27.000Z</time></trkpt>
        <trkpt lat="29.5655408" lon="103.4311348"><ele>574.76</ele><time>2026-02-10T10:35:35.000Z</time></trkpt>
        <trkpt lat="29.5655124" lon="103.4312406"><ele>573.78</ele><time>2026-02-10T10:35:43.000Z</time></trkpt>
        <trkpt lat="29.5654801" lon="103.4313573"><ele>573.3</ele><time>2026-02-10T10:35:51.000Z</time></trkpt>
        <trkpt lat="29.5654391" lon="103.4314842"><ele>571.64</ele><time>2026-02-10T10:35:57.000Z</time></trkpt>
        <trkpt lat="29.5654107" lon="103.4315936"><ele>569.47</ele><time>2026-02-10T10:36:05.000Z</time></trkpt>
        <trkpt lat="29.5653827" lon="103.4316994"><ele>568.15</ele><time>2026-02-10T10:36:13.000Z</time></trkpt>
        <trkpt lat="29.5653365" lon="103.431818"><ele>567.33</ele><time>2026-02-10T10:36:21.000Z</time></trkpt>
        <trkpt lat="29.5652942" lon="103.4319261"><ele>566.48</ele><time>2026-02-10T10:36:27.000Z</time></trkpt>
        <trkpt lat="29.5652942" lon="103.4319261"><ele>566.48</ele><time>2026-02-10T10:37:31.000Z</time></trkpt>
        <trkpt lat="29.5653263" lon="103.4320273"><ele>564.73</ele><time>2026-02-10T10:37:40.000Z</time></trkpt>
        <trkpt lat="29.5653263" lon="103.4320273"><ele>564.73</ele><time>2026-02-10T10:37:51.000Z</time></trkpt>
        <trkpt lat="29.5653941" lon="103.4321212"><ele>560.43</ele><time>2026-02-10T10:37:59.000Z</time></trkpt>
        <trkpt lat="29.5654348" lon="103.4322284"><ele>557.21</ele><time>2026-02-10T10:38:09.000Z</time></trkpt>
        <trkpt lat="29.5654601" lon="103.4323492"><ele>554.9</ele><time>2026-02-10T10:38:17.000Z</time></trkpt>
        <trkpt lat="29.5654909" lon="103.4324571"><ele>554.63</ele><time>2026-02-10T10:38:25.000Z</time></trkpt>
        <trkpt lat="29.5655382" lon="103.4325597"><ele>554.51</ele><time>2026-02-10T10:38:33.000Z</time></trkpt>
        <trkpt lat="29.5655805" lon="103.4326605"><ele>554.25</ele><time>2026-02-10T10:38:39.000Z</time></trkpt>
        <trkpt lat="29.5656271" lon="103.4327711"><ele>554.04</ele><time>2026-02-10T10:38:47.000Z</time></trkpt>
        <trkpt lat="29.5656635" lon="103.4328848"><ele>553.27</ele><time>2026-02-10T10:38:55.000Z</time></trkpt>
        <trkpt lat="29.5656901" lon="103.4329965"><ele>552.48</ele><time>2026-02-10T10:39:03.000Z</time></trkpt>
        <trkpt lat="29.565709" lon="103.4331175"><ele>551.7</ele><time>2026-02-10T10:39:15.000Z</time></trkpt>
        <trkpt lat="29.5657179" lon="103.433227"><ele>551.15</ele><time>2026-02-10T10:39:23.000Z</time></trkpt>
        <trkpt lat="29.5657529" lon="103.4333294"><ele>551.55</ele><time>2026-02-10T10:39:29.000Z</time></trkpt>
        <trkpt lat="29.5657433" lon="103.4334456"><ele>551.61</ele><time>2026-02-10T10:39:41.000Z</time></trkpt>
        <trkpt lat="29.5657229" lon="103.433567"><ele>549.81</ele><time>2026-02-10T10:39:49.000Z</time></trkpt>
        <trkpt lat="29.5657287" lon="103.4336769"><ele>549.8</ele><time>2026-02-10T10:39:55.000Z</time></trkpt>
        <trkpt lat="29.5657318" lon="103.4337947"><ele>548.92</ele><time>2026-02-10T10:40:03.000Z</time></trkpt>
        <trkpt lat="29.5657068" lon="103.4339078"><ele>547.18</ele><time>2026-02-10T10:40:12.000Z</time></trkpt>
        <trkpt lat="29.5657209" lon="103.4340178"><ele>545.79</ele><time>2026-02-10T10:40:20.000Z</time></trkpt>
        <trkpt lat="29.5657272" lon="103.4341334"><ele>544.75</ele><time>2026-02-10T10:40:26.000Z</time></trkpt>
        <trkpt lat="29.5657479" lon="103.4342554"><ele>544.35</ele><time>2026-02-10T10:40:36.000Z</time></trkpt>
        <trkpt lat="29.5657053" lon="103.4343416"><ele>544.29</ele><time>2026-02-10T10:40:48.000Z</time></trkpt>
        <trkpt lat="29.5656678" lon="103.4343623"><ele>543.98</ele><time>2026-02-10T10:40:58.000Z</time></trkpt>
        <trkpt lat="29.5655978" lon="103.4344059"><ele>542.23</ele><time>2026-02-10T10:41:07.000Z</time></trkpt>
        <trkpt lat="29.5655508" lon="103.4344952"><ele>539.87</ele><time>2026-02-10T10:41:13.000Z</time></trkpt>
        <trkpt lat="29.5655382" lon="103.4346258"><ele>537.65</ele><time>2026-02-10T10:41:25.000Z</time></trkpt>
        <trkpt lat="29.5655555" lon="103.4347529"><ele>535.28</ele><time>2026-02-10T10:41:42.000Z</time></trkpt>
        <trkpt lat="29.5656275" lon="103.4348643"><ele>534.33</ele><time>2026-02-10T10:41:52.000Z</time></trkpt>
        <trkpt lat="29.5657227" lon="103.4349502"><ele>532.58</ele><time>2026-02-10T10:42:09.000Z</time></trkpt>
        <trkpt lat="29.5658169" lon="103.4350087"><ele>530.54</ele><time>2026-02-10T10:42:19.000Z</time></trkpt>
        <trkpt lat="29.5658169" lon="103.4350087"><ele>530.54</ele><time>2026-02-10T10:42:39.000Z</time></trkpt>
        <trkpt lat="29.5658938" lon="103.435074"><ele>528.41</ele><time>2026-02-10T10:42:42.000Z</time></trkpt>
        <trkpt lat="29.5658938" lon="103.435074"><ele>528.41</ele><time>2026-02-10T10:42:49.000Z</time></trkpt>
        <trkpt lat="29.5659609" lon="103.435154"><ele>528.37</ele><time>2026-02-10T10:42:59.000Z</time></trkpt>
        <trkpt lat="29.5660162" lon="103.4352589"><ele>526.91</ele><time>2026-02-10T10:43:17.000Z</time></trkpt>
        <trkpt lat="29.5660443" lon="103.4353776"><ele>521.97</ele><time>2026-02-10T10:43:29.000Z</time></trkpt>
        <trkpt lat="29.566063" lon="103.435496"><ele>520.67</ele><time>2026-02-10T10:43:39.000Z</time></trkpt>
        <trkpt lat="29.5660888" lon="103.4356027"><ele>520.28</ele><time>2026-02-10T10:43:49.000Z</time></trkpt>
        <trkpt lat="29.5661193" lon="103.4357038"><ele>519.82</ele><time>2026-02-10T10:43:59.000Z</time></trkpt>
        <trkpt lat="29.5661446" lon="103.4358092"><ele>519.93</ele><time>2026-02-10T10:44:11.000Z</time></trkpt>
        <trkpt lat="29.5661775" lon="103.4359129"><ele>519.52</ele><time>2026-02-10T10:44:23.000Z</time></trkpt>
        <trkpt lat="29.5662105" lon="103.4360182"><ele>519.42</ele><time>2026-02-10T10:44:33.000Z</time></trkpt>
        <trkpt lat="29.5662566" lon="103.4361257"><ele>519.17</ele><time>2026-02-10T10:44:45.000Z</time></trkpt>
        <trkpt lat="29.5663029" lon="103.4362226"><ele>519.5</ele><time>2026-02-10T10:44:55.000Z</time></trkpt>
        <trkpt lat="29.5663432" lon="103.4363181"><ele>518.93</ele><time>2026-02-10T10:45:13.000Z</time></trkpt>
        <trkpt lat="29.5663762" lon="103.4364246"><ele>517.43</ele><time>2026-02-10T10:45:25.000Z</time></trkpt>
        <trkpt lat="29.5664157" lon="103.4365226"><ele>516.19</ele><time>2026-02-10T10:45:37.000Z</time></trkpt>
        <trkpt lat="29.5664582" lon="103.4366227"><ele>515.15</ele><time>2026-02-10T10:45:49.000Z</time></trkpt>
        <trkpt lat="29.5665137" lon="103.436742"><ele>514.3</ele><time>2026-02-10T10:46:06.000Z</time></trkpt>
        <trkpt lat="29.5665137" lon="103.436742"><ele>514.3</ele><time>2026-02-10T10:46:33.000Z</time></trkpt>
        <trkpt lat="29.5665137" lon="103.436742"><ele>514.3</ele><time>2026-02-10T10:46:38.000Z</time></trkpt>
        <trkpt lat="29.5665137" lon="103.436742"><ele>514.3</ele><time>2026-02-10T10:46:51.000Z</time></trkpt>
        <trkpt lat="29.5665137" lon="103.436742"><ele>514.3</ele><time>2026-02-10T10:46:58.000Z</time></trkpt>
        <trkpt lat="29.5665137" lon="103.436742"><ele>514.3</ele><time>2026-02-10T10:47:07.000Z</time></trkpt>
        <trkpt lat="29.5665761" lon="103.4369398"><ele>517.03</ele><time>2026-02-10T10:47:18.000Z</time></trkpt>
        <trkpt lat="29.5665761" lon="103.4369398"><ele>517.03</ele><time>2026-02-10T10:47:21.000Z</time></trkpt>
        <trkpt lat="29.5665718" lon="103.4368718"><ele>518.45</ele><time>2026-02-10T10:47:24.000Z</time></trkpt>
        <trkpt lat="29.5666219" lon="103.4369351"><ele>518.7</ele><time>2026-02-10T10:48:11.000Z</time></trkpt>
        <trkpt lat="29.5666772" lon="103.4370279"><ele>516.59</ele><time>2026-02-10T10:48:21.000Z</time></trkpt>
        <trkpt lat="29.5667061" lon="103.4370951"><ele>516.47</ele><time>2026-02-10T10:48:31.000Z</time></trkpt>
        <trkpt lat="29.5667061" lon="103.4370951"><ele>516.47</ele><time>2026-02-10T10:48:39.000Z</time></trkpt>
        <trkpt lat="29.5667517" lon="103.4371979"><ele>514.87</ele><time>2026-02-10T10:48:48.000Z</time></trkpt>
        <trkpt lat="29.5667517" lon="103.4371979"><ele>514.87</ele><time>2026-02-10T10:49:17.000Z</time></trkpt>
        <trkpt lat="29.5668353" lon="103.4372942"><ele>513.56</ele><time>2026-02-10T10:49:27.000Z</time></trkpt>
        <trkpt lat="29.566902" lon="103.4373864"><ele>512.81</ele><time>2026-02-10T10:49:41.000Z</time></trkpt>
        <trkpt lat="29.5669563" lon="103.4374755"><ele>511.94</ele><time>2026-02-10T10:49:57.000Z</time></trkpt>
        <trkpt lat="29.5670094" lon="103.4375876"><ele>511.3</ele><time>2026-02-10T10:50:11.000Z</time></trkpt>
        <trkpt lat="29.5670094" lon="103.4375876"><ele>511.3</ele><time>2026-02-10T10:50:35.000Z</time></trkpt>
        <trkpt lat="29.5670625" lon="103.4376821"><ele>510.45</ele><time>2026-02-10T10:50:36.000Z</time></trkpt>
        <trkpt lat="29.5670625" lon="103.4376821"><ele>510.45</ele><time>2026-02-10T10:50:40.000Z</time></trkpt>
        <trkpt lat="29.5671211" lon="103.437765"><ele>506.13</ele><time>2026-02-10T10:50:51.000Z</time></trkpt>
        <trkpt lat="29.5671753" lon="103.4378559"><ele>504.08</ele><time>2026-02-10T10:50:59.000Z</time></trkpt>
        <trkpt lat="29.5672275" lon="103.4379511"><ele>503.07</ele><time>2026-02-10T10:51:07.000Z</time></trkpt>
        <trkpt lat="29.5672731" lon="103.4380484"><ele>502.26</ele><time>2026-02-10T10:51:25.000Z</time></trkpt>
        <trkpt lat="29.5673355" lon="103.4381365"><ele>503.01</ele><time>2026-02-10T10:51:33.000Z</time></trkpt>
        <trkpt lat="29.5673902" lon="103.438232"><ele>502.92</ele><time>2026-02-10T10:51:43.000Z</time></trkpt>
        <trkpt lat="29.5674503" lon="103.4383313"><ele>502.78</ele><time>2026-02-10T10:51:55.000Z</time></trkpt>
        <trkpt lat="29.5675083" lon="103.4384209"><ele>503.35</ele><time>2026-02-10T10:52:03.000Z</time></trkpt>
        <trkpt lat="29.5675909" lon="103.43849"><ele>503.42</ele><time>2026-02-10T10:52:13.000Z</time></trkpt>
        <trkpt lat="29.5676669" lon="103.4385695"><ele>503.6</ele><time>2026-02-10T10:52:23.000Z</time></trkpt>
        <trkpt lat="29.5677333" lon="103.4386576"><ele>502.52</ele><time>2026-02-10T10:52:37.000Z</time></trkpt>
        <trkpt lat="29.5677889" lon="103.438745"><ele>500.96</ele><time>2026-02-10T10:52:47.000Z</time></trkpt>
        <trkpt lat="29.567844" lon="103.4388338"><ele>499.9</ele><time>2026-02-10T10:52:57.000Z</time></trkpt>
        <trkpt lat="29.567909" lon="103.438917"><ele>499.71</ele><time>2026-02-10T10:53:05.000Z</time></trkpt>
        <trkpt lat="29.56798" lon="103.4390103"><ele>499.78</ele><time>2026-02-10T10:53:15.000Z</time></trkpt>
        <trkpt lat="29.5680411" lon="103.4390974"><ele>499.31</ele><time>2026-02-10T10:53:23.000Z</time></trkpt>
        <trkpt lat="29.5681139" lon="103.4391852"><ele>498.77</ele><time>2026-02-10T10:53:33.000Z</time></trkpt>
        <trkpt lat="29.5681878" lon="103.4392574"><ele>498.4</ele><time>2026-02-10T10:53:41.000Z</time></trkpt>
        <trkpt lat="29.568265" lon="103.4393161"><ele>498.25</ele><time>2026-02-10T10:53:49.000Z</time></trkpt>
        <trkpt lat="29.5683446" lon="103.4393925"><ele>498.04</ele><time>2026-02-10T10:53:59.000Z</time></trkpt>
        <trkpt lat="29.568423" lon="103.4394682"><ele>497.61</ele><time>2026-02-10T10:54:10.000Z</time></trkpt>
        <trkpt lat="29.5684912" lon="103.4395439"><ele>496.67</ele><time>2026-02-10T10:54:19.000Z</time></trkpt>
        <trkpt lat="29.5685474" lon="103.4396314"><ele>496.14</ele><time>2026-02-10T10:54:27.000Z</time></trkpt>
        <trkpt lat="29.5686028" lon="103.4397154"><ele>495.93</ele><time>2026-02-10T10:54:35.000Z</time></trkpt>
        <trkpt lat="29.568667" lon="103.4398029"><ele>495.43</ele><time>2026-02-10T10:54:45.000Z</time></trkpt>
        <trkpt lat="29.5687229" lon="103.4398921"><ele>495.38</ele><time>2026-02-10T10:54:53.000Z</time></trkpt>
        <trkpt lat="29.5687896" lon="103.4399834"><ele>494.98</ele><time>2026-02-10T10:55:03.000Z</time></trkpt>
        <trkpt lat="29.5688577" lon="103.4400858"><ele>494.3</ele><time>2026-02-10T10:55:12.000Z</time></trkpt>
        <trkpt lat="29.5689265" lon="103.4401818"><ele>493.63</ele><time>2026-02-10T10:55:22.000Z</time></trkpt>
        <trkpt lat="29.5689731" lon="103.4402897"><ele>493.15</ele><time>2026-02-10T10:55:35.000Z</time></trkpt>
        <trkpt lat="29.5689901" lon="103.4404139"><ele>492.18</ele><time>2026-02-10T10:55:45.000Z</time></trkpt>
        <trkpt lat="29.5690008" lon="103.440541"><ele>490.82</ele><time>2026-02-10T10:55:53.000Z</time></trkpt>
        <trkpt lat="29.5690091" lon="103.4406606"><ele>489.58</ele><time>2026-02-10T10:56:01.000Z</time></trkpt>
        <trkpt lat="29.5690424" lon="103.4407724"><ele>488.52</ele><time>2026-02-10T10:56:11.000Z</time></trkpt>
        <trkpt lat="29.5690875" lon="103.440911"><ele>488.16</ele><time>2026-02-10T10:56:22.000Z</time></trkpt>
        <trkpt lat="29.5690875" lon="103.440911"><ele>488.16</ele><time>2026-02-10T10:56:30.000Z</time></trkpt>
      </trkseg>
  </trk>
</gpx>